<?xml version='1.0' encoding='UTF-8'?><gpx version="1.1" creator="JPX - https://github.com/jenetics/jpx" xmlns="http://www.topografix.com/GPX/1/1"><trk><trkseg><trkpt lat="45.357075" lon="10.9262433"><ele>44.0</ele><time>2026-05-03T06:47:19.103Z</time></trkpt><trkpt lat="45.3570417" lon="10.92608"><ele>44.0</ele><time>2026-05-03T06:47:21.104Z</time></trkpt><trkpt lat="45.3570567" lon="10.9259867"><ele>44.0</ele><time>2026-05-03T06:47:22.104Z</time></trkpt><trkpt lat="45.3570817" lon="10.9258783"><ele>44.0</ele><time>2026-05-03T06:47:23.104Z</time></trkpt><trkpt lat="45.3571083" lon="10.9257567"><ele>44.0</ele><time>2026-05-03T06:47:24.104Z</time></trkpt><trkpt lat="45.3571383" lon="10.9256317"><ele>44.0</ele><time>2026-05-03T06:47:25.104Z</time></trkpt><trkpt lat="45.357165" lon="10.9254967"><ele>44.0</ele><time>2026-05-03T06:47:26.104Z</time></trkpt><trkpt lat="45.357195" lon="10.9253583"><ele>44.0</ele><time>2026-05-03T06:47:27.103Z</time></trkpt><trkpt lat="45.3572233" lon="10.9252183"><ele>44.0</ele><time>2026-05-03T06:47:28.104Z</time></trkpt><trkpt lat="45.357255" lon="10.9250667"><ele>44.0</ele><time>2026-05-03T06:47:29.104Z</time></trkpt><trkpt lat="45.3572867" lon="10.9249183"><ele>44.0</ele><time>2026-05-03T06:47:30.104Z</time></trkpt><trkpt lat="45.357305" lon="10.9247583"><ele>44.0</ele><time>2026-05-03T06:47:31.103Z</time></trkpt><trkpt lat="45.357315" lon="10.924585"><ele>44.0</ele><time>2026-05-03T06:47:32.104Z</time></trkpt><trkpt lat="45.3573033" lon="10.9244017"><ele>44.0</ele><time>2026-05-03T06:47:33.103Z</time></trkpt><trkpt lat="45.3572867" lon="10.9242267"><ele>44.0</ele><time>2026-05-03T06:47:34.104Z</time></trkpt><trkpt lat="45.3572483" lon="10.9240483"><ele>43.75</ele><time>2026-05-03T06:47:35.104Z</time></trkpt><trkpt lat="45.3571867" lon="10.9238867"><ele>43.5</ele><time>2026-05-03T06:47:36.103Z</time></trkpt><trkpt lat="45.3571" lon="10.923735"><ele>43.25</ele><time>2026-05-03T06:47:37.103Z</time></trkpt><trkpt lat="45.3569983" lon="10.9235933"><ele>43.0</ele><time>2026-05-03T06:47:38.104Z</time></trkpt><trkpt lat="45.3568883" lon="10.9234617"><ele>43.5</ele><time>2026-05-03T06:47:39.104Z</time></trkpt><trkpt lat="45.356775" lon="10.9233317"><ele>44.0</ele><time>2026-05-03T06:47:40.103Z</time></trkpt><trkpt lat="45.3566567" lon="10.9231967"><ele>44.5</ele><time>2026-05-03T06:47:41.104Z</time></trkpt><trkpt lat="45.3565383" lon="10.9230667"><ele>45.0</ele><time>2026-05-03T06:47:42.103Z</time></trkpt><trkpt lat="45.3564117" lon="10.9229433"><ele>44.666666666666664</ele><time>2026-05-03T06:47:43.104Z</time></trkpt><trkpt lat="45.35628" lon="10.9228183"><ele>44.33333333333333</ele><time>2026-05-03T06:47:44.104Z</time></trkpt><trkpt lat="45.3561517" lon="10.9226867"><ele>44.0</ele><time>2026-05-03T06:47:45.104Z</time></trkpt><trkpt lat="45.3560233" lon="10.9225583"><ele>43.666666666666664</ele><time>2026-05-03T06:47:46.103Z</time></trkpt><trkpt lat="45.355895" lon="10.92244"><ele>43.333333333333336</ele><time>2026-05-03T06:47:47.104Z</time></trkpt><trkpt lat="45.3557617" lon="10.9223167"><ele>43.0</ele><time>2026-05-03T06:47:48.104Z</time></trkpt><trkpt lat="45.3556317" lon="10.9221917"><ele>43.333333333333336</ele><time>2026-05-03T06:47:49.104Z</time></trkpt><trkpt lat="45.355505" lon="10.9220533"><ele>43.666666666666664</ele><time>2026-05-03T06:47:50.104Z</time></trkpt><trkpt lat="45.3553833" lon="10.9219133"><ele>44.0</ele><time>2026-05-03T06:47:51.103Z</time></trkpt><trkpt lat="45.355265" lon="10.9217617"><ele>44.0</ele><time>2026-05-03T06:47:52.104Z</time></trkpt><trkpt lat="45.3551633" lon="10.92159"><ele>44.0</ele><time>2026-05-03T06:47:53.103Z</time></trkpt><trkpt lat="45.3550717" lon="10.9214167"><ele>44.0</ele><time>2026-05-03T06:47:54.104Z</time></trkpt><trkpt lat="45.355005" lon="10.9212267"><ele>44.0</ele><time>2026-05-03T06:47:55.104Z</time></trkpt><trkpt lat="45.3549583" lon="10.921025"><ele>44.0</ele><time>2026-05-03T06:47:56.104Z</time></trkpt><trkpt lat="45.3549283" lon="10.9208167"><ele>44.0</ele><time>2026-05-03T06:47:57.104Z</time></trkpt><trkpt lat="45.3549217" lon="10.920605"><ele>44.0</ele><time>2026-05-03T06:47:58.103Z</time></trkpt><trkpt lat="45.3549183" lon="10.9203967"><ele>44.666666666666664</ele><time>2026-05-03T06:47:59.104Z</time></trkpt><trkpt lat="45.3549217" lon="10.9201783"><ele>45.333333333333336</ele><time>2026-05-03T06:48:00.104Z</time></trkpt><trkpt lat="45.354925" lon="10.9199583"><ele>46.0</ele><time>2026-05-03T06:48:01.104Z</time></trkpt><trkpt lat="45.35493" lon="10.919735"><ele>46.0</ele><time>2026-05-03T06:48:02.104Z</time></trkpt><trkpt lat="45.35494" lon="10.919505"><ele>46.0</ele><time>2026-05-03T06:48:03.104Z</time></trkpt><trkpt lat="45.3549383" lon="10.9192717"><ele>46.0</ele><time>2026-05-03T06:48:04.104Z</time></trkpt><trkpt lat="45.3549483" lon="10.91904"><ele>45.66666666666667</ele><time>2026-05-03T06:48:05.103Z</time></trkpt><trkpt lat="45.3549567" lon="10.9187983"><ele>45.333333333333336</ele><time>2026-05-03T06:48:06.103Z</time></trkpt><trkpt lat="45.354965" lon="10.918555"><ele>45.0</ele><time>2026-05-03T06:48:07.104Z</time></trkpt><trkpt lat="45.3549683" lon="10.91831"><ele>45.0</ele><time>2026-05-03T06:48:08.104Z</time></trkpt><trkpt lat="45.354975" lon="10.91807"><ele>45.0</ele><time>2026-05-03T06:48:09.104Z</time></trkpt><trkpt lat="45.35498" lon="10.9178267"><ele>45.0</ele><time>2026-05-03T06:48:10.104Z</time></trkpt><trkpt lat="45.354985" lon="10.9175867"><ele>44.666666666666664</ele><time>2026-05-03T06:48:11.104Z</time></trkpt><trkpt lat="45.3549933" lon="10.917345"><ele>44.33333333333333</ele><time>2026-05-03T06:48:12.104Z</time></trkpt><trkpt lat="45.3550083" lon="10.9171117"><ele>44.0</ele><time>2026-05-03T06:48:13.104Z</time></trkpt><trkpt lat="45.3550317" lon="10.9168783"><ele>43.666666666666664</ele><time>2026-05-03T06:48:14.104Z</time></trkpt><trkpt lat="45.355055" lon="10.91665"><ele>43.333333333333336</ele><time>2026-05-03T06:48:15.104Z</time></trkpt><trkpt lat="45.3550833" lon="10.916415"><ele>43.0</ele><time>2026-05-03T06:48:16.103Z</time></trkpt><trkpt lat="45.355105" lon="10.9161767"><ele>43.0</ele><time>2026-05-03T06:48:17.104Z</time></trkpt><trkpt lat="45.3551233" lon="10.91594"><ele>43.0</ele><time>2026-05-03T06:48:18.103Z</time></trkpt><trkpt lat="45.3551267" lon="10.9156983"><ele>43.0</ele><time>2026-05-03T06:48:19.104Z</time></trkpt><trkpt lat="45.355125" lon="10.9154617"><ele>43.333333333333336</ele><time>2026-05-03T06:48:20.104Z</time></trkpt><trkpt lat="45.355105" lon="10.9152367"><ele>43.666666666666664</ele><time>2026-05-03T06:48:21.104Z</time></trkpt><trkpt lat="45.3550617" lon="10.915015"><ele>44.0</ele><time>2026-05-03T06:48:22.103Z</time></trkpt><trkpt lat="45.3549983" lon="10.914805"><ele>44.0</ele><time>2026-05-03T06:48:23.104Z</time></trkpt><trkpt lat="45.35493" lon="10.9146"><ele>44.0</ele><time>2026-05-03T06:48:24.104Z</time></trkpt><trkpt lat="45.3548467" lon="10.9143983"><ele>44.0</ele><time>2026-05-03T06:48:25.104Z</time></trkpt><trkpt lat="45.354755" lon="10.914205"><ele>44.33333333333333</ele><time>2026-05-03T06:48:26.104Z</time></trkpt><trkpt lat="45.3546533" lon="10.9140233"><ele>44.666666666666664</ele><time>2026-05-03T06:48:27.104Z</time></trkpt><trkpt lat="45.3545533" lon="10.9138433"><ele>45.0</ele><time>2026-05-03T06:48:28.104Z</time></trkpt><trkpt lat="45.3544483" lon="10.91367"><ele>45.0</ele><time>2026-05-03T06:48:29.104Z</time></trkpt><trkpt lat="45.3543417" lon="10.913495"><ele>45.0</ele><time>2026-05-03T06:48:30.104Z</time></trkpt><trkpt lat="45.3542333" lon="10.9133217"><ele>45.0</ele><time>2026-05-03T06:48:31.104Z</time></trkpt><trkpt lat="45.3541233" lon="10.91315"><ele>45.0</ele><time>2026-05-03T06:48:32.104Z</time></trkpt><trkpt lat="45.354025" lon="10.9129817"><ele>45.0</ele><time>2026-05-03T06:48:33.104Z</time></trkpt><trkpt lat="45.353925" lon="10.9128167"><ele>45.0</ele><time>2026-05-03T06:48:34.104Z</time></trkpt><trkpt lat="45.3538333" lon="10.9126617"><ele>45.0</ele><time>2026-05-03T06:48:35.103Z</time></trkpt><trkpt lat="45.353745" lon="10.91252"><ele>44.8</ele><time>2026-05-03T06:48:36.104Z</time></trkpt><trkpt lat="45.3536683" lon="10.9123917"><ele>44.6</ele><time>2026-05-03T06:48:37.103Z</time></trkpt><trkpt lat="45.3535983" lon="10.9122767"><ele>44.400000000000006</ele><time>2026-05-03T06:48:38.103Z</time></trkpt><trkpt lat="45.3535383" lon="10.9121733"><ele>44.2</ele><time>2026-05-03T06:48:39.104Z</time></trkpt><trkpt lat="45.353485" lon="10.912085"><ele>44.0</ele><time>2026-05-03T06:48:40.104Z</time></trkpt><trkpt lat="45.353445" lon="10.912005"><ele>44.0</ele><time>2026-05-03T06:48:41.104Z</time></trkpt><trkpt lat="45.3533917" lon="10.9119317"><ele>44.0</ele><time>2026-05-03T06:48:42.103Z</time></trkpt><trkpt lat="45.3533267" lon="10.9118633"><ele>44.0</ele><time>2026-05-03T06:48:43.104Z</time></trkpt><trkpt lat="45.3532533" lon="10.911795"><ele>44.0</ele><time>2026-05-03T06:48:44.104Z</time></trkpt><trkpt lat="45.3531733" lon="10.9117267"><ele>44.0</ele><time>2026-05-03T06:48:45.104Z</time></trkpt><trkpt lat="45.3530833" lon="10.9116633"><ele>44.0</ele><time>2026-05-03T06:48:46.104Z</time></trkpt><trkpt lat="45.3529917" lon="10.9116017"><ele>44.2</ele><time>2026-05-03T06:48:47.103Z</time></trkpt><trkpt lat="45.3529033" lon="10.91154"><ele>44.400000000000006</ele><time>2026-05-03T06:48:48.104Z</time></trkpt><trkpt lat="45.3528117" lon="10.9114667"><ele>44.6</ele><time>2026-05-03T06:48:49.104Z</time></trkpt><trkpt lat="45.352715" lon="10.9114"><ele>44.8</ele><time>2026-05-03T06:48:50.103Z</time></trkpt><trkpt lat="45.352615" lon="10.9113417"><ele>45.0</ele><time>2026-05-03T06:48:51.104Z</time></trkpt><trkpt lat="45.3525183" lon="10.91128"><ele>45.0</ele><time>2026-05-03T06:48:52.104Z</time></trkpt><trkpt lat="45.352415" lon="10.9112317"><ele>45.0</ele><time>2026-05-03T06:48:53.104Z</time></trkpt><trkpt lat="45.3523083" lon="10.9111767"><ele>45.0</ele><time>2026-05-03T06:48:54.104Z</time></trkpt><trkpt lat="45.3521917" lon="10.9111183"><ele>45.0</ele><time>2026-05-03T06:48:55.104Z</time></trkpt><trkpt lat="45.3520767" lon="10.9110567"><ele>44.8</ele><time>2026-05-03T06:48:56.104Z</time></trkpt><trkpt lat="45.3519767" lon="10.9110167"><ele>44.6</ele><time>2026-05-03T06:48:57.104Z</time></trkpt><trkpt lat="45.35187" lon="10.9109767"><ele>44.400000000000006</ele><time>2026-05-03T06:48:58.104Z</time></trkpt><trkpt lat="45.3517633" lon="10.9109283"><ele>44.2</ele><time>2026-05-03T06:48:59.104Z</time></trkpt><trkpt lat="45.351665" lon="10.910865"><ele>44.0</ele><time>2026-05-03T06:49:00.104Z</time></trkpt><trkpt lat="45.35156" lon="10.9107983"><ele>43.800000000000004</ele><time>2026-05-03T06:49:01.105Z</time></trkpt><trkpt lat="45.3514683" lon="10.9107383"><ele>43.6</ele><time>2026-05-03T06:49:02.105Z</time></trkpt><trkpt lat="45.35138" lon="10.9106767"><ele>43.4</ele><time>2026-05-03T06:49:03.105Z</time></trkpt><trkpt lat="45.35129" lon="10.9106033"><ele>43.2</ele><time>2026-05-03T06:49:04.104Z</time></trkpt><trkpt lat="45.3511883" lon="10.9105183"><ele>43.0</ele><time>2026-05-03T06:49:05.105Z</time></trkpt><trkpt lat="45.3510917" lon="10.9104183"><ele>42.75</ele><time>2026-05-03T06:49:06.105Z</time></trkpt><trkpt lat="45.3510067" lon="10.9103067"><ele>42.5</ele><time>2026-05-03T06:49:07.104Z</time></trkpt><trkpt lat="45.3509217" lon="10.9101917"><ele>42.25</ele><time>2026-05-03T06:49:08.105Z</time></trkpt><trkpt lat="45.35084" lon="10.9100617"><ele>42.0</ele><time>2026-05-03T06:49:09.105Z</time></trkpt><trkpt lat="45.35076" lon="10.9099517"><ele>42.2</ele><time>2026-05-03T06:49:10.104Z</time></trkpt><trkpt lat="45.3506667" lon="10.9098517"><ele>42.400000000000006</ele><time>2026-05-03T06:49:11.105Z</time></trkpt><trkpt lat="45.3505733" lon="10.9097717"><ele>42.599999999999994</ele><time>2026-05-03T06:49:12.105Z</time></trkpt><trkpt lat="45.3504767" lon="10.9096967"><ele>42.8</ele><time>2026-05-03T06:49:13.105Z</time></trkpt><trkpt lat="45.3503733" lon="10.909635"><ele>43.0</ele><time>2026-05-03T06:49:14.105Z</time></trkpt><trkpt lat="45.35027" lon="10.9095767"><ele>43.0</ele><time>2026-05-03T06:49:15.105Z</time></trkpt><trkpt lat="45.350165" lon="10.9095"><ele>43.0</ele><time>2026-05-03T06:49:16.104Z</time></trkpt><trkpt lat="45.350055" lon="10.9094333"><ele>43.0</ele><time>2026-05-03T06:49:17.105Z</time></trkpt><trkpt lat="45.34995" lon="10.9093583"><ele>43.0</ele><time>2026-05-03T06:49:18.105Z</time></trkpt><trkpt lat="45.349845" lon="10.9092667"><ele>43.25</ele><time>2026-05-03T06:49:19.105Z</time></trkpt><trkpt lat="45.349735" lon="10.909185"><ele>43.5</ele><time>2026-05-03T06:49:20.104Z</time></trkpt><trkpt lat="45.3496217" lon="10.9091033"><ele>43.75</ele><time>2026-05-03T06:49:21.105Z</time></trkpt><trkpt lat="45.34952" lon="10.909035"><ele>44.0</ele><time>2026-05-03T06:49:22.105Z</time></trkpt><trkpt lat="45.3494183" lon="10.90896"><ele>43.5</ele><time>2026-05-03T06:49:23.105Z</time></trkpt><trkpt lat="45.3492983" lon="10.9088817"><ele>43.0</ele><time>2026-05-03T06:49:24.104Z</time></trkpt><trkpt lat="45.34918" lon="10.9087967"><ele>42.5</ele><time>2026-05-03T06:49:25.105Z</time></trkpt><trkpt lat="45.3490717" lon="10.9087233"><ele>42.0</ele><time>2026-05-03T06:49:26.105Z</time></trkpt><trkpt lat="45.3489767" lon="10.90865"><ele>42.0</ele><time>2026-05-03T06:49:27.105Z</time></trkpt><trkpt lat="45.3488833" lon="10.9085733"><ele>42.0</ele><time>2026-05-03T06:49:28.104Z</time></trkpt><trkpt lat="45.3488067" lon="10.9085167"><ele>42.0</ele><time>2026-05-03T06:49:29.105Z</time></trkpt><trkpt lat="45.3487333" lon="10.90846"><ele>42.0</ele><time>2026-05-03T06:49:30.105Z</time></trkpt><trkpt lat="45.3486667" lon="10.908415"><ele>42.0</ele><time>2026-05-03T06:49:31.105Z</time></trkpt><trkpt lat="45.3485917" lon="10.9083617"><ele>42.0</ele><time>2026-05-03T06:49:32.105Z</time></trkpt><trkpt lat="45.34851" lon="10.908315"><ele>42.0</ele><time>2026-05-03T06:49:33.105Z</time></trkpt><trkpt lat="45.3484233" lon="10.90826"><ele>42.0</ele><time>2026-05-03T06:49:34.105Z</time></trkpt><trkpt lat="45.3483283" lon="10.9082067"><ele>42.0</ele><time>2026-05-03T06:49:35.105Z</time></trkpt><trkpt lat="45.3482417" lon="10.9081333"><ele>42.0</ele><time>2026-05-03T06:49:36.105Z</time></trkpt><trkpt lat="45.3481433" lon="10.9080633"><ele>42.0</ele><time>2026-05-03T06:49:37.105Z</time></trkpt><trkpt lat="45.348045" lon="10.9079933"><ele>42.0</ele><time>2026-05-03T06:49:38.105Z</time></trkpt><trkpt lat="45.347945" lon="10.9079217"><ele>42.0</ele><time>2026-05-03T06:49:39.104Z</time></trkpt><trkpt lat="45.3478483" lon="10.907855"><ele>42.0</ele><time>2026-05-03T06:49:40.105Z</time></trkpt><trkpt lat="45.3477483" lon="10.9077983"><ele>42.0</ele><time>2026-05-03T06:49:41.105Z</time></trkpt><trkpt lat="45.3476567" lon="10.90775"><ele>42.0</ele><time>2026-05-03T06:49:42.104Z</time></trkpt><trkpt lat="45.3475733" lon="10.907695"><ele>42.0</ele><time>2026-05-03T06:49:43.105Z</time></trkpt><trkpt lat="45.347485" lon="10.907635"><ele>42.0</ele><time>2026-05-03T06:49:44.105Z</time></trkpt><trkpt lat="45.3474" lon="10.907565"><ele>42.0</ele><time>2026-05-03T06:49:45.105Z</time></trkpt><trkpt lat="45.34731" lon="10.907515"><ele>42.0</ele><time>2026-05-03T06:49:46.105Z</time></trkpt><trkpt lat="45.3472233" lon="10.907455"><ele>42.0</ele><time>2026-05-03T06:49:47.105Z</time></trkpt><trkpt lat="45.3471317" lon="10.9073883"><ele>42.0</ele><time>2026-05-03T06:49:48.105Z</time></trkpt><trkpt lat="45.3470517" lon="10.9073333"><ele>42.0</ele><time>2026-05-03T06:49:49.104Z</time></trkpt><trkpt lat="45.3469817" lon="10.90727"><ele>42.0</ele><time>2026-05-03T06:49:50.104Z</time></trkpt><trkpt lat="45.346905" lon="10.9072183"><ele>42.0</ele><time>2026-05-03T06:49:51.105Z</time></trkpt><trkpt lat="45.3468217" lon="10.9071667"><ele>42.0</ele><time>2026-05-03T06:49:52.105Z</time></trkpt><trkpt lat="45.3467283" lon="10.9071083"><ele>42.0</ele><time>2026-05-03T06:49:53.105Z</time></trkpt><trkpt lat="45.34664" lon="10.9070583"><ele>42.0</ele><time>2026-05-03T06:49:54.104Z</time></trkpt><trkpt lat="45.34656" lon="10.907005"><ele>42.0</ele><time>2026-05-03T06:49:55.105Z</time></trkpt><trkpt lat="45.34648" lon="10.9069483"><ele>42.0</ele><time>2026-05-03T06:49:56.104Z</time></trkpt><trkpt lat="45.3463917" lon="10.9068833"><ele>42.0</ele><time>2026-05-03T06:49:57.105Z</time></trkpt><trkpt lat="45.3462967" lon="10.9068133"><ele>41.6</ele><time>2026-05-03T06:49:58.105Z</time></trkpt><trkpt lat="45.3462033" lon="10.9067467"><ele>41.2</ele><time>2026-05-03T06:49:59.105Z</time></trkpt><trkpt lat="45.3461083" lon="10.90668"><ele>40.8</ele><time>2026-05-03T06:50:00.105Z</time></trkpt><trkpt lat="45.3460233" lon="10.9066183"><ele>40.4</ele><time>2026-05-03T06:50:01.105Z</time></trkpt><trkpt lat="45.3459533" lon="10.9065717"><ele>40.0</ele><time>2026-05-03T06:50:02.105Z</time></trkpt><trkpt lat="45.3459" lon="10.9065033"><ele>40.0</ele><time>2026-05-03T06:50:03.105Z</time></trkpt><trkpt lat="45.3458683" lon="10.9064217"><ele>40.0</ele><time>2026-05-03T06:50:04.105Z</time></trkpt><trkpt lat="45.3458567" lon="10.9063317"><ele>40.0</ele><time>2026-05-03T06:50:05.105Z</time></trkpt><trkpt lat="45.345875" lon="10.90624"><ele>40.0</ele><time>2026-05-03T06:50:06.105Z</time></trkpt><trkpt lat="45.3459117" lon="10.90615"><ele>40.0</ele><time>2026-05-03T06:50:07.105Z</time></trkpt><trkpt lat="45.3459517" lon="10.90604"><ele>40.0</ele><time>2026-05-03T06:50:08.105Z</time></trkpt><trkpt lat="45.3459967" lon="10.9059117"><ele>40.4</ele><time>2026-05-03T06:50:09.105Z</time></trkpt><trkpt lat="45.3460367" lon="10.9057717"><ele>40.8</ele><time>2026-05-03T06:50:10.104Z</time></trkpt><trkpt lat="45.3460767" lon="10.9056383"><ele>41.2</ele><time>2026-05-03T06:50:11.104Z</time></trkpt><trkpt lat="45.3461183" lon="10.9055133"><ele>41.6</ele><time>2026-05-03T06:50:12.104Z</time></trkpt><trkpt lat="45.3461533" lon="10.9053867"><ele>42.0</ele><time>2026-05-03T06:50:13.105Z</time></trkpt><trkpt lat="45.3461883" lon="10.9052567"><ele>42.0</ele><time>2026-05-03T06:50:14.105Z</time></trkpt><trkpt lat="45.346225" lon="10.9051183"><ele>42.0</ele><time>2026-05-03T06:50:15.105Z</time></trkpt><trkpt lat="45.3462633" lon="10.9049767"><ele>42.0</ele><time>2026-05-03T06:50:16.105Z</time></trkpt><trkpt lat="45.3463017" lon="10.9048317"><ele>42.0</ele><time>2026-05-03T06:50:17.105Z</time></trkpt><trkpt lat="45.3463417" lon="10.9046933"><ele>42.0</ele><time>2026-05-03T06:50:18.105Z</time></trkpt><trkpt lat="45.34638" lon="10.904555"><ele>42.0</ele><time>2026-05-03T06:50:19.105Z</time></trkpt><trkpt lat="45.3464183" lon="10.9044183"><ele>42.0</ele><time>2026-05-03T06:50:20.104Z</time></trkpt><trkpt lat="45.3464483" lon="10.9042583"><ele>42.0</ele><time>2026-05-03T06:50:21.105Z</time></trkpt><trkpt lat="45.346465" lon="10.9041"><ele>42.0</ele><time>2026-05-03T06:50:22.105Z</time></trkpt><trkpt lat="45.3464617" lon="10.903935"><ele>42.0</ele><time>2026-05-03T06:50:23.105Z</time></trkpt><trkpt lat="45.3464533" lon="10.903785"><ele>42.0</ele><time>2026-05-03T06:50:24.105Z</time></trkpt><trkpt lat="45.34643" lon="10.903655"><ele>42.0</ele><time>2026-05-03T06:50:25.105Z</time></trkpt><trkpt lat="45.3464133" lon="10.9035283"><ele>42.0</ele><time>2026-05-03T06:50:26.105Z</time></trkpt><trkpt lat="45.3464133" lon="10.9034083"><ele>42.0</ele><time>2026-05-03T06:50:27.104Z</time></trkpt><trkpt lat="45.3464183" lon="10.90329"><ele>42.0</ele><time>2026-05-03T06:50:28.105Z</time></trkpt><trkpt lat="45.3464333" lon="10.90316"><ele>42.0</ele><time>2026-05-03T06:50:29.105Z</time></trkpt><trkpt lat="45.346445" lon="10.90301"><ele>42.0</ele><time>2026-05-03T06:50:30.105Z</time></trkpt><trkpt lat="45.3464617" lon="10.9028633"><ele>42.0</ele><time>2026-05-03T06:50:31.105Z</time></trkpt><trkpt lat="45.3464767" lon="10.902715"><ele>42.0</ele><time>2026-05-03T06:50:32.105Z</time></trkpt><trkpt lat="45.3464917" lon="10.9025667"><ele>42.0</ele><time>2026-05-03T06:50:33.105Z</time></trkpt><trkpt lat="45.3465033" lon="10.9024217"><ele>42.0</ele><time>2026-05-03T06:50:34.105Z</time></trkpt><trkpt lat="45.3465067" lon="10.9022767"><ele>42.0</ele><time>2026-05-03T06:50:35.105Z</time></trkpt><trkpt lat="45.346515" lon="10.90214"><ele>42.0</ele><time>2026-05-03T06:50:36.105Z</time></trkpt><trkpt lat="45.346525" lon="10.9019917"><ele>42.0</ele><time>2026-05-03T06:50:37.105Z</time></trkpt><trkpt lat="45.3465333" lon="10.90185"><ele>42.0</ele><time>2026-05-03T06:50:38.104Z</time></trkpt><trkpt lat="45.346545" lon="10.90172"><ele>42.0</ele><time>2026-05-03T06:50:39.105Z</time></trkpt><trkpt lat="45.3465567" lon="10.9015783"><ele>42.0</ele><time>2026-05-03T06:50:40.105Z</time></trkpt><trkpt lat="45.3465583" lon="10.9014283"><ele>42.0</ele><time>2026-05-03T06:50:41.104Z</time></trkpt><trkpt lat="45.3465667" lon="10.9012933"><ele>42.0</ele><time>2026-05-03T06:50:42.105Z</time></trkpt><trkpt lat="45.34658" lon="10.9011633"><ele>42.0</ele><time>2026-05-03T06:50:43.105Z</time></trkpt><trkpt lat="45.346595" lon="10.9010317"><ele>42.0</ele><time>2026-05-03T06:50:44.105Z</time></trkpt><trkpt lat="45.3466117" lon="10.9009033"><ele>41.8</ele><time>2026-05-03T06:50:45.105Z</time></trkpt><trkpt lat="45.3466283" lon="10.9007817"><ele>41.6</ele><time>2026-05-03T06:50:46.105Z</time></trkpt><trkpt lat="45.3466433" lon="10.9006783"><ele>41.4</ele><time>2026-05-03T06:50:47.105Z</time></trkpt><trkpt lat="45.3466583" lon="10.90051"><ele>41.199999999999996</ele><time>2026-05-03T06:50:49.104Z</time></trkpt><trkpt lat="45.3466717" lon="10.9003283"><ele>41.0</ele><time>2026-05-03T06:50:51.105Z</time></trkpt><trkpt lat="45.346685" lon="10.9002217"><ele>40.99999999999999</ele><time>2026-05-03T06:50:52.104Z</time></trkpt><trkpt lat="45.3466917" lon="10.90012"><ele>41.0</ele><time>2026-05-03T06:50:53.105Z</time></trkpt><trkpt lat="45.3466983" lon="10.90002"><ele>41.0</ele><time>2026-05-03T06:50:54.104Z</time></trkpt><trkpt lat="45.3467067" lon="10.8999183"><ele>41.0</ele><time>2026-05-03T06:50:55.104Z</time></trkpt><trkpt lat="45.34672" lon="10.899815"><ele>41.0</ele><time>2026-05-03T06:50:56.104Z</time></trkpt><trkpt lat="45.3467333" lon="10.8997067"><ele>40.99999999999999</ele><time>2026-05-03T06:50:57.104Z</time></trkpt><trkpt lat="45.3467483" lon="10.8995917"><ele>41.0</ele><time>2026-05-03T06:50:58.105Z</time></trkpt><trkpt lat="45.3467567" lon="10.899465"><ele>40.8</ele><time>2026-05-03T06:50:59.105Z</time></trkpt><trkpt lat="45.346765" lon="10.8993367"><ele>40.599999999999994</ele><time>2026-05-03T06:51:00.104Z</time></trkpt><trkpt lat="45.3467717" lon="10.8992133"><ele>40.4</ele><time>2026-05-03T06:51:01.105Z</time></trkpt><trkpt lat="45.3467817" lon="10.89908"><ele>40.2</ele><time>2026-05-03T06:51:02.105Z</time></trkpt><trkpt lat="45.3467917" lon="10.898945"><ele>40.0</ele><time>2026-05-03T06:51:03.104Z</time></trkpt><trkpt lat="45.3468033" lon="10.8988067"><ele>40.0</ele><time>2026-05-03T06:51:04.105Z</time></trkpt><trkpt lat="45.3468117" lon="10.8986817"><ele>40.0</ele><time>2026-05-03T06:51:05.105Z</time></trkpt><trkpt lat="45.3468183" lon="10.8985683"><ele>40.0</ele><time>2026-05-03T06:51:06.105Z</time></trkpt><trkpt lat="45.3468267" lon="10.8984433"><ele>40.0</ele><time>2026-05-03T06:51:07.105Z</time></trkpt><trkpt lat="45.3468383" lon="10.8983117"><ele>40.0</ele><time>2026-05-03T06:51:08.105Z</time></trkpt><trkpt lat="45.34685" lon="10.898185"><ele>40.0</ele><time>2026-05-03T06:51:09.105Z</time></trkpt><trkpt lat="45.34686" lon="10.89806"><ele>40.16666666666667</ele><time>2026-05-03T06:51:10.105Z</time></trkpt><trkpt lat="45.3468733" lon="10.8979333"><ele>40.333333333333336</ele><time>2026-05-03T06:51:11.104Z</time></trkpt><trkpt lat="45.3468817" lon="10.897805"><ele>40.5</ele><time>2026-05-03T06:51:12.105Z</time></trkpt><trkpt lat="45.34689" lon="10.8976867"><ele>40.666666666666664</ele><time>2026-05-03T06:51:13.105Z</time></trkpt><trkpt lat="45.3469017" lon="10.89757"><ele>40.83333333333333</ele><time>2026-05-03T06:51:14.105Z</time></trkpt><trkpt lat="45.3469117" lon="10.897455"><ele>41.0</ele><time>2026-05-03T06:51:15.105Z</time></trkpt><trkpt lat="45.3469183" lon="10.8973383"><ele>41.0</ele><time>2026-05-03T06:51:16.105Z</time></trkpt><trkpt lat="45.34693" lon="10.89722"><ele>41.0</ele><time>2026-05-03T06:51:17.104Z</time></trkpt><trkpt lat="45.3469367" lon="10.8971167"><ele>41.0</ele><time>2026-05-03T06:51:18.104Z</time></trkpt><trkpt lat="45.34694" lon="10.89702"><ele>41.0</ele><time>2026-05-03T06:51:19.105Z</time></trkpt><trkpt lat="45.3469517" lon="10.896855"><ele>41.0</ele><time>2026-05-03T06:51:21.105Z</time></trkpt><trkpt lat="45.3469683" lon="10.8967033"><ele>41.0</ele><time>2026-05-03T06:51:23.105Z</time></trkpt><trkpt lat="45.3469817" lon="10.89654"><ele>41.0</ele><time>2026-05-03T06:51:25.105Z</time></trkpt><trkpt lat="45.347" lon="10.89637"><ele>41.0</ele><time>2026-05-03T06:51:27.104Z</time></trkpt><trkpt lat="45.3470067" lon="10.8962717"><ele>41.0</ele><time>2026-05-03T06:51:28.105Z</time></trkpt><trkpt lat="45.3470167" lon="10.8960967"><ele>41.0</ele><time>2026-05-03T06:51:30.105Z</time></trkpt><trkpt lat="45.347025" lon="10.8959983"><ele>41.0</ele><time>2026-05-03T06:51:31.104Z</time></trkpt><trkpt lat="45.3470367" lon="10.895905"><ele>41.0</ele><time>2026-05-03T06:51:32.104Z</time></trkpt><trkpt lat="45.34705" lon="10.89581"><ele>41.0</ele><time>2026-05-03T06:51:33.105Z</time></trkpt><trkpt lat="45.34706" lon="10.895715"><ele>41.0</ele><time>2026-05-03T06:51:34.105Z</time></trkpt><trkpt lat="45.34707" lon="10.8956133"><ele>41.0</ele><time>2026-05-03T06:51:35.104Z</time></trkpt><trkpt lat="45.3470767" lon="10.895505"><ele>41.0</ele><time>2026-05-03T06:51:36.105Z</time></trkpt><trkpt lat="45.3470833" lon="10.8953917"><ele>41.0</ele><time>2026-05-03T06:51:37.105Z</time></trkpt><trkpt lat="45.34709" lon="10.89527"><ele>41.0</ele><time>2026-05-03T06:51:38.105Z</time></trkpt><trkpt lat="45.3470967" lon="10.8951483"><ele>41.0</ele><time>2026-05-03T06:51:39.105Z</time></trkpt><trkpt lat="45.347105" lon="10.8950183"><ele>41.0</ele><time>2026-05-03T06:51:40.105Z</time></trkpt><trkpt lat="45.34712" lon="10.8948883"><ele>41.0</ele><time>2026-05-03T06:51:41.105Z</time></trkpt><trkpt lat="45.3471317" lon="10.8947533"><ele>41.0</ele><time>2026-05-03T06:51:42.105Z</time></trkpt><trkpt lat="45.3471583" lon="10.8944833"><ele>41.0</ele><time>2026-05-03T06:51:44.105Z</time></trkpt><trkpt lat="45.3471667" lon="10.8943467"><ele>41.0</ele><time>2026-05-03T06:51:45.104Z</time></trkpt><trkpt lat="45.34718" lon="10.8942117"><ele>41.0</ele><time>2026-05-03T06:51:46.104Z</time></trkpt><trkpt lat="45.3471867" lon="10.8940683"><ele>41.0</ele><time>2026-05-03T06:51:47.105Z</time></trkpt><trkpt lat="45.3471967" lon="10.8939233"><ele>41.0</ele><time>2026-05-03T06:51:48.105Z</time></trkpt><trkpt lat="45.3472083" lon="10.89379"><ele>40.83333333333333</ele><time>2026-05-03T06:51:49.105Z</time></trkpt><trkpt lat="45.3472133" lon="10.893675"><ele>40.666666666666664</ele><time>2026-05-03T06:51:50.105Z</time></trkpt><trkpt lat="45.3472067" lon="10.89356"><ele>40.5</ele><time>2026-05-03T06:51:51.104Z</time></trkpt><trkpt lat="45.347185" lon="10.89344"><ele>40.333333333333336</ele><time>2026-05-03T06:51:52.105Z</time></trkpt><trkpt lat="45.34714" lon="10.8933233"><ele>40.16666666666667</ele><time>2026-05-03T06:51:53.105Z</time></trkpt><trkpt lat="45.3470833" lon="10.89323"><ele>40.0</ele><time>2026-05-03T06:51:54.105Z</time></trkpt><trkpt lat="45.3470017" lon="10.8931267"><ele>40.4</ele><time>2026-05-03T06:51:55.105Z</time></trkpt><trkpt lat="45.34692" lon="10.893025"><ele>40.8</ele><time>2026-05-03T06:51:56.105Z</time></trkpt><trkpt lat="45.3468467" lon="10.892915"><ele>41.2</ele><time>2026-05-03T06:51:57.105Z</time></trkpt><trkpt lat="45.3467567" lon="10.8927983"><ele>41.6</ele><time>2026-05-03T06:51:58.105Z</time></trkpt><trkpt lat="45.3466733" lon="10.892695"><ele>42.0</ele><time>2026-05-03T06:51:59.105Z</time></trkpt><trkpt lat="45.3465967" lon="10.8925817"><ele>42.0</ele><time>2026-05-03T06:52:00.105Z</time></trkpt><trkpt lat="45.3465333" lon="10.8924833"><ele>42.0</ele><time>2026-05-03T06:52:01.105Z</time></trkpt><trkpt lat="45.3464867" lon="10.8923717"><ele>42.0</ele><time>2026-05-03T06:52:02.104Z</time></trkpt><trkpt lat="45.3464433" lon="10.8922267"><ele>42.0</ele><time>2026-05-03T06:52:03.105Z</time></trkpt><trkpt lat="45.3464" lon="10.8920783"><ele>42.0</ele><time>2026-05-03T06:52:04.105Z</time></trkpt><trkpt lat="45.346345" lon="10.8919233"><ele>42.0</ele><time>2026-05-03T06:52:05.104Z</time></trkpt><trkpt lat="45.34629" lon="10.8917883"><ele>42.0</ele><time>2026-05-03T06:52:06.105Z</time></trkpt><trkpt lat="45.34623" lon="10.8916617"><ele>42.0</ele><time>2026-05-03T06:52:07.105Z</time></trkpt><trkpt lat="45.346165" lon="10.8915483"><ele>42.0</ele><time>2026-05-03T06:52:08.105Z</time></trkpt><trkpt lat="45.3461017" lon="10.8914417"><ele>42.0</ele><time>2026-05-03T06:52:09.105Z</time></trkpt><trkpt lat="45.3460433" lon="10.89133"><ele>42.2</ele><time>2026-05-03T06:52:10.105Z</time></trkpt><trkpt lat="45.3459783" lon="10.8912083"><ele>42.400000000000006</ele><time>2026-05-03T06:52:11.105Z</time></trkpt><trkpt lat="45.3459183" lon="10.8910917"><ele>42.599999999999994</ele><time>2026-05-03T06:52:12.105Z</time></trkpt><trkpt lat="45.34586" lon="10.8909883"><ele>42.8</ele><time>2026-05-03T06:52:13.105Z</time></trkpt><trkpt lat="45.3458067" lon="10.8908717"><ele>43.0</ele><time>2026-05-03T06:52:14.105Z</time></trkpt><trkpt lat="45.34577" lon="10.8907617"><ele>43.0</ele><time>2026-05-03T06:52:15.105Z</time></trkpt><trkpt lat="45.34575" lon="10.89065"><ele>43.0</ele><time>2026-05-03T06:52:16.105Z</time></trkpt><trkpt lat="45.3457367" lon="10.8905383"><ele>43.0</ele><time>2026-05-03T06:52:17.105Z</time></trkpt><trkpt lat="45.3457333" lon="10.89041"><ele>43.0</ele><time>2026-05-03T06:52:18.105Z</time></trkpt><trkpt lat="45.3457383" lon="10.8902817"><ele>43.0</ele><time>2026-05-03T06:52:19.105Z</time></trkpt><trkpt lat="45.34575" lon="10.8901483"><ele>43.0</ele><time>2026-05-03T06:52:20.105Z</time></trkpt><trkpt lat="45.345765" lon="10.8900083"><ele>43.0</ele><time>2026-05-03T06:52:21.105Z</time></trkpt><trkpt lat="45.34578" lon="10.8898633"><ele>43.0</ele><time>2026-05-03T06:52:22.105Z</time></trkpt><trkpt lat="45.3457967" lon="10.8897183"><ele>43.0</ele><time>2026-05-03T06:52:23.105Z</time></trkpt><trkpt lat="45.3458117" lon="10.8895833"><ele>43.0</ele><time>2026-05-03T06:52:24.105Z</time></trkpt><trkpt lat="45.3458267" lon="10.8894517"><ele>43.0</ele><time>2026-05-03T06:52:25.105Z</time></trkpt><trkpt lat="45.34584" lon="10.8893317"><ele>42.8</ele><time>2026-05-03T06:52:26.105Z</time></trkpt><trkpt lat="45.34585" lon="10.8892283"><ele>42.599999999999994</ele><time>2026-05-03T06:52:27.105Z</time></trkpt><trkpt lat="45.3458633" lon="10.889085"><ele>42.400000000000006</ele><time>2026-05-03T06:52:29.105Z</time></trkpt><trkpt lat="45.34582" lon="10.8889667"><ele>42.2</ele><time>2026-05-03T06:52:32.105Z</time></trkpt><trkpt lat="45.345695" lon="10.8889483"><ele>42.0</ele><time>2026-05-03T06:52:34.105Z</time></trkpt><trkpt lat="45.3456167" lon="10.8889567"><ele>42.2</ele><time>2026-05-03T06:52:35.105Z</time></trkpt><trkpt lat="45.3455333" lon="10.888965"><ele>42.400000000000006</ele><time>2026-05-03T06:52:36.105Z</time></trkpt><trkpt lat="45.3454367" lon="10.8889767"><ele>42.599999999999994</ele><time>2026-05-03T06:52:37.105Z</time></trkpt><trkpt lat="45.3453317" lon="10.8889733"><ele>42.8</ele><time>2026-05-03T06:52:38.105Z</time></trkpt><trkpt lat="45.3452267" lon="10.8889767"><ele>43.0</ele><time>2026-05-03T06:52:39.105Z</time></trkpt><trkpt lat="45.3451167" lon="10.8889833"><ele>43.0</ele><time>2026-05-03T06:52:40.105Z</time></trkpt><trkpt lat="45.345005" lon="10.8889883"><ele>43.0</ele><time>2026-05-03T06:52:41.104Z</time></trkpt><trkpt lat="45.3448833" lon="10.8889833"><ele>43.0</ele><time>2026-05-03T06:52:42.104Z</time></trkpt><trkpt lat="45.3447567" lon="10.8889817"><ele>43.0</ele><time>2026-05-03T06:52:43.105Z</time></trkpt><trkpt lat="45.3446267" lon="10.8889833"><ele>43.0</ele><time>2026-05-03T06:52:44.105Z</time></trkpt><trkpt lat="45.344495" lon="10.8889917"><ele>43.0</ele><time>2026-05-03T06:52:45.105Z</time></trkpt><trkpt lat="45.3443533" lon="10.8890067"><ele>43.0</ele><time>2026-05-03T06:52:46.105Z</time></trkpt><trkpt lat="45.3442067" lon="10.889015"><ele>43.0</ele><time>2026-05-03T06:52:47.105Z</time></trkpt><trkpt lat="45.34406" lon="10.8890283"><ele>43.0</ele><time>2026-05-03T06:52:48.105Z</time></trkpt><trkpt lat="45.3439067" lon="10.88903"><ele>43.0</ele><time>2026-05-03T06:52:49.104Z</time></trkpt><trkpt lat="45.3437517" lon="10.88903"><ele>43.0</ele><time>2026-05-03T06:52:50.105Z</time></trkpt><trkpt lat="45.3435917" lon="10.8890367"><ele>42.66666666666667</ele><time>2026-05-03T06:52:51.105Z</time></trkpt><trkpt lat="45.34343" lon="10.8890483"><ele>42.333333333333336</ele><time>2026-05-03T06:52:52.105Z</time></trkpt><trkpt lat="45.3432717" lon="10.8890517"><ele>42.0</ele><time>2026-05-03T06:52:53.105Z</time></trkpt><trkpt lat="45.3431133" lon="10.8890617"><ele>42.25</ele><time>2026-05-03T06:52:54.105Z</time></trkpt><trkpt lat="45.3429667" lon="10.8890667"><ele>42.5</ele><time>2026-05-03T06:52:55.105Z</time></trkpt><trkpt lat="45.3428167" lon="10.889075"><ele>42.75</ele><time>2026-05-03T06:52:56.105Z</time></trkpt><trkpt lat="45.3426733" lon="10.8890767"><ele>43.0</ele><time>2026-05-03T06:52:57.105Z</time></trkpt><trkpt lat="45.3425333" lon="10.8890783"><ele>43.0</ele><time>2026-05-03T06:52:58.105Z</time></trkpt><trkpt lat="45.342395" lon="10.889075"><ele>43.0</ele><time>2026-05-03T06:52:59.105Z</time></trkpt><trkpt lat="45.3422533" lon="10.88908"><ele>43.0</ele><time>2026-05-03T06:53:00.105Z</time></trkpt><trkpt lat="45.34211" lon="10.8890883"><ele>43.0</ele><time>2026-05-03T06:53:01.105Z</time></trkpt><trkpt lat="45.3419717" lon="10.889095"><ele>42.75</ele><time>2026-05-03T06:53:02.105Z</time></trkpt><trkpt lat="45.3418317" lon="10.8891033"><ele>42.5</ele><time>2026-05-03T06:53:03.105Z</time></trkpt><trkpt lat="45.3417017" lon="10.8890983"><ele>42.25</ele><time>2026-05-03T06:53:04.105Z</time></trkpt><trkpt lat="45.3415883" lon="10.889085"><ele>42.0</ele><time>2026-05-03T06:53:05.104Z</time></trkpt><trkpt lat="45.3414833" lon="10.8890633"><ele>42.0</ele><time>2026-05-03T06:53:06.105Z</time></trkpt><trkpt lat="45.3413917" lon="10.889035"><ele>42.0</ele><time>2026-05-03T06:53:07.105Z</time></trkpt><trkpt lat="45.3413217" lon="10.889005"><ele>42.0</ele><time>2026-05-03T06:53:08.105Z</time></trkpt><trkpt lat="45.341235" lon="10.88891"><ele>42.0</ele><time>2026-05-03T06:53:10.105Z</time></trkpt><trkpt lat="45.34119" lon="10.8887283"><ele>42.0</ele><time>2026-05-03T06:53:12.105Z</time></trkpt><trkpt lat="45.3411833" lon="10.8886017"><ele>42.0</ele><time>2026-05-03T06:53:13.105Z</time></trkpt><trkpt lat="45.34118" lon="10.888455"><ele>42.0</ele><time>2026-05-03T06:53:14.105Z</time></trkpt><trkpt lat="45.3411733" lon="10.8883033"><ele>42.0</ele><time>2026-05-03T06:53:15.104Z</time></trkpt><trkpt lat="45.34117" lon="10.8881517"><ele>42.0</ele><time>2026-05-03T06:53:16.104Z</time></trkpt><trkpt lat="45.341165" lon="10.88799"><ele>42.0</ele><time>2026-05-03T06:53:17.105Z</time></trkpt><trkpt lat="45.341165" lon="10.887835"><ele>41.8</ele><time>2026-05-03T06:53:18.105Z</time></trkpt><trkpt lat="45.341165" lon="10.8876967"><ele>41.6</ele><time>2026-05-03T06:53:19.105Z</time></trkpt><trkpt lat="45.3411733" lon="10.8875733"><ele>41.4</ele><time>2026-05-03T06:53:20.105Z</time></trkpt><trkpt lat="45.34121" lon="10.887455"><ele>41.199999999999996</ele><time>2026-05-03T06:53:21.104Z</time></trkpt><trkpt lat="45.341265" lon="10.8873467"><ele>41.0</ele><time>2026-05-03T06:53:22.105Z</time></trkpt><trkpt lat="45.3413117" lon="10.88725"><ele>41.0</ele><time>2026-05-03T06:53:23.105Z</time></trkpt><trkpt lat="45.341335" lon="10.8871483"><ele>41.0</ele><time>2026-05-03T06:53:24.105Z</time></trkpt><trkpt lat="45.3413267" lon="10.8870433"><ele>41.0</ele><time>2026-05-03T06:53:25.105Z</time></trkpt><trkpt lat="45.341285" lon="10.8869217"><ele>41.0</ele><time>2026-05-03T06:53:26.105Z</time></trkpt><trkpt lat="45.34122" lon="10.8868017"><ele>41.0</ele><time>2026-05-03T06:53:27.105Z</time></trkpt><trkpt lat="45.34117" lon="10.8866533"><ele>41.0</ele><time>2026-05-03T06:53:28.105Z</time></trkpt><trkpt lat="45.3411383" lon="10.8864917"><ele>41.0</ele><time>2026-05-03T06:53:29.104Z</time></trkpt><trkpt lat="45.3411233" lon="10.88632"><ele>41.0</ele><time>2026-05-03T06:53:30.105Z</time></trkpt><trkpt lat="45.34112" lon="10.8861367"><ele>41.0</ele><time>2026-05-03T06:53:31.104Z</time></trkpt><trkpt lat="45.3411167" lon="10.8859367"><ele>41.25</ele><time>2026-05-03T06:53:32.105Z</time></trkpt><trkpt lat="45.341115" lon="10.8857367"><ele>41.5</ele><time>2026-05-03T06:53:33.105Z</time></trkpt><trkpt lat="45.3411083" lon="10.8855267"><ele>41.75</ele><time>2026-05-03T06:53:34.105Z</time></trkpt><trkpt lat="45.3411033" lon="10.885305"><ele>42.0</ele><time>2026-05-03T06:53:35.105Z</time></trkpt><trkpt lat="45.3410983" lon="10.88509"><ele>42.0</ele><time>2026-05-03T06:53:36.105Z</time></trkpt><trkpt lat="45.3410933" lon="10.8848767"><ele>42.0</ele><time>2026-05-03T06:53:37.105Z</time></trkpt><trkpt lat="45.34109" lon="10.8846617"><ele>42.0</ele><time>2026-05-03T06:53:38.105Z</time></trkpt><trkpt lat="45.3410867" lon="10.8844433"><ele>42.0</ele><time>2026-05-03T06:53:39.105Z</time></trkpt><trkpt lat="45.341085" lon="10.8842217"><ele>42.0</ele><time>2026-05-03T06:53:40.105Z</time></trkpt><trkpt lat="45.34108" lon="10.883995"><ele>42.0</ele><time>2026-05-03T06:53:41.104Z</time></trkpt><trkpt lat="45.3410733" lon="10.8837733"><ele>42.0</ele><time>2026-05-03T06:53:42.105Z</time></trkpt><trkpt lat="45.3410717" lon="10.883555"><ele>42.0</ele><time>2026-05-03T06:53:43.105Z</time></trkpt><trkpt lat="45.3410633" lon="10.8833417"><ele>42.0</ele><time>2026-05-03T06:53:44.105Z</time></trkpt><trkpt lat="45.3410633" lon="10.8831317"><ele>42.0</ele><time>2026-05-03T06:53:45.105Z</time></trkpt><trkpt lat="45.3410567" lon="10.882925"><ele>42.0</ele><time>2026-05-03T06:53:46.105Z</time></trkpt><trkpt lat="45.3410567" lon="10.8827233"><ele>42.0</ele><time>2026-05-03T06:53:47.105Z</time></trkpt><trkpt lat="45.3410583" lon="10.8825233"><ele>42.0</ele><time>2026-05-03T06:53:48.105Z</time></trkpt><trkpt lat="45.341055" lon="10.882325"><ele>42.0</ele><time>2026-05-03T06:53:49.105Z</time></trkpt><trkpt lat="45.3410517" lon="10.8821267"><ele>42.0</ele><time>2026-05-03T06:53:50.105Z</time></trkpt><trkpt lat="45.3410433" lon="10.8819333"><ele>42.0</ele><time>2026-05-03T06:53:51.105Z</time></trkpt><trkpt lat="45.341045" lon="10.8817317"><ele>42.0</ele><time>2026-05-03T06:53:52.104Z</time></trkpt><trkpt lat="45.3410383" lon="10.8815333"><ele>42.0</ele><time>2026-05-03T06:53:53.105Z</time></trkpt><trkpt lat="45.3410283" lon="10.8813383"><ele>42.0</ele><time>2026-05-03T06:53:54.105Z</time></trkpt><trkpt lat="45.3410317" lon="10.88115"><ele>42.0</ele><time>2026-05-03T06:53:55.105Z</time></trkpt><trkpt lat="45.3410333" lon="10.8809817"><ele>42.0</ele><time>2026-05-03T06:53:56.105Z</time></trkpt><trkpt lat="45.3410317" lon="10.8808267"><ele>42.0</ele><time>2026-05-03T06:53:57.105Z</time></trkpt><trkpt lat="45.3410417" lon="10.8806733"><ele>42.0</ele><time>2026-05-03T06:53:58.105Z</time></trkpt><trkpt lat="45.341055" lon="10.8805267"><ele>42.0</ele><time>2026-05-03T06:53:59.104Z</time></trkpt><trkpt lat="45.3410567" lon="10.88037"><ele>42.0</ele><time>2026-05-03T06:54:00.105Z</time></trkpt><trkpt lat="45.3410433" lon="10.8802183"><ele>42.0</ele><time>2026-05-03T06:54:01.105Z</time></trkpt><trkpt lat="45.3410117" lon="10.8800533"><ele>42.25</ele><time>2026-05-03T06:54:02.105Z</time></trkpt><trkpt lat="45.3409817" lon="10.8798817"><ele>42.5</ele><time>2026-05-03T06:54:03.104Z</time></trkpt><trkpt lat="45.34095" lon="10.8796983"><ele>42.75</ele><time>2026-05-03T06:54:04.105Z</time></trkpt><trkpt lat="45.3409217" lon="10.8795083"><ele>43.0</ele><time>2026-05-03T06:54:05.105Z</time></trkpt><trkpt lat="45.3408883" lon="10.8793167"><ele>43.0</ele><time>2026-05-03T06:54:06.105Z</time></trkpt><trkpt lat="45.3408567" lon="10.8791133"><ele>43.0</ele><time>2026-05-03T06:54:07.105Z</time></trkpt><trkpt lat="45.34082" lon="10.8789133"><ele>43.0</ele><time>2026-05-03T06:54:08.105Z</time></trkpt><trkpt lat="45.3407833" lon="10.87871"><ele>43.0</ele><time>2026-05-03T06:54:09.105Z</time></trkpt><trkpt lat="45.3407567" lon="10.8785"><ele>43.0</ele><time>2026-05-03T06:54:10.105Z</time></trkpt><trkpt lat="45.3407283" lon="10.8782967"><ele>43.0</ele><time>2026-05-03T06:54:11.105Z</time></trkpt><trkpt lat="45.3407017" lon="10.8780983"><ele>43.0</ele><time>2026-05-03T06:54:12.105Z</time></trkpt><trkpt lat="45.34068" lon="10.8779117"><ele>43.0</ele><time>2026-05-03T06:54:13.105Z</time></trkpt><trkpt lat="45.3406717" lon="10.8777217"><ele>42.75</ele><time>2026-05-03T06:54:14.105Z</time></trkpt><trkpt lat="45.34067" lon="10.877535"><ele>42.5</ele><time>2026-05-03T06:54:15.105Z</time></trkpt><trkpt lat="45.3406767" lon="10.8773433"><ele>42.25</ele><time>2026-05-03T06:54:16.105Z</time></trkpt><trkpt lat="45.340695" lon="10.8771517"><ele>42.0</ele><time>2026-05-03T06:54:17.104Z</time></trkpt><trkpt lat="45.34072" lon="10.8769617"><ele>42.0</ele><time>2026-05-03T06:54:18.105Z</time></trkpt><trkpt lat="45.34076" lon="10.87677"><ele>42.0</ele><time>2026-05-03T06:54:19.105Z</time></trkpt><trkpt lat="45.3408017" lon="10.87658"><ele>42.0</ele><time>2026-05-03T06:54:20.105Z</time></trkpt><trkpt lat="45.3408483" lon="10.876395"><ele>42.0</ele><time>2026-05-03T06:54:21.105Z</time></trkpt><trkpt lat="45.3408983" lon="10.8762183"><ele>42.25</ele><time>2026-05-03T06:54:22.105Z</time></trkpt><trkpt lat="45.3409567" lon="10.8760517"><ele>42.5</ele><time>2026-05-03T06:54:23.104Z</time></trkpt><trkpt lat="45.3410217" lon="10.8758883"><ele>42.75</ele><time>2026-05-03T06:54:24.105Z</time></trkpt><trkpt lat="45.3410967" lon="10.87573"><ele>43.0</ele><time>2026-05-03T06:54:25.104Z</time></trkpt><trkpt lat="45.3411733" lon="10.87557"><ele>43.0</ele><time>2026-05-03T06:54:26.104Z</time></trkpt><trkpt lat="45.341255" lon="10.87542"><ele>43.0</ele><time>2026-05-03T06:54:27.105Z</time></trkpt><trkpt lat="45.3413283" lon="10.8752633"><ele>43.0</ele><time>2026-05-03T06:54:28.104Z</time></trkpt><trkpt lat="45.3414067" lon="10.87511"><ele>43.0</ele><time>2026-05-03T06:54:29.105Z</time></trkpt><trkpt lat="45.3414867" lon="10.874955"><ele>43.0</ele><time>2026-05-03T06:54:30.105Z</time></trkpt><trkpt lat="45.3415667" lon="10.874795"><ele>43.0</ele><time>2026-05-03T06:54:31.105Z</time></trkpt><trkpt lat="45.3416433" lon="10.8746317"><ele>43.0</ele><time>2026-05-03T06:54:32.105Z</time></trkpt><trkpt lat="45.34172" lon="10.8744717"><ele>43.0</ele><time>2026-05-03T06:54:33.104Z</time></trkpt><trkpt lat="45.3417967" lon="10.8743117"><ele>43.25</ele><time>2026-05-03T06:54:34.104Z</time></trkpt><trkpt lat="45.3418717" lon="10.8741567"><ele>43.5</ele><time>2026-05-03T06:54:35.105Z</time></trkpt><trkpt lat="45.34195" lon="10.8739917"><ele>43.75</ele><time>2026-05-03T06:54:36.106Z</time></trkpt><trkpt lat="45.3420267" lon="10.8738283"><ele>44.0</ele><time>2026-05-03T06:54:37.106Z</time></trkpt><trkpt lat="45.3420967" lon="10.873665"><ele>44.0</ele><time>2026-05-03T06:54:38.105Z</time></trkpt><trkpt lat="45.3421717" lon="10.8735067"><ele>44.0</ele><time>2026-05-03T06:54:39.106Z</time></trkpt><trkpt lat="45.3422467" lon="10.8733433"><ele>44.0</ele><time>2026-05-03T06:54:40.106Z</time></trkpt><trkpt lat="45.3423183" lon="10.8731883"><ele>44.0</ele><time>2026-05-03T06:54:41.105Z</time></trkpt><trkpt lat="45.3423967" lon="10.8730333"><ele>44.0</ele><time>2026-05-03T06:54:42.105Z</time></trkpt><trkpt lat="45.342475" lon="10.87288"><ele>44.0</ele><time>2026-05-03T06:54:43.106Z</time></trkpt><trkpt lat="45.3425533" lon="10.87272"><ele>44.0</ele><time>2026-05-03T06:54:44.106Z</time></trkpt><trkpt lat="45.342635" lon="10.8725583"><ele>44.0</ele><time>2026-05-03T06:54:45.106Z</time></trkpt><trkpt lat="45.3427117" lon="10.8724"><ele>43.75</ele><time>2026-05-03T06:54:46.106Z</time></trkpt><trkpt lat="45.3427883" lon="10.87224"><ele>43.5</ele><time>2026-05-03T06:54:47.106Z</time></trkpt><trkpt lat="45.342865" lon="10.872075"><ele>43.25</ele><time>2026-05-03T06:54:48.106Z</time></trkpt><trkpt lat="45.3429367" lon="10.8719083"><ele>43.0</ele><time>2026-05-03T06:54:49.106Z</time></trkpt><trkpt lat="45.3430167" lon="10.871745"><ele>43.25</ele><time>2026-05-03T06:54:50.105Z</time></trkpt><trkpt lat="45.3430917" lon="10.8715867"><ele>43.5</ele><time>2026-05-03T06:54:51.106Z</time></trkpt><trkpt lat="45.343165" lon="10.8714333"><ele>43.75</ele><time>2026-05-03T06:54:52.106Z</time></trkpt><trkpt lat="45.343245" lon="10.8712683"><ele>44.0</ele><time>2026-05-03T06:54:53.106Z</time></trkpt><trkpt lat="45.3433217" lon="10.8710983"><ele>43.666666666666664</ele><time>2026-05-03T06:54:54.106Z</time></trkpt><trkpt lat="45.343405" lon="10.8709233"><ele>43.333333333333336</ele><time>2026-05-03T06:54:55.106Z</time></trkpt><trkpt lat="45.3434883" lon="10.8707483"><ele>43.0</ele><time>2026-05-03T06:54:56.106Z</time></trkpt><trkpt lat="45.3435733" lon="10.8705683"><ele>43.0</ele><time>2026-05-03T06:54:57.106Z</time></trkpt><trkpt lat="45.3436567" lon="10.8703983"><ele>43.0</ele><time>2026-05-03T06:54:58.106Z</time></trkpt><trkpt lat="45.3437417" lon="10.87022"><ele>43.0</ele><time>2026-05-03T06:54:59.106Z</time></trkpt><trkpt lat="45.34383" lon="10.8700367"><ele>43.0</ele><time>2026-05-03T06:55:00.105Z</time></trkpt><trkpt lat="45.343915" lon="10.869855"><ele>43.0</ele><time>2026-05-03T06:55:01.106Z</time></trkpt><trkpt lat="45.344005" lon="10.8696767"><ele>43.0</ele><time>2026-05-03T06:55:02.106Z</time></trkpt><trkpt lat="45.3440917" lon="10.8694967"><ele>43.0</ele><time>2026-05-03T06:55:03.106Z</time></trkpt><trkpt lat="45.3441733" lon="10.869315"><ele>43.0</ele><time>2026-05-03T06:55:04.106Z</time></trkpt><trkpt lat="45.3442533" lon="10.8691383"><ele>43.0</ele><time>2026-05-03T06:55:05.106Z</time></trkpt><trkpt lat="45.34433" lon="10.8689433"><ele>43.0</ele><time>2026-05-03T06:55:06.106Z</time></trkpt><trkpt lat="45.3444017" lon="10.86875"><ele>43.0</ele><time>2026-05-03T06:55:07.106Z</time></trkpt><trkpt lat="45.344465" lon="10.8685417"><ele>43.0</ele><time>2026-05-03T06:55:08.106Z</time></trkpt><trkpt lat="45.344525" lon="10.8683383"><ele>43.333333333333336</ele><time>2026-05-03T06:55:09.106Z</time></trkpt><trkpt lat="45.344585" lon="10.8681367"><ele>43.666666666666664</ele><time>2026-05-03T06:55:10.106Z</time></trkpt><trkpt lat="45.344645" lon="10.8679333"><ele>44.0</ele><time>2026-05-03T06:55:11.106Z</time></trkpt><trkpt lat="45.3447083" lon="10.8677383"><ele>44.666666666666664</ele><time>2026-05-03T06:55:12.106Z</time></trkpt><trkpt lat="45.3447617" lon="10.86754"><ele>45.333333333333336</ele><time>2026-05-03T06:55:13.105Z</time></trkpt><trkpt lat="45.3448233" lon="10.8673383"><ele>46.0</ele><time>2026-05-03T06:55:14.106Z</time></trkpt><trkpt lat="45.34488" lon="10.8671433"><ele>46.0</ele><time>2026-05-03T06:55:15.106Z</time></trkpt><trkpt lat="45.344945" lon="10.8669533"><ele>46.0</ele><time>2026-05-03T06:55:16.106Z</time></trkpt><trkpt lat="45.3450017" lon="10.8667583"><ele>46.0</ele><time>2026-05-03T06:55:17.106Z</time></trkpt><trkpt lat="45.3450583" lon="10.8665633"><ele>46.0</ele><time>2026-05-03T06:55:18.106Z</time></trkpt><trkpt lat="45.3451217" lon="10.86636"><ele>45.66666666666667</ele><time>2026-05-03T06:55:19.106Z</time></trkpt><trkpt lat="45.345185" lon="10.8661567"><ele>45.333333333333336</ele><time>2026-05-03T06:55:20.106Z</time></trkpt><trkpt lat="45.3452433" lon="10.865955"><ele>45.0</ele><time>2026-05-03T06:55:21.106Z</time></trkpt><trkpt lat="45.3453" lon="10.865755"><ele>45.0</ele><time>2026-05-03T06:55:22.106Z</time></trkpt><trkpt lat="45.3453583" lon="10.8655533"><ele>45.0</ele><time>2026-05-03T06:55:23.106Z</time></trkpt><trkpt lat="45.3454167" lon="10.865345"><ele>45.0</ele><time>2026-05-03T06:55:24.106Z</time></trkpt><trkpt lat="45.3454767" lon="10.8651417"><ele>44.666666666666664</ele><time>2026-05-03T06:55:25.106Z</time></trkpt><trkpt lat="45.3455383" lon="10.86494"><ele>44.33333333333333</ele><time>2026-05-03T06:55:26.105Z</time></trkpt><trkpt lat="45.3456033" lon="10.864735"><ele>44.0</ele><time>2026-05-03T06:55:27.106Z</time></trkpt><trkpt lat="45.3456617" lon="10.8645317"><ele>44.0</ele><time>2026-05-03T06:55:28.106Z</time></trkpt><trkpt lat="45.3457067" lon="10.8643183"><ele>44.0</ele><time>2026-05-03T06:55:29.106Z</time></trkpt><trkpt lat="45.3457317" lon="10.864095"><ele>44.0</ele><time>2026-05-03T06:55:30.105Z</time></trkpt><trkpt lat="45.3457367" lon="10.863875"><ele>44.0</ele><time>2026-05-03T06:55:31.106Z</time></trkpt><trkpt lat="45.3457267" lon="10.863655"><ele>44.0</ele><time>2026-05-03T06:55:32.106Z</time></trkpt><trkpt lat="45.3457083" lon="10.8634367"><ele>44.0</ele><time>2026-05-03T06:55:33.106Z</time></trkpt><trkpt lat="45.3456917" lon="10.8632133"><ele>44.5</ele><time>2026-05-03T06:55:34.105Z</time></trkpt><trkpt lat="45.345655" lon="10.86277"><ele>45.0</ele><time>2026-05-03T06:55:36.106Z</time></trkpt><trkpt lat="45.3456433" lon="10.86255"><ele>45.0</ele><time>2026-05-03T06:55:37.106Z</time></trkpt><trkpt lat="45.3456333" lon="10.862325"><ele>45.0</ele><time>2026-05-03T06:55:38.106Z</time></trkpt><trkpt lat="45.3456183" lon="10.862105"><ele>45.0</ele><time>2026-05-03T06:55:39.106Z</time></trkpt><trkpt lat="45.3455983" lon="10.86188"><ele>44.666666666666664</ele><time>2026-05-03T06:55:40.106Z</time></trkpt><trkpt lat="45.345585" lon="10.8616583"><ele>44.33333333333333</ele><time>2026-05-03T06:55:41.106Z</time></trkpt><trkpt lat="45.3455783" lon="10.8614333"><ele>44.0</ele><time>2026-05-03T06:55:42.106Z</time></trkpt><trkpt lat="45.34557" lon="10.8612133"><ele>44.0</ele><time>2026-05-03T06:55:43.106Z</time></trkpt><trkpt lat="45.3455617" lon="10.8609883"><ele>44.0</ele><time>2026-05-03T06:55:44.106Z</time></trkpt><trkpt lat="45.3455533" lon="10.8607667"><ele>44.0</ele><time>2026-05-03T06:55:45.106Z</time></trkpt><trkpt lat="45.3455583" lon="10.86055"><ele>44.33333333333333</ele><time>2026-05-03T06:55:46.106Z</time></trkpt><trkpt lat="45.3455883" lon="10.8603333"><ele>44.666666666666664</ele><time>2026-05-03T06:55:47.106Z</time></trkpt><trkpt lat="45.3456333" lon="10.86012"><ele>45.0</ele><time>2026-05-03T06:55:48.106Z</time></trkpt><trkpt lat="45.3456933" lon="10.8599217"><ele>45.0</ele><time>2026-05-03T06:55:49.106Z</time></trkpt><trkpt lat="45.3457517" lon="10.8597267"><ele>45.0</ele><time>2026-05-03T06:55:50.106Z</time></trkpt><trkpt lat="45.3458167" lon="10.8595217"><ele>45.0</ele><time>2026-05-03T06:55:51.105Z</time></trkpt><trkpt lat="45.345875" lon="10.8593133"><ele>45.333333333333336</ele><time>2026-05-03T06:55:52.105Z</time></trkpt><trkpt lat="45.345935" lon="10.85911"><ele>45.66666666666667</ele><time>2026-05-03T06:55:53.106Z</time></trkpt><trkpt lat="45.3459967" lon="10.8589"><ele>46.0</ele><time>2026-05-03T06:55:54.106Z</time></trkpt><trkpt lat="45.3460567" lon="10.85869"><ele>46.0</ele><time>2026-05-03T06:55:55.106Z</time></trkpt><trkpt lat="45.3461083" lon="10.8584767"><ele>46.0</ele><time>2026-05-03T06:55:56.106Z</time></trkpt><trkpt lat="45.34616" lon="10.85827"><ele>46.0</ele><time>2026-05-03T06:55:57.106Z</time></trkpt><trkpt lat="45.3462067" lon="10.8580567"><ele>46.333333333333336</ele><time>2026-05-03T06:55:58.106Z</time></trkpt><trkpt lat="45.346255" lon="10.8578467"><ele>46.666666666666664</ele><time>2026-05-03T06:55:59.106Z</time></trkpt><trkpt lat="45.3463" lon="10.8576317"><ele>47.0</ele><time>2026-05-03T06:56:00.106Z</time></trkpt><trkpt lat="45.34635" lon="10.8574183"><ele>46.33333333333333</ele><time>2026-05-03T06:56:01.106Z</time></trkpt><trkpt lat="45.3464" lon="10.857205"><ele>45.666666666666664</ele><time>2026-05-03T06:56:02.106Z</time></trkpt><trkpt lat="45.34645" lon="10.8569967"><ele>45.0</ele><time>2026-05-03T06:56:03.106Z</time></trkpt><trkpt lat="45.3464983" lon="10.8567883"><ele>44.333333333333336</ele><time>2026-05-03T06:56:04.106Z</time></trkpt><trkpt lat="45.3465483" lon="10.856575"><ele>43.66666666666667</ele><time>2026-05-03T06:56:05.106Z</time></trkpt><trkpt lat="45.3465917" lon="10.8563633"><ele>43.0</ele><time>2026-05-03T06:56:06.106Z</time></trkpt><trkpt lat="45.3466433" lon="10.8561533"><ele>43.0</ele><time>2026-05-03T06:56:07.106Z</time></trkpt><trkpt lat="45.3466967" lon="10.8559583"><ele>43.0</ele><time>2026-05-03T06:56:08.106Z</time></trkpt><trkpt lat="45.3467467" lon="10.8557817"><ele>43.0</ele><time>2026-05-03T06:56:09.105Z</time></trkpt><trkpt lat="45.346785" lon="10.8556033"><ele>43.0</ele><time>2026-05-03T06:56:10.106Z</time></trkpt><trkpt lat="45.3468233" lon="10.8554433"><ele>43.4</ele><time>2026-05-03T06:56:11.106Z</time></trkpt><trkpt lat="45.3468583" lon="10.8553033"><ele>43.8</ele><time>2026-05-03T06:56:12.105Z</time></trkpt><trkpt lat="45.34689" lon="10.85519"><ele>44.2</ele><time>2026-05-03T06:56:13.106Z</time></trkpt><trkpt lat="45.3469067" lon="10.8550917"><ele>44.6</ele><time>2026-05-03T06:56:14.106Z</time></trkpt><trkpt lat="45.3468383" lon="10.8549533"><ele>45.0</ele><time>2026-05-03T06:56:16.106Z</time></trkpt><trkpt lat="45.346765" lon="10.8549017"><ele>45.333333333333336</ele><time>2026-05-03T06:56:17.106Z</time></trkpt><trkpt lat="45.3466867" lon="10.8548517"><ele>45.666666666666664</ele><time>2026-05-03T06:56:18.106Z</time></trkpt><trkpt lat="45.3466117" lon="10.8548067"><ele>46.0</ele><time>2026-05-03T06:56:19.106Z</time></trkpt><trkpt lat="45.3465483" lon="10.8547567"><ele>46.33333333333333</ele><time>2026-05-03T06:56:20.105Z</time></trkpt><trkpt lat="45.3464833" lon="10.85469"><ele>46.666666666666664</ele><time>2026-05-03T06:56:21.106Z</time></trkpt><trkpt lat="45.3464117" lon="10.8546217"><ele>47.0</ele><time>2026-05-03T06:56:22.106Z</time></trkpt><trkpt lat="45.3463317" lon="10.8545483"><ele>47.0</ele><time>2026-05-03T06:56:23.106Z</time></trkpt><trkpt lat="45.3462483" lon="10.854475"><ele>47.0</ele><time>2026-05-03T06:56:24.106Z</time></trkpt><trkpt lat="45.346165" lon="10.8544017"><ele>47.0</ele><time>2026-05-03T06:56:25.106Z</time></trkpt><trkpt lat="45.3460883" lon="10.854325"><ele>47.0</ele><time>2026-05-03T06:56:26.106Z</time></trkpt><trkpt lat="45.3460117" lon="10.8542417"><ele>47.0</ele><time>2026-05-03T06:56:27.106Z</time></trkpt><trkpt lat="45.3459367" lon="10.854165"><ele>47.0</ele><time>2026-05-03T06:56:28.105Z</time></trkpt><trkpt lat="45.34586" lon="10.854095"><ele>47.0</ele><time>2026-05-03T06:56:29.106Z</time></trkpt><trkpt lat="45.3457867" lon="10.854025"><ele>47.0</ele><time>2026-05-03T06:56:30.106Z</time></trkpt><trkpt lat="45.3457267" lon="10.8539633"><ele>47.0</ele><time>2026-05-03T06:56:31.106Z</time></trkpt><trkpt lat="45.3456733" lon="10.8539117"><ele>47.0</ele><time>2026-05-03T06:56:32.105Z</time></trkpt><trkpt lat="45.345575" lon="10.85384"><ele>47.0</ele><time>2026-05-03T06:56:34.106Z</time></trkpt><trkpt lat="45.34547" lon="10.85375"><ele>47.0</ele><time>2026-05-03T06:56:36.105Z</time></trkpt><trkpt lat="45.3454033" lon="10.8536833"><ele>47.0</ele><time>2026-05-03T06:56:37.106Z</time></trkpt><trkpt lat="45.3453233" lon="10.8536183"><ele>47.0</ele><time>2026-05-03T06:56:38.106Z</time></trkpt><trkpt lat="45.3452417" lon="10.8535433"><ele>47.0</ele><time>2026-05-03T06:56:39.106Z</time></trkpt><trkpt lat="45.3451617" lon="10.8534633"><ele>47.0</ele><time>2026-05-03T06:56:40.106Z</time></trkpt><trkpt lat="45.3450733" lon="10.8533817"><ele>46.6</ele><time>2026-05-03T06:56:41.105Z</time></trkpt><trkpt lat="45.34498" lon="10.8533083"><ele>46.2</ele><time>2026-05-03T06:56:42.105Z</time></trkpt><trkpt lat="45.3448867" lon="10.8532217"><ele>45.8</ele><time>2026-05-03T06:56:43.106Z</time></trkpt><trkpt lat="45.344795" lon="10.853125"><ele>45.4</ele><time>2026-05-03T06:56:44.105Z</time></trkpt><trkpt lat="45.344705" lon="10.85304"><ele>45.0</ele><time>2026-05-03T06:56:45.105Z</time></trkpt><trkpt lat="45.3446167" lon="10.8529583"><ele>45.0</ele><time>2026-05-03T06:56:46.106Z</time></trkpt><trkpt lat="45.34453" lon="10.8528767"><ele>45.0</ele><time>2026-05-03T06:56:47.106Z</time></trkpt><trkpt lat="45.344455" lon="10.8527983"><ele>45.0</ele><time>2026-05-03T06:56:48.106Z</time></trkpt><trkpt lat="45.3443883" lon="10.8527383"><ele>45.0</ele><time>2026-05-03T06:56:49.106Z</time></trkpt><trkpt lat="45.3443317" lon="10.8526917"><ele>45.0</ele><time>2026-05-03T06:56:50.105Z</time></trkpt><trkpt lat="45.344235" lon="10.8526333"><ele>45.0</ele><time>2026-05-03T06:56:52.106Z</time></trkpt><trkpt lat="45.3441617" lon="10.8525683"><ele>45.0</ele><time>2026-05-03T06:56:54.106Z</time></trkpt><trkpt lat="45.344115" lon="10.8525033"><ele>45.0</ele><time>2026-05-03T06:56:55.106Z</time></trkpt><trkpt lat="45.3440517" lon="10.85244"><ele>45.0</ele><time>2026-05-03T06:56:56.106Z</time></trkpt><trkpt lat="45.343975" lon="10.8523633"><ele>45.0</ele><time>2026-05-03T06:56:57.105Z</time></trkpt><trkpt lat="45.3439033" lon="10.8523017"><ele>45.0</ele><time>2026-05-03T06:56:58.106Z</time></trkpt><trkpt lat="45.3438333" lon="10.85225"><ele>45.0</ele><time>2026-05-03T06:56:59.106Z</time></trkpt><trkpt lat="45.3437333" lon="10.852185"><ele>45.2</ele><time>2026-05-03T06:57:01.106Z</time></trkpt><trkpt lat="45.3436883" lon="10.8520867"><ele>45.4</ele><time>2026-05-03T06:57:03.106Z</time></trkpt><trkpt lat="45.3436867" lon="10.8519583"><ele>45.599999999999994</ele><time>2026-05-03T06:57:05.106Z</time></trkpt><trkpt lat="45.34374" lon="10.8517817"><ele>45.8</ele><time>2026-05-03T06:57:07.106Z</time></trkpt><trkpt lat="45.3437733" lon="10.8516717"><ele>46.0</ele><time>2026-05-03T06:57:08.106Z</time></trkpt><trkpt lat="45.34381" lon="10.85156"><ele>46.0</ele><time>2026-05-03T06:57:09.105Z</time></trkpt><trkpt lat="45.3438567" lon="10.8514433"><ele>46.0</ele><time>2026-05-03T06:57:10.106Z</time></trkpt><trkpt lat="45.3439017" lon="10.85133"><ele>46.0</ele><time>2026-05-03T06:57:11.105Z</time></trkpt><trkpt lat="45.343945" lon="10.851205"><ele>46.0</ele><time>2026-05-03T06:57:12.105Z</time></trkpt><trkpt lat="45.3439833" lon="10.8510683"><ele>46.0</ele><time>2026-05-03T06:57:13.106Z</time></trkpt><trkpt lat="45.3440133" lon="10.850935"><ele>46.0</ele><time>2026-05-03T06:57:14.105Z</time></trkpt><trkpt lat="45.3440483" lon="10.8508033"><ele>46.0</ele><time>2026-05-03T06:57:15.106Z</time></trkpt><trkpt lat="45.3440883" lon="10.8506617"><ele>46.0</ele><time>2026-05-03T06:57:16.106Z</time></trkpt><trkpt lat="45.3441317" lon="10.8505117"><ele>46.0</ele><time>2026-05-03T06:57:17.105Z</time></trkpt><trkpt lat="45.344175" lon="10.8503583"><ele>46.0</ele><time>2026-05-03T06:57:18.105Z</time></trkpt><trkpt lat="45.34422" lon="10.850205"><ele>45.75</ele><time>2026-05-03T06:57:19.106Z</time></trkpt><trkpt lat="45.3442717" lon="10.850045"><ele>45.5</ele><time>2026-05-03T06:57:20.106Z</time></trkpt><trkpt lat="45.3443233" lon="10.8498867"><ele>45.25</ele><time>2026-05-03T06:57:21.106Z</time></trkpt><trkpt lat="45.344375" lon="10.8497317"><ele>45.0</ele><time>2026-05-03T06:57:22.106Z</time></trkpt><trkpt lat="45.3444267" lon="10.8495783"><ele>45.0</ele><time>2026-05-03T06:57:23.105Z</time></trkpt><trkpt lat="45.3444783" lon="10.8494283"><ele>45.0</ele><time>2026-05-03T06:57:24.105Z</time></trkpt><trkpt lat="45.3445367" lon="10.8492733"><ele>45.0</ele><time>2026-05-03T06:57:25.106Z</time></trkpt><trkpt lat="45.3445933" lon="10.84912"><ele>45.0</ele><time>2026-05-03T06:57:26.106Z</time></trkpt><trkpt lat="45.34465" lon="10.8489717"><ele>45.0</ele><time>2026-05-03T06:57:27.105Z</time></trkpt><trkpt lat="45.3447117" lon="10.848825"><ele>45.0</ele><time>2026-05-03T06:57:28.106Z</time></trkpt><trkpt lat="45.3447783" lon="10.848675"><ele>45.0</ele><time>2026-05-03T06:57:29.106Z</time></trkpt><trkpt lat="45.3448533" lon="10.84853"><ele>45.0</ele><time>2026-05-03T06:57:30.106Z</time></trkpt><trkpt lat="45.3449317" lon="10.8483833"><ele>45.5</ele><time>2026-05-03T06:57:31.105Z</time></trkpt><trkpt lat="45.3450117" lon="10.848235"><ele>46.0</ele><time>2026-05-03T06:57:32.106Z</time></trkpt><trkpt lat="45.345095" lon="10.8480933"><ele>46.5</ele><time>2026-05-03T06:57:33.106Z</time></trkpt><trkpt lat="45.3451867" lon="10.8479433"><ele>47.0</ele><time>2026-05-03T06:57:34.105Z</time></trkpt><trkpt lat="45.34527" lon="10.8477917"><ele>47.0</ele><time>2026-05-03T06:57:35.106Z</time></trkpt><trkpt lat="45.3453533" lon="10.8476383"><ele>47.0</ele><time>2026-05-03T06:57:36.106Z</time></trkpt><trkpt lat="45.34544" lon="10.8474817"><ele>47.0</ele><time>2026-05-03T06:57:37.106Z</time></trkpt><trkpt lat="45.345525" lon="10.8473333"><ele>47.0</ele><time>2026-05-03T06:57:38.106Z</time></trkpt><trkpt lat="45.3456133" lon="10.8471883"><ele>47.25</ele><time>2026-05-03T06:57:39.106Z</time></trkpt><trkpt lat="45.3457017" lon="10.847045"><ele>47.5</ele><time>2026-05-03T06:57:40.106Z</time></trkpt><trkpt lat="45.3457967" lon="10.8469083"><ele>47.75</ele><time>2026-05-03T06:57:41.106Z</time></trkpt><trkpt lat="45.3459" lon="10.846775"><ele>48.0</ele><time>2026-05-03T06:57:42.106Z</time></trkpt><trkpt lat="45.346" lon="10.8466567"><ele>48.0</ele><time>2026-05-03T06:57:43.106Z</time></trkpt><trkpt lat="45.3460933" lon="10.84655"><ele>48.0</ele><time>2026-05-03T06:57:44.106Z</time></trkpt><trkpt lat="45.3461783" lon="10.8464567"><ele>48.0</ele><time>2026-05-03T06:57:45.105Z</time></trkpt><trkpt lat="45.3462467" lon="10.84638"><ele>48.0</ele><time>2026-05-03T06:57:46.105Z</time></trkpt><trkpt lat="45.34632" lon="10.8463183"><ele>48.0</ele><time>2026-05-03T06:57:47.105Z</time></trkpt><trkpt lat="45.346385" lon="10.8462767"><ele>48.0</ele><time>2026-05-03T06:57:48.106Z</time></trkpt><trkpt lat="45.3464433" lon="10.846235"><ele>48.0</ele><time>2026-05-03T06:57:49.106Z</time></trkpt><trkpt lat="45.3464933" lon="10.8461483"><ele>48.0</ele><time>2026-05-03T06:57:51.106Z</time></trkpt><trkpt lat="45.3464383" lon="10.8460567"><ele>48.0</ele><time>2026-05-03T06:57:53.106Z</time></trkpt><trkpt lat="45.3463833" lon="10.8460067"><ele>48.0</ele><time>2026-05-03T06:57:54.105Z</time></trkpt><trkpt lat="45.3462783" lon="10.8459533"><ele>48.0</ele><time>2026-05-03T06:57:56.106Z</time></trkpt><trkpt lat="45.34617" lon="10.8459967"><ele>48.0</ele><time>2026-05-03T06:57:58.106Z</time></trkpt><trkpt lat="45.3461" lon="10.8460717"><ele>48.0</ele><time>2026-05-03T06:57:59.106Z</time></trkpt><trkpt lat="45.3460217" lon="10.8461583"><ele>48.0</ele><time>2026-05-03T06:58:00.106Z</time></trkpt><trkpt lat="45.34592" lon="10.8462667"><ele>48.0</ele><time>2026-05-03T06:58:01.106Z</time></trkpt><trkpt lat="45.3458217" lon="10.8463833"><ele>48.0</ele><time>2026-05-03T06:58:02.106Z</time></trkpt><trkpt lat="45.3457133" lon="10.84653"><ele>48.0</ele><time>2026-05-03T06:58:03.106Z</time></trkpt><trkpt lat="45.345585" lon="10.8467117"><ele>48.0</ele><time>2026-05-03T06:58:04.106Z</time></trkpt><trkpt lat="45.3454483" lon="10.8469183"><ele>48.0</ele><time>2026-05-03T06:58:05.105Z</time></trkpt><trkpt lat="45.3453383" lon="10.847115"><ele>48.0</ele><time>2026-05-03T06:58:06.106Z</time></trkpt><trkpt lat="45.3452333" lon="10.8472917"><ele>48.0</ele><time>2026-05-03T06:58:07.106Z</time></trkpt><trkpt lat="45.345145" lon="10.8474517"><ele>48.0</ele><time>2026-05-03T06:58:08.106Z</time></trkpt><trkpt lat="45.3450667" lon="10.8475917"><ele>48.0</ele><time>2026-05-03T06:58:09.106Z</time></trkpt><trkpt lat="45.3450017" lon="10.8477167"><ele>47.833333333333336</ele><time>2026-05-03T06:58:10.105Z</time></trkpt><trkpt lat="45.344935" lon="10.8478183"><ele>47.666666666666664</ele><time>2026-05-03T06:58:11.106Z</time></trkpt><trkpt lat="45.3448717" lon="10.8478867"><ele>47.5</ele><time>2026-05-03T06:58:12.106Z</time></trkpt><trkpt lat="45.3447667" lon="10.847915"><ele>47.33333333333333</ele><time>2026-05-03T06:58:14.106Z</time></trkpt><trkpt lat="45.3447033" lon="10.8478833"><ele>47.166666666666664</ele><time>2026-05-03T06:58:15.106Z</time></trkpt><trkpt lat="45.3446317" lon="10.847835"><ele>47.0</ele><time>2026-05-03T06:58:16.106Z</time></trkpt><trkpt lat="45.3445583" lon="10.84777"><ele>46.83333333333333</ele><time>2026-05-03T06:58:17.106Z</time></trkpt><trkpt lat="45.3444817" lon="10.8477"><ele>46.666666666666664</ele><time>2026-05-03T06:58:18.105Z</time></trkpt><trkpt lat="45.3444067" lon="10.8476333"><ele>46.5</ele><time>2026-05-03T06:58:19.106Z</time></trkpt><trkpt lat="45.344325" lon="10.8475717"><ele>46.333333333333336</ele><time>2026-05-03T06:58:20.106Z</time></trkpt><trkpt lat="45.344255" lon="10.8475133"><ele>46.16666666666667</ele><time>2026-05-03T06:58:21.106Z</time></trkpt><trkpt lat="45.34419" lon="10.8474683"><ele>46.0</ele><time>2026-05-03T06:58:22.106Z</time></trkpt><trkpt lat="45.34413" lon="10.8474333"><ele>46.42857142857143</ele><time>2026-05-03T06:58:23.106Z</time></trkpt><trkpt lat="45.34407" lon="10.8474"><ele>46.857142857142854</ele><time>2026-05-03T06:58:24.106Z</time></trkpt><trkpt lat="45.3440067" lon="10.8473667"><ele>47.285714285714285</ele><time>2026-05-03T06:58:25.106Z</time></trkpt><trkpt lat="45.343945" lon="10.847325"><ele>47.714285714285715</ele><time>2026-05-03T06:58:26.106Z</time></trkpt><trkpt lat="45.3438917" lon="10.847275"><ele>48.14285714285714</ele><time>2026-05-03T06:58:27.105Z</time></trkpt><trkpt lat="45.34384" lon="10.84722"><ele>48.57142857142857</ele><time>2026-05-03T06:58:28.106Z</time></trkpt><trkpt lat="45.3437883" lon="10.8471583"><ele>49.0</ele><time>2026-05-03T06:58:29.106Z</time></trkpt><trkpt lat="45.3437317" lon="10.8471067"><ele>48.99999999999999</ele><time>2026-05-03T06:58:30.106Z</time></trkpt><trkpt lat="45.3436667" lon="10.8470533"><ele>49.0</ele><time>2026-05-03T06:58:31.106Z</time></trkpt><trkpt lat="45.3436033" lon="10.847005"><ele>49.0</ele><time>2026-05-03T06:58:32.106Z</time></trkpt><trkpt lat="45.3435033" lon="10.8469233"><ele>49.0</ele><time>2026-05-03T06:58:34.106Z</time></trkpt><trkpt lat="45.3434467" lon="10.8468833"><ele>48.99999999999999</ele><time>2026-05-03T06:58:35.106Z</time></trkpt><trkpt lat="45.343365" lon="10.8467983"><ele>49.0</ele><time>2026-05-03T06:58:37.105Z</time></trkpt><trkpt lat="45.3433033" lon="10.8467367"><ele>49.0</ele><time>2026-05-03T06:58:39.106Z</time></trkpt><trkpt lat="45.343335" lon="10.846855"><ele>49.0</ele><time>2026-05-03T06:58:43.106Z</time></trkpt><trkpt lat="45.3434533" lon="10.8469317"><ele>49.0</ele><time>2026-05-03T06:58:45.106Z</time></trkpt><trkpt lat="45.3435167" lon="10.8469717"><ele>49.0</ele><time>2026-05-03T06:58:46.106Z</time></trkpt><trkpt lat="45.3436067" lon="10.8470283"><ele>49.0</ele><time>2026-05-03T06:58:48.105Z</time></trkpt><trkpt lat="45.3437067" lon="10.8471067"><ele>49.0</ele><time>2026-05-03T06:58:50.106Z</time></trkpt><trkpt lat="45.3437717" lon="10.8471533"><ele>49.0</ele><time>2026-05-03T06:58:51.106Z</time></trkpt><trkpt lat="45.343855" lon="10.8472067"><ele>49.0</ele><time>2026-05-03T06:58:52.106Z</time></trkpt><trkpt lat="45.3439433" lon="10.8472683"><ele>49.0</ele><time>2026-05-03T06:58:53.106Z</time></trkpt><trkpt lat="45.344035" lon="10.8473383"><ele>49.0</ele><time>2026-05-03T06:58:54.106Z</time></trkpt><trkpt lat="45.3441267" lon="10.847405"><ele>49.0</ele><time>2026-05-03T06:58:55.106Z</time></trkpt><trkpt lat="45.344215" lon="10.84748"><ele>49.0</ele><time>2026-05-03T06:58:56.106Z</time></trkpt><trkpt lat="45.3443" lon="10.8475483"><ele>49.0</ele><time>2026-05-03T06:58:57.105Z</time></trkpt><trkpt lat="45.3443967" lon="10.8476283"><ele>49.0</ele><time>2026-05-03T06:58:58.106Z</time></trkpt><trkpt lat="45.34449" lon="10.8477067"><ele>49.0</ele><time>2026-05-03T06:58:59.105Z</time></trkpt><trkpt lat="45.3445783" lon="10.8477833"><ele>48.83333333333333</ele><time>2026-05-03T06:59:00.106Z</time></trkpt><trkpt lat="45.3446483" lon="10.84785"><ele>48.666666666666664</ele><time>2026-05-03T06:59:01.106Z</time></trkpt><trkpt lat="45.3447117" lon="10.8478867"><ele>48.5</ele><time>2026-05-03T06:59:02.106Z</time></trkpt><trkpt lat="45.3447983" lon="10.847915"><ele>48.33333333333333</ele><time>2026-05-03T06:59:04.106Z</time></trkpt><trkpt lat="45.34489" lon="10.8478333"><ele>48.166666666666664</ele><time>2026-05-03T06:59:06.106Z</time></trkpt><trkpt lat="45.34495" lon="10.8477333"><ele>48.0</ele><time>2026-05-03T06:59:07.106Z</time></trkpt><trkpt lat="45.345025" lon="10.8475967"><ele>48.0</ele><time>2026-05-03T06:59:08.106Z</time></trkpt><trkpt lat="45.3451283" lon="10.8474283"><ele>48.0</ele><time>2026-05-03T06:59:09.106Z</time></trkpt><trkpt lat="45.345245" lon="10.8472233"><ele>48.0</ele><time>2026-05-03T06:59:10.106Z</time></trkpt><trkpt lat="45.3453517" lon="10.8470333"><ele>48.0</ele><time>2026-05-03T06:59:11.106Z</time></trkpt><trkpt lat="45.3454567" lon="10.8468633"><ele>48.0</ele><time>2026-05-03T06:59:12.106Z</time></trkpt><trkpt lat="45.3455483" lon="10.8467217"><ele>48.0</ele><time>2026-05-03T06:59:13.105Z</time></trkpt><trkpt lat="45.3456417" lon="10.8465967"><ele>48.0</ele><time>2026-05-03T06:59:14.106Z</time></trkpt><trkpt lat="45.34573" lon="10.84649"><ele>48.0</ele><time>2026-05-03T06:59:15.105Z</time></trkpt><trkpt lat="45.3458183" lon="10.8463833"><ele>48.0</ele><time>2026-05-03T06:59:16.106Z</time></trkpt><trkpt lat="45.3459" lon="10.846285"><ele>48.0</ele><time>2026-05-03T06:59:17.106Z</time></trkpt><trkpt lat="45.3459817" lon="10.8461967"><ele>48.0</ele><time>2026-05-03T06:59:18.105Z</time></trkpt><trkpt lat="45.3460467" lon="10.8461233"><ele>48.0</ele><time>2026-05-03T06:59:19.105Z</time></trkpt><trkpt lat="45.3461033" lon="10.846065"><ele>48.0</ele><time>2026-05-03T06:59:20.106Z</time></trkpt><trkpt lat="45.3461967" lon="10.8459783"><ele>48.0</ele><time>2026-05-03T06:59:22.106Z</time></trkpt><trkpt lat="45.3463" lon="10.8459483"><ele>48.0</ele><time>2026-05-03T06:59:24.105Z</time></trkpt><trkpt lat="45.346405" lon="10.8460133"><ele>48.0</ele><time>2026-05-03T06:59:26.106Z</time></trkpt><trkpt lat="45.34649" lon="10.8460933"><ele>48.0</ele><time>2026-05-03T06:59:28.106Z</time></trkpt><trkpt lat="45.3465567" lon="10.84609"><ele>48.0</ele><time>2026-05-03T06:59:30.106Z</time></trkpt><trkpt lat="45.3466333" lon="10.8459667"><ele>48.0</ele><time>2026-05-03T06:59:32.106Z</time></trkpt><trkpt lat="45.346675" lon="10.8458667"><ele>48.0</ele><time>2026-05-03T06:59:33.105Z</time></trkpt><trkpt lat="45.34672" lon="10.8457467"><ele>48.0</ele><time>2026-05-03T06:59:34.105Z</time></trkpt><trkpt lat="45.34676" lon="10.84561"><ele>48.0</ele><time>2026-05-03T06:59:35.106Z</time></trkpt><trkpt lat="45.3468067" lon="10.8454817"><ele>48.2</ele><time>2026-05-03T06:59:36.106Z</time></trkpt><trkpt lat="45.3468467" lon="10.84535"><ele>48.4</ele><time>2026-05-03T06:59:37.106Z</time></trkpt><trkpt lat="45.3468917" lon="10.8452233"><ele>48.6</ele><time>2026-05-03T06:59:38.106Z</time></trkpt><trkpt lat="45.34694" lon="10.8450983"><ele>48.800000000000004</ele><time>2026-05-03T06:59:39.105Z</time></trkpt><trkpt lat="45.3469833" lon="10.844975"><ele>49.0</ele><time>2026-05-03T06:59:40.106Z</time></trkpt><trkpt lat="45.3470283" lon="10.844865"><ele>49.166666666666664</ele><time>2026-05-03T06:59:41.106Z</time></trkpt><trkpt lat="45.34707" lon="10.8447617"><ele>49.33333333333333</ele><time>2026-05-03T06:59:42.106Z</time></trkpt><trkpt lat="45.347095" lon="10.8446733"><ele>49.5</ele><time>2026-05-03T06:59:43.106Z</time></trkpt><trkpt lat="45.3471333" lon="10.8445467"><ele>49.66666666666667</ele><time>2026-05-03T06:59:45.106Z</time></trkpt><trkpt lat="45.347135" lon="10.8444483"><ele>49.833333333333336</ele><time>2026-05-03T06:59:53.106Z</time></trkpt><trkpt lat="45.347085" lon="10.8443817"><ele>50.0</ele><time>2026-05-03T06:59:54.105Z</time></trkpt><trkpt lat="45.3470217" lon="10.8443167"><ele>50.2</ele><time>2026-05-03T06:59:55.106Z</time></trkpt><trkpt lat="45.3469517" lon="10.8442567"><ele>50.4</ele><time>2026-05-03T06:59:56.106Z</time></trkpt><trkpt lat="45.3468783" lon="10.8441833"><ele>50.599999999999994</ele><time>2026-05-03T06:59:57.106Z</time></trkpt><trkpt lat="45.3468" lon="10.844105"><ele>50.8</ele><time>2026-05-03T06:59:58.106Z</time></trkpt><trkpt lat="45.3467167" lon="10.844045"><ele>51.0</ele><time>2026-05-03T06:59:59.105Z</time></trkpt><trkpt lat="45.3466233" lon="10.8439933"><ele>51.0</ele><time>2026-05-03T07:00:00.106Z</time></trkpt><trkpt lat="45.34652" lon="10.8439533"><ele>51.0</ele><time>2026-05-03T07:00:01.106Z</time></trkpt><trkpt lat="45.3464033" lon="10.84391"><ele>51.0</ele><time>2026-05-03T07:00:02.105Z</time></trkpt><trkpt lat="45.3462883" lon="10.8438583"><ele>51.0</ele><time>2026-05-03T07:00:03.106Z</time></trkpt><trkpt lat="45.3461767" lon="10.8438"><ele>51.0</ele><time>2026-05-03T07:00:04.105Z</time></trkpt><trkpt lat="45.3460617" lon="10.8437283"><ele>51.0</ele><time>2026-05-03T07:00:05.106Z</time></trkpt><trkpt lat="45.3459583" lon="10.8436483"><ele>51.0</ele><time>2026-05-03T07:00:06.106Z</time></trkpt><trkpt lat="45.3458617" lon="10.84357"><ele>51.0</ele><time>2026-05-03T07:00:07.106Z</time></trkpt><trkpt lat="45.3457667" lon="10.84346"><ele>51.0</ele><time>2026-05-03T07:00:08.106Z</time></trkpt><trkpt lat="45.3456767" lon="10.8433333"><ele>51.0</ele><time>2026-05-03T07:00:09.105Z</time></trkpt><trkpt lat="45.34559" lon="10.8431883"><ele>51.0</ele><time>2026-05-03T07:00:10.105Z</time></trkpt><trkpt lat="45.3455" lon="10.8430467"><ele>51.0</ele><time>2026-05-03T07:00:11.106Z</time></trkpt><trkpt lat="45.3454083" lon="10.84291"><ele>51.25</ele><time>2026-05-03T07:00:12.106Z</time></trkpt><trkpt lat="45.3453233" lon="10.84277"><ele>51.5</ele><time>2026-05-03T07:00:13.106Z</time></trkpt><trkpt lat="45.34524" lon="10.8426183"><ele>51.75</ele><time>2026-05-03T07:00:14.105Z</time></trkpt><trkpt lat="45.34516" lon="10.8424583"><ele>52.0</ele><time>2026-05-03T07:00:15.106Z</time></trkpt><trkpt lat="45.3450933" lon="10.8422917"><ele>52.0</ele><time>2026-05-03T07:00:16.106Z</time></trkpt><trkpt lat="45.3450217" lon="10.8421067"><ele>52.0</ele><time>2026-05-03T07:00:17.106Z</time></trkpt><trkpt lat="45.34495" lon="10.8419217"><ele>52.0</ele><time>2026-05-03T07:00:18.106Z</time></trkpt><trkpt lat="45.3448833" lon="10.8417317"><ele>52.0</ele><time>2026-05-03T07:00:19.106Z</time></trkpt><trkpt lat="45.34481" lon="10.8415333"><ele>52.0</ele><time>2026-05-03T07:00:20.106Z</time></trkpt><trkpt lat="45.34474" lon="10.8413317"><ele>52.0</ele><time>2026-05-03T07:00:21.106Z</time></trkpt><trkpt lat="45.3446717" lon="10.841125"><ele>52.0</ele><time>2026-05-03T07:00:22.106Z</time></trkpt><trkpt lat="45.3445967" lon="10.840925"><ele>51.666666666666664</ele><time>2026-05-03T07:00:23.106Z</time></trkpt><trkpt lat="45.3445233" lon="10.840715"><ele>51.33333333333333</ele><time>2026-05-03T07:00:24.105Z</time></trkpt><trkpt lat="45.3444533" lon="10.8405017"><ele>51.0</ele><time>2026-05-03T07:00:25.106Z</time></trkpt><trkpt lat="45.3443733" lon="10.8402983"><ele>51.66666666666667</ele><time>2026-05-03T07:00:26.106Z</time></trkpt><trkpt lat="45.3442967" lon="10.840095"><ele>52.333333333333336</ele><time>2026-05-03T07:00:27.106Z</time></trkpt><trkpt lat="45.3442167" lon="10.8398933"><ele>53.0</ele><time>2026-05-03T07:00:28.106Z</time></trkpt><trkpt lat="45.344145" lon="10.83971"><ele>53.0</ele><time>2026-05-03T07:00:29.106Z</time></trkpt><trkpt lat="45.34409" lon="10.8395533"><ele>53.0</ele><time>2026-05-03T07:00:30.105Z</time></trkpt><trkpt lat="45.34406" lon="10.8394033"><ele>53.0</ele><time>2026-05-03T07:00:31.106Z</time></trkpt><trkpt lat="45.3440633" lon="10.8392683"><ele>53.0</ele><time>2026-05-03T07:00:32.106Z</time></trkpt><trkpt lat="45.3440917" lon="10.83914"><ele>53.0</ele><time>2026-05-03T07:00:33.107Z</time></trkpt><trkpt lat="45.34413" lon="10.8390267"><ele>53.0</ele><time>2026-05-03T07:00:34.107Z</time></trkpt><trkpt lat="45.3441367" lon="10.8389083"><ele>53.0</ele><time>2026-05-03T07:00:35.106Z</time></trkpt><trkpt lat="45.3441067" lon="10.8388"><ele>53.0</ele><time>2026-05-03T07:00:36.107Z</time></trkpt><trkpt lat="45.34403" lon="10.83872"><ele>53.0</ele><time>2026-05-03T07:00:37.107Z</time></trkpt><trkpt lat="45.343925" lon="10.8386533"><ele>53.0</ele><time>2026-05-03T07:00:38.107Z</time></trkpt><trkpt lat="45.3438167" lon="10.8385883"><ele>52.75</ele><time>2026-05-03T07:00:39.107Z</time></trkpt><trkpt lat="45.34371" lon="10.8385183"><ele>52.5</ele><time>2026-05-03T07:00:40.107Z</time></trkpt><trkpt lat="45.3435883" lon="10.8384383"><ele>52.25</ele><time>2026-05-03T07:00:41.107Z</time></trkpt><trkpt lat="45.3434717" lon="10.8383617"><ele>52.0</ele><time>2026-05-03T07:00:42.107Z</time></trkpt><trkpt lat="45.343355" lon="10.8382767"><ele>52.0</ele><time>2026-05-03T07:00:43.106Z</time></trkpt><trkpt lat="45.34323" lon="10.838195"><ele>52.0</ele><time>2026-05-03T07:00:44.106Z</time></trkpt><trkpt lat="45.3430983" lon="10.8381183"><ele>52.0</ele><time>2026-05-03T07:00:45.106Z</time></trkpt><trkpt lat="45.342965" lon="10.838035"><ele>52.0</ele><time>2026-05-03T07:00:46.107Z</time></trkpt><trkpt lat="45.3428267" lon="10.8379367"><ele>52.0</ele><time>2026-05-03T07:00:47.107Z</time></trkpt><trkpt lat="45.34268" lon="10.837845"><ele>52.0</ele><time>2026-05-03T07:00:48.107Z</time></trkpt><trkpt lat="45.3425417" lon="10.837745"><ele>52.0</ele><time>2026-05-03T07:00:49.107Z</time></trkpt><trkpt lat="45.3424" lon="10.837635"><ele>52.0</ele><time>2026-05-03T07:00:50.107Z</time></trkpt><trkpt lat="45.3422483" lon="10.837545"><ele>52.0</ele><time>2026-05-03T07:00:51.106Z</time></trkpt><trkpt lat="45.3420983" lon="10.8374533"><ele>52.0</ele><time>2026-05-03T07:00:52.107Z</time></trkpt><trkpt lat="45.3419533" lon="10.8373617"><ele>52.0</ele><time>2026-05-03T07:00:53.107Z</time></trkpt><trkpt lat="45.3418133" lon="10.8372667"><ele>52.0</ele><time>2026-05-03T07:00:54.107Z</time></trkpt><trkpt lat="45.341665" lon="10.837175"><ele>52.0</ele><time>2026-05-03T07:00:55.107Z</time></trkpt><trkpt lat="45.3415133" lon="10.8370883"><ele>51.33333333333333</ele><time>2026-05-03T07:00:56.106Z</time></trkpt><trkpt lat="45.3413783" lon="10.8369983"><ele>50.66666666666667</ele><time>2026-05-03T07:00:57.107Z</time></trkpt><trkpt lat="45.3412367" lon="10.83691"><ele>50.0</ele><time>2026-05-03T07:00:58.107Z</time></trkpt><trkpt lat="45.3410883" lon="10.8368267"><ele>49.66666666666667</ele><time>2026-05-03T07:00:59.107Z</time></trkpt><trkpt lat="45.3409383" lon="10.83675"><ele>49.33333333333333</ele><time>2026-05-03T07:01:00.107Z</time></trkpt><trkpt lat="45.340785" lon="10.83668"><ele>49.0</ele><time>2026-05-03T07:01:01.107Z</time></trkpt><trkpt lat="45.34063" lon="10.8366183"><ele>50.0</ele><time>2026-05-03T07:01:02.107Z</time></trkpt><trkpt lat="45.3404683" lon="10.8365717"><ele>51.0</ele><time>2026-05-03T07:01:03.107Z</time></trkpt><trkpt lat="45.34031" lon="10.8365367"><ele>52.0</ele><time>2026-05-03T07:01:04.107Z</time></trkpt><trkpt lat="45.340145" lon="10.8365117"><ele>52.0</ele><time>2026-05-03T07:01:05.107Z</time></trkpt><trkpt lat="45.3399783" lon="10.8364917"><ele>52.0</ele><time>2026-05-03T07:01:06.107Z</time></trkpt><trkpt lat="45.33982" lon="10.836475"><ele>52.0</ele><time>2026-05-03T07:01:07.107Z</time></trkpt><trkpt lat="45.33966" lon="10.8364467"><ele>51.33333333333333</ele><time>2026-05-03T07:01:08.107Z</time></trkpt><trkpt lat="45.3395017" lon="10.83642"><ele>50.66666666666667</ele><time>2026-05-03T07:01:09.107Z</time></trkpt><trkpt lat="45.3393467" lon="10.8363967"><ele>50.0</ele><time>2026-05-03T07:01:10.107Z</time></trkpt><trkpt lat="45.3391933" lon="10.83637"><ele>50.0</ele><time>2026-05-03T07:01:11.107Z</time></trkpt><trkpt lat="45.3390433" lon="10.836345"><ele>50.0</ele><time>2026-05-03T07:01:12.106Z</time></trkpt><trkpt lat="45.33889" lon="10.8363267"><ele>50.0</ele><time>2026-05-03T07:01:13.107Z</time></trkpt><trkpt lat="45.3387333" lon="10.8363117"><ele>50.333333333333336</ele><time>2026-05-03T07:01:14.107Z</time></trkpt><trkpt lat="45.3385783" lon="10.8362883"><ele>50.66666666666667</ele><time>2026-05-03T07:01:15.107Z</time></trkpt><trkpt lat="45.3384217" lon="10.8362633"><ele>51.0</ele><time>2026-05-03T07:01:16.106Z</time></trkpt><trkpt lat="45.33827" lon="10.8362367"><ele>51.0</ele><time>2026-05-03T07:01:17.106Z</time></trkpt><trkpt lat="45.3381133" lon="10.8362033"><ele>51.0</ele><time>2026-05-03T07:01:18.106Z</time></trkpt><trkpt lat="45.3379517" lon="10.8361867"><ele>51.0</ele><time>2026-05-03T07:01:19.106Z</time></trkpt><trkpt lat="45.337795" lon="10.8361633"><ele>51.0</ele><time>2026-05-03T07:01:20.107Z</time></trkpt><trkpt lat="45.3376467" lon="10.836135"><ele>51.0</ele><time>2026-05-03T07:01:21.107Z</time></trkpt><trkpt lat="45.3374983" lon="10.8361217"><ele>51.0</ele><time>2026-05-03T07:01:22.107Z</time></trkpt><trkpt lat="45.33735" lon="10.8360983"><ele>51.0</ele><time>2026-05-03T07:01:23.106Z</time></trkpt><trkpt lat="45.3372033" lon="10.8360683"><ele>51.0</ele><time>2026-05-03T07:01:24.107Z</time></trkpt><trkpt lat="45.3370567" lon="10.8360483"><ele>51.0</ele><time>2026-05-03T07:01:25.107Z</time></trkpt><trkpt lat="45.336915" lon="10.8360217"><ele>51.0</ele><time>2026-05-03T07:01:26.106Z</time></trkpt><trkpt lat="45.3367667" lon="10.8360067"><ele>51.0</ele><time>2026-05-03T07:01:27.106Z</time></trkpt><trkpt lat="45.3366233" lon="10.8359867"><ele>50.75</ele><time>2026-05-03T07:01:28.107Z</time></trkpt><trkpt lat="45.336485" lon="10.83596"><ele>50.5</ele><time>2026-05-03T07:01:29.106Z</time></trkpt><trkpt lat="45.3363483" lon="10.83594"><ele>50.25</ele><time>2026-05-03T07:01:30.107Z</time></trkpt><trkpt lat="45.3362267" lon="10.8359083"><ele>50.0</ele><time>2026-05-03T07:01:31.107Z</time></trkpt><trkpt lat="45.33609" lon="10.8358867"><ele>49.75</ele><time>2026-05-03T07:01:32.107Z</time></trkpt><trkpt lat="45.335955" lon="10.8358617"><ele>49.5</ele><time>2026-05-03T07:01:33.106Z</time></trkpt><trkpt lat="45.3358183" lon="10.8358383"><ele>49.25</ele><time>2026-05-03T07:01:34.107Z</time></trkpt><trkpt lat="45.3356833" lon="10.8358167"><ele>49.0</ele><time>2026-05-03T07:01:35.107Z</time></trkpt><trkpt lat="45.33555" lon="10.8357867"><ele>49.0</ele><time>2026-05-03T07:01:36.106Z</time></trkpt><trkpt lat="45.3354233" lon="10.8357567"><ele>49.0</ele><time>2026-05-03T07:01:37.107Z</time></trkpt><trkpt lat="45.3353067" lon="10.8357267"><ele>49.0</ele><time>2026-05-03T07:01:38.107Z</time></trkpt><trkpt lat="45.3351967" lon="10.8357"><ele>49.0</ele><time>2026-05-03T07:01:39.107Z</time></trkpt><trkpt lat="45.3350967" lon="10.8356717"><ele>49.0</ele><time>2026-05-03T07:01:40.107Z</time></trkpt><trkpt lat="45.33501" lon="10.835645"><ele>49.0</ele><time>2026-05-03T07:01:41.107Z</time></trkpt><trkpt lat="45.3349217" lon="10.8356233"><ele>49.0</ele><time>2026-05-03T07:01:42.107Z</time></trkpt><trkpt lat="45.3348433" lon="10.8356067"><ele>49.0</ele><time>2026-05-03T07:01:43.107Z</time></trkpt><trkpt lat="45.334745" lon="10.8355717"><ele>49.0</ele><time>2026-05-03T07:01:45.107Z</time></trkpt><trkpt lat="45.3347317" lon="10.8354433"><ele>48.99999999999999</ele><time>2026-05-03T07:01:48.107Z</time></trkpt><trkpt lat="45.3347767" lon="10.835285"><ele>49.0</ele><time>2026-05-03T07:01:50.107Z</time></trkpt><trkpt lat="45.334805" lon="10.8351833"><ele>49.0</ele><time>2026-05-03T07:01:51.106Z</time></trkpt><trkpt lat="45.3348367" lon="10.8350783"><ele>49.0</ele><time>2026-05-03T07:01:52.107Z</time></trkpt><trkpt lat="45.3348717" lon="10.834985"><ele>48.99999999999999</ele><time>2026-05-03T07:01:53.107Z</time></trkpt><trkpt lat="45.3349067" lon="10.8348933"><ele>49.0</ele><time>2026-05-03T07:01:54.107Z</time></trkpt><trkpt lat="45.3349383" lon="10.8347983"><ele>48.83333333333333</ele><time>2026-05-03T07:01:55.107Z</time></trkpt><trkpt lat="45.33497" lon="10.8347"><ele>48.666666666666664</ele><time>2026-05-03T07:01:56.106Z</time></trkpt><trkpt lat="45.335005" lon="10.8345933"><ele>48.5</ele><time>2026-05-03T07:01:57.107Z</time></trkpt><trkpt lat="45.3350433" lon="10.8344767"><ele>48.33333333333333</ele><time>2026-05-03T07:01:58.107Z</time></trkpt><trkpt lat="45.33508" lon="10.8343633"><ele>48.166666666666664</ele><time>2026-05-03T07:01:59.106Z</time></trkpt><trkpt lat="45.3351167" lon="10.8342517"><ele>48.0</ele><time>2026-05-03T07:02:00.107Z</time></trkpt><trkpt lat="45.335155" lon="10.834145"><ele>47.833333333333336</ele><time>2026-05-03T07:02:01.107Z</time></trkpt><trkpt lat="45.3351933" lon="10.834035"><ele>47.666666666666664</ele><time>2026-05-03T07:02:02.107Z</time></trkpt><trkpt lat="45.3352333" lon="10.8339283"><ele>47.5</ele><time>2026-05-03T07:02:03.107Z</time></trkpt><trkpt lat="45.3352717" lon="10.8338233"><ele>47.33333333333333</ele><time>2026-05-03T07:02:04.106Z</time></trkpt><trkpt lat="45.3353083" lon="10.8337133"><ele>47.166666666666664</ele><time>2026-05-03T07:02:05.107Z</time></trkpt><trkpt lat="45.3353433" lon="10.8336"><ele>47.0</ele><time>2026-05-03T07:02:06.107Z</time></trkpt><trkpt lat="45.33538" lon="10.83349"><ele>47.0</ele><time>2026-05-03T07:02:07.106Z</time></trkpt><trkpt lat="45.3354133" lon="10.8333883"><ele>47.0</ele><time>2026-05-03T07:02:08.107Z</time></trkpt><trkpt lat="45.3354467" lon="10.8332883"><ele>47.0</ele><time>2026-05-03T07:02:09.107Z</time></trkpt><trkpt lat="45.335485" lon="10.8331867"><ele>47.0</ele><time>2026-05-03T07:02:10.107Z</time></trkpt><trkpt lat="45.335525" lon="10.8330817"><ele>47.0</ele><time>2026-05-03T07:02:11.107Z</time></trkpt><trkpt lat="45.3355633" lon="10.8329833"><ele>47.0</ele><time>2026-05-03T07:02:12.107Z</time></trkpt><trkpt lat="45.3356117" lon="10.8328717"><ele>47.33333333333333</ele><time>2026-05-03T07:02:13.107Z</time></trkpt><trkpt lat="45.3356483" lon="10.8327733"><ele>47.666666666666664</ele><time>2026-05-03T07:02:14.107Z</time></trkpt><trkpt lat="45.3356867" lon="10.8326733"><ele>48.0</ele><time>2026-05-03T07:02:15.107Z</time></trkpt><trkpt lat="45.3357267" lon="10.8325683"><ele>48.33333333333333</ele><time>2026-05-03T07:02:16.107Z</time></trkpt><trkpt lat="45.3357617" lon="10.832465"><ele>48.666666666666664</ele><time>2026-05-03T07:02:17.107Z</time></trkpt><trkpt lat="45.3357983" lon="10.8323667"><ele>49.0</ele><time>2026-05-03T07:02:18.107Z</time></trkpt><trkpt lat="45.3358267" lon="10.83227"><ele>48.99999999999999</ele><time>2026-05-03T07:02:19.107Z</time></trkpt><trkpt lat="45.3358633" lon="10.8321733"><ele>49.0</ele><time>2026-05-03T07:02:20.107Z</time></trkpt><trkpt lat="45.3359067" lon="10.832085"><ele>49.0</ele><time>2026-05-03T07:02:21.107Z</time></trkpt><trkpt lat="45.335945" lon="10.832"><ele>49.0</ele><time>2026-05-03T07:02:22.107Z</time></trkpt><trkpt lat="45.3359883" lon="10.8319183"><ele>48.99999999999999</ele><time>2026-05-03T07:02:23.106Z</time></trkpt><trkpt lat="45.336035" lon="10.83183"><ele>49.0</ele><time>2026-05-03T07:02:24.107Z</time></trkpt><trkpt lat="45.336085" lon="10.8317383"><ele>48.99999999999999</ele><time>2026-05-03T07:02:25.107Z</time></trkpt><trkpt lat="45.33613" lon="10.8316467"><ele>49.0</ele><time>2026-05-03T07:02:26.106Z</time></trkpt><trkpt lat="45.33618" lon="10.8315583"><ele>49.0</ele><time>2026-05-03T07:02:27.107Z</time></trkpt><trkpt lat="45.3362267" lon="10.8314533"><ele>49.0</ele><time>2026-05-03T07:02:28.107Z</time></trkpt><trkpt lat="45.33628" lon="10.83135"><ele>48.99999999999999</ele><time>2026-05-03T07:02:29.107Z</time></trkpt><trkpt lat="45.3363333" lon="10.8312383"><ele>49.0</ele><time>2026-05-03T07:02:30.106Z</time></trkpt><trkpt lat="45.3363917" lon="10.83113"><ele>49.0</ele><time>2026-05-03T07:02:31.107Z</time></trkpt><trkpt lat="45.3364517" lon="10.8310267"><ele>49.0</ele><time>2026-05-03T07:02:32.107Z</time></trkpt><trkpt lat="45.336505" lon="10.83092"><ele>49.0</ele><time>2026-05-03T07:02:33.107Z</time></trkpt><trkpt lat="45.3365583" lon="10.830805"><ele>49.0</ele><time>2026-05-03T07:02:34.107Z</time></trkpt><trkpt lat="45.33661" lon="10.83069"><ele>49.0</ele><time>2026-05-03T07:02:35.107Z</time></trkpt><trkpt lat="45.3366633" lon="10.8305817"><ele>49.33333333333333</ele><time>2026-05-03T07:02:36.106Z</time></trkpt><trkpt lat="45.33671" lon="10.8304967"><ele>49.666666666666664</ele><time>2026-05-03T07:02:37.107Z</time></trkpt><trkpt lat="45.33675" lon="10.8304267"><ele>50.0</ele><time>2026-05-03T07:02:38.107Z</time></trkpt><trkpt lat="45.33682" lon="10.8303233"><ele>50.33333333333333</ele><time>2026-05-03T07:02:40.107Z</time></trkpt><trkpt lat="45.3368883" lon="10.8303083"><ele>50.666666666666664</ele><time>2026-05-03T07:02:42.106Z</time></trkpt><trkpt lat="45.3369717" lon="10.8303917"><ele>51.0</ele><time>2026-05-03T07:02:44.107Z</time></trkpt><trkpt lat="45.3370217" lon="10.8304567"><ele>51.0</ele><time>2026-05-03T07:02:45.107Z</time></trkpt><trkpt lat="45.3370833" lon="10.830535"><ele>51.0</ele><time>2026-05-03T07:02:46.106Z</time></trkpt><trkpt lat="45.33715" lon="10.8306133"><ele>51.0</ele><time>2026-05-03T07:02:47.107Z</time></trkpt><trkpt lat="45.3372233" lon="10.8307067"><ele>51.0</ele><time>2026-05-03T07:02:48.107Z</time></trkpt><trkpt lat="45.3373" lon="10.8307983"><ele>51.0</ele><time>2026-05-03T07:02:49.106Z</time></trkpt><trkpt lat="45.3373733" lon="10.8308917"><ele>51.0</ele><time>2026-05-03T07:02:50.106Z</time></trkpt><trkpt lat="45.337435" lon="10.8309767"><ele>51.0</ele><time>2026-05-03T07:02:51.107Z</time></trkpt><trkpt lat="45.3374933" lon="10.831055"><ele>51.0</ele><time>2026-05-03T07:02:52.107Z</time></trkpt><trkpt lat="45.3375467" lon="10.8311233"><ele>51.0</ele><time>2026-05-03T07:02:53.106Z</time></trkpt><trkpt lat="45.3376317" lon="10.8312033"><ele>51.0</ele><time>2026-05-03T07:02:55.107Z</time></trkpt><trkpt lat="45.3376983" lon="10.8311667"><ele>51.0</ele><time>2026-05-03T07:02:57.107Z</time></trkpt><trkpt lat="45.3377417" lon="10.8310667"><ele>51.0</ele><time>2026-05-03T07:02:59.107Z</time></trkpt><trkpt lat="45.3378167" lon="10.83091"><ele>51.0</ele><time>2026-05-03T07:03:01.107Z</time></trkpt><trkpt lat="45.3378717" lon="10.8308067"><ele>51.0</ele><time>2026-05-03T07:03:02.107Z</time></trkpt><trkpt lat="45.3379283" lon="10.8306983"><ele>51.0</ele><time>2026-05-03T07:03:03.107Z</time></trkpt><trkpt lat="45.3379917" lon="10.83058"><ele>51.0</ele><time>2026-05-03T07:03:04.107Z</time></trkpt><trkpt lat="45.338055" lon="10.8304617"><ele>51.25</ele><time>2026-05-03T07:03:05.107Z</time></trkpt><trkpt lat="45.3381183" lon="10.83034"><ele>51.5</ele><time>2026-05-03T07:03:06.107Z</time></trkpt><trkpt lat="45.3381883" lon="10.8302033"><ele>51.75</ele><time>2026-05-03T07:03:07.106Z</time></trkpt><trkpt lat="45.3382617" lon="10.8300667"><ele>52.0</ele><time>2026-05-03T07:03:08.107Z</time></trkpt><trkpt lat="45.33834" lon="10.82992"><ele>52.0</ele><time>2026-05-03T07:03:09.106Z</time></trkpt><trkpt lat="45.3384133" lon="10.8297633"><ele>52.0</ele><time>2026-05-03T07:03:10.106Z</time></trkpt><trkpt lat="45.3384917" lon="10.82962"><ele>52.0</ele><time>2026-05-03T07:03:11.107Z</time></trkpt><trkpt lat="45.3385733" lon="10.829475"><ele>52.0</ele><time>2026-05-03T07:03:12.107Z</time></trkpt><trkpt lat="45.3386483" lon="10.829325"><ele>52.25</ele><time>2026-05-03T07:03:13.107Z</time></trkpt><trkpt lat="45.3387233" lon="10.8291817"><ele>52.5</ele><time>2026-05-03T07:03:14.106Z</time></trkpt><trkpt lat="45.3387983" lon="10.829035"><ele>52.75</ele><time>2026-05-03T07:03:15.107Z</time></trkpt><trkpt lat="45.338865" lon="10.8289"><ele>53.0</ele><time>2026-05-03T07:03:16.107Z</time></trkpt><trkpt lat="45.33893" lon="10.828775"><ele>53.0</ele><time>2026-05-03T07:03:17.107Z</time></trkpt><trkpt lat="45.3389883" lon="10.8286467"><ele>53.0</ele><time>2026-05-03T07:03:18.107Z</time></trkpt><trkpt lat="45.3390433" lon="10.8285017"><ele>53.0</ele><time>2026-05-03T07:03:19.106Z</time></trkpt><trkpt lat="45.339095" lon="10.8283533"><ele>53.0</ele><time>2026-05-03T07:03:20.107Z</time></trkpt><trkpt lat="45.33914" lon="10.8282167"><ele>53.0</ele><time>2026-05-03T07:03:21.106Z</time></trkpt><trkpt lat="45.339175" lon="10.8281083"><ele>53.00000000000001</ele><time>2026-05-03T07:03:22.106Z</time></trkpt><trkpt lat="45.3392067" lon="10.8279967"><ele>53.0</ele><time>2026-05-03T07:03:23.107Z</time></trkpt><trkpt lat="45.33924" lon="10.82789"><ele>53.0</ele><time>2026-05-03T07:03:24.107Z</time></trkpt><trkpt lat="45.339275" lon="10.8277767"><ele>53.0</ele><time>2026-05-03T07:03:25.107Z</time></trkpt><trkpt lat="45.3393117" lon="10.82767"><ele>53.00000000000001</ele><time>2026-05-03T07:03:26.107Z</time></trkpt><trkpt lat="45.33935" lon="10.8275617"><ele>53.0</ele><time>2026-05-03T07:03:27.107Z</time></trkpt><trkpt lat="45.3393833" lon="10.827455"><ele>53.00000000000001</ele><time>2026-05-03T07:03:28.107Z</time></trkpt><trkpt lat="45.3394217" lon="10.8273433"><ele>53.0</ele><time>2026-05-03T07:03:29.107Z</time></trkpt><trkpt lat="45.33946" lon="10.8272267"><ele>53.0</ele><time>2026-05-03T07:03:30.106Z</time></trkpt><trkpt lat="45.3394967" lon="10.8271133"><ele>53.0</ele><time>2026-05-03T07:03:31.107Z</time></trkpt><trkpt lat="45.3395333" lon="10.827"><ele>53.00000000000001</ele><time>2026-05-03T07:03:32.107Z</time></trkpt><trkpt lat="45.3395683" lon="10.826885"><ele>53.0</ele><time>2026-05-03T07:03:33.107Z</time></trkpt><trkpt lat="45.3396" lon="10.8267767"><ele>53.142857142857146</ele><time>2026-05-03T07:03:34.107Z</time></trkpt><trkpt lat="45.33963" lon="10.8266767"><ele>53.285714285714285</ele><time>2026-05-03T07:03:35.107Z</time></trkpt><trkpt lat="45.3396617" lon="10.8265833"><ele>53.42857142857143</ele><time>2026-05-03T07:03:36.107Z</time></trkpt><trkpt lat="45.339695" lon="10.8264917"><ele>53.57142857142857</ele><time>2026-05-03T07:03:37.107Z</time></trkpt><trkpt lat="45.339725" lon="10.8264017"><ele>53.71428571428571</ele><time>2026-05-03T07:03:38.106Z</time></trkpt><trkpt lat="45.339755" lon="10.8263117"><ele>53.857142857142854</ele><time>2026-05-03T07:03:39.107Z</time></trkpt><trkpt lat="45.339785" lon="10.82622"><ele>54.0</ele><time>2026-05-03T07:03:40.107Z</time></trkpt><trkpt lat="45.3398117" lon="10.8261267"><ele>53.666666666666664</ele><time>2026-05-03T07:03:41.107Z</time></trkpt><trkpt lat="45.3398383" lon="10.8260383"><ele>53.33333333333333</ele><time>2026-05-03T07:03:42.107Z</time></trkpt><trkpt lat="45.33987" lon="10.82595"><ele>53.0</ele><time>2026-05-03T07:03:43.107Z</time></trkpt><trkpt lat="45.3399067" lon="10.82587"><ele>52.666666666666664</ele><time>2026-05-03T07:03:44.107Z</time></trkpt><trkpt lat="45.33995" lon="10.82578"><ele>52.33333333333333</ele><time>2026-05-03T07:03:45.107Z</time></trkpt><trkpt lat="45.3399983" lon="10.8256783"><ele>52.0</ele><time>2026-05-03T07:03:46.107Z</time></trkpt><trkpt lat="45.3400483" lon="10.8255817"><ele>52.0</ele><time>2026-05-03T07:03:47.107Z</time></trkpt><trkpt lat="45.3400967" lon="10.82548"><ele>52.0</ele><time>2026-05-03T07:03:48.106Z</time></trkpt><trkpt lat="45.3401417" lon="10.8253783"><ele>52.0</ele><time>2026-05-03T07:03:49.107Z</time></trkpt><trkpt lat="45.340195" lon="10.825265"><ele>52.0</ele><time>2026-05-03T07:03:50.106Z</time></trkpt><trkpt lat="45.34025" lon="10.8251567"><ele>52.0</ele><time>2026-05-03T07:03:51.107Z</time></trkpt><trkpt lat="45.3403083" lon="10.825045"><ele>52.2</ele><time>2026-05-03T07:03:52.107Z</time></trkpt><trkpt lat="45.3403633" lon="10.8249283"><ele>52.400000000000006</ele><time>2026-05-03T07:03:53.107Z</time></trkpt><trkpt lat="45.3404167" lon="10.8248117"><ele>52.599999999999994</ele><time>2026-05-03T07:03:54.106Z</time></trkpt><trkpt lat="45.34047" lon="10.8247"><ele>52.8</ele><time>2026-05-03T07:03:55.106Z</time></trkpt><trkpt lat="45.3405217" lon="10.8245833"><ele>53.0</ele><time>2026-05-03T07:03:56.106Z</time></trkpt><trkpt lat="45.34057" lon="10.8244767"><ele>53.0</ele><time>2026-05-03T07:03:57.107Z</time></trkpt><trkpt lat="45.3406183" lon="10.8243717"><ele>53.0</ele><time>2026-05-03T07:03:58.107Z</time></trkpt><trkpt lat="45.3406717" lon="10.824265"><ele>53.0</ele><time>2026-05-03T07:03:59.107Z</time></trkpt><trkpt lat="45.3407283" lon="10.82416"><ele>53.0</ele><time>2026-05-03T07:04:00.106Z</time></trkpt><trkpt lat="45.3407717" lon="10.824075"><ele>53.0</ele><time>2026-05-03T07:04:01.107Z</time></trkpt><trkpt lat="45.3408367" lon="10.82394"><ele>53.00000000000001</ele><time>2026-05-03T07:04:03.106Z</time></trkpt><trkpt lat="45.340885" lon="10.823865"><ele>53.0</ele><time>2026-05-03T07:04:06.107Z</time></trkpt><trkpt lat="45.3409567" lon="10.82391"><ele>53.0</ele><time>2026-05-03T07:04:13.107Z</time></trkpt><trkpt lat="45.3410083" lon="10.8239867"><ele>53.0</ele><time>2026-05-03T07:04:14.107Z</time></trkpt><trkpt lat="45.3410617" lon="10.8240767"><ele>53.00000000000001</ele><time>2026-05-03T07:04:15.107Z</time></trkpt><trkpt lat="45.3411183" lon="10.8241683"><ele>53.0</ele><time>2026-05-03T07:04:16.107Z</time></trkpt><trkpt lat="45.3411883" lon="10.824275"><ele>53.0</ele><time>2026-05-03T07:04:17.106Z</time></trkpt><trkpt lat="45.3412583" lon="10.8243883"><ele>53.0</ele><time>2026-05-03T07:04:18.107Z</time></trkpt><trkpt lat="45.341325" lon="10.8244983"><ele>53.0</ele><time>2026-05-03T07:04:19.106Z</time></trkpt><trkpt lat="45.3413933" lon="10.8246117"><ele>53.0</ele><time>2026-05-03T07:04:20.106Z</time></trkpt><trkpt lat="45.3414633" lon="10.8247317"><ele>53.0</ele><time>2026-05-03T07:04:21.106Z</time></trkpt><trkpt lat="45.3415417" lon="10.8248567"><ele>53.0</ele><time>2026-05-03T07:04:22.107Z</time></trkpt><trkpt lat="45.3416217" lon="10.8249817"><ele>53.0</ele><time>2026-05-03T07:04:23.106Z</time></trkpt><trkpt lat="45.3417" lon="10.8251117"><ele>53.0</ele><time>2026-05-03T07:04:24.106Z</time></trkpt><trkpt lat="45.34178" lon="10.8252367"><ele>53.0</ele><time>2026-05-03T07:04:25.107Z</time></trkpt><trkpt lat="45.3418617" lon="10.8253583"><ele>53.0</ele><time>2026-05-03T07:04:26.107Z</time></trkpt><trkpt lat="45.3419383" lon="10.8254767"><ele>53.0</ele><time>2026-05-03T07:04:27.106Z</time></trkpt><trkpt lat="45.3420117" lon="10.8256"><ele>53.0</ele><time>2026-05-03T07:04:28.106Z</time></trkpt><trkpt lat="45.3420867" lon="10.8257233"><ele>53.0</ele><time>2026-05-03T07:04:29.106Z</time></trkpt><trkpt lat="45.3421583" lon="10.8258417"><ele>53.00000000000001</ele><time>2026-05-03T07:04:30.106Z</time></trkpt><trkpt lat="45.3422283" lon="10.8259533"><ele>53.0</ele><time>2026-05-03T07:04:31.107Z</time></trkpt><trkpt lat="45.34229" lon="10.8260583"><ele>53.0</ele><time>2026-05-03T07:04:32.107Z</time></trkpt><trkpt lat="45.3423467" lon="10.8261517"><ele>53.0</ele><time>2026-05-03T07:04:33.107Z</time></trkpt><trkpt lat="45.3423933" lon="10.82623"><ele>53.00000000000001</ele><time>2026-05-03T07:04:34.107Z</time></trkpt><trkpt lat="45.3424383" lon="10.8263"><ele>53.0</ele><time>2026-05-03T07:04:35.107Z</time></trkpt><trkpt lat="45.3425333" lon="10.82639"><ele>53.00000000000001</ele><time>2026-05-03T07:04:37.107Z</time></trkpt><trkpt lat="45.3426317" lon="10.8263483"><ele>53.0</ele><time>2026-05-03T07:04:39.107Z</time></trkpt><trkpt lat="45.3426833" lon="10.8262733"><ele>53.0</ele><time>2026-05-03T07:04:40.107Z</time></trkpt><trkpt lat="45.342725" lon="10.8261717"><ele>53.0</ele><time>2026-05-03T07:04:41.107Z</time></trkpt><trkpt lat="45.342775" lon="10.82606"><ele>53.00000000000001</ele><time>2026-05-03T07:04:42.107Z</time></trkpt><trkpt lat="45.3428267" lon="10.825945"><ele>53.0</ele><time>2026-05-03T07:04:43.107Z</time></trkpt><trkpt lat="45.3428833" lon="10.825815"><ele>53.0</ele><time>2026-05-03T07:04:44.107Z</time></trkpt><trkpt lat="45.3429467" lon="10.8256833"><ele>53.0</ele><time>2026-05-03T07:04:45.107Z</time></trkpt><trkpt lat="45.343005" lon="10.8255533"><ele>53.0</ele><time>2026-05-03T07:04:46.107Z</time></trkpt><trkpt lat="45.343065" lon="10.82542"><ele>53.0</ele><time>2026-05-03T07:04:47.106Z</time></trkpt><trkpt lat="45.3431267" lon="10.82529"><ele>53.0</ele><time>2026-05-03T07:04:48.107Z</time></trkpt><trkpt lat="45.3431933" lon="10.8251517"><ele>52.75</ele><time>2026-05-03T07:04:49.107Z</time></trkpt><trkpt lat="45.3432583" lon="10.825015"><ele>52.5</ele><time>2026-05-03T07:04:50.107Z</time></trkpt><trkpt lat="45.34333" lon="10.8248817"><ele>52.25</ele><time>2026-05-03T07:04:51.107Z</time></trkpt><trkpt lat="45.3434017" lon="10.8247433"><ele>52.0</ele><time>2026-05-03T07:04:52.106Z</time></trkpt><trkpt lat="45.3434667" lon="10.8245933"><ele>52.0</ele><time>2026-05-03T07:04:53.107Z</time></trkpt><trkpt lat="45.3435217" lon="10.8244433"><ele>52.0</ele><time>2026-05-03T07:04:54.107Z</time></trkpt><trkpt lat="45.3435733" lon="10.824295"><ele>52.0</ele><time>2026-05-03T07:04:55.107Z</time></trkpt><trkpt lat="45.34363" lon="10.8241383"><ele>52.0</ele><time>2026-05-03T07:04:56.106Z</time></trkpt><trkpt lat="45.3436933" lon="10.8239917"><ele>52.75</ele><time>2026-05-03T07:04:57.107Z</time></trkpt><trkpt lat="45.3437583" lon="10.8238367"><ele>53.5</ele><time>2026-05-03T07:04:58.107Z</time></trkpt><trkpt lat="45.3438217" lon="10.8236933"><ele>54.25</ele><time>2026-05-03T07:04:59.107Z</time></trkpt><trkpt lat="45.343885" lon="10.823545"><ele>55.0</ele><time>2026-05-03T07:05:00.107Z</time></trkpt><trkpt lat="45.343945" lon="10.8233933"><ele>55.25</ele><time>2026-05-03T07:05:01.107Z</time></trkpt><trkpt lat="45.3439933" lon="10.823235"><ele>55.5</ele><time>2026-05-03T07:05:02.106Z</time></trkpt><trkpt lat="45.344035" lon="10.8230717"><ele>55.75</ele><time>2026-05-03T07:05:03.107Z</time></trkpt><trkpt lat="45.344075" lon="10.822915"><ele>56.0</ele><time>2026-05-03T07:05:04.107Z</time></trkpt><trkpt lat="45.344105" lon="10.822745"><ele>55.0</ele><time>2026-05-03T07:05:05.106Z</time></trkpt><trkpt lat="45.34413" lon="10.8225733"><ele>54.0</ele><time>2026-05-03T07:05:06.107Z</time></trkpt><trkpt lat="45.34417" lon="10.8222183"><ele>53.0</ele><time>2026-05-03T07:05:08.107Z</time></trkpt><trkpt lat="45.3441817" lon="10.82204"><ele>53.0</ele><time>2026-05-03T07:05:09.107Z</time></trkpt><trkpt lat="45.3441967" lon="10.8218683"><ele>53.0</ele><time>2026-05-03T07:05:10.107Z</time></trkpt><trkpt lat="45.3442133" lon="10.8216883"><ele>53.0</ele><time>2026-05-03T07:05:11.107Z</time></trkpt><trkpt lat="45.3442333" lon="10.8214933"><ele>53.0</ele><time>2026-05-03T07:05:12.107Z</time></trkpt><trkpt lat="45.3442583" lon="10.8212883"><ele>53.25</ele><time>2026-05-03T07:05:13.106Z</time></trkpt><trkpt lat="45.344275" lon="10.821095"><ele>53.5</ele><time>2026-05-03T07:05:14.107Z</time></trkpt><trkpt lat="45.34429" lon="10.8208967"><ele>53.75</ele><time>2026-05-03T07:05:15.107Z</time></trkpt><trkpt lat="45.3443083" lon="10.8207067"><ele>54.0</ele><time>2026-05-03T07:05:16.107Z</time></trkpt><trkpt lat="45.3443233" lon="10.82052"><ele>54.25</ele><time>2026-05-03T07:05:17.107Z</time></trkpt><trkpt lat="45.3443433" lon="10.8203283"><ele>54.5</ele><time>2026-05-03T07:05:18.107Z</time></trkpt><trkpt lat="45.34436" lon="10.8201333"><ele>54.75</ele><time>2026-05-03T07:05:19.107Z</time></trkpt><trkpt lat="45.3443733" lon="10.8199383"><ele>55.0</ele><time>2026-05-03T07:05:20.107Z</time></trkpt><trkpt lat="45.344385" lon="10.819745"><ele>55.0</ele><time>2026-05-03T07:05:21.107Z</time></trkpt><trkpt lat="45.3443933" lon="10.819535"><ele>55.0</ele><time>2026-05-03T07:05:22.106Z</time></trkpt><trkpt lat="45.3443967" lon="10.8193267"><ele>55.0</ele><time>2026-05-03T07:05:23.107Z</time></trkpt><trkpt lat="45.3444033" lon="10.819115"><ele>55.0</ele><time>2026-05-03T07:05:24.107Z</time></trkpt><trkpt lat="45.3444083" lon="10.8189167"><ele>55.0</ele><time>2026-05-03T07:05:25.107Z</time></trkpt><trkpt lat="45.3444117" lon="10.8187067"><ele>55.0</ele><time>2026-05-03T07:05:26.107Z</time></trkpt><trkpt lat="45.344415" lon="10.8184967"><ele>55.0</ele><time>2026-05-03T07:05:27.107Z</time></trkpt><trkpt lat="45.34442" lon="10.8182833"><ele>55.0</ele><time>2026-05-03T07:05:28.107Z</time></trkpt><trkpt lat="45.34443" lon="10.8180683"><ele>55.0</ele><time>2026-05-03T07:05:29.107Z</time></trkpt><trkpt lat="45.3444433" lon="10.81786"><ele>55.0</ele><time>2026-05-03T07:05:30.107Z</time></trkpt><trkpt lat="45.3444583" lon="10.81765"><ele>55.0</ele><time>2026-05-03T07:05:31.107Z</time></trkpt><trkpt lat="45.3444783" lon="10.8174367"><ele>55.0</ele><time>2026-05-03T07:05:32.107Z</time></trkpt><trkpt lat="45.3445033" lon="10.8172267"><ele>55.0</ele><time>2026-05-03T07:05:33.107Z</time></trkpt><trkpt lat="45.3445333" lon="10.8170267"><ele>55.0</ele><time>2026-05-03T07:05:34.107Z</time></trkpt><trkpt lat="45.3445617" lon="10.8168167"><ele>55.0</ele><time>2026-05-03T07:05:35.107Z</time></trkpt><trkpt lat="45.344595" lon="10.8166167"><ele>55.0</ele><time>2026-05-03T07:05:36.106Z</time></trkpt><trkpt lat="45.3446333" lon="10.8164117"><ele>55.0</ele><time>2026-05-03T07:05:37.107Z</time></trkpt><trkpt lat="45.3446667" lon="10.8162"><ele>55.0</ele><time>2026-05-03T07:05:38.107Z</time></trkpt><trkpt lat="45.3447067" lon="10.815995"><ele>55.0</ele><time>2026-05-03T07:05:39.107Z</time></trkpt><trkpt lat="45.3447417" lon="10.8157833"><ele>55.0</ele><time>2026-05-03T07:05:40.107Z</time></trkpt><trkpt lat="45.34478" lon="10.8155633"><ele>55.0</ele><time>2026-05-03T07:05:41.107Z</time></trkpt><trkpt lat="45.34481" lon="10.8153617"><ele>55.0</ele><time>2026-05-03T07:05:42.107Z</time></trkpt><trkpt lat="45.34484" lon="10.815175"><ele>55.0</ele><time>2026-05-03T07:05:43.107Z</time></trkpt><trkpt lat="45.3448683" lon="10.814995"><ele>55.0</ele><time>2026-05-03T07:05:44.106Z</time></trkpt><trkpt lat="45.3448967" lon="10.8148117"><ele>55.0</ele><time>2026-05-03T07:05:45.107Z</time></trkpt><trkpt lat="45.34493" lon="10.8146417"><ele>55.0</ele><time>2026-05-03T07:05:46.107Z</time></trkpt><trkpt lat="45.3449633" lon="10.81447"><ele>55.0</ele><time>2026-05-03T07:05:47.107Z</time></trkpt><trkpt lat="45.345" lon="10.8142983"><ele>55.75</ele><time>2026-05-03T07:05:48.107Z</time></trkpt><trkpt lat="45.3450317" lon="10.8141317"><ele>56.5</ele><time>2026-05-03T07:05:49.107Z</time></trkpt><trkpt lat="45.3450633" lon="10.81395"><ele>57.25</ele><time>2026-05-03T07:05:50.107Z</time></trkpt><trkpt lat="45.345095" lon="10.8137717"><ele>58.0</ele><time>2026-05-03T07:05:51.107Z</time></trkpt><trkpt lat="45.3451167" lon="10.81358"><ele>57.75</ele><time>2026-05-03T07:05:52.107Z</time></trkpt><trkpt lat="45.3451383" lon="10.81339"><ele>57.5</ele><time>2026-05-03T07:05:53.107Z</time></trkpt><trkpt lat="45.34515" lon="10.8132067"><ele>57.25</ele><time>2026-05-03T07:05:54.107Z</time></trkpt><trkpt lat="45.3451783" lon="10.8130283"><ele>57.0</ele><time>2026-05-03T07:05:55.106Z</time></trkpt><trkpt lat="45.3452" lon="10.8128533"><ele>57.0</ele><time>2026-05-03T07:05:56.107Z</time></trkpt><trkpt lat="45.3452267" lon="10.81267"><ele>57.0</ele><time>2026-05-03T07:05:57.107Z</time></trkpt><trkpt lat="45.345255" lon="10.8124917"><ele>57.0</ele><time>2026-05-03T07:05:58.107Z</time></trkpt><trkpt lat="45.3452833" lon="10.812315"><ele>57.0</ele><time>2026-05-03T07:05:59.107Z</time></trkpt><trkpt lat="45.3453067" lon="10.8121417"><ele>57.0</ele><time>2026-05-03T07:06:00.107Z</time></trkpt><trkpt lat="45.3453317" lon="10.8119633"><ele>57.0</ele><time>2026-05-03T07:06:01.107Z</time></trkpt><trkpt lat="45.345365" lon="10.8117733"><ele>57.0</ele><time>2026-05-03T07:06:02.107Z</time></trkpt><trkpt lat="45.3454017" lon="10.8116033"><ele>57.0</ele><time>2026-05-03T07:06:03.106Z</time></trkpt><trkpt lat="45.3454367" lon="10.811455"><ele>57.2</ele><time>2026-05-03T07:06:04.107Z</time></trkpt><trkpt lat="45.34547" lon="10.811315"><ele>57.400000000000006</ele><time>2026-05-03T07:06:05.106Z</time></trkpt><trkpt lat="45.3454933" lon="10.8111967"><ele>57.599999999999994</ele><time>2026-05-03T07:06:06.107Z</time></trkpt><trkpt lat="45.3455167" lon="10.8110833"><ele>57.8</ele><time>2026-05-03T07:06:07.107Z</time></trkpt><trkpt lat="45.3455433" lon="10.8109817"><ele>58.0</ele><time>2026-05-03T07:06:08.107Z</time></trkpt><trkpt lat="45.3455717" lon="10.8108167"><ele>57.99999999999999</ele><time>2026-05-03T07:06:10.107Z</time></trkpt><trkpt lat="45.3455767" lon="10.8107267"><ele>58.0</ele><time>2026-05-03T07:06:11.107Z</time></trkpt><trkpt lat="45.3455917" lon="10.8106167"><ele>58.0</ele><time>2026-05-03T07:06:12.107Z</time></trkpt><trkpt lat="45.3456167" lon="10.8104817"><ele>58.0</ele><time>2026-05-03T07:06:13.106Z</time></trkpt><trkpt lat="45.3456383" lon="10.8103367"><ele>57.99999999999999</ele><time>2026-05-03T07:06:14.107Z</time></trkpt><trkpt lat="45.34566" lon="10.8102"><ele>58.0</ele><time>2026-05-03T07:06:15.107Z</time></trkpt><trkpt lat="45.3456817" lon="10.8100517"><ele>58.25</ele><time>2026-05-03T07:06:16.107Z</time></trkpt><trkpt lat="45.3457067" lon="10.8098867"><ele>58.5</ele><time>2026-05-03T07:06:17.107Z</time></trkpt><trkpt lat="45.34574" lon="10.8097267"><ele>58.75</ele><time>2026-05-03T07:06:18.107Z</time></trkpt><trkpt lat="45.3457733" lon="10.809565"><ele>59.0</ele><time>2026-05-03T07:06:19.107Z</time></trkpt><trkpt lat="45.345805" lon="10.8094117"><ele>59.0</ele><time>2026-05-03T07:06:20.107Z</time></trkpt><trkpt lat="45.3458333" lon="10.8092633"><ele>59.00000000000001</ele><time>2026-05-03T07:06:21.106Z</time></trkpt><trkpt lat="45.3458667" lon="10.8091083"><ele>59.00000000000001</ele><time>2026-05-03T07:06:22.107Z</time></trkpt><trkpt lat="45.3459033" lon="10.8089633"><ele>59.0</ele><time>2026-05-03T07:06:23.107Z</time></trkpt><trkpt lat="45.34593" lon="10.8088217"><ele>59.0</ele><time>2026-05-03T07:06:24.107Z</time></trkpt><trkpt lat="45.3459517" lon="10.80867"><ele>59.0</ele><time>2026-05-03T07:06:25.107Z</time></trkpt><trkpt lat="45.3459683" lon="10.8085217"><ele>59.00000000000001</ele><time>2026-05-03T07:06:26.107Z</time></trkpt><trkpt lat="45.3459933" lon="10.8083733"><ele>59.00000000000001</ele><time>2026-05-03T07:06:27.106Z</time></trkpt><trkpt lat="45.3460233" lon="10.80822"><ele>59.0</ele><time>2026-05-03T07:06:28.106Z</time></trkpt><trkpt lat="45.3460433" lon="10.8080583"><ele>59.0</ele><time>2026-05-03T07:06:29.107Z</time></trkpt><trkpt lat="45.346065" lon="10.8079033"><ele>59.0</ele><time>2026-05-03T07:06:30.107Z</time></trkpt><trkpt lat="45.3461017" lon="10.807755"><ele>59.0</ele><time>2026-05-03T07:06:31.107Z</time></trkpt><trkpt lat="45.3461333" lon="10.80758"><ele>59.0</ele><time>2026-05-03T07:06:32.107Z</time></trkpt><trkpt lat="45.3461717" lon="10.80741"><ele>59.0</ele><time>2026-05-03T07:06:33.107Z</time></trkpt><trkpt lat="45.3462133" lon="10.8072383"><ele>59.0</ele><time>2026-05-03T07:06:34.107Z</time></trkpt><trkpt lat="45.3462583" lon="10.807065"><ele>59.0</ele><time>2026-05-03T07:06:35.107Z</time></trkpt><trkpt lat="45.34631" lon="10.8069033"><ele>59.0</ele><time>2026-05-03T07:06:36.107Z</time></trkpt><trkpt lat="45.3463583" lon="10.8067267"><ele>59.0</ele><time>2026-05-03T07:06:37.107Z</time></trkpt><trkpt lat="45.34641" lon="10.8065517"><ele>59.25</ele><time>2026-05-03T07:06:38.107Z</time></trkpt><trkpt lat="45.3464633" lon="10.8063817"><ele>59.5</ele><time>2026-05-03T07:06:39.107Z</time></trkpt><trkpt lat="45.3465133" lon="10.8062083"><ele>59.75</ele><time>2026-05-03T07:06:40.107Z</time></trkpt><trkpt lat="45.3465617" lon="10.8060333"><ele>60.0</ele><time>2026-05-03T07:06:41.107Z</time></trkpt><trkpt lat="45.3466117" lon="10.80586"><ele>60.25</ele><time>2026-05-03T07:06:42.107Z</time></trkpt><trkpt lat="45.346655" lon="10.8056967"><ele>60.5</ele><time>2026-05-03T07:06:43.107Z</time></trkpt><trkpt lat="45.346695" lon="10.8055433"><ele>60.75</ele><time>2026-05-03T07:06:44.107Z</time></trkpt><trkpt lat="45.346735" lon="10.80539"><ele>61.0</ele><time>2026-05-03T07:06:45.107Z</time></trkpt><trkpt lat="45.346775" lon="10.8052633"><ele>61.0</ele><time>2026-05-03T07:06:46.107Z</time></trkpt><trkpt lat="45.3468067" lon="10.8051567"><ele>60.99999999999999</ele><time>2026-05-03T07:06:47.107Z</time></trkpt><trkpt lat="45.3468533" lon="10.805025"><ele>60.99999999999999</ele><time>2026-05-03T07:06:49.107Z</time></trkpt><trkpt lat="45.3468933" lon="10.8048933"><ele>61.0</ele><time>2026-05-03T07:06:55.107Z</time></trkpt><trkpt lat="45.346925" lon="10.804705"><ele>61.0</ele><time>2026-05-03T07:06:57.107Z</time></trkpt><trkpt lat="45.3469367" lon="10.8045883"><ele>61.0</ele><time>2026-05-03T07:06:58.107Z</time></trkpt><trkpt lat="45.3469467" lon="10.8044567"><ele>60.99999999999999</ele><time>2026-05-03T07:06:59.107Z</time></trkpt><trkpt lat="45.346955" lon="10.80431"><ele>60.99999999999999</ele><time>2026-05-03T07:07:00.107Z</time></trkpt><trkpt lat="45.34696" lon="10.80415"><ele>61.0</ele><time>2026-05-03T07:07:01.107Z</time></trkpt><trkpt lat="45.3469733" lon="10.803975"><ele>61.0</ele><time>2026-05-03T07:07:02.108Z</time></trkpt><trkpt lat="45.3469833" lon="10.8037767"><ele>61.0</ele><time>2026-05-03T07:07:03.108Z</time></trkpt><trkpt lat="45.3469917" lon="10.803575"><ele>61.0</ele><time>2026-05-03T07:07:04.107Z</time></trkpt><trkpt lat="45.3470017" lon="10.8033883"><ele>61.0</ele><time>2026-05-03T07:07:05.107Z</time></trkpt><trkpt lat="45.34701" lon="10.8032217"><ele>61.0</ele><time>2026-05-03T07:07:06.108Z</time></trkpt><trkpt lat="45.3470133" lon="10.8030533"><ele>61.0</ele><time>2026-05-03T07:07:07.108Z</time></trkpt><trkpt lat="45.3470317" lon="10.8028617"><ele>61.0</ele><time>2026-05-03T07:07:08.108Z</time></trkpt><trkpt lat="45.3470583" lon="10.8026633"><ele>61.0</ele><time>2026-05-03T07:07:09.108Z</time></trkpt><trkpt lat="45.3470967" lon="10.802475"><ele>61.0</ele><time>2026-05-03T07:07:10.108Z</time></trkpt><trkpt lat="45.3471367" lon="10.8022833"><ele>61.0</ele><time>2026-05-03T07:07:11.108Z</time></trkpt><trkpt lat="45.347175" lon="10.8020933"><ele>61.0</ele><time>2026-05-03T07:07:12.108Z</time></trkpt><trkpt lat="45.3472117" lon="10.8019083"><ele>61.0</ele><time>2026-05-03T07:07:13.108Z</time></trkpt><trkpt lat="45.3472517" lon="10.8017183"><ele>61.0</ele><time>2026-05-03T07:07:14.108Z</time></trkpt><trkpt lat="45.3472917" lon="10.8015233"><ele>61.5</ele><time>2026-05-03T07:07:15.108Z</time></trkpt><trkpt lat="45.3473283" lon="10.801335"><ele>62.0</ele><time>2026-05-03T07:07:16.108Z</time></trkpt><trkpt lat="45.3473667" lon="10.801145"><ele>62.5</ele><time>2026-05-03T07:07:17.108Z</time></trkpt><trkpt lat="45.3474083" lon="10.8009583"><ele>63.0</ele><time>2026-05-03T07:07:18.108Z</time></trkpt><trkpt lat="45.3474483" lon="10.8007717"><ele>63.0</ele><time>2026-05-03T07:07:19.107Z</time></trkpt><trkpt lat="45.3474833" lon="10.800595"><ele>63.0</ele><time>2026-05-03T07:07:20.108Z</time></trkpt><trkpt lat="45.3475217" lon="10.80043"><ele>63.0</ele><time>2026-05-03T07:07:21.107Z</time></trkpt><trkpt lat="45.347555" lon="10.8002767"><ele>63.0</ele><time>2026-05-03T07:07:22.108Z</time></trkpt><trkpt lat="45.347585" lon="10.80015"><ele>63.166666666666664</ele><time>2026-05-03T07:07:23.108Z</time></trkpt><trkpt lat="45.3476083" lon="10.80003"><ele>63.33333333333333</ele><time>2026-05-03T07:07:24.108Z</time></trkpt><trkpt lat="45.3476283" lon="10.7999233"><ele>63.5</ele><time>2026-05-03T07:07:25.108Z</time></trkpt><trkpt lat="45.3476533" lon="10.79983"><ele>63.666666666666664</ele><time>2026-05-03T07:07:26.108Z</time></trkpt><trkpt lat="45.3477133" lon="10.7997267"><ele>63.83333333333333</ele><time>2026-05-03T07:07:28.108Z</time></trkpt><trkpt lat="45.3478283" lon="10.799775"><ele>64.0</ele><time>2026-05-03T07:07:30.108Z</time></trkpt><trkpt lat="45.3479183" lon="10.7998367"><ele>64.0</ele><time>2026-05-03T07:07:31.107Z</time></trkpt><trkpt lat="45.3480167" lon="10.7998917"><ele>64.0</ele><time>2026-05-03T07:07:32.107Z</time></trkpt><trkpt lat="45.348115" lon="10.7999617"><ele>64.0</ele><time>2026-05-03T07:07:33.107Z</time></trkpt><trkpt lat="45.34822" lon="10.8000383"><ele>64.0</ele><time>2026-05-03T07:07:34.108Z</time></trkpt><trkpt lat="45.3483383" lon="10.8001167"><ele>63.666666666666664</ele><time>2026-05-03T07:07:35.107Z</time></trkpt><trkpt lat="45.3484783" lon="10.8002117"><ele>63.33333333333333</ele><time>2026-05-03T07:07:36.108Z</time></trkpt><trkpt lat="45.3486333" lon="10.8003183"><ele>63.0</ele><time>2026-05-03T07:07:37.108Z</time></trkpt><trkpt lat="45.348795" lon="10.8004333"><ele>63.0</ele><time>2026-05-03T07:07:38.108Z</time></trkpt><trkpt lat="45.3489417" lon="10.8005367"><ele>63.0</ele><time>2026-05-03T07:07:39.107Z</time></trkpt><trkpt lat="45.3490717" lon="10.80063"><ele>63.0</ele><time>2026-05-03T07:07:40.108Z</time></trkpt><trkpt lat="45.3492" lon="10.80072"><ele>63.0</ele><time>2026-05-03T07:07:41.108Z</time></trkpt><trkpt lat="45.34932" lon="10.8008"><ele>63.0</ele><time>2026-05-03T07:07:42.108Z</time></trkpt><trkpt lat="45.3494217" lon="10.8008667"><ele>63.0</ele><time>2026-05-03T07:07:43.108Z</time></trkpt><trkpt lat="45.349495" lon="10.8009133"><ele>63.0</ele><time>2026-05-03T07:07:44.108Z</time></trkpt><trkpt lat="45.3495917" lon="10.8009433"><ele>63.0</ele><time>2026-05-03T07:07:46.108Z</time></trkpt><trkpt lat="45.34966" lon="10.8008583"><ele>63.0</ele><time>2026-05-03T07:07:48.107Z</time></trkpt><trkpt lat="45.34969" lon="10.8007633"><ele>63.0</ele><time>2026-05-03T07:07:49.107Z</time></trkpt><trkpt lat="45.3497317" lon="10.8006383"><ele>63.0</ele><time>2026-05-03T07:07:50.108Z</time></trkpt><trkpt lat="45.3497833" lon="10.8005083"><ele>63.0</ele><time>2026-05-03T07:07:51.108Z</time></trkpt><trkpt lat="45.3498283" lon="10.8003967"><ele>63.0</ele><time>2026-05-03T07:07:52.108Z</time></trkpt><trkpt lat="45.349875" lon="10.8002867"><ele>62.833333333333336</ele><time>2026-05-03T07:07:53.108Z</time></trkpt><trkpt lat="45.349915" lon="10.80018"><ele>62.66666666666667</ele><time>2026-05-03T07:07:54.108Z</time></trkpt><trkpt lat="45.3499567" lon="10.8000817"><ele>62.5</ele><time>2026-05-03T07:07:55.108Z</time></trkpt><trkpt lat="45.3499967" lon="10.7999817"><ele>62.333333333333336</ele><time>2026-05-03T07:07:56.108Z</time></trkpt><trkpt lat="45.3500383" lon="10.7998867"><ele>62.16666666666667</ele><time>2026-05-03T07:07:57.107Z</time></trkpt><trkpt lat="45.3500783" lon="10.7997967"><ele>62.0</ele><time>2026-05-03T07:07:58.108Z</time></trkpt><trkpt lat="45.350115" lon="10.799705"><ele>62.2</ele><time>2026-05-03T07:07:59.108Z</time></trkpt><trkpt lat="45.350155" lon="10.7996183"><ele>62.400000000000006</ele><time>2026-05-03T07:08:00.108Z</time></trkpt><trkpt lat="45.35019" lon="10.799535"><ele>62.599999999999994</ele><time>2026-05-03T07:08:01.108Z</time></trkpt><trkpt lat="45.3502483" lon="10.7993933"><ele>62.8</ele><time>2026-05-03T07:08:03.108Z</time></trkpt><trkpt lat="45.3502967" lon="10.79926"><ele>63.0</ele><time>2026-05-03T07:08:05.108Z</time></trkpt><trkpt lat="45.3503517" lon="10.7991067"><ele>63.0</ele><time>2026-05-03T07:08:07.108Z</time></trkpt><trkpt lat="45.3503867" lon="10.7990233"><ele>63.0</ele><time>2026-05-03T07:08:08.108Z</time></trkpt><trkpt lat="45.3504233" lon="10.7989367"><ele>63.0</ele><time>2026-05-03T07:08:09.108Z</time></trkpt><trkpt lat="45.3504583" lon="10.7988467"><ele>63.0</ele><time>2026-05-03T07:08:10.108Z</time></trkpt><trkpt lat="45.350495" lon="10.7987533"><ele>63.0</ele><time>2026-05-03T07:08:11.108Z</time></trkpt><trkpt lat="45.350535" lon="10.7986567"><ele>63.0</ele><time>2026-05-03T07:08:12.107Z</time></trkpt><trkpt lat="45.350575" lon="10.7985617"><ele>63.0</ele><time>2026-05-03T07:08:13.107Z</time></trkpt><trkpt lat="45.3506183" lon="10.7984617"><ele>63.333333333333336</ele><time>2026-05-03T07:08:14.108Z</time></trkpt><trkpt lat="45.35066" lon="10.7983567"><ele>63.66666666666667</ele><time>2026-05-03T07:08:15.108Z</time></trkpt><trkpt lat="45.3507" lon="10.7982483"><ele>64.0</ele><time>2026-05-03T07:08:16.108Z</time></trkpt><trkpt lat="45.3507433" lon="10.7981367"><ele>64.33333333333334</ele><time>2026-05-03T07:08:17.108Z</time></trkpt><trkpt lat="45.3507883" lon="10.7980367"><ele>64.66666666666667</ele><time>2026-05-03T07:08:18.108Z</time></trkpt><trkpt lat="45.35083" lon="10.7979283"><ele>65.0</ele><time>2026-05-03T07:08:19.108Z</time></trkpt><trkpt lat="45.3508733" lon="10.7978217"><ele>65.0</ele><time>2026-05-03T07:08:20.108Z</time></trkpt><trkpt lat="45.3509183" lon="10.797715"><ele>65.0</ele><time>2026-05-03T07:08:21.108Z</time></trkpt><trkpt lat="45.3509583" lon="10.7976133"><ele>65.0</ele><time>2026-05-03T07:08:22.107Z</time></trkpt><trkpt lat="45.351" lon="10.7975083"><ele>65.0</ele><time>2026-05-03T07:08:23.108Z</time></trkpt><trkpt lat="45.3510433" lon="10.7974017"><ele>65.0</ele><time>2026-05-03T07:08:24.108Z</time></trkpt><trkpt lat="45.3510833" lon="10.7973"><ele>65.0</ele><time>2026-05-03T07:08:25.108Z</time></trkpt><trkpt lat="45.3511217" lon="10.797205"><ele>65.33333333333334</ele><time>2026-05-03T07:08:26.107Z</time></trkpt><trkpt lat="45.3511583" lon="10.7971033"><ele>65.66666666666667</ele><time>2026-05-03T07:08:27.108Z</time></trkpt><trkpt lat="45.3512" lon="10.7970033"><ele>66.0</ele><time>2026-05-03T07:08:28.108Z</time></trkpt><trkpt lat="45.351235" lon="10.7969017"><ele>66.33333333333333</ele><time>2026-05-03T07:08:29.107Z</time></trkpt><trkpt lat="45.3512767" lon="10.7968"><ele>66.66666666666666</ele><time>2026-05-03T07:08:30.108Z</time></trkpt><trkpt lat="45.3513083" lon="10.796705"><ele>67.0</ele><time>2026-05-03T07:08:31.108Z</time></trkpt><trkpt lat="45.351345" lon="10.7966083"><ele>67.0</ele><time>2026-05-03T07:08:32.108Z</time></trkpt><trkpt lat="45.3513867" lon="10.7965017"><ele>67.0</ele><time>2026-05-03T07:08:33.107Z</time></trkpt><trkpt lat="45.35143" lon="10.7964033"><ele>67.0</ele><time>2026-05-03T07:08:34.108Z</time></trkpt><trkpt lat="45.35147" lon="10.796295"><ele>67.0</ele><time>2026-05-03T07:08:35.108Z</time></trkpt><trkpt lat="45.3515117" lon="10.7961833"><ele>67.0</ele><time>2026-05-03T07:08:36.108Z</time></trkpt><trkpt lat="45.3515533" lon="10.7960783"><ele>67.0</ele><time>2026-05-03T07:08:37.108Z</time></trkpt><trkpt lat="45.351595" lon="10.7959717"><ele>67.0</ele><time>2026-05-03T07:08:38.108Z</time></trkpt><trkpt lat="45.351645" lon="10.795865"><ele>67.0</ele><time>2026-05-03T07:08:39.107Z</time></trkpt><trkpt lat="45.3516883" lon="10.7957533"><ele>67.0</ele><time>2026-05-03T07:08:40.108Z</time></trkpt><trkpt lat="45.3517367" lon="10.7956367"><ele>67.0</ele><time>2026-05-03T07:08:41.107Z</time></trkpt><trkpt lat="45.3517833" lon="10.7955183"><ele>67.0</ele><time>2026-05-03T07:08:42.107Z</time></trkpt><trkpt lat="45.3518283" lon="10.7954033"><ele>67.0</ele><time>2026-05-03T07:08:43.107Z</time></trkpt><trkpt lat="45.351875" lon="10.7952767"><ele>67.0</ele><time>2026-05-03T07:08:44.108Z</time></trkpt><trkpt lat="45.3519233" lon="10.7951583"><ele>67.0</ele><time>2026-05-03T07:08:45.108Z</time></trkpt><trkpt lat="45.35197" lon="10.7950383"><ele>67.0</ele><time>2026-05-03T07:08:46.107Z</time></trkpt><trkpt lat="45.3520167" lon="10.7949183"><ele>67.0</ele><time>2026-05-03T07:08:47.107Z</time></trkpt><trkpt lat="45.3520667" lon="10.7947967"><ele>67.2</ele><time>2026-05-03T07:08:48.108Z</time></trkpt><trkpt lat="45.35212" lon="10.7946767"><ele>67.4</ele><time>2026-05-03T07:08:49.108Z</time></trkpt><trkpt lat="45.3521717" lon="10.7945517"><ele>67.6</ele><time>2026-05-03T07:08:50.108Z</time></trkpt><trkpt lat="45.3522217" lon="10.7944333"><ele>67.8</ele><time>2026-05-03T07:08:51.108Z</time></trkpt><trkpt lat="45.3522717" lon="10.7943167"><ele>68.0</ele><time>2026-05-03T07:08:52.108Z</time></trkpt><trkpt lat="45.3523217" lon="10.7942017"><ele>68.0</ele><time>2026-05-03T07:08:53.108Z</time></trkpt><trkpt lat="45.35237" lon="10.79409"><ele>68.0</ele><time>2026-05-03T07:08:54.108Z</time></trkpt><trkpt lat="45.352415" lon="10.7939867"><ele>68.0</ele><time>2026-05-03T07:08:55.107Z</time></trkpt><trkpt lat="45.35245" lon="10.7938917"><ele>68.0</ele><time>2026-05-03T07:08:56.108Z</time></trkpt><trkpt lat="45.3524817" lon="10.7937933"><ele>68.0</ele><time>2026-05-03T07:08:57.108Z</time></trkpt><trkpt lat="45.352515" lon="10.7936967"><ele>68.0</ele><time>2026-05-03T07:08:58.108Z</time></trkpt><trkpt lat="45.3525567" lon="10.7936"><ele>68.0</ele><time>2026-05-03T07:08:59.108Z</time></trkpt><trkpt lat="45.3525933" lon="10.7935033"><ele>68.0</ele><time>2026-05-03T07:09:00.107Z</time></trkpt><trkpt lat="45.3526333" lon="10.7934083"><ele>68.0</ele><time>2026-05-03T07:09:01.108Z</time></trkpt><trkpt lat="45.3526717" lon="10.79331"><ele>68.0</ele><time>2026-05-03T07:09:02.107Z</time></trkpt><trkpt lat="45.3527083" lon="10.793215"><ele>68.0</ele><time>2026-05-03T07:09:03.108Z</time></trkpt><trkpt lat="45.3527483" lon="10.7931167"><ele>68.0</ele><time>2026-05-03T07:09:04.108Z</time></trkpt><trkpt lat="45.3527883" lon="10.793015"><ele>68.0</ele><time>2026-05-03T07:09:05.108Z</time></trkpt><trkpt lat="45.35283" lon="10.79291"><ele>68.0</ele><time>2026-05-03T07:09:06.108Z</time></trkpt><trkpt lat="45.3528733" lon="10.792805"><ele>68.0</ele><time>2026-05-03T07:09:07.108Z</time></trkpt><trkpt lat="45.35292" lon="10.792685"><ele>68.0</ele><time>2026-05-03T07:09:08.108Z</time></trkpt><trkpt lat="45.352965" lon="10.79258"><ele>68.0</ele><time>2026-05-03T07:09:09.108Z</time></trkpt><trkpt lat="45.3530017" lon="10.7924833"><ele>68.0</ele><time>2026-05-03T07:09:10.108Z</time></trkpt><trkpt lat="45.3530483" lon="10.7923817"><ele>68.5</ele><time>2026-05-03T07:09:11.108Z</time></trkpt><trkpt lat="45.3530867" lon="10.792285"><ele>69.0</ele><time>2026-05-03T07:09:12.108Z</time></trkpt><trkpt lat="45.3531267" lon="10.7921933"><ele>69.5</ele><time>2026-05-03T07:09:13.107Z</time></trkpt><trkpt lat="45.3531583" lon="10.7921067"><ele>70.0</ele><time>2026-05-03T07:09:14.107Z</time></trkpt><trkpt lat="45.3531933" lon="10.7920317"><ele>70.5</ele><time>2026-05-03T07:09:15.107Z</time></trkpt><trkpt lat="45.3532467" lon="10.7919"><ele>71.0</ele><time>2026-05-03T07:09:17.107Z</time></trkpt><trkpt lat="45.3532883" lon="10.791805"><ele>71.0</ele><time>2026-05-03T07:09:19.108Z</time></trkpt><trkpt lat="45.3533217" lon="10.791725"><ele>71.0</ele><time>2026-05-03T07:09:21.108Z</time></trkpt><trkpt lat="45.35336" lon="10.791635"><ele>71.0</ele><time>2026-05-03T07:09:24.108Z</time></trkpt><trkpt lat="45.3534" lon="10.79154"><ele>71.0</ele><time>2026-05-03T07:09:28.108Z</time></trkpt><trkpt lat="45.35344" lon="10.7914667"><ele>71.0</ele><time>2026-05-03T07:09:34.108Z</time></trkpt><trkpt lat="45.3535317" lon="10.7914933"><ele>71.0</ele><time>2026-05-03T07:09:37.108Z</time></trkpt><trkpt lat="45.3536417" lon="10.7915717"><ele>71.0</ele><time>2026-05-03T07:09:39.108Z</time></trkpt><trkpt lat="45.353705" lon="10.7916167"><ele>71.0</ele><time>2026-05-03T07:09:40.107Z</time></trkpt><trkpt lat="45.35378" lon="10.791665"><ele>71.0</ele><time>2026-05-03T07:09:41.108Z</time></trkpt><trkpt lat="45.3538567" lon="10.7917167"><ele>71.0</ele><time>2026-05-03T07:09:42.108Z</time></trkpt><trkpt lat="45.3539367" lon="10.7917683"><ele>71.0</ele><time>2026-05-03T07:09:43.108Z</time></trkpt><trkpt lat="45.3540117" lon="10.7918217"><ele>71.0</ele><time>2026-05-03T07:09:44.107Z</time></trkpt><trkpt lat="45.35408" lon="10.7918617"><ele>70.6</ele><time>2026-05-03T07:09:45.107Z</time></trkpt><trkpt lat="45.3541383" lon="10.79191"><ele>70.19999999999999</ele><time>2026-05-03T07:09:46.107Z</time></trkpt><trkpt lat="45.354225" lon="10.7920033"><ele>69.80000000000001</ele><time>2026-05-03T07:09:48.108Z</time></trkpt><trkpt lat="45.35425" lon="10.792125"><ele>69.4</ele><time>2026-05-03T07:09:50.108Z</time></trkpt><trkpt lat="45.354255" lon="10.7923017"><ele>69.0</ele><time>2026-05-03T07:09:52.108Z</time></trkpt><trkpt lat="45.354255" lon="10.7923917"><ele>69.0</ele><time>2026-05-03T07:09:53.108Z</time></trkpt><trkpt lat="45.3542617" lon="10.7924883"><ele>69.0</ele><time>2026-05-03T07:09:54.108Z</time></trkpt><trkpt lat="45.35427" lon="10.7925983"><ele>69.0</ele><time>2026-05-03T07:09:55.108Z</time></trkpt><trkpt lat="45.3542783" lon="10.7927133"><ele>69.0</ele><time>2026-05-03T07:09:56.108Z</time></trkpt><trkpt lat="45.3542933" lon="10.7928283"><ele>69.0</ele><time>2026-05-03T07:09:57.108Z</time></trkpt><trkpt lat="45.35431" lon="10.7929183"><ele>69.0</ele><time>2026-05-03T07:09:58.108Z</time></trkpt><trkpt lat="45.3543383" lon="10.79309"><ele>68.8</ele><time>2026-05-03T07:10:00.107Z</time></trkpt><trkpt lat="45.3543633" lon="10.79322"><ele>68.60000000000001</ele><time>2026-05-03T07:10:02.108Z</time></trkpt><trkpt lat="45.3544017" lon="10.7933417"><ele>68.4</ele><time>2026-05-03T07:10:04.108Z</time></trkpt><trkpt lat="45.35444" lon="10.79346"><ele>68.2</ele><time>2026-05-03T07:10:06.107Z</time></trkpt><trkpt lat="45.35453" lon="10.7935617"><ele>68.0</ele><time>2026-05-03T07:10:08.108Z</time></trkpt><trkpt lat="45.35459" lon="10.7935967"><ele>68.0</ele><time>2026-05-03T07:10:09.108Z</time></trkpt><trkpt lat="45.3546517" lon="10.7936217"><ele>68.0</ele><time>2026-05-03T07:10:10.108Z</time></trkpt><trkpt lat="45.3547517" lon="10.7936133"><ele>68.0</ele><time>2026-05-03T07:10:12.108Z</time></trkpt><trkpt lat="45.354835" lon="10.793525"><ele>68.0</ele><time>2026-05-03T07:10:14.108Z</time></trkpt><trkpt lat="45.3549" lon="10.79341"><ele>68.0</ele><time>2026-05-03T07:10:16.108Z</time></trkpt><trkpt lat="45.3549552" lon="10.7933162"><ele>67.0</ele><time>2026-05-03T07:10:18.108Z</time></trkpt><trkpt lat="45.355002" lon="10.7932463"><ele>66.0</ele><time>2026-05-03T07:10:20.108Z</time></trkpt><trkpt lat="45.355053" lon="10.7931368"><ele>65.0</ele><time>2026-05-03T07:10:23.107Z</time></trkpt><trkpt lat="45.3550973" lon="10.793045"><ele>64.0</ele><time>2026-05-03T07:10:25.108Z</time></trkpt><trkpt lat="45.3551369" lon="10.7929486"><ele>63.00000000000001</ele><time>2026-05-03T07:10:27.108Z</time></trkpt><trkpt lat="45.3551667" lon="10.7928596"><ele>62.0</ele><time>2026-05-03T07:10:29.108Z</time></trkpt><trkpt lat="45.3552111" lon="10.7927428"><ele>62.0</ele><time>2026-05-03T07:10:31.108Z</time></trkpt><trkpt lat="45.3552382" lon="10.7926619"><ele>62.00000000000001</ele><time>2026-05-03T07:10:32.108Z</time></trkpt><trkpt lat="45.3552686" lon="10.7925762"><ele>62.0</ele><time>2026-05-03T07:10:33.108Z</time></trkpt><trkpt lat="45.3553003" lon="10.7924873"><ele>62.0</ele><time>2026-05-03T07:10:34.108Z</time></trkpt><trkpt lat="45.3553244" lon="10.7924045"><ele>62.00000000000001</ele><time>2026-05-03T07:10:35.108Z</time></trkpt><trkpt lat="45.3553596" lon="10.7922501"><ele>62.0</ele><time>2026-05-03T07:10:37.107Z</time></trkpt><trkpt lat="45.3553752" lon="10.7921608"><ele>62.0</ele><time>2026-05-03T07:10:38.108Z</time></trkpt><trkpt lat="45.3553861" lon="10.792061"><ele>62.0</ele><time>2026-05-03T07:10:39.108Z</time></trkpt><trkpt lat="45.3554067" lon="10.791953"><ele>62.0</ele><time>2026-05-03T07:10:40.108Z</time></trkpt><trkpt lat="45.3554399" lon="10.7918344"><ele>62.0</ele><time>2026-05-03T07:10:41.108Z</time></trkpt><trkpt lat="45.355482" lon="10.7917049"><ele>62.0</ele><time>2026-05-03T07:10:42.108Z</time></trkpt><trkpt lat="45.3555385" lon="10.791567"><ele>62.0</ele><time>2026-05-03T07:10:43.108Z</time></trkpt><trkpt lat="45.3556005" lon="10.79142"><ele>62.25</ele><time>2026-05-03T07:10:44.108Z</time></trkpt><trkpt lat="45.3556601" lon="10.79126"><ele>62.5</ele><time>2026-05-03T07:10:45.108Z</time></trkpt><trkpt lat="45.3557163" lon="10.7910983"><ele>62.75</ele><time>2026-05-03T07:10:46.108Z</time></trkpt><trkpt lat="45.3557683" lon="10.7909505"><ele>63.0</ele><time>2026-05-03T07:10:47.108Z</time></trkpt><trkpt lat="45.3558201" lon="10.7908161"><ele>62.5</ele><time>2026-05-03T07:10:48.108Z</time></trkpt><trkpt lat="45.3558881" lon="10.7906801"><ele>62.0</ele><time>2026-05-03T07:10:49.108Z</time></trkpt><trkpt lat="45.3559593" lon="10.7905487"><ele>61.5</ele><time>2026-05-03T07:10:50.107Z</time></trkpt><trkpt lat="45.3560225" lon="10.7904137"><ele>61.0</ele><time>2026-05-03T07:10:51.108Z</time></trkpt><trkpt lat="45.3560785" lon="10.790258"><ele>61.25</ele><time>2026-05-03T07:10:52.108Z</time></trkpt><trkpt lat="45.356132" lon="10.7900923"><ele>61.5</ele><time>2026-05-03T07:10:53.108Z</time></trkpt><trkpt lat="45.3561898" lon="10.7899322"><ele>61.75</ele><time>2026-05-03T07:10:54.107Z</time></trkpt><trkpt lat="45.3562462" lon="10.7897916"><ele>62.0</ele><time>2026-05-03T07:10:55.108Z</time></trkpt><trkpt lat="45.3562983" lon="10.7896693"><ele>62.00000000000001</ele><time>2026-05-03T07:10:56.108Z</time></trkpt><trkpt lat="45.3563442" lon="10.7895659"><ele>62.0</ele><time>2026-05-03T07:10:57.108Z</time></trkpt><trkpt lat="45.3563798" lon="10.7894647"><ele>62.0</ele><time>2026-05-03T07:10:58.108Z</time></trkpt><trkpt lat="45.3564122" lon="10.7893873"><ele>62.0</ele><time>2026-05-03T07:10:59.108Z</time></trkpt><trkpt lat="45.3564728" lon="10.7893149"><ele>62.00000000000001</ele><time>2026-05-03T07:11:01.108Z</time></trkpt><trkpt lat="45.3565433" lon="10.7893817"><ele>62.0</ele><time>2026-05-03T07:11:04.107Z</time></trkpt><trkpt lat="45.3566483" lon="10.789475"><ele>62.00000000000001</ele><time>2026-05-03T07:11:06.108Z</time></trkpt><trkpt lat="45.3567033" lon="10.78952"><ele>62.0</ele><time>2026-05-03T07:11:07.108Z</time></trkpt><trkpt lat="45.3567833" lon="10.78953"><ele>62.0</ele><time>2026-05-03T07:11:09.108Z</time></trkpt><trkpt lat="45.35685" lon="10.7894333"><ele>62.0</ele><time>2026-05-03T07:11:11.108Z</time></trkpt><trkpt lat="45.3568817" lon="10.7893433"><ele>62.00000000000001</ele><time>2026-05-03T07:11:12.108Z</time></trkpt><trkpt lat="45.356915" lon="10.7892383"><ele>62.0</ele><time>2026-05-03T07:11:13.108Z</time></trkpt><trkpt lat="45.35695" lon="10.7891267"><ele>62.00000000000001</ele><time>2026-05-03T07:11:14.107Z</time></trkpt><trkpt lat="45.3569867" lon="10.789025"><ele>62.0</ele><time>2026-05-03T07:11:15.108Z</time></trkpt><trkpt lat="45.3570233" lon="10.7889233"><ele>62.0</ele><time>2026-05-03T07:11:16.108Z</time></trkpt><trkpt lat="45.3570633" lon="10.78882"><ele>62.0</ele><time>2026-05-03T07:11:17.108Z</time></trkpt><trkpt lat="45.3571" lon="10.78871"><ele>62.00000000000001</ele><time>2026-05-03T07:11:18.107Z</time></trkpt><trkpt lat="45.35714" lon="10.7886"><ele>62.0</ele><time>2026-05-03T07:11:19.108Z</time></trkpt><trkpt lat="45.3571767" lon="10.78849"><ele>62.16666666666667</ele><time>2026-05-03T07:11:20.108Z</time></trkpt><trkpt lat="45.357215" lon="10.788395"><ele>62.333333333333336</ele><time>2026-05-03T07:11:21.108Z</time></trkpt><trkpt lat="45.3572533" lon="10.78832"><ele>62.5</ele><time>2026-05-03T07:11:22.108Z</time></trkpt><trkpt lat="45.35734" lon="10.78824"><ele>62.66666666666667</ele><time>2026-05-03T07:11:24.108Z</time></trkpt><trkpt lat="45.3574317" lon="10.7882383"><ele>62.833333333333336</ele><time>2026-05-03T07:11:26.108Z</time></trkpt><trkpt lat="45.3574933" lon="10.788135"><ele>63.0</ele><time>2026-05-03T07:11:29.107Z</time></trkpt><trkpt lat="45.35754" lon="10.7879867"><ele>63.0</ele><time>2026-05-03T07:11:31.108Z</time></trkpt><trkpt lat="45.3575983" lon="10.7878283"><ele>63.0</ele><time>2026-05-03T07:11:33.107Z</time></trkpt><trkpt lat="45.357635" lon="10.787735"><ele>63.0</ele><time>2026-05-03T07:11:34.108Z</time></trkpt><trkpt lat="45.3576667" lon="10.78764"><ele>63.0</ele><time>2026-05-03T07:11:35.107Z</time></trkpt><trkpt lat="45.357705" lon="10.7875483"><ele>63.0</ele><time>2026-05-03T07:11:36.108Z</time></trkpt><trkpt lat="45.3577467" lon="10.7874567"><ele>63.0</ele><time>2026-05-03T07:11:37.107Z</time></trkpt><trkpt lat="45.3577833" lon="10.7873633"><ele>63.2</ele><time>2026-05-03T07:11:38.107Z</time></trkpt><trkpt lat="45.3578167" lon="10.78727"><ele>63.4</ele><time>2026-05-03T07:11:39.107Z</time></trkpt><trkpt lat="45.3578517" lon="10.78719"><ele>63.60000000000001</ele><time>2026-05-03T07:11:40.107Z</time></trkpt><trkpt lat="45.3579233" lon="10.78705"><ele>63.800000000000004</ele><time>2026-05-03T07:11:42.108Z</time></trkpt><trkpt lat="45.358015" lon="10.7870017"><ele>64.0</ele><time>2026-05-03T07:11:45.108Z</time></trkpt><trkpt lat="45.3581133" lon="10.7870683"><ele>64.0</ele><time>2026-05-03T07:11:47.108Z</time></trkpt><trkpt lat="45.3581867" lon="10.7871283"><ele>64.0</ele><time>2026-05-03T07:11:48.108Z</time></trkpt><trkpt lat="45.35827" lon="10.7871967"><ele>64.0</ele><time>2026-05-03T07:11:49.107Z</time></trkpt><trkpt lat="45.3583567" lon="10.7872667"><ele>64.0</ele><time>2026-05-03T07:11:50.108Z</time></trkpt><trkpt lat="45.3584383" lon="10.7873383"><ele>64.0</ele><time>2026-05-03T07:11:51.108Z</time></trkpt><trkpt lat="45.3585217" lon="10.7874017"><ele>63.99999999999999</ele><time>2026-05-03T07:11:52.108Z</time></trkpt><trkpt lat="45.3585967" lon="10.78746"><ele>64.0</ele><time>2026-05-03T07:11:53.108Z</time></trkpt><trkpt lat="45.35866" lon="10.7875067"><ele>64.0</ele><time>2026-05-03T07:11:54.107Z</time></trkpt><trkpt lat="45.3587317" lon="10.7875583"><ele>64.0</ele><time>2026-05-03T07:11:55.107Z</time></trkpt><trkpt lat="45.3587983" lon="10.7876083"><ele>63.99999999999999</ele><time>2026-05-03T07:11:56.108Z</time></trkpt><trkpt lat="45.3588733" lon="10.787665"><ele>64.0</ele><time>2026-05-03T07:11:57.108Z</time></trkpt><trkpt lat="45.3589517" lon="10.7877217"><ele>64.0</ele><time>2026-05-03T07:11:58.108Z</time></trkpt><trkpt lat="45.3590333" lon="10.78778"><ele>64.0</ele><time>2026-05-03T07:11:59.108Z</time></trkpt><trkpt lat="45.3591133" lon="10.7878433"><ele>64.0</ele><time>2026-05-03T07:12:00.108Z</time></trkpt><trkpt lat="45.3591983" lon="10.7879117"><ele>64.0</ele><time>2026-05-03T07:12:01.107Z</time></trkpt><trkpt lat="45.35928" lon="10.787975"><ele>64.0</ele><time>2026-05-03T07:12:02.108Z</time></trkpt><trkpt lat="45.3593567" lon="10.788035"><ele>64.0</ele><time>2026-05-03T07:12:03.108Z</time></trkpt><trkpt lat="45.35943" lon="10.7881"><ele>64.0</ele><time>2026-05-03T07:12:04.108Z</time></trkpt><trkpt lat="45.359505" lon="10.78815"><ele>64.0</ele><time>2026-05-03T07:12:05.108Z</time></trkpt><trkpt lat="45.3595883" lon="10.7882033"><ele>64.0</ele><time>2026-05-03T07:12:06.108Z</time></trkpt><trkpt lat="45.3596733" lon="10.788265"><ele>64.0</ele><time>2026-05-03T07:12:07.108Z</time></trkpt><trkpt lat="45.359755" lon="10.7883317"><ele>63.800000000000004</ele><time>2026-05-03T07:12:08.108Z</time></trkpt><trkpt lat="45.359835" lon="10.7884017"><ele>63.60000000000001</ele><time>2026-05-03T07:12:09.108Z</time></trkpt><trkpt lat="45.3599217" lon="10.788465"><ele>63.4</ele><time>2026-05-03T07:12:10.107Z</time></trkpt><trkpt lat="45.36001" lon="10.788535"><ele>63.2</ele><time>2026-05-03T07:12:11.108Z</time></trkpt><trkpt lat="45.3600933" lon="10.7886"><ele>63.0</ele><time>2026-05-03T07:12:12.108Z</time></trkpt><trkpt lat="45.360175" lon="10.7886583"><ele>63.0</ele><time>2026-05-03T07:12:13.108Z</time></trkpt><trkpt lat="45.3602567" lon="10.7887267"><ele>63.0</ele><time>2026-05-03T07:12:14.107Z</time></trkpt><trkpt lat="45.3603433" lon="10.788795"><ele>63.0</ele><time>2026-05-03T07:12:15.107Z</time></trkpt><trkpt lat="45.36043" lon="10.7888567"><ele>63.0</ele><time>2026-05-03T07:12:16.108Z</time></trkpt><trkpt lat="45.360515" lon="10.788915"><ele>63.0</ele><time>2026-05-03T07:12:17.108Z</time></trkpt><trkpt lat="45.3605967" lon="10.788975"><ele>63.4</ele><time>2026-05-03T07:12:18.108Z</time></trkpt><trkpt lat="45.36068" lon="10.7890467"><ele>63.8</ele><time>2026-05-03T07:12:19.107Z</time></trkpt><trkpt lat="45.3607683" lon="10.7891217"><ele>64.2</ele><time>2026-05-03T07:12:20.108Z</time></trkpt><trkpt lat="45.36085" lon="10.78919"><ele>64.6</ele><time>2026-05-03T07:12:21.108Z</time></trkpt><trkpt lat="45.3609333" lon="10.7892533"><ele>65.0</ele><time>2026-05-03T07:12:22.107Z</time></trkpt><trkpt lat="45.361025" lon="10.7893217"><ele>64.8</ele><time>2026-05-03T07:12:23.107Z</time></trkpt><trkpt lat="45.36111" lon="10.78939"><ele>64.6</ele><time>2026-05-03T07:12:24.108Z</time></trkpt><trkpt lat="45.3612017" lon="10.7894617"><ele>64.4</ele><time>2026-05-03T07:12:25.108Z</time></trkpt><trkpt lat="45.36129" lon="10.7895317"><ele>64.2</ele><time>2026-05-03T07:12:26.108Z</time></trkpt><trkpt lat="45.3613817" lon="10.7896017"><ele>64.0</ele><time>2026-05-03T07:12:27.108Z</time></trkpt><trkpt lat="45.36147" lon="10.7896717"><ele>63.99999999999999</ele><time>2026-05-03T07:12:28.108Z</time></trkpt><trkpt lat="45.3615483" lon="10.7897383"><ele>64.0</ele><time>2026-05-03T07:12:29.108Z</time></trkpt><trkpt lat="45.3616167" lon="10.7897917"><ele>64.0</ele><time>2026-05-03T07:12:30.108Z</time></trkpt><trkpt lat="45.36168" lon="10.7898467"><ele>64.0</ele><time>2026-05-03T07:12:31.108Z</time></trkpt><trkpt lat="45.361735" lon="10.7899033"><ele>63.99999999999999</ele><time>2026-05-03T07:12:32.108Z</time></trkpt><trkpt lat="45.361805" lon="10.7899633"><ele>64.0</ele><time>2026-05-03T07:12:34.108Z</time></trkpt><trkpt lat="45.3618983" lon="10.789955"><ele>64.0</ele><time>2026-05-03T07:12:42.108Z</time></trkpt><trkpt lat="45.36194" lon="10.789795"><ele>64.0</ele><time>2026-05-03T07:12:44.107Z</time></trkpt><trkpt lat="45.3619567" lon="10.7896817"><ele>64.0</ele><time>2026-05-03T07:12:45.108Z</time></trkpt><trkpt lat="45.3619767" lon="10.78957"><ele>64.0</ele><time>2026-05-03T07:12:46.108Z</time></trkpt><trkpt lat="45.362005" lon="10.7894533"><ele>64.0</ele><time>2026-05-03T07:12:47.108Z</time></trkpt><trkpt lat="45.362035" lon="10.78932"><ele>64.0</ele><time>2026-05-03T07:12:48.107Z</time></trkpt><trkpt lat="45.3620717" lon="10.7891633"><ele>64.0</ele><time>2026-05-03T07:12:49.108Z</time></trkpt><trkpt lat="45.362105" lon="10.7889883"><ele>64.0</ele><time>2026-05-03T07:12:50.107Z</time></trkpt><trkpt lat="45.3621483" lon="10.7887583"><ele>64.0</ele><time>2026-05-03T07:12:51.107Z</time></trkpt><trkpt lat="45.3622033" lon="10.788465"><ele>63.5</ele><time>2026-05-03T07:12:52.108Z</time></trkpt><trkpt lat="45.36227" lon="10.788145"><ele>63.0</ele><time>2026-05-03T07:12:53.108Z</time></trkpt><trkpt lat="45.36233" lon="10.78783"><ele>63.33333333333333</ele><time>2026-05-03T07:12:54.108Z</time></trkpt><trkpt lat="45.3623867" lon="10.7875383"><ele>63.666666666666664</ele><time>2026-05-03T07:12:55.107Z</time></trkpt><trkpt lat="45.3624333" lon="10.7872783"><ele>64.0</ele><time>2026-05-03T07:12:56.107Z</time></trkpt><trkpt lat="45.3624783" lon="10.7870333"><ele>64.5</ele><time>2026-05-03T07:12:57.108Z</time></trkpt><trkpt lat="45.3625183" lon="10.78681"><ele>65.0</ele><time>2026-05-03T07:12:58.108Z</time></trkpt><trkpt lat="45.36256" lon="10.7866067"><ele>65.5</ele><time>2026-05-03T07:12:59.108Z</time></trkpt><trkpt lat="45.362595" lon="10.7864217"><ele>66.0</ele><time>2026-05-03T07:13:00.107Z</time></trkpt><trkpt lat="45.3626317" lon="10.78626"><ele>66.0</ele><time>2026-05-03T07:13:01.108Z</time></trkpt><trkpt lat="45.3626633" lon="10.7861117"><ele>66.0</ele><time>2026-05-03T07:13:02.108Z</time></trkpt><trkpt lat="45.3626883" lon="10.7859667"><ele>66.0</ele><time>2026-05-03T07:13:03.108Z</time></trkpt><trkpt lat="45.3627117" lon="10.7858367"><ele>66.0</ele><time>2026-05-03T07:13:04.108Z</time></trkpt><trkpt lat="45.3627467" lon="10.7857383"><ele>66.0</ele><time>2026-05-03T07:13:05.108Z</time></trkpt><trkpt lat="45.3628117" lon="10.7856633"><ele>66.16666666666667</ele><time>2026-05-03T07:13:07.108Z</time></trkpt><trkpt lat="45.362885" lon="10.785655"><ele>66.33333333333333</ele><time>2026-05-03T07:13:09.108Z</time></trkpt><trkpt lat="45.362955" lon="10.785655"><ele>66.5</ele><time>2026-05-03T07:13:11.108Z</time></trkpt><trkpt lat="45.3630283" lon="10.7856483"><ele>66.66666666666666</ele><time>2026-05-03T07:13:13.108Z</time></trkpt><trkpt lat="45.3630917" lon="10.7856217"><ele>66.83333333333333</ele><time>2026-05-03T07:13:15.107Z</time></trkpt><trkpt lat="45.3631783" lon="10.7856033"><ele>67.0</ele><time>2026-05-03T07:13:18.107Z</time></trkpt><trkpt lat="45.3632583" lon="10.7855983"><ele>67.75</ele><time>2026-05-03T07:13:21.108Z</time></trkpt><trkpt lat="45.363425" lon="10.785565"><ele>68.5</ele><time>2026-05-03T07:15:03.605Z</time></trkpt><trkpt lat="45.3633033" lon="10.7855767"><ele>69.25</ele><time>2026-05-03T07:15:20.343Z</time></trkpt><trkpt lat="45.3634433" lon="10.7856217"><ele>70.0</ele><time>2026-05-03T07:20:00.105Z</time></trkpt><trkpt lat="45.3635683" lon="10.7855983"><ele>70.0</ele><time>2026-05-03T07:20:02.105Z</time></trkpt><trkpt lat="45.3636367" lon="10.7855833"><ele>70.0</ele><time>2026-05-03T07:20:03.105Z</time></trkpt><trkpt lat="45.363705" lon="10.7855717"><ele>70.0</ele><time>2026-05-03T07:20:04.104Z</time></trkpt><trkpt lat="45.363775" lon="10.7855583"><ele>70.0</ele><time>2026-05-03T07:20:05.105Z</time></trkpt><trkpt lat="45.36385" lon="10.7855433"><ele>70.0</ele><time>2026-05-03T07:20:06.105Z</time></trkpt><trkpt lat="45.36392" lon="10.7855383"><ele>70.0</ele><time>2026-05-03T07:20:07.104Z</time></trkpt><trkpt lat="45.3639983" lon="10.7855283"><ele>70.0</ele><time>2026-05-03T07:20:08.105Z</time></trkpt><trkpt lat="45.364075" lon="10.785515"><ele>69.85714285714286</ele><time>2026-05-03T07:20:09.105Z</time></trkpt><trkpt lat="45.3641483" lon="10.7855017"><ele>69.71428571428572</ele><time>2026-05-03T07:20:10.105Z</time></trkpt><trkpt lat="45.3642217" lon="10.7854917"><ele>69.57142857142857</ele><time>2026-05-03T07:20:11.105Z</time></trkpt><trkpt lat="45.36429" lon="10.7854783"><ele>69.42857142857143</ele><time>2026-05-03T07:20:12.105Z</time></trkpt><trkpt lat="45.364365" lon="10.7854717"><ele>69.28571428571429</ele><time>2026-05-03T07:20:13.105Z</time></trkpt><trkpt lat="45.3644383" lon="10.78546"><ele>69.14285714285714</ele><time>2026-05-03T07:20:14.105Z</time></trkpt><trkpt lat="45.36451" lon="10.7854533"><ele>69.0</ele><time>2026-05-03T07:20:15.105Z</time></trkpt><trkpt lat="45.3645817" lon="10.7854433"><ele>69.0</ele><time>2026-05-03T07:20:16.105Z</time></trkpt><trkpt lat="45.3646517" lon="10.7854333"><ele>69.0</ele><time>2026-05-03T07:20:17.105Z</time></trkpt><trkpt lat="45.3647167" lon="10.7854267"><ele>69.0</ele><time>2026-05-03T07:20:18.105Z</time></trkpt><trkpt lat="45.36484" lon="10.785425"><ele>69.0</ele><time>2026-05-03T07:20:20.105Z</time></trkpt><trkpt lat="45.3649033" lon="10.7854383"><ele>69.0</ele><time>2026-05-03T07:20:21.105Z</time></trkpt><trkpt lat="45.36497" lon="10.7854583"><ele>69.0</ele><time>2026-05-03T07:20:22.105Z</time></trkpt><trkpt lat="45.3650367" lon="10.78549"><ele>69.0</ele><time>2026-05-03T07:20:23.105Z</time></trkpt><trkpt lat="45.3651" lon="10.7855233"><ele>69.0</ele><time>2026-05-03T07:20:24.105Z</time></trkpt><trkpt lat="45.3651667" lon="10.7855567"><ele>69.0</ele><time>2026-05-03T07:20:25.105Z</time></trkpt><trkpt lat="45.3652283" lon="10.7855883"><ele>69.0</ele><time>2026-05-03T07:20:26.105Z</time></trkpt><trkpt lat="45.3653283" lon="10.7856433"><ele>69.0</ele><time>2026-05-03T07:20:28.104Z</time></trkpt><trkpt lat="45.3653967" lon="10.7856467"><ele>69.0</ele><time>2026-05-03T07:20:30.105Z</time></trkpt><trkpt lat="45.365455" lon="10.7855617"><ele>69.0</ele><time>2026-05-03T07:20:32.105Z</time></trkpt><trkpt lat="45.3655117" lon="10.7853917"><ele>69.0</ele><time>2026-05-03T07:20:34.105Z</time></trkpt><trkpt lat="45.3655383" lon="10.7852883"><ele>69.0</ele><time>2026-05-03T07:20:35.105Z</time></trkpt><trkpt lat="45.365555" lon="10.7851967"><ele>69.0</ele><time>2026-05-03T07:20:36.105Z</time></trkpt><trkpt lat="45.3655883" lon="10.785035"><ele>69.0</ele><time>2026-05-03T07:20:38.105Z</time></trkpt><trkpt lat="45.3656683" lon="10.7849733"><ele>69.33333333333333</ele><time>2026-05-03T07:20:40.104Z</time></trkpt><trkpt lat="45.3657883" lon="10.784965"><ele>69.66666666666667</ele><time>2026-05-03T07:20:42.105Z</time></trkpt><trkpt lat="45.36586" lon="10.7849717"><ele>70.0</ele><time>2026-05-03T07:20:43.104Z</time></trkpt><trkpt lat="45.3659317" lon="10.7849783"><ele>70.33333333333334</ele><time>2026-05-03T07:20:44.105Z</time></trkpt><trkpt lat="45.3659983" lon="10.7849833"><ele>70.66666666666667</ele><time>2026-05-03T07:20:45.105Z</time></trkpt><trkpt lat="45.36609" lon="10.7849833"><ele>71.0</ele><time>2026-05-03T07:20:46.105Z</time></trkpt><trkpt lat="45.3661633" lon="10.7849783"><ele>71.0</ele><time>2026-05-03T07:20:47.104Z</time></trkpt><trkpt lat="45.3662367" lon="10.784975"><ele>71.0</ele><time>2026-05-03T07:20:48.104Z</time></trkpt><trkpt lat="45.3663133" lon="10.7849817"><ele>71.0</ele><time>2026-05-03T07:20:49.104Z</time></trkpt><trkpt lat="45.3663967" lon="10.7849917"><ele>71.0</ele><time>2026-05-03T07:20:50.105Z</time></trkpt><trkpt lat="45.366475" lon="10.7850083"><ele>71.0</ele><time>2026-05-03T07:20:51.105Z</time></trkpt><trkpt lat="45.3665583" lon="10.78502"><ele>71.0</ele><time>2026-05-03T07:20:52.105Z</time></trkpt><trkpt lat="45.366635" lon="10.78502"><ele>71.5</ele><time>2026-05-03T07:20:53.105Z</time></trkpt><trkpt lat="45.3667117" lon="10.7850133"><ele>72.0</ele><time>2026-05-03T07:20:54.105Z</time></trkpt><trkpt lat="45.3667983" lon="10.7850083"><ele>72.5</ele><time>2026-05-03T07:20:55.105Z</time></trkpt><trkpt lat="45.3668883" lon="10.7850017"><ele>73.0</ele><time>2026-05-03T07:20:56.105Z</time></trkpt><trkpt lat="45.3669783" lon="10.785005"><ele>73.5</ele><time>2026-05-03T07:20:57.105Z</time></trkpt><trkpt lat="45.367065" lon="10.7850033"><ele>74.0</ele><time>2026-05-03T07:20:58.104Z</time></trkpt><trkpt lat="45.3671483" lon="10.7849917"><ele>73.83333333333334</ele><time>2026-05-03T07:20:59.104Z</time></trkpt><trkpt lat="45.3672383" lon="10.784975"><ele>73.66666666666667</ele><time>2026-05-03T07:21:00.105Z</time></trkpt><trkpt lat="45.3673217" lon="10.7849533"><ele>73.5</ele><time>2026-05-03T07:21:01.105Z</time></trkpt><trkpt lat="45.3673967" lon="10.784935"><ele>73.33333333333333</ele><time>2026-05-03T07:21:02.105Z</time></trkpt><trkpt lat="45.3674817" lon="10.78492"><ele>73.16666666666666</ele><time>2026-05-03T07:21:03.105Z</time></trkpt><trkpt lat="45.3675633" lon="10.784895"><ele>73.0</ele><time>2026-05-03T07:21:04.104Z</time></trkpt><trkpt lat="45.3676433" lon="10.78487"><ele>73.0</ele><time>2026-05-03T07:21:05.105Z</time></trkpt><trkpt lat="45.3677067" lon="10.7848517"><ele>73.0</ele><time>2026-05-03T07:21:06.105Z</time></trkpt><trkpt lat="45.367815" lon="10.7848533"><ele>73.0</ele><time>2026-05-03T07:21:08.104Z</time></trkpt><trkpt lat="45.3679233" lon="10.7849683"><ele>73.0</ele><time>2026-05-03T07:21:10.105Z</time></trkpt><trkpt lat="45.3679767" lon="10.7850367"><ele>73.0</ele><time>2026-05-03T07:21:11.104Z</time></trkpt><trkpt lat="45.3680333" lon="10.7850967"><ele>72.8</ele><time>2026-05-03T07:21:12.105Z</time></trkpt><trkpt lat="45.3680917" lon="10.785135"><ele>72.6</ele><time>2026-05-03T07:21:13.104Z</time></trkpt><trkpt lat="45.3682067" lon="10.785175"><ele>72.4</ele><time>2026-05-03T07:21:15.105Z</time></trkpt><trkpt lat="45.3683267" lon="10.7852033"><ele>72.2</ele><time>2026-05-03T07:21:17.104Z</time></trkpt><trkpt lat="45.3684517" lon="10.78522"><ele>72.0</ele><time>2026-05-03T07:21:19.105Z</time></trkpt><trkpt lat="45.3685217" lon="10.7852183"><ele>72.0</ele><time>2026-05-03T07:21:20.105Z</time></trkpt><trkpt lat="45.3685867" lon="10.7852133"><ele>72.0</ele><time>2026-05-03T07:21:21.105Z</time></trkpt><trkpt lat="45.36865" lon="10.7851933"><ele>72.0</ele><time>2026-05-03T07:21:22.104Z</time></trkpt><trkpt lat="45.3687467" lon="10.785105"><ele>72.0</ele><time>2026-05-03T07:21:24.105Z</time></trkpt><trkpt lat="45.36878" lon="10.7850267"><ele>72.0</ele><time>2026-05-03T07:21:25.104Z</time></trkpt><trkpt lat="45.3688083" lon="10.7849267"><ele>72.0</ele><time>2026-05-03T07:21:26.105Z</time></trkpt><trkpt lat="45.36884" lon="10.7848267"><ele>71.5</ele><time>2026-05-03T07:21:27.104Z</time></trkpt><trkpt lat="45.368875" lon="10.7847417"><ele>71.0</ele><time>2026-05-03T07:21:28.105Z</time></trkpt><trkpt lat="45.3689133" lon="10.7846633"><ele>70.5</ele><time>2026-05-03T07:21:29.105Z</time></trkpt><trkpt lat="45.3689617" lon="10.7846017"><ele>70.0</ele><time>2026-05-03T07:21:30.105Z</time></trkpt><trkpt lat="45.369075" lon="10.784525"><ele>69.5</ele><time>2026-05-03T07:21:32.105Z</time></trkpt><trkpt lat="45.3691417" lon="10.7844983"><ele>69.0</ele><time>2026-05-03T07:21:33.104Z</time></trkpt><trkpt lat="45.3692217" lon="10.7844733"><ele>69.0</ele><time>2026-05-03T07:21:34.105Z</time></trkpt><trkpt lat="45.3693117" lon="10.784445"><ele>69.0</ele><time>2026-05-03T07:21:35.105Z</time></trkpt><trkpt lat="45.3694017" lon="10.7844283"><ele>69.0</ele><time>2026-05-03T07:21:36.104Z</time></trkpt><trkpt lat="45.3694817" lon="10.7844067"><ele>69.0</ele><time>2026-05-03T07:21:37.105Z</time></trkpt><trkpt lat="45.369555" lon="10.7843833"><ele>69.0</ele><time>2026-05-03T07:21:38.105Z</time></trkpt><trkpt lat="45.369635" lon="10.7843633"><ele>69.0</ele><time>2026-05-03T07:21:39.105Z</time></trkpt><trkpt lat="45.369715" lon="10.7843283"><ele>69.4</ele><time>2026-05-03T07:21:40.105Z</time></trkpt><trkpt lat="45.3697967" lon="10.7842933"><ele>69.80000000000001</ele><time>2026-05-03T07:21:41.105Z</time></trkpt><trkpt lat="45.369885" lon="10.7842533"><ele>70.19999999999999</ele><time>2026-05-03T07:21:42.105Z</time></trkpt><trkpt lat="45.3699733" lon="10.784215"><ele>70.6</ele><time>2026-05-03T07:21:43.105Z</time></trkpt><trkpt lat="45.37007" lon="10.78418"><ele>71.0</ele><time>2026-05-03T07:21:44.104Z</time></trkpt><trkpt lat="45.370155" lon="10.7841517"><ele>71.0</ele><time>2026-05-03T07:21:45.104Z</time></trkpt><trkpt lat="45.37024" lon="10.7841183"><ele>71.0</ele><time>2026-05-03T07:21:46.105Z</time></trkpt><trkpt lat="45.3703183" lon="10.7840883"><ele>71.0</ele><time>2026-05-03T07:21:47.105Z</time></trkpt><trkpt lat="45.3704033" lon="10.7840767"><ele>71.0</ele><time>2026-05-03T07:21:48.104Z</time></trkpt><trkpt lat="45.3704917" lon="10.78408"><ele>71.0</ele><time>2026-05-03T07:21:49.105Z</time></trkpt><trkpt lat="45.3705667" lon="10.784075"><ele>71.0</ele><time>2026-05-03T07:21:50.105Z</time></trkpt><trkpt lat="45.3706483" lon="10.7840617"><ele>70.8</ele><time>2026-05-03T07:21:51.105Z</time></trkpt><trkpt lat="45.37073" lon="10.7840467"><ele>70.6</ele><time>2026-05-03T07:21:52.105Z</time></trkpt><trkpt lat="45.3708183" lon="10.78403"><ele>70.4</ele><time>2026-05-03T07:21:53.104Z</time></trkpt><trkpt lat="45.37092" lon="10.7840117"><ele>70.2</ele><time>2026-05-03T07:21:54.105Z</time></trkpt><trkpt lat="45.3710217" lon="10.7839983"><ele>70.0</ele><time>2026-05-03T07:21:55.105Z</time></trkpt><trkpt lat="45.371125" lon="10.7839883"><ele>70.0</ele><time>2026-05-03T07:21:56.105Z</time></trkpt><trkpt lat="45.3712167" lon="10.783975"><ele>70.0</ele><time>2026-05-03T07:21:57.105Z</time></trkpt><trkpt lat="45.3712883" lon="10.7839617"><ele>70.0</ele><time>2026-05-03T07:21:58.105Z</time></trkpt><trkpt lat="45.3713517" lon="10.7839367"><ele>70.0</ele><time>2026-05-03T07:21:59.104Z</time></trkpt><trkpt lat="45.3714317" lon="10.7838833"><ele>70.0</ele><time>2026-05-03T07:22:01.105Z</time></trkpt><trkpt lat="45.3714417" lon="10.783775"><ele>70.0</ele><time>2026-05-03T07:22:03.105Z</time></trkpt><trkpt lat="45.3714167" lon="10.7836117"><ele>70.28571428571429</ele><time>2026-05-03T07:22:05.105Z</time></trkpt><trkpt lat="45.37141" lon="10.7835183"><ele>70.57142857142857</ele><time>2026-05-03T07:22:06.105Z</time></trkpt><trkpt lat="45.3713967" lon="10.783415"><ele>70.85714285714286</ele><time>2026-05-03T07:22:07.104Z</time></trkpt><trkpt lat="45.3713883" lon="10.7833117"><ele>71.14285714285714</ele><time>2026-05-03T07:22:08.105Z</time></trkpt><trkpt lat="45.3713767" lon="10.7832033"><ele>71.42857142857143</ele><time>2026-05-03T07:22:09.104Z</time></trkpt><trkpt lat="45.371365" lon="10.7830967"><ele>71.71428571428572</ele><time>2026-05-03T07:22:10.104Z</time></trkpt><trkpt lat="45.3713567" lon="10.7829917"><ele>72.0</ele><time>2026-05-03T07:22:11.105Z</time></trkpt><trkpt lat="45.3713483" lon="10.7828783"><ele>72.42857142857143</ele><time>2026-05-03T07:22:12.105Z</time></trkpt><trkpt lat="45.3713433" lon="10.782775"><ele>72.85714285714286</ele><time>2026-05-03T07:22:13.105Z</time></trkpt><trkpt lat="45.37133" lon="10.7826783"><ele>73.28571428571428</ele><time>2026-05-03T07:22:14.105Z</time></trkpt><trkpt lat="45.3713167" lon="10.7825683"><ele>73.71428571428572</ele><time>2026-05-03T07:22:15.105Z</time></trkpt><trkpt lat="45.3713033" lon="10.7824667"><ele>74.14285714285714</ele><time>2026-05-03T07:22:16.105Z</time></trkpt><trkpt lat="45.3712817" lon="10.7823717"><ele>74.57142857142857</ele><time>2026-05-03T07:22:17.104Z</time></trkpt><trkpt lat="45.37126" lon="10.7822717"><ele>75.0</ele><time>2026-05-03T07:22:18.104Z</time></trkpt><trkpt lat="45.3712433" lon="10.7821667"><ele>75.83333333333333</ele><time>2026-05-03T07:22:19.105Z</time></trkpt><trkpt lat="45.3712267" lon="10.7820717"><ele>76.66666666666667</ele><time>2026-05-03T07:22:20.105Z</time></trkpt><trkpt lat="45.3712133" lon="10.78198"><ele>77.5</ele><time>2026-05-03T07:22:21.105Z</time></trkpt><trkpt lat="45.3712183" lon="10.7818583"><ele>78.33333333333334</ele><time>2026-05-03T07:22:23.105Z</time></trkpt><trkpt lat="45.371285" lon="10.7818467"><ele>79.16666666666667</ele><time>2026-05-03T07:22:31.104Z</time></trkpt><trkpt lat="45.3713717" lon="10.78194"><ele>80.0</ele><time>2026-05-03T07:22:33.104Z</time></trkpt><trkpt lat="45.371475" lon="10.7820383"><ele>81.16666666666667</ele><time>2026-05-03T07:22:35.105Z</time></trkpt><trkpt lat="45.37155" lon="10.78208"><ele>82.33333333333334</ele><time>2026-05-03T07:22:36.104Z</time></trkpt><trkpt lat="45.3716233" lon="10.78215"><ele>83.5</ele><time>2026-05-03T07:22:37.105Z</time></trkpt><trkpt lat="45.3717017" lon="10.7822167"><ele>84.66666666666667</ele><time>2026-05-03T07:22:38.105Z</time></trkpt><trkpt lat="45.37178" lon="10.7822667"><ele>85.83333333333333</ele><time>2026-05-03T07:22:39.105Z</time></trkpt><trkpt lat="45.371845" lon="10.7823267"><ele>87.0</ele><time>2026-05-03T07:22:40.105Z</time></trkpt><trkpt lat="45.3719033" lon="10.7823883"><ele>87.0</ele><time>2026-05-03T07:22:41.105Z</time></trkpt><trkpt lat="45.3719683" lon="10.78243"><ele>87.0</ele><time>2026-05-03T07:22:42.105Z</time></trkpt><trkpt lat="45.3720183" lon="10.7824917"><ele>87.0</ele><time>2026-05-03T07:22:43.105Z</time></trkpt><trkpt lat="45.3721283" lon="10.782595"><ele>87.0</ele><time>2026-05-03T07:22:45.105Z</time></trkpt><trkpt lat="45.3722" lon="10.78267"><ele>87.0</ele><time>2026-05-03T07:22:46.104Z</time></trkpt><trkpt lat="45.3722733" lon="10.782755"><ele>85.25</ele><time>2026-05-03T07:22:47.105Z</time></trkpt><trkpt lat="45.3723583" lon="10.78288"><ele>83.5</ele><time>2026-05-03T07:22:48.106Z</time></trkpt><trkpt lat="45.3724467" lon="10.7830167"><ele>81.75</ele><time>2026-05-03T07:22:49.106Z</time></trkpt><trkpt lat="45.3725417" lon="10.7831367"><ele>80.0</ele><time>2026-05-03T07:22:50.105Z</time></trkpt><trkpt lat="45.3726333" lon="10.7832483"><ele>80.0</ele><time>2026-05-03T07:22:51.106Z</time></trkpt><trkpt lat="45.3727283" lon="10.7833433"><ele>80.0</ele><time>2026-05-03T07:22:52.106Z</time></trkpt><trkpt lat="45.372815" lon="10.7834333"><ele>80.0</ele><time>2026-05-03T07:22:53.105Z</time></trkpt><trkpt lat="45.372905" lon="10.7835083"><ele>80.0</ele><time>2026-05-03T07:22:54.106Z</time></trkpt><trkpt lat="45.3729833" lon="10.7835717"><ele>80.0</ele><time>2026-05-03T07:22:55.106Z</time></trkpt><trkpt lat="45.373075" lon="10.78362"><ele>78.0</ele><time>2026-05-03T07:22:56.106Z</time></trkpt><trkpt lat="45.373175" lon="10.7836467"><ele>76.0</ele><time>2026-05-03T07:22:57.105Z</time></trkpt><trkpt lat="45.37328" lon="10.7836767"><ele>74.0</ele><time>2026-05-03T07:22:58.106Z</time></trkpt><trkpt lat="45.373385" lon="10.7837117"><ele>72.0</ele><time>2026-05-03T07:22:59.106Z</time></trkpt><trkpt lat="45.3734967" lon="10.78372"><ele>70.0</ele><time>2026-05-03T07:23:00.106Z</time></trkpt><trkpt lat="45.3736117" lon="10.7837333"><ele>70.0</ele><time>2026-05-03T07:23:01.106Z</time></trkpt><trkpt lat="45.3737267" lon="10.783745"><ele>70.0</ele><time>2026-05-03T07:23:02.106Z</time></trkpt><trkpt lat="45.37385" lon="10.783755"><ele>70.0</ele><time>2026-05-03T07:23:03.105Z</time></trkpt><trkpt lat="45.37397" lon="10.783785"><ele>70.0</ele><time>2026-05-03T07:23:04.106Z</time></trkpt><trkpt lat="45.374075" lon="10.7837917"><ele>70.0</ele><time>2026-05-03T07:23:05.106Z</time></trkpt><trkpt lat="45.3741683" lon="10.7837933"><ele>70.0</ele><time>2026-05-03T07:23:06.105Z</time></trkpt><trkpt lat="45.3742517" lon="10.783795"><ele>70.0</ele><time>2026-05-03T07:23:07.106Z</time></trkpt><trkpt lat="45.3743367" lon="10.7837933"><ele>70.0</ele><time>2026-05-03T07:23:08.106Z</time></trkpt><trkpt lat="45.37443" lon="10.7838083"><ele>70.0</ele><time>2026-05-03T07:23:10.106Z</time></trkpt><trkpt lat="45.3744783" lon="10.78391"><ele>70.0</ele><time>2026-05-03T07:23:14.106Z</time></trkpt><trkpt lat="45.3744683" lon="10.7840733"><ele>70.0</ele><time>2026-05-03T07:23:16.106Z</time></trkpt><trkpt lat="45.3744467" lon="10.78418"><ele>70.0</ele><time>2026-05-03T07:23:17.106Z</time></trkpt><trkpt lat="45.37442" lon="10.78431"><ele>70.0</ele><time>2026-05-03T07:23:18.106Z</time></trkpt><trkpt lat="45.3743867" lon="10.7844633"><ele>70.0</ele><time>2026-05-03T07:23:19.106Z</time></trkpt><trkpt lat="45.374345" lon="10.7846183"><ele>70.0</ele><time>2026-05-03T07:23:20.105Z</time></trkpt><trkpt lat="45.3743" lon="10.784775"><ele>70.25</ele><time>2026-05-03T07:23:21.106Z</time></trkpt><trkpt lat="45.37425" lon="10.7849317"><ele>70.5</ele><time>2026-05-03T07:23:22.106Z</time></trkpt><trkpt lat="45.3741917" lon="10.7850917"><ele>70.75</ele><time>2026-05-03T07:23:23.106Z</time></trkpt><trkpt lat="45.374115" lon="10.7852467"><ele>71.0</ele><time>2026-05-03T07:23:24.106Z</time></trkpt><trkpt lat="45.37403" lon="10.7854083"><ele>71.8</ele><time>2026-05-03T07:23:25.105Z</time></trkpt><trkpt lat="45.3739483" lon="10.7855517"><ele>72.6</ele><time>2026-05-03T07:23:26.105Z</time></trkpt><trkpt lat="45.3738717" lon="10.7856817"><ele>73.4</ele><time>2026-05-03T07:23:27.106Z</time></trkpt><trkpt lat="45.373795" lon="10.7857867"><ele>74.2</ele><time>2026-05-03T07:23:28.106Z</time></trkpt><trkpt lat="45.3737317" lon="10.7858633"><ele>75.0</ele><time>2026-05-03T07:23:29.106Z</time></trkpt><trkpt lat="45.3736767" lon="10.7859317"><ele>75.0</ele><time>2026-05-03T07:23:30.106Z</time></trkpt><trkpt lat="45.3736383" lon="10.78601"><ele>75.0</ele><time>2026-05-03T07:23:31.105Z</time></trkpt><trkpt lat="45.373665" lon="10.7861617"><ele>75.0</ele><time>2026-05-03T07:23:33.106Z</time></trkpt><trkpt lat="45.3737233" lon="10.78624"><ele>75.0</ele><time>2026-05-03T07:23:34.106Z</time></trkpt><trkpt lat="45.373805" lon="10.7863467"><ele>75.0</ele><time>2026-05-03T07:23:35.105Z</time></trkpt><trkpt lat="45.3738883" lon="10.78645"><ele>78.25</ele><time>2026-05-03T07:23:36.106Z</time></trkpt><trkpt lat="45.3739883" lon="10.7865083"><ele>81.5</ele><time>2026-05-03T07:23:37.106Z</time></trkpt><trkpt lat="45.3741" lon="10.7865283"><ele>84.75</ele><time>2026-05-03T07:23:38.106Z</time></trkpt><trkpt lat="45.3742167" lon="10.7865333"><ele>88.0</ele><time>2026-05-03T07:23:39.105Z</time></trkpt><trkpt lat="45.374345" lon="10.7865433"><ele>88.0</ele><time>2026-05-03T07:23:40.106Z</time></trkpt><trkpt lat="45.37448" lon="10.7865733"><ele>88.0</ele><time>2026-05-03T07:23:41.106Z</time></trkpt><trkpt lat="45.3746333" lon="10.7866033"><ele>88.0</ele><time>2026-05-03T07:23:42.106Z</time></trkpt><trkpt lat="45.374785" lon="10.7866383"><ele>88.0</ele><time>2026-05-03T07:23:43.106Z</time></trkpt><trkpt lat="45.3749667" lon="10.7866733"><ele>87.0</ele><time>2026-05-03T07:23:44.106Z</time></trkpt><trkpt lat="45.3751667" lon="10.7867017"><ele>86.0</ele><time>2026-05-03T07:23:45.106Z</time></trkpt><trkpt lat="45.3753583" lon="10.7867383"><ele>85.0</ele><time>2026-05-03T07:23:46.106Z</time></trkpt><trkpt lat="45.3755433" lon="10.7867417"><ele>85.0</ele><time>2026-05-03T07:23:47.106Z</time></trkpt><trkpt lat="45.375745" lon="10.7867217"><ele>85.0</ele><time>2026-05-03T07:23:48.106Z</time></trkpt><trkpt lat="45.3759833" lon="10.7866883"><ele>85.0</ele><time>2026-05-03T07:23:49.106Z</time></trkpt><trkpt lat="45.3762233" lon="10.7866483"><ele>86.0</ele><time>2026-05-03T07:23:50.106Z</time></trkpt><trkpt lat="45.3764517" lon="10.7866183"><ele>87.0</ele><time>2026-05-03T07:23:51.106Z</time></trkpt><trkpt lat="45.3766617" lon="10.7865633"><ele>88.0</ele><time>2026-05-03T07:23:52.106Z</time></trkpt><trkpt lat="45.3768583" lon="10.7864883"><ele>88.0</ele><time>2026-05-03T07:23:53.106Z</time></trkpt><trkpt lat="45.377055" lon="10.786415"><ele>88.0</ele><time>2026-05-03T07:23:54.106Z</time></trkpt><trkpt lat="45.377255" lon="10.78635"><ele>88.0</ele><time>2026-05-03T07:23:55.106Z</time></trkpt><trkpt lat="45.3774667" lon="10.7862817"><ele>89.66666666666666</ele><time>2026-05-03T07:23:56.106Z</time></trkpt><trkpt lat="45.37768" lon="10.7862117"><ele>91.33333333333333</ele><time>2026-05-03T07:23:57.106Z</time></trkpt><trkpt lat="45.3778717" lon="10.786155"><ele>93.0</ele><time>2026-05-03T07:23:58.105Z</time></trkpt><trkpt lat="45.3780333" lon="10.7860967"><ele>95.25</ele><time>2026-05-03T07:23:59.106Z</time></trkpt><trkpt lat="45.3781633" lon="10.7860567"><ele>97.5</ele><time>2026-05-03T07:24:00.106Z</time></trkpt><trkpt lat="45.37829" lon="10.7860183"><ele>99.75</ele><time>2026-05-03T07:24:01.106Z</time></trkpt><trkpt lat="45.3783983" lon="10.785985"><ele>102.0</ele><time>2026-05-03T07:24:02.105Z</time></trkpt><trkpt lat="45.3785067" lon="10.7859567"><ele>99.5</ele><time>2026-05-03T07:24:03.106Z</time></trkpt><trkpt lat="45.3786167" lon="10.7859167"><ele>97.0</ele><time>2026-05-03T07:24:04.106Z</time></trkpt><trkpt lat="45.37873" lon="10.785865"><ele>94.5</ele><time>2026-05-03T07:24:05.105Z</time></trkpt><trkpt lat="45.37885" lon="10.7858033"><ele>92.0</ele><time>2026-05-03T07:24:06.106Z</time></trkpt><trkpt lat="45.37897" lon="10.78574"><ele>92.0</ele><time>2026-05-03T07:24:07.106Z</time></trkpt><trkpt lat="45.379085" lon="10.7856817"><ele>92.0</ele><time>2026-05-03T07:24:08.106Z</time></trkpt><trkpt lat="45.3791783" lon="10.785625"><ele>92.0</ele><time>2026-05-03T07:24:09.106Z</time></trkpt><trkpt lat="45.3792583" lon="10.7855833"><ele>92.0</ele><time>2026-05-03T07:24:10.106Z</time></trkpt><trkpt lat="45.3793283" lon="10.785545"><ele>92.0</ele><time>2026-05-03T07:24:11.106Z</time></trkpt><trkpt lat="45.3793867" lon="10.7855017"><ele>92.0</ele><time>2026-05-03T07:24:12.106Z</time></trkpt><trkpt lat="45.3795033" lon="10.78543"><ele>92.0</ele><time>2026-05-03T07:24:14.105Z</time></trkpt><trkpt lat="45.3795833" lon="10.78539"><ele>92.0</ele><time>2026-05-03T07:24:15.106Z</time></trkpt><trkpt lat="45.379665" lon="10.785345"><ele>92.0</ele><time>2026-05-03T07:24:16.106Z</time></trkpt><trkpt lat="45.3797533" lon="10.7852883"><ele>92.0</ele><time>2026-05-03T07:24:17.105Z</time></trkpt><trkpt lat="45.3798333" lon="10.7852333"><ele>91.16666666666667</ele><time>2026-05-03T07:24:18.106Z</time></trkpt><trkpt lat="45.379905" lon="10.7852"><ele>90.33333333333334</ele><time>2026-05-03T07:24:19.106Z</time></trkpt><trkpt lat="45.3799817" lon="10.7851283"><ele>89.5</ele><time>2026-05-03T07:24:20.105Z</time></trkpt><trkpt lat="45.380045" lon="10.78507"><ele>88.66666666666667</ele><time>2026-05-03T07:24:21.106Z</time></trkpt><trkpt lat="45.38011" lon="10.785005"><ele>87.83333333333333</ele><time>2026-05-03T07:24:22.106Z</time></trkpt><trkpt lat="45.3801733" lon="10.784925"><ele>87.0</ele><time>2026-05-03T07:24:23.106Z</time></trkpt><trkpt lat="45.3802233" lon="10.7848467"><ele>85.8</ele><time>2026-05-03T07:24:24.105Z</time></trkpt><trkpt lat="45.38029" lon="10.7847083"><ele>84.6</ele><time>2026-05-03T07:24:26.106Z</time></trkpt><trkpt lat="45.3803617" lon="10.78466"><ele>83.39999999999999</ele><time>2026-05-03T07:24:28.106Z</time></trkpt><trkpt lat="45.3804617" lon="10.7846933"><ele>82.19999999999999</ele><time>2026-05-03T07:24:30.106Z</time></trkpt><trkpt lat="45.3805233" lon="10.7847433"><ele>81.0</ele><time>2026-05-03T07:24:31.106Z</time></trkpt><trkpt lat="45.38059" lon="10.7848033"><ele>81.0</ele><time>2026-05-03T07:24:32.106Z</time></trkpt><trkpt lat="45.38065" lon="10.784855"><ele>81.0</ele><time>2026-05-03T07:24:33.106Z</time></trkpt><trkpt lat="45.380735" lon="10.7849367"><ele>81.0</ele><time>2026-05-03T07:24:35.106Z</time></trkpt><trkpt lat="45.3808133" lon="10.7850067"><ele>81.0</ele><time>2026-05-03T07:24:37.105Z</time></trkpt><trkpt lat="45.380905" lon="10.7850667"><ele>81.0</ele><time>2026-05-03T07:24:39.106Z</time></trkpt><trkpt lat="45.3809633" lon="10.7851033"><ele>81.0</ele><time>2026-05-03T07:24:40.105Z</time></trkpt><trkpt lat="45.381025" lon="10.785145"><ele>80.83333333333333</ele><time>2026-05-03T07:24:41.106Z</time></trkpt><trkpt lat="45.3810967" lon="10.7851983"><ele>80.66666666666667</ele><time>2026-05-03T07:24:42.106Z</time></trkpt><trkpt lat="45.3811717" lon="10.785245"><ele>80.5</ele><time>2026-05-03T07:24:43.106Z</time></trkpt><trkpt lat="45.38125" lon="10.785295"><ele>80.33333333333334</ele><time>2026-05-03T07:24:44.106Z</time></trkpt><trkpt lat="45.381325" lon="10.785335"><ele>80.16666666666667</ele><time>2026-05-03T07:24:45.106Z</time></trkpt><trkpt lat="45.381405" lon="10.7853783"><ele>80.0</ele><time>2026-05-03T07:24:46.106Z</time></trkpt><trkpt lat="45.3814833" lon="10.7854217"><ele>79.83333333333334</ele><time>2026-05-03T07:24:47.105Z</time></trkpt><trkpt lat="45.3815617" lon="10.78546"><ele>79.66666666666667</ele><time>2026-05-03T07:24:48.105Z</time></trkpt><trkpt lat="45.38164" lon="10.7854967"><ele>79.5</ele><time>2026-05-03T07:24:49.105Z</time></trkpt><trkpt lat="45.38172" lon="10.7855333"><ele>79.33333333333333</ele><time>2026-05-03T07:24:50.106Z</time></trkpt><trkpt lat="45.3817967" lon="10.7855667"><ele>79.16666666666666</ele><time>2026-05-03T07:24:51.106Z</time></trkpt><trkpt lat="45.3818767" lon="10.785605"><ele>79.0</ele><time>2026-05-03T07:24:52.106Z</time></trkpt><trkpt lat="45.38196" lon="10.785645"><ele>79.0</ele><time>2026-05-03T07:24:53.106Z</time></trkpt><trkpt lat="45.3820383" lon="10.78569"><ele>79.0</ele><time>2026-05-03T07:24:54.105Z</time></trkpt><trkpt lat="45.38212" lon="10.7857317"><ele>79.0</ele><time>2026-05-03T07:24:55.106Z</time></trkpt><trkpt lat="45.3821967" lon="10.7857717"><ele>79.0</ele><time>2026-05-03T07:24:56.106Z</time></trkpt><trkpt lat="45.382275" lon="10.7858117"><ele>79.0</ele><time>2026-05-03T07:24:57.106Z</time></trkpt><trkpt lat="45.382355" lon="10.78585"><ele>79.0</ele><time>2026-05-03T07:24:58.105Z</time></trkpt><trkpt lat="45.3825083" lon="10.7859267"><ele>78.83333333333333</ele><time>2026-05-03T07:25:00.106Z</time></trkpt><trkpt lat="45.3825867" lon="10.7859667"><ele>78.66666666666666</ele><time>2026-05-03T07:25:01.106Z</time></trkpt><trkpt lat="45.3826583" lon="10.785995"><ele>78.5</ele><time>2026-05-03T07:25:02.106Z</time></trkpt><trkpt lat="45.3827633" lon="10.7860067"><ele>78.33333333333333</ele><time>2026-05-03T07:25:04.106Z</time></trkpt><trkpt lat="45.3828267" lon="10.78598"><ele>78.16666666666667</ele><time>2026-05-03T07:25:05.105Z</time></trkpt><trkpt lat="45.38289" lon="10.7859067"><ele>78.0</ele><time>2026-05-03T07:25:06.105Z</time></trkpt><trkpt lat="45.382955" lon="10.785825"><ele>78.0</ele><time>2026-05-03T07:25:07.106Z</time></trkpt><trkpt lat="45.3830217" lon="10.7857433"><ele>78.0</ele><time>2026-05-03T07:25:08.105Z</time></trkpt><trkpt lat="45.38309" lon="10.7856633"><ele>78.0</ele><time>2026-05-03T07:25:09.106Z</time></trkpt><trkpt lat="45.3831533" lon="10.7855867"><ele>78.0</ele><time>2026-05-03T07:25:10.106Z</time></trkpt><trkpt lat="45.3832183" lon="10.7855117"><ele>78.0</ele><time>2026-05-03T07:25:11.106Z</time></trkpt><trkpt lat="45.3832783" lon="10.7854383"><ele>78.0</ele><time>2026-05-03T07:25:12.106Z</time></trkpt><trkpt lat="45.38334" lon="10.7853667"><ele>78.0</ele><time>2026-05-03T07:25:13.106Z</time></trkpt><trkpt lat="45.3834067" lon="10.7852967"><ele>78.0</ele><time>2026-05-03T07:25:14.106Z</time></trkpt><trkpt lat="45.3834683" lon="10.785225"><ele>78.0</ele><time>2026-05-03T07:25:15.105Z</time></trkpt><trkpt lat="45.3835367" lon="10.785155"><ele>78.0</ele><time>2026-05-03T07:25:16.105Z</time></trkpt><trkpt lat="45.3835983" lon="10.78508"><ele>78.0</ele><time>2026-05-03T07:25:17.106Z</time></trkpt><trkpt lat="45.383665" lon="10.7850083"><ele>78.0</ele><time>2026-05-03T07:25:18.105Z</time></trkpt><trkpt lat="45.383725" lon="10.7849383"><ele>78.0</ele><time>2026-05-03T07:25:19.105Z</time></trkpt><trkpt lat="45.3837883" lon="10.7848717"><ele>78.0</ele><time>2026-05-03T07:25:20.105Z</time></trkpt><trkpt lat="45.383845" lon="10.7848083"><ele>78.0</ele><time>2026-05-03T07:25:21.106Z</time></trkpt><trkpt lat="45.3838967" lon="10.7847533"><ele>78.0</ele><time>2026-05-03T07:25:22.105Z</time></trkpt><trkpt lat="45.3839817" lon="10.78466"><ele>78.0</ele><time>2026-05-03T07:25:24.106Z</time></trkpt><trkpt lat="45.384035" lon="10.7845983"><ele>78.0</ele><time>2026-05-03T07:25:26.105Z</time></trkpt><trkpt lat="45.3841133" lon="10.7845983"><ele>78.0</ele><time>2026-05-03T07:25:30.106Z</time></trkpt><trkpt lat="45.384175" lon="10.7847"><ele>78.0</ele><time>2026-05-03T07:25:32.106Z</time></trkpt><trkpt lat="45.3842017" lon="10.7847933"><ele>78.0</ele><time>2026-05-03T07:25:33.106Z</time></trkpt><trkpt lat="45.384225" lon="10.7849033"><ele>78.0</ele><time>2026-05-03T07:25:34.106Z</time></trkpt><trkpt lat="45.384255" lon="10.7850317"><ele>78.0</ele><time>2026-05-03T07:25:35.106Z</time></trkpt><trkpt lat="45.384285" lon="10.7851633"><ele>78.0</ele><time>2026-05-03T07:25:36.106Z</time></trkpt><trkpt lat="45.3843133" lon="10.785285"><ele>78.0</ele><time>2026-05-03T07:25:37.106Z</time></trkpt><trkpt lat="45.3843417" lon="10.7854033"><ele>78.0</ele><time>2026-05-03T07:25:38.105Z</time></trkpt><trkpt lat="45.3843733" lon="10.78552"><ele>78.0</ele><time>2026-05-03T07:25:39.106Z</time></trkpt><trkpt lat="45.384405" lon="10.78564"><ele>78.0</ele><time>2026-05-03T07:25:40.106Z</time></trkpt><trkpt lat="45.38444" lon="10.7857433"><ele>78.0</ele><time>2026-05-03T07:25:41.106Z</time></trkpt><trkpt lat="45.3844833" lon="10.7858517"><ele>78.0</ele><time>2026-05-03T07:25:42.106Z</time></trkpt><trkpt lat="45.3845283" lon="10.785955"><ele>78.0</ele><time>2026-05-03T07:25:43.106Z</time></trkpt><trkpt lat="45.3845767" lon="10.7860533"><ele>78.0</ele><time>2026-05-03T07:25:44.106Z</time></trkpt><trkpt lat="45.3846283" lon="10.786145"><ele>78.0</ele><time>2026-05-03T07:25:45.106Z</time></trkpt><trkpt lat="45.3846867" lon="10.78623"><ele>78.0</ele><time>2026-05-03T07:25:46.106Z</time></trkpt><trkpt lat="45.3847467" lon="10.7863167"><ele>78.0</ele><time>2026-05-03T07:25:47.105Z</time></trkpt><trkpt lat="45.3848117" lon="10.7864033"><ele>78.0</ele><time>2026-05-03T07:25:48.106Z</time></trkpt><trkpt lat="45.3848733" lon="10.786495"><ele>78.0</ele><time>2026-05-03T07:25:49.106Z</time></trkpt><trkpt lat="45.384935" lon="10.78658"><ele>78.0</ele><time>2026-05-03T07:25:50.106Z</time></trkpt><trkpt lat="45.3849983" lon="10.7866617"><ele>78.0</ele><time>2026-05-03T07:25:51.105Z</time></trkpt><trkpt lat="45.385065" lon="10.7867383"><ele>78.0</ele><time>2026-05-03T07:25:52.105Z</time></trkpt><trkpt lat="45.3851367" lon="10.7868083"><ele>78.0</ele><time>2026-05-03T07:25:53.106Z</time></trkpt><trkpt lat="45.3851983" lon="10.7868617"><ele>78.0</ele><time>2026-05-03T07:25:54.106Z</time></trkpt><trkpt lat="45.3852817" lon="10.7869467"><ele>78.0</ele><time>2026-05-03T07:25:56.106Z</time></trkpt><trkpt lat="45.3853467" lon="10.786985"><ele>78.0</ele><time>2026-05-03T07:25:58.106Z</time></trkpt><trkpt lat="45.3854033" lon="10.7869183"><ele>78.0</ele><time>2026-05-03T07:26:00.106Z</time></trkpt><trkpt lat="45.3854483" lon="10.78683"><ele>78.0</ele><time>2026-05-03T07:26:01.106Z</time></trkpt><trkpt lat="45.3855017" lon="10.7867033"><ele>78.0</ele><time>2026-05-03T07:26:02.106Z</time></trkpt><trkpt lat="45.3855633" lon="10.7865333"><ele>77.8</ele><time>2026-05-03T07:26:03.105Z</time></trkpt><trkpt lat="45.3856317" lon="10.786385"><ele>77.6</ele><time>2026-05-03T07:26:04.106Z</time></trkpt><trkpt lat="45.38568" lon="10.7862617"><ele>77.4</ele><time>2026-05-03T07:26:05.105Z</time></trkpt><trkpt lat="45.3857233" lon="10.786145"><ele>77.2</ele><time>2026-05-03T07:26:06.105Z</time></trkpt><trkpt lat="45.3857633" lon="10.7860433"><ele>77.0</ele><time>2026-05-03T07:26:07.105Z</time></trkpt><trkpt lat="45.3858067" lon="10.785945"><ele>77.0</ele><time>2026-05-03T07:26:08.105Z</time></trkpt><trkpt lat="45.38587" lon="10.7858483"><ele>77.0</ele><time>2026-05-03T07:26:09.106Z</time></trkpt><trkpt lat="45.3859367" lon="10.78576"><ele>77.0</ele><time>2026-05-03T07:26:10.106Z</time></trkpt><trkpt lat="45.386" lon="10.7856667"><ele>77.0</ele><time>2026-05-03T07:26:11.106Z</time></trkpt><trkpt lat="45.38606" lon="10.7855817"><ele>77.0</ele><time>2026-05-03T07:26:12.106Z</time></trkpt><trkpt lat="45.3861083" lon="10.7855033"><ele>77.0</ele><time>2026-05-03T07:26:13.106Z</time></trkpt><trkpt lat="45.3861533" lon="10.7854333"><ele>77.0</ele><time>2026-05-03T07:26:14.106Z</time></trkpt><trkpt lat="45.3861933" lon="10.78536"><ele>77.0</ele><time>2026-05-03T07:26:15.106Z</time></trkpt><trkpt lat="45.3862367" lon="10.78529"><ele>77.0</ele><time>2026-05-03T07:26:16.106Z</time></trkpt><trkpt lat="45.3862767" lon="10.7852183"><ele>77.0</ele><time>2026-05-03T07:26:17.106Z</time></trkpt><trkpt lat="45.3863567" lon="10.7850917"><ele>77.0</ele><time>2026-05-03T07:26:19.106Z</time></trkpt><trkpt lat="45.3864333" lon="10.7850267"><ele>77.0</ele><time>2026-05-03T07:26:21.106Z</time></trkpt><trkpt lat="45.3865217" lon="10.7850317"><ele>77.83333333333334</ele><time>2026-05-03T07:26:23.106Z</time></trkpt><trkpt lat="45.386575" lon="10.7851233"><ele>78.66666666666667</ele><time>2026-05-03T07:26:25.106Z</time></trkpt><trkpt lat="45.3866117" lon="10.785285"><ele>79.5</ele><time>2026-05-03T07:26:27.105Z</time></trkpt><trkpt lat="45.3866383" lon="10.78537"><ele>80.33333333333333</ele><time>2026-05-03T07:26:28.106Z</time></trkpt><trkpt lat="45.3866717" lon="10.7854583"><ele>81.16666666666666</ele><time>2026-05-03T07:26:29.106Z</time></trkpt><trkpt lat="45.3867133" lon="10.7855417"><ele>82.0</ele><time>2026-05-03T07:26:30.106Z</time></trkpt><trkpt lat="45.3867583" lon="10.7856183"><ele>81.99999999999999</ele><time>2026-05-03T07:26:31.106Z</time></trkpt><trkpt lat="45.3868167" lon="10.7856833"><ele>82.0</ele><time>2026-05-03T07:26:32.106Z</time></trkpt><trkpt lat="45.386885" lon="10.7857317"><ele>82.0</ele><time>2026-05-03T07:26:33.106Z</time></trkpt><trkpt lat="45.3869483" lon="10.7857767"><ele>82.0</ele><time>2026-05-03T07:26:34.105Z</time></trkpt><trkpt lat="45.3870233" lon="10.7857933"><ele>82.0</ele><time>2026-05-03T07:26:35.106Z</time></trkpt><trkpt lat="45.3870883" lon="10.7858183"><ele>81.99999999999999</ele><time>2026-05-03T07:26:36.106Z</time></trkpt><trkpt lat="45.3871583" lon="10.78583"><ele>82.0</ele><time>2026-05-03T07:26:37.106Z</time></trkpt><trkpt lat="45.387245" lon="10.7858233"><ele>83.19999999999999</ele><time>2026-05-03T07:26:38.106Z</time></trkpt><trkpt lat="45.3873583" lon="10.7858217"><ele>84.4</ele><time>2026-05-03T07:26:39.106Z</time></trkpt><trkpt lat="45.387455" lon="10.7858317"><ele>85.6</ele><time>2026-05-03T07:26:40.106Z</time></trkpt><trkpt lat="45.3875533" lon="10.7858333"><ele>86.80000000000001</ele><time>2026-05-03T07:26:41.106Z</time></trkpt><trkpt lat="45.387655" lon="10.785845"><ele>88.0</ele><time>2026-05-03T07:26:42.105Z</time></trkpt><trkpt lat="45.3877533" lon="10.78586"><ele>88.0</ele><time>2026-05-03T07:26:43.106Z</time></trkpt><trkpt lat="45.3878583" lon="10.7859033"><ele>88.0</ele><time>2026-05-03T07:26:44.106Z</time></trkpt><trkpt lat="45.38795" lon="10.78594"><ele>88.0</ele><time>2026-05-03T07:26:45.106Z</time></trkpt><trkpt lat="45.3880367" lon="10.7859817"><ele>88.0</ele><time>2026-05-03T07:26:46.106Z</time></trkpt><trkpt lat="45.3881333" lon="10.7859967"><ele>88.0</ele><time>2026-05-03T07:26:47.106Z</time></trkpt><trkpt lat="45.3882167" lon="10.785995"><ele>88.16666666666666</ele><time>2026-05-03T07:26:48.106Z</time></trkpt><trkpt lat="45.3883067" lon="10.785965"><ele>88.33333333333333</ele><time>2026-05-03T07:26:49.106Z</time></trkpt><trkpt lat="45.3883767" lon="10.785915"><ele>88.5</ele><time>2026-05-03T07:26:50.106Z</time></trkpt><trkpt lat="45.38844" lon="10.785875"><ele>88.66666666666667</ele><time>2026-05-03T07:26:51.106Z</time></trkpt><trkpt lat="45.3885467" lon="10.7858817"><ele>88.83333333333334</ele><time>2026-05-03T07:26:53.105Z</time></trkpt><trkpt lat="45.3886067" lon="10.78597"><ele>89.0</ele><time>2026-05-03T07:26:55.106Z</time></trkpt><trkpt lat="45.3886683" lon="10.7861067"><ele>87.0</ele><time>2026-05-03T07:26:57.105Z</time></trkpt><trkpt lat="45.3887683" lon="10.7861717"><ele>85.0</ele><time>2026-05-03T07:26:59.105Z</time></trkpt><trkpt lat="45.3888417" lon="10.7861617"><ele>83.0</ele><time>2026-05-03T07:27:00.106Z</time></trkpt><trkpt lat="45.3889233" lon="10.7861317"><ele>81.0</ele><time>2026-05-03T07:27:01.106Z</time></trkpt><trkpt lat="45.38901" lon="10.7860983"><ele>79.0</ele><time>2026-05-03T07:27:02.106Z</time></trkpt><trkpt lat="45.3891017" lon="10.7860533"><ele>78.60000000000001</ele><time>2026-05-03T07:27:03.106Z</time></trkpt><trkpt lat="45.3891967" lon="10.7860133"><ele>78.2</ele><time>2026-05-03T07:27:04.106Z</time></trkpt><trkpt lat="45.38929" lon="10.7859667"><ele>77.80000000000001</ele><time>2026-05-03T07:27:05.106Z</time></trkpt><trkpt lat="45.389375" lon="10.785925"><ele>77.4</ele><time>2026-05-03T07:27:06.106Z</time></trkpt><trkpt lat="45.3894633" lon="10.7858867"><ele>77.0</ele><time>2026-05-03T07:27:07.106Z</time></trkpt><trkpt lat="45.389555" lon="10.7858567"><ele>77.83333333333334</ele><time>2026-05-03T07:27:08.106Z</time></trkpt><trkpt lat="45.38964" lon="10.7858283"><ele>78.66666666666667</ele><time>2026-05-03T07:27:09.106Z</time></trkpt><trkpt lat="45.389725" lon="10.7858"><ele>79.5</ele><time>2026-05-03T07:27:10.106Z</time></trkpt><trkpt lat="45.3898067" lon="10.78577"><ele>80.33333333333333</ele><time>2026-05-03T07:27:11.106Z</time></trkpt><trkpt lat="45.3898767" lon="10.7857467"><ele>81.16666666666666</ele><time>2026-05-03T07:27:12.105Z</time></trkpt><trkpt lat="45.38994" lon="10.7857317"><ele>82.0</ele><time>2026-05-03T07:27:13.106Z</time></trkpt><trkpt lat="45.3900267" lon="10.7857117"><ele>82.0</ele><time>2026-05-03T07:27:15.106Z</time></trkpt><trkpt lat="45.3901283" lon="10.7857067"><ele>82.0</ele><time>2026-05-03T07:27:43.105Z</time></trkpt><trkpt lat="45.3901917" lon="10.7858367"><ele>82.0</ele><time>2026-05-03T07:27:45.106Z</time></trkpt><trkpt lat="45.3902183" lon="10.785935"><ele>82.0</ele><time>2026-05-03T07:27:46.105Z</time></trkpt><trkpt lat="45.3902533" lon="10.7860283"><ele>82.0</ele><time>2026-05-03T07:27:47.106Z</time></trkpt><trkpt lat="45.3902933" lon="10.7861283"><ele>82.0</ele><time>2026-05-03T07:27:48.105Z</time></trkpt><trkpt lat="45.3903317" lon="10.786245"><ele>81.6</ele><time>2026-05-03T07:27:49.105Z</time></trkpt><trkpt lat="45.3903767" lon="10.786375"><ele>81.19999999999999</ele><time>2026-05-03T07:27:50.106Z</time></trkpt><trkpt lat="45.3904233" lon="10.7865033"><ele>80.8</ele><time>2026-05-03T07:27:51.106Z</time></trkpt><trkpt lat="45.39048" lon="10.7866183"><ele>80.4</ele><time>2026-05-03T07:27:52.106Z</time></trkpt><trkpt lat="45.3905383" lon="10.7867317"><ele>80.0</ele><time>2026-05-03T07:27:53.106Z</time></trkpt><trkpt lat="45.390605" lon="10.7868467"><ele>80.0</ele><time>2026-05-03T07:27:54.106Z</time></trkpt><trkpt lat="45.39067" lon="10.7869667"><ele>80.0</ele><time>2026-05-03T07:27:55.106Z</time></trkpt><trkpt lat="45.390735" lon="10.787095"><ele>80.0</ele><time>2026-05-03T07:27:56.106Z</time></trkpt><trkpt lat="45.3908" lon="10.7872283"><ele>80.0</ele><time>2026-05-03T07:27:57.105Z</time></trkpt><trkpt lat="45.3908617" lon="10.7873667"><ele>80.0</ele><time>2026-05-03T07:27:58.105Z</time></trkpt><trkpt lat="45.39093" lon="10.7875067"><ele>80.0</ele><time>2026-05-03T07:27:59.106Z</time></trkpt><trkpt lat="45.3909967" lon="10.787635"><ele>80.0</ele><time>2026-05-03T07:28:00.106Z</time></trkpt><trkpt lat="45.39106" lon="10.78776"><ele>80.0</ele><time>2026-05-03T07:28:01.106Z</time></trkpt><trkpt lat="45.39112" lon="10.7878833"><ele>80.0</ele><time>2026-05-03T07:28:02.105Z</time></trkpt><trkpt lat="45.39119" lon="10.7880033"><ele>80.0</ele><time>2026-05-03T07:28:03.106Z</time></trkpt><trkpt lat="45.3912667" lon="10.7881133"><ele>81.8</ele><time>2026-05-03T07:28:04.105Z</time></trkpt><trkpt lat="45.3913433" lon="10.7882217"><ele>83.6</ele><time>2026-05-03T07:28:05.106Z</time></trkpt><trkpt lat="45.3914233" lon="10.7883217"><ele>85.4</ele><time>2026-05-03T07:28:06.106Z</time></trkpt><trkpt lat="45.3914933" lon="10.7884183"><ele>87.2</ele><time>2026-05-03T07:28:07.106Z</time></trkpt><trkpt lat="45.391555" lon="10.7885017"><ele>89.0</ele><time>2026-05-03T07:28:08.106Z</time></trkpt><trkpt lat="45.3916133" lon="10.7885633"><ele>89.83333333333334</ele><time>2026-05-03T07:28:09.106Z</time></trkpt><trkpt lat="45.391725" lon="10.7886067"><ele>90.66666666666667</ele><time>2026-05-03T07:28:11.105Z</time></trkpt><trkpt lat="45.3918" lon="10.7885883"><ele>91.5</ele><time>2026-05-03T07:28:12.106Z</time></trkpt><trkpt lat="45.39188" lon="10.7885617"><ele>92.33333333333333</ele><time>2026-05-03T07:28:13.106Z</time></trkpt><trkpt lat="45.3919567" lon="10.788535"><ele>93.16666666666666</ele><time>2026-05-03T07:28:14.106Z</time></trkpt><trkpt lat="45.3920367" lon="10.78851"><ele>94.0</ele><time>2026-05-03T07:28:15.106Z</time></trkpt><trkpt lat="45.3921167" lon="10.78851"><ele>95.2</ele><time>2026-05-03T07:28:16.105Z</time></trkpt><trkpt lat="45.3921967" lon="10.7885183"><ele>96.4</ele><time>2026-05-03T07:28:17.106Z</time></trkpt><trkpt lat="45.39228" lon="10.7885467"><ele>97.6</ele><time>2026-05-03T07:28:18.106Z</time></trkpt><trkpt lat="45.39237" lon="10.7886167"><ele>98.8</ele><time>2026-05-03T07:28:19.106Z</time></trkpt><trkpt lat="45.39246" lon="10.7886817"><ele>100.0</ele><time>2026-05-03T07:28:20.105Z</time></trkpt><trkpt lat="45.3925367" lon="10.7887383"><ele>100.0</ele><time>2026-05-03T07:28:21.106Z</time></trkpt><trkpt lat="45.392615" lon="10.7887867"><ele>100.0</ele><time>2026-05-03T07:28:22.106Z</time></trkpt><trkpt lat="45.3927233" lon="10.78886"><ele>100.0</ele><time>2026-05-03T07:28:24.106Z</time></trkpt><trkpt lat="45.3928167" lon="10.788915"><ele>100.0</ele><time>2026-05-03T07:28:26.106Z</time></trkpt><trkpt lat="45.3928867" lon="10.7889933"><ele>100.0</ele><time>2026-05-03T07:28:28.106Z</time></trkpt><trkpt lat="45.392945" lon="10.7890633"><ele>99.8</ele><time>2026-05-03T07:28:30.106Z</time></trkpt><trkpt lat="45.3930217" lon="10.7891667"><ele>99.6</ele><time>2026-05-03T07:28:32.106Z</time></trkpt><trkpt lat="45.3930983" lon="10.7892467"><ele>99.4</ele><time>2026-05-03T07:28:34.105Z</time></trkpt><trkpt lat="45.3932033" lon="10.7893667"><ele>99.2</ele><time>2026-05-03T07:28:36.106Z</time></trkpt><trkpt lat="45.3932467" lon="10.789435"><ele>99.0</ele><time>2026-05-03T07:28:37.105Z</time></trkpt><trkpt lat="45.3933017" lon="10.789505"><ele>99.42857142857143</ele><time>2026-05-03T07:28:38.105Z</time></trkpt><trkpt lat="45.393345" lon="10.7895783"><ele>99.85714285714285</ele><time>2026-05-03T07:28:39.106Z</time></trkpt><trkpt lat="45.39339" lon="10.7896433"><ele>100.28571428571428</ele><time>2026-05-03T07:28:40.106Z</time></trkpt><trkpt lat="45.3934367" lon="10.789715"><ele>100.71428571428572</ele><time>2026-05-03T07:28:41.106Z</time></trkpt><trkpt lat="45.393495" lon="10.7898"><ele>101.14285714285714</ele><time>2026-05-03T07:28:42.105Z</time></trkpt><trkpt lat="45.393555" lon="10.78987"><ele>101.57142857142857</ele><time>2026-05-03T07:28:43.106Z</time></trkpt><trkpt lat="45.39362" lon="10.7899233"><ele>102.0</ele><time>2026-05-03T07:28:44.106Z</time></trkpt><trkpt lat="45.393685" lon="10.7899633"><ele>102.0</ele><time>2026-05-03T07:28:45.106Z</time></trkpt><trkpt lat="45.3937567" lon="10.7900067"><ele>102.0</ele><time>2026-05-03T07:28:46.105Z</time></trkpt><trkpt lat="45.3938333" lon="10.79006"><ele>102.0</ele><time>2026-05-03T07:28:47.106Z</time></trkpt><trkpt lat="45.3939067" lon="10.7901067"><ele>102.0</ele><time>2026-05-03T07:28:48.106Z</time></trkpt><trkpt lat="45.393995" lon="10.7901683"><ele>102.0</ele><time>2026-05-03T07:28:49.106Z</time></trkpt><trkpt lat="45.39408" lon="10.7902217"><ele>102.0</ele><time>2026-05-03T07:28:50.106Z</time></trkpt><trkpt lat="45.3941633" lon="10.7902767"><ele>102.5</ele><time>2026-05-03T07:28:51.106Z</time></trkpt><trkpt lat="45.3942317" lon="10.79032"><ele>103.0</ele><time>2026-05-03T07:28:52.106Z</time></trkpt><trkpt lat="45.3942967" lon="10.7903633"><ele>103.5</ele><time>2026-05-03T07:28:53.106Z</time></trkpt><trkpt lat="45.3943583" lon="10.7904167"><ele>104.0</ele><time>2026-05-03T07:28:54.106Z</time></trkpt><trkpt lat="45.3944267" lon="10.7904783"><ele>104.5</ele><time>2026-05-03T07:28:55.106Z</time></trkpt><trkpt lat="45.394505" lon="10.7905583"><ele>105.0</ele><time>2026-05-03T07:28:56.106Z</time></trkpt><trkpt lat="45.3945883" lon="10.7906383"><ele>105.0</ele><time>2026-05-03T07:28:57.106Z</time></trkpt><trkpt lat="45.39468" lon="10.7907217"><ele>105.0</ele><time>2026-05-03T07:28:58.106Z</time></trkpt><trkpt lat="45.3947717" lon="10.7907917"><ele>105.0</ele><time>2026-05-03T07:28:59.106Z</time></trkpt><trkpt lat="45.39487" lon="10.790885"><ele>105.0</ele><time>2026-05-03T07:29:00.106Z</time></trkpt><trkpt lat="45.3949517" lon="10.7909717"><ele>105.0</ele><time>2026-05-03T07:29:01.106Z</time></trkpt><trkpt lat="45.39503" lon="10.7910533"><ele>105.0</ele><time>2026-05-03T07:29:02.106Z</time></trkpt><trkpt lat="45.3950983" lon="10.79113"><ele>105.0</ele><time>2026-05-03T07:29:03.106Z</time></trkpt><trkpt lat="45.3951667" lon="10.791205"><ele>105.0</ele><time>2026-05-03T07:29:04.106Z</time></trkpt><trkpt lat="45.3952333" lon="10.7912517"><ele>105.0</ele><time>2026-05-03T07:29:05.105Z</time></trkpt><trkpt lat="45.3953083" lon="10.7912783"><ele>105.0</ele><time>2026-05-03T07:29:06.106Z</time></trkpt><trkpt lat="45.3953883" lon="10.7912783"><ele>105.0</ele><time>2026-05-03T07:29:07.106Z</time></trkpt><trkpt lat="45.3954683" lon="10.79127"><ele>104.8</ele><time>2026-05-03T07:29:08.106Z</time></trkpt><trkpt lat="45.3955517" lon="10.7912767"><ele>104.6</ele><time>2026-05-03T07:29:09.106Z</time></trkpt><trkpt lat="45.3956483" lon="10.7913167"><ele>104.4</ele><time>2026-05-03T07:29:10.105Z</time></trkpt><trkpt lat="45.3957433" lon="10.7913783"><ele>104.2</ele><time>2026-05-03T07:29:11.106Z</time></trkpt><trkpt lat="45.395835" lon="10.79145"><ele>104.0</ele><time>2026-05-03T07:29:12.106Z</time></trkpt><trkpt lat="45.3959217" lon="10.7915267"><ele>103.99999999999999</ele><time>2026-05-03T07:29:13.106Z</time></trkpt><trkpt lat="45.3959933" lon="10.7915917"><ele>104.0</ele><time>2026-05-03T07:29:14.106Z</time></trkpt><trkpt lat="45.3960717" lon="10.791655"><ele>104.0</ele><time>2026-05-03T07:29:15.106Z</time></trkpt><trkpt lat="45.3961483" lon="10.7917167"><ele>104.0</ele><time>2026-05-03T07:29:16.106Z</time></trkpt><trkpt lat="45.3962183" lon="10.791795"><ele>103.99999999999999</ele><time>2026-05-03T07:29:17.106Z</time></trkpt><trkpt lat="45.39629" lon="10.7918733"><ele>104.0</ele><time>2026-05-03T07:29:18.106Z</time></trkpt><trkpt lat="45.3963583" lon="10.7919333"><ele>103.66666666666666</ele><time>2026-05-03T07:29:19.106Z</time></trkpt><trkpt lat="45.39642" lon="10.791995"><ele>103.33333333333333</ele><time>2026-05-03T07:29:20.106Z</time></trkpt><trkpt lat="45.396475" lon="10.7920417"><ele>103.0</ele><time>2026-05-03T07:29:21.105Z</time></trkpt><trkpt lat="45.3965533" lon="10.7921067"><ele>102.66666666666666</ele><time>2026-05-03T07:29:23.105Z</time></trkpt><trkpt lat="45.396645" lon="10.79211"><ele>102.33333333333333</ele><time>2026-05-03T07:29:46.106Z</time></trkpt><trkpt lat="45.3967467" lon="10.792015"><ele>102.0</ele><time>2026-05-03T07:29:48.106Z</time></trkpt><trkpt lat="45.3967983" lon="10.7919517"><ele>102.0</ele><time>2026-05-03T07:29:49.106Z</time></trkpt><trkpt lat="45.39684" lon="10.79187"><ele>102.0</ele><time>2026-05-03T07:29:50.105Z</time></trkpt><trkpt lat="45.3968783" lon="10.7917817"><ele>102.0</ele><time>2026-05-03T07:29:51.106Z</time></trkpt><trkpt lat="45.396915" lon="10.7916983"><ele>102.0</ele><time>2026-05-03T07:29:52.105Z</time></trkpt><trkpt lat="45.3969367" lon="10.79161"><ele>102.0</ele><time>2026-05-03T07:29:53.106Z</time></trkpt><trkpt lat="45.396945" lon="10.7915167"><ele>102.0</ele><time>2026-05-03T07:29:54.105Z</time></trkpt><trkpt lat="45.3969533" lon="10.791425"><ele>102.0</ele><time>2026-05-03T07:29:55.106Z</time></trkpt><trkpt lat="45.396955" lon="10.7912517"><ele>102.16666666666667</ele><time>2026-05-03T07:29:57.106Z</time></trkpt><trkpt lat="45.3969433" lon="10.7911433"><ele>102.33333333333334</ele><time>2026-05-03T07:29:58.106Z</time></trkpt><trkpt lat="45.3969267" lon="10.7910283"><ele>102.5</ele><time>2026-05-03T07:29:59.105Z</time></trkpt><trkpt lat="45.3968983" lon="10.7909333"><ele>102.66666666666667</ele><time>2026-05-03T07:30:00.106Z</time></trkpt><trkpt lat="45.3968883" lon="10.7908"><ele>102.83333333333334</ele><time>2026-05-03T07:30:01.106Z</time></trkpt><trkpt lat="45.3968883" lon="10.790655"><ele>103.0</ele><time>2026-05-03T07:30:02.106Z</time></trkpt><trkpt lat="45.3969133" lon="10.79048"><ele>103.0</ele><time>2026-05-03T07:30:03.106Z</time></trkpt><trkpt lat="45.3969383" lon="10.7903083"><ele>103.0</ele><time>2026-05-03T07:30:04.105Z</time></trkpt><trkpt lat="45.3969517" lon="10.790165"><ele>103.0</ele><time>2026-05-03T07:30:05.106Z</time></trkpt><trkpt lat="45.3969617" lon="10.790035"><ele>103.0</ele><time>2026-05-03T07:30:06.106Z</time></trkpt><trkpt lat="45.396975" lon="10.789905"><ele>103.0</ele><time>2026-05-03T07:30:07.106Z</time></trkpt><trkpt lat="45.3969717" lon="10.7897833"><ele>103.0</ele><time>2026-05-03T07:30:08.106Z</time></trkpt><trkpt lat="45.39698" lon="10.78965"><ele>103.0</ele><time>2026-05-03T07:30:09.106Z</time></trkpt><trkpt lat="45.3970033" lon="10.789515"><ele>103.0</ele><time>2026-05-03T07:30:10.106Z</time></trkpt><trkpt lat="45.3970483" lon="10.7893867"><ele>103.0</ele><time>2026-05-03T07:30:11.106Z</time></trkpt><trkpt lat="45.3970983" lon="10.789265"><ele>103.0</ele><time>2026-05-03T07:30:12.106Z</time></trkpt><trkpt lat="45.397145" lon="10.7891633"><ele>103.33333333333334</ele><time>2026-05-03T07:30:13.105Z</time></trkpt><trkpt lat="45.3971917" lon="10.78907"><ele>103.66666666666667</ele><time>2026-05-03T07:30:14.106Z</time></trkpt><trkpt lat="45.3972383" lon="10.7889667"><ele>104.0</ele><time>2026-05-03T07:30:15.106Z</time></trkpt><trkpt lat="45.3972817" lon="10.7888567"><ele>104.33333333333334</ele><time>2026-05-03T07:30:16.106Z</time></trkpt><trkpt lat="45.3973217" lon="10.7887433"><ele>104.66666666666667</ele><time>2026-05-03T07:30:17.105Z</time></trkpt><trkpt lat="45.3973533" lon="10.7886367"><ele>105.0</ele><time>2026-05-03T07:30:18.105Z</time></trkpt><trkpt lat="45.3973883" lon="10.7885167"><ele>106.0</ele><time>2026-05-03T07:30:19.105Z</time></trkpt><trkpt lat="45.397425" lon="10.7883933"><ele>107.0</ele><time>2026-05-03T07:30:20.106Z</time></trkpt><trkpt lat="45.3974683" lon="10.7882733"><ele>108.0</ele><time>2026-05-03T07:30:21.105Z</time></trkpt><trkpt lat="45.3975167" lon="10.7881417"><ele>109.0</ele><time>2026-05-03T07:30:22.105Z</time></trkpt><trkpt lat="45.3975932" lon="10.7879212"><ele>109.00000000000001</ele><time>2026-05-03T07:30:24.106Z</time></trkpt><trkpt lat="45.3976298" lon="10.7878232"><ele>109.0</ele><time>2026-05-03T07:30:25.106Z</time></trkpt><trkpt lat="45.3976616" lon="10.7877451"><ele>109.0</ele><time>2026-05-03T07:30:26.106Z</time></trkpt><trkpt lat="45.3976957" lon="10.7876038"><ele>109.0</ele><time>2026-05-03T07:30:28.106Z</time></trkpt><trkpt lat="45.3976573" lon="10.7874539"><ele>109.00000000000001</ele><time>2026-05-03T07:30:30.105Z</time></trkpt><trkpt lat="45.3975984" lon="10.7873654"><ele>109.0</ele><time>2026-05-03T07:30:31.106Z</time></trkpt><trkpt lat="45.3975212" lon="10.787268"><ele>109.4</ele><time>2026-05-03T07:30:32.106Z</time></trkpt><trkpt lat="45.3974463" lon="10.7871624"><ele>109.80000000000001</ele><time>2026-05-03T07:30:33.105Z</time></trkpt><trkpt lat="45.3973782" lon="10.7870561"><ele>110.19999999999999</ele><time>2026-05-03T07:30:34.105Z</time></trkpt><trkpt lat="45.3973164" lon="10.7869493"><ele>110.6</ele><time>2026-05-03T07:30:35.106Z</time></trkpt><trkpt lat="45.3972671" lon="10.7868388"><ele>111.0</ele><time>2026-05-03T07:30:36.106Z</time></trkpt><trkpt lat="45.3972321" lon="10.786716"><ele>112.5</ele><time>2026-05-03T07:30:37.106Z</time></trkpt><trkpt lat="45.3972117" lon="10.7865684"><ele>114.0</ele><time>2026-05-03T07:30:38.106Z</time></trkpt><trkpt lat="45.3972019" lon="10.7864077"><ele>115.5</ele><time>2026-05-03T07:30:39.106Z</time></trkpt><trkpt lat="45.3971952" lon="10.7862431"><ele>117.0</ele><time>2026-05-03T07:30:40.106Z</time></trkpt><trkpt lat="45.3971823" lon="10.78607"><ele>116.75</ele><time>2026-05-03T07:30:41.106Z</time></trkpt><trkpt lat="45.3971681" lon="10.7858925"><ele>116.5</ele><time>2026-05-03T07:30:42.105Z</time></trkpt><trkpt lat="45.397155" lon="10.7857181"><ele>116.25</ele><time>2026-05-03T07:30:43.106Z</time></trkpt><trkpt lat="45.397143" lon="10.7855544"><ele>116.0</ele><time>2026-05-03T07:30:44.105Z</time></trkpt><trkpt lat="45.3971289" lon="10.7853997"><ele>116.0</ele><time>2026-05-03T07:30:45.106Z</time></trkpt><trkpt lat="45.3971162" lon="10.7852524"><ele>116.0</ele><time>2026-05-03T07:30:46.106Z</time></trkpt><trkpt lat="45.3971062" lon="10.7851084"><ele>116.0</ele><time>2026-05-03T07:30:47.106Z</time></trkpt><trkpt lat="45.397098" lon="10.7849642"><ele>116.0</ele><time>2026-05-03T07:30:48.106Z</time></trkpt><trkpt lat="45.3970829" lon="10.7848057"><ele>116.0</ele><time>2026-05-03T07:30:49.105Z</time></trkpt><trkpt lat="45.3970627" lon="10.784648"><ele>117.19999999999999</ele><time>2026-05-03T07:30:50.106Z</time></trkpt><trkpt lat="45.3970446" lon="10.7845092"><ele>118.39999999999999</ele><time>2026-05-03T07:30:51.106Z</time></trkpt><trkpt lat="45.3970259" lon="10.7843792"><ele>119.6</ele><time>2026-05-03T07:30:52.105Z</time></trkpt><trkpt lat="45.3970047" lon="10.7842541"><ele>120.8</ele><time>2026-05-03T07:30:53.105Z</time></trkpt><trkpt lat="45.3969742" lon="10.7841406"><ele>122.0</ele><time>2026-05-03T07:30:54.106Z</time></trkpt><trkpt lat="45.3969356" lon="10.7840302"><ele>122.8</ele><time>2026-05-03T07:30:55.106Z</time></trkpt><trkpt lat="45.3968729" lon="10.7839158"><ele>123.6</ele><time>2026-05-03T07:30:56.106Z</time></trkpt><trkpt lat="45.39679" lon="10.78379"><ele>124.39999999999999</ele><time>2026-05-03T07:30:57.106Z</time></trkpt><trkpt lat="45.39671" lon="10.78368"><ele>125.19999999999999</ele><time>2026-05-03T07:30:58.105Z</time></trkpt><trkpt lat="45.3966567" lon="10.7835867"><ele>126.0</ele><time>2026-05-03T07:30:59.105Z</time></trkpt><trkpt lat="45.3966167" lon="10.78349"><ele>126.19999999999999</ele><time>2026-05-03T07:31:00.106Z</time></trkpt><trkpt lat="45.3965967" lon="10.7834"><ele>126.39999999999999</ele><time>2026-05-03T07:31:01.106Z</time></trkpt><trkpt lat="45.3966117" lon="10.7833033"><ele>126.6</ele><time>2026-05-03T07:31:02.106Z</time></trkpt><trkpt lat="45.3966567" lon="10.783195"><ele>126.8</ele><time>2026-05-03T07:31:03.106Z</time></trkpt><trkpt lat="45.3967233" lon="10.783075"><ele>127.0</ele><time>2026-05-03T07:31:04.106Z</time></trkpt><trkpt lat="45.3968" lon="10.7829417"><ele>127.00000000000001</ele><time>2026-05-03T07:31:05.106Z</time></trkpt><trkpt lat="45.3968617" lon="10.782825"><ele>127.0</ele><time>2026-05-03T07:31:06.106Z</time></trkpt><trkpt lat="45.3969133" lon="10.782725"><ele>127.0</ele><time>2026-05-03T07:31:07.105Z</time></trkpt><trkpt lat="45.3969633" lon="10.7826283"><ele>127.0</ele><time>2026-05-03T07:31:08.106Z</time></trkpt><trkpt lat="45.39701" lon="10.7825317"><ele>127.00000000000001</ele><time>2026-05-03T07:31:09.106Z</time></trkpt><trkpt lat="45.39705" lon="10.7824317"><ele>127.0</ele><time>2026-05-03T07:31:10.106Z</time></trkpt><trkpt lat="45.3970717" lon="10.7823417"><ele>127.0</ele><time>2026-05-03T07:31:11.105Z</time></trkpt><trkpt lat="45.397075" lon="10.78225"><ele>127.0</ele><time>2026-05-03T07:31:12.106Z</time></trkpt><trkpt lat="45.3970667" lon="10.78215"><ele>127.0</ele><time>2026-05-03T07:31:13.106Z</time></trkpt><trkpt lat="45.3970467" lon="10.7820417"><ele>127.0</ele><time>2026-05-03T07:31:14.106Z</time></trkpt><trkpt lat="45.397015" lon="10.7819383"><ele>127.0</ele><time>2026-05-03T07:31:15.106Z</time></trkpt><trkpt lat="45.3969967" lon="10.7818367"><ele>127.0</ele><time>2026-05-03T07:31:16.106Z</time></trkpt><trkpt lat="45.3969933" lon="10.781745"><ele>127.0</ele><time>2026-05-03T07:31:17.105Z</time></trkpt><trkpt lat="45.3969717" lon="10.7815917"><ele>127.00000000000001</ele><time>2026-05-03T07:31:19.106Z</time></trkpt><trkpt lat="45.39696" lon="10.7814133"><ele>127.0</ele><time>2026-05-03T07:31:21.106Z</time></trkpt><trkpt lat="45.3969617" lon="10.7813083"><ele>127.0</ele><time>2026-05-03T07:31:22.106Z</time></trkpt><trkpt lat="45.39697" lon="10.7811983"><ele>127.0</ele><time>2026-05-03T07:31:23.106Z</time></trkpt><trkpt lat="45.3969783" lon="10.7810867"><ele>127.00000000000001</ele><time>2026-05-03T07:31:24.105Z</time></trkpt><trkpt lat="45.3969867" lon="10.78097"><ele>127.0</ele><time>2026-05-03T07:31:25.106Z</time></trkpt><trkpt lat="45.3969817" lon="10.7808567"><ele>126.33333333333334</ele><time>2026-05-03T07:31:26.106Z</time></trkpt><trkpt lat="45.39697" lon="10.780745"><ele>125.66666666666667</ele><time>2026-05-03T07:31:27.106Z</time></trkpt><trkpt lat="45.39695" lon="10.78063"><ele>125.0</ele><time>2026-05-03T07:31:28.106Z</time></trkpt><trkpt lat="45.3969367" lon="10.78052"><ele>124.33333333333334</ele><time>2026-05-03T07:31:29.105Z</time></trkpt><trkpt lat="45.39692" lon="10.7804117"><ele>123.66666666666667</ele><time>2026-05-03T07:31:30.106Z</time></trkpt><trkpt lat="45.3969017" lon="10.780315"><ele>123.0</ele><time>2026-05-03T07:31:31.106Z</time></trkpt><trkpt lat="45.396875" lon="10.78022"><ele>122.60000000000001</ele><time>2026-05-03T07:31:32.106Z</time></trkpt><trkpt lat="45.396835" lon="10.7801417"><ele>122.20000000000002</ele><time>2026-05-03T07:31:33.106Z</time></trkpt><trkpt lat="45.3967767" lon="10.780055"><ele>121.8</ele><time>2026-05-03T07:31:34.106Z</time></trkpt><trkpt lat="45.39672" lon="10.7799783"><ele>121.4</ele><time>2026-05-03T07:31:35.107Z</time></trkpt><trkpt lat="45.3966917" lon="10.779825"><ele>121.0</ele><time>2026-05-03T07:31:37.106Z</time></trkpt><trkpt lat="45.396785" lon="10.7796633"><ele>121.0</ele><time>2026-05-03T07:31:39.107Z</time></trkpt><trkpt lat="45.3968583" lon="10.7795483"><ele>121.0</ele><time>2026-05-03T07:31:40.107Z</time></trkpt><trkpt lat="45.3969233" lon="10.779425"><ele>121.0</ele><time>2026-05-03T07:31:41.107Z</time></trkpt><trkpt lat="45.39699" lon="10.7792933"><ele>121.0</ele><time>2026-05-03T07:31:42.107Z</time></trkpt><trkpt lat="45.3970567" lon="10.7791483"><ele>121.0</ele><time>2026-05-03T07:31:43.107Z</time></trkpt><trkpt lat="45.3971267" lon="10.7790083"><ele>121.0</ele><time>2026-05-03T07:31:44.107Z</time></trkpt><trkpt lat="45.3971983" lon="10.77888"><ele>121.0</ele><time>2026-05-03T07:31:45.106Z</time></trkpt><trkpt lat="45.3972533" lon="10.7787617"><ele>121.0</ele><time>2026-05-03T07:31:46.107Z</time></trkpt><trkpt lat="45.3973067" lon="10.77866"><ele>121.0</ele><time>2026-05-03T07:31:47.107Z</time></trkpt><trkpt lat="45.3973483" lon="10.7785783"><ele>120.16666666666667</ele><time>2026-05-03T07:31:48.107Z</time></trkpt><trkpt lat="45.3974067" lon="10.7784617"><ele>119.33333333333334</ele><time>2026-05-03T07:31:50.106Z</time></trkpt><trkpt lat="45.3974533" lon="10.7783833"><ele>118.5</ele><time>2026-05-03T07:31:52.107Z</time></trkpt><trkpt lat="45.3975033" lon="10.7782133"><ele>117.66666666666666</ele><time>2026-05-03T07:32:20.107Z</time></trkpt><trkpt lat="45.3975017" lon="10.7781183"><ele>116.83333333333333</ele><time>2026-05-03T07:32:21.107Z</time></trkpt><trkpt lat="45.3974967" lon="10.778015"><ele>116.0</ele><time>2026-05-03T07:32:22.107Z</time></trkpt><trkpt lat="45.39749" lon="10.7779067"><ele>116.0</ele><time>2026-05-03T07:32:23.107Z</time></trkpt><trkpt lat="45.39748" lon="10.7777767"><ele>116.0</ele><time>2026-05-03T07:32:24.107Z</time></trkpt><trkpt lat="45.397475" lon="10.7776333"><ele>116.0</ele><time>2026-05-03T07:32:25.107Z</time></trkpt><trkpt lat="45.3974683" lon="10.7774883"><ele>116.0</ele><time>2026-05-03T07:32:26.107Z</time></trkpt><trkpt lat="45.3974633" lon="10.7773417"><ele>116.0</ele><time>2026-05-03T07:32:27.106Z</time></trkpt><trkpt lat="45.3974583" lon="10.7772033"><ele>116.19999999999999</ele><time>2026-05-03T07:32:28.107Z</time></trkpt><trkpt lat="45.3974533" lon="10.7770617"><ele>116.39999999999999</ele><time>2026-05-03T07:32:29.107Z</time></trkpt><trkpt lat="45.39745" lon="10.7769283"><ele>116.6</ele><time>2026-05-03T07:32:30.107Z</time></trkpt><trkpt lat="45.3974467" lon="10.776805"><ele>116.8</ele><time>2026-05-03T07:32:31.107Z</time></trkpt><trkpt lat="45.39744" lon="10.7767067"><ele>117.0</ele><time>2026-05-03T07:32:32.106Z</time></trkpt><trkpt lat="45.397435" lon="10.7765483"><ele>117.16666666666667</ele><time>2026-05-03T07:32:34.107Z</time></trkpt><trkpt lat="45.3974283" lon="10.7764367"><ele>117.33333333333334</ele><time>2026-05-03T07:32:36.107Z</time></trkpt><trkpt lat="45.39735" lon="10.7763567"><ele>117.5</ele><time>2026-05-03T07:32:38.106Z</time></trkpt><trkpt lat="45.3972867" lon="10.776325"><ele>117.66666666666667</ele><time>2026-05-03T07:32:39.107Z</time></trkpt><trkpt lat="45.3972017" lon="10.7762983"><ele>117.83333333333334</ele><time>2026-05-03T07:32:40.107Z</time></trkpt><trkpt lat="45.3971067" lon="10.7762783"><ele>118.0</ele><time>2026-05-03T07:32:41.106Z</time></trkpt><trkpt lat="45.3970217" lon="10.7762633"><ele>117.0</ele><time>2026-05-03T07:32:42.107Z</time></trkpt><trkpt lat="45.3969417" lon="10.77625"><ele>116.00000000000001</ele><time>2026-05-03T07:32:43.107Z</time></trkpt><trkpt lat="45.3968217" lon="10.776225"><ele>115.00000000000001</ele><time>2026-05-03T07:32:45.107Z</time></trkpt><trkpt lat="45.39675" lon="10.7761517"><ele>114.0</ele><time>2026-05-03T07:32:47.106Z</time></trkpt><trkpt lat="45.3967417" lon="10.7759733"><ele>113.0</ele><time>2026-05-03T07:32:49.107Z</time></trkpt><trkpt lat="45.3967567" lon="10.7758117"><ele>113.0</ele><time>2026-05-03T07:32:50.107Z</time></trkpt><trkpt lat="45.396775" lon="10.7756233"><ele>113.00000000000001</ele><time>2026-05-03T07:32:51.107Z</time></trkpt><trkpt lat="45.3968033" lon="10.7754467"><ele>113.00000000000001</ele><time>2026-05-03T07:32:52.107Z</time></trkpt><trkpt lat="45.3968133" lon="10.7753167"><ele>113.0</ele><time>2026-05-03T07:32:53.106Z</time></trkpt><trkpt lat="45.39683" lon="10.7751883"><ele>113.0</ele><time>2026-05-03T07:32:54.107Z</time></trkpt><trkpt lat="45.3968467" lon="10.775065"><ele>112.66666666666666</ele><time>2026-05-03T07:32:55.107Z</time></trkpt><trkpt lat="45.3968633" lon="10.7749483"><ele>112.33333333333333</ele><time>2026-05-03T07:32:56.107Z</time></trkpt><trkpt lat="45.3968817" lon="10.7748333"><ele>112.0</ele><time>2026-05-03T07:32:57.106Z</time></trkpt><trkpt lat="45.3969" lon="10.7747233"><ele>111.66666666666666</ele><time>2026-05-03T07:32:58.106Z</time></trkpt><trkpt lat="45.396925" lon="10.7746233"><ele>111.33333333333333</ele><time>2026-05-03T07:32:59.107Z</time></trkpt><trkpt lat="45.39695" lon="10.7745217"><ele>111.0</ele><time>2026-05-03T07:33:00.107Z</time></trkpt><trkpt lat="45.39698" lon="10.77443"><ele>111.33333333333333</ele><time>2026-05-03T07:33:01.107Z</time></trkpt><trkpt lat="45.3970133" lon="10.7743383"><ele>111.66666666666666</ele><time>2026-05-03T07:33:02.107Z</time></trkpt><trkpt lat="45.3970517" lon="10.77423"><ele>112.0</ele><time>2026-05-03T07:33:03.107Z</time></trkpt><trkpt lat="45.3970917" lon="10.7741183"><ele>112.33333333333333</ele><time>2026-05-03T07:33:04.107Z</time></trkpt><trkpt lat="45.397135" lon="10.7740067"><ele>112.66666666666666</ele><time>2026-05-03T07:33:05.107Z</time></trkpt><trkpt lat="45.39718" lon="10.7739017"><ele>113.0</ele><time>2026-05-03T07:33:06.107Z</time></trkpt><trkpt lat="45.3972183" lon="10.7737983"><ele>113.83333333333333</ele><time>2026-05-03T07:33:07.107Z</time></trkpt><trkpt lat="45.3972367" lon="10.773695"><ele>114.66666666666666</ele><time>2026-05-03T07:33:08.106Z</time></trkpt><trkpt lat="45.397245" lon="10.7735883"><ele>115.5</ele><time>2026-05-03T07:33:09.106Z</time></trkpt><trkpt lat="45.39725" lon="10.7734633"><ele>116.33333333333334</ele><time>2026-05-03T07:33:10.106Z</time></trkpt><trkpt lat="45.3972517" lon="10.7733533"><ele>117.16666666666667</ele><time>2026-05-03T07:33:11.107Z</time></trkpt><trkpt lat="45.3972417" lon="10.7732467"><ele>118.0</ele><time>2026-05-03T07:33:12.107Z</time></trkpt><trkpt lat="45.3972333" lon="10.77315"><ele>118.00000000000001</ele><time>2026-05-03T07:33:13.107Z</time></trkpt><trkpt lat="45.3972417" lon="10.7730567"><ele>118.0</ele><time>2026-05-03T07:33:14.107Z</time></trkpt><trkpt lat="45.3972617" lon="10.77297"><ele>118.0</ele><time>2026-05-03T07:33:15.106Z</time></trkpt><trkpt lat="45.397285" lon="10.7728717"><ele>118.0</ele><time>2026-05-03T07:33:16.107Z</time></trkpt><trkpt lat="45.39732" lon="10.7727633"><ele>118.00000000000001</ele><time>2026-05-03T07:33:17.106Z</time></trkpt><trkpt lat="45.3973617" lon="10.772645"><ele>118.0</ele><time>2026-05-03T07:33:18.106Z</time></trkpt><trkpt lat="45.3974017" lon="10.77253"><ele>117.00000000000001</ele><time>2026-05-03T07:33:19.107Z</time></trkpt><trkpt lat="45.3974367" lon="10.7724233"><ele>116.0</ele><time>2026-05-03T07:33:20.107Z</time></trkpt><trkpt lat="45.3974717" lon="10.7723083"><ele>115.0</ele><time>2026-05-03T07:33:21.106Z</time></trkpt><trkpt lat="45.3975033" lon="10.7722133"><ele>114.0</ele><time>2026-05-03T07:33:22.107Z</time></trkpt><trkpt lat="45.397555" lon="10.7720567"><ele>113.00000000000001</ele><time>2026-05-03T07:33:24.106Z</time></trkpt><trkpt lat="45.3975883" lon="10.771955"><ele>112.0</ele><time>2026-05-03T07:33:26.107Z</time></trkpt><trkpt lat="45.3976267" lon="10.7718567"><ele>112.0</ele><time>2026-05-03T07:33:28.107Z</time></trkpt><trkpt lat="45.3976567" lon="10.7717667"><ele>111.99999999999999</ele><time>2026-05-03T07:33:29.107Z</time></trkpt><trkpt lat="45.3977017" lon="10.7716617"><ele>111.99999999999999</ele><time>2026-05-03T07:33:30.107Z</time></trkpt><trkpt lat="45.3977517" lon="10.77155"><ele>112.0</ele><time>2026-05-03T07:33:31.107Z</time></trkpt><trkpt lat="45.39781" lon="10.7714317"><ele>112.0</ele><time>2026-05-03T07:33:32.106Z</time></trkpt><trkpt lat="45.39787" lon="10.7713117"><ele>112.0</ele><time>2026-05-03T07:33:33.107Z</time></trkpt><trkpt lat="45.397935" lon="10.7711933"><ele>111.99999999999999</ele><time>2026-05-03T07:33:34.106Z</time></trkpt><trkpt lat="45.3979917" lon="10.7710883"><ele>111.99999999999999</ele><time>2026-05-03T07:33:35.107Z</time></trkpt><trkpt lat="45.398055" lon="10.7709883"><ele>112.0</ele><time>2026-05-03T07:33:36.106Z</time></trkpt><trkpt lat="45.39812" lon="10.7709033"><ele>112.0</ele><time>2026-05-03T07:33:37.107Z</time></trkpt><trkpt lat="45.3981717" lon="10.7708033"><ele>113.39999999999999</ele><time>2026-05-03T07:33:38.107Z</time></trkpt><trkpt lat="45.39822" lon="10.7706933"><ele>114.79999999999998</ele><time>2026-05-03T07:33:39.106Z</time></trkpt><trkpt lat="45.3982533" lon="10.7705733"><ele>116.2</ele><time>2026-05-03T07:33:40.107Z</time></trkpt><trkpt lat="45.3982633" lon="10.7704283"><ele>117.6</ele><time>2026-05-03T07:33:41.107Z</time></trkpt><trkpt lat="45.3982767" lon="10.7702933"><ele>119.0</ele><time>2026-05-03T07:33:42.107Z</time></trkpt><trkpt lat="45.3982817" lon="10.7701783"><ele>119.0</ele><time>2026-05-03T07:33:43.107Z</time></trkpt><trkpt lat="45.398285" lon="10.7700633"><ele>119.0</ele><time>2026-05-03T07:33:44.107Z</time></trkpt><trkpt lat="45.3982883" lon="10.7699467"><ele>119.0</ele><time>2026-05-03T07:33:45.107Z</time></trkpt><trkpt lat="45.39829" lon="10.7698417"><ele>119.0</ele><time>2026-05-03T07:33:46.107Z</time></trkpt><trkpt lat="45.3982833" lon="10.76973"><ele>119.0</ele><time>2026-05-03T07:33:47.107Z</time></trkpt><trkpt lat="45.3982833" lon="10.7695167"><ele>119.0</ele><time>2026-05-03T07:33:49.107Z</time></trkpt><trkpt lat="45.3983017" lon="10.76941"><ele>119.0</ele><time>2026-05-03T07:33:50.106Z</time></trkpt><trkpt lat="45.3983167" lon="10.769305"><ele>119.0</ele><time>2026-05-03T07:33:51.107Z</time></trkpt><trkpt lat="45.3983183" lon="10.7692117"><ele>119.0</ele><time>2026-05-03T07:33:52.107Z</time></trkpt><trkpt lat="45.3983033" lon="10.7691033"><ele>119.0</ele><time>2026-05-03T07:33:54.107Z</time></trkpt><trkpt lat="45.3982917" lon="10.769005"><ele>119.0</ele><time>2026-05-03T07:33:57.107Z</time></trkpt><trkpt lat="45.3982717" lon="10.7689083"><ele>119.0</ele><time>2026-05-03T07:33:59.107Z</time></trkpt><trkpt lat="45.398245" lon="10.7688167"><ele>117.66666666666666</ele><time>2026-05-03T07:34:01.107Z</time></trkpt><trkpt lat="45.398215" lon="10.768735"><ele>116.33333333333333</ele><time>2026-05-03T07:34:03.107Z</time></trkpt><trkpt lat="45.3982" lon="10.768605"><ele>115.0</ele><time>2026-05-03T07:34:06.107Z</time></trkpt><trkpt lat="45.398225" lon="10.76852"><ele>113.66666666666666</ele><time>2026-05-03T07:34:08.107Z</time></trkpt><trkpt lat="45.3982767" lon="10.7684417"><ele>112.33333333333333</ele><time>2026-05-03T07:34:10.107Z</time></trkpt><trkpt lat="45.398345" lon="10.76836"><ele>111.0</ele><time>2026-05-03T07:34:12.107Z</time></trkpt><trkpt lat="45.398425" lon="10.76826"><ele>110.0</ele><time>2026-05-03T07:34:14.107Z</time></trkpt><trkpt lat="45.3984667" lon="10.7681867"><ele>109.0</ele><time>2026-05-03T07:34:15.107Z</time></trkpt><trkpt lat="45.398505" lon="10.7681133"><ele>108.0</ele><time>2026-05-03T07:34:16.106Z</time></trkpt><trkpt lat="45.39855" lon="10.768035"><ele>107.0</ele><time>2026-05-03T07:34:17.106Z</time></trkpt><trkpt lat="45.3985933" lon="10.7679567"><ele>106.0</ele><time>2026-05-03T07:34:18.107Z</time></trkpt><trkpt lat="45.39864" lon="10.7678867"><ele>105.0</ele><time>2026-05-03T07:34:19.107Z</time></trkpt><trkpt lat="45.3986883" lon="10.7678133"><ele>104.0</ele><time>2026-05-03T07:34:20.107Z</time></trkpt><trkpt lat="45.39875" lon="10.7677383"><ele>104.0</ele><time>2026-05-03T07:34:21.107Z</time></trkpt><trkpt lat="45.3988133" lon="10.76768"><ele>104.0</ele><time>2026-05-03T07:34:22.106Z</time></trkpt><trkpt lat="45.3988833" lon="10.7676283"><ele>104.0</ele><time>2026-05-03T07:34:23.107Z</time></trkpt><trkpt lat="45.3989517" lon="10.7675717"><ele>104.0</ele><time>2026-05-03T07:34:25.107Z</time></trkpt><trkpt lat="45.398925" lon="10.7674633"><ele>104.0</ele><time>2026-05-03T07:34:30.105Z</time></trkpt><trkpt lat="45.398825" lon="10.7673217"><ele>103.66666666666666</ele><time>2026-05-03T07:34:32.105Z</time></trkpt><trkpt lat="45.398775" lon="10.767235"><ele>103.33333333333333</ele><time>2026-05-03T07:34:33.104Z</time></trkpt><trkpt lat="45.3987233" lon="10.7671467"><ele>103.0</ele><time>2026-05-03T07:34:34.105Z</time></trkpt><trkpt lat="45.3986733" lon="10.767055"><ele>102.66666666666666</ele><time>2026-05-03T07:34:35.105Z</time></trkpt><trkpt lat="45.3986239" lon="10.7669631"><ele>102.33333333333333</ele><time>2026-05-03T07:34:36.105Z</time></trkpt><trkpt lat="45.3985752" lon="10.7668692"><ele>102.0</ele><time>2026-05-03T07:34:37.105Z</time></trkpt><trkpt lat="45.3985266" lon="10.7667717"><ele>102.0</ele><time>2026-05-03T07:34:38.105Z</time></trkpt><trkpt lat="45.3984894" lon="10.7666682"><ele>102.0</ele><time>2026-05-03T07:34:39.105Z</time></trkpt><trkpt lat="45.3984499" lon="10.7665619"><ele>102.0</ele><time>2026-05-03T07:34:40.105Z</time></trkpt><trkpt lat="45.3984189" lon="10.766465"><ele>102.0</ele><time>2026-05-03T07:34:41.104Z</time></trkpt><trkpt lat="45.3983915" lon="10.7663611"><ele>102.0</ele><time>2026-05-03T07:34:42.105Z</time></trkpt><trkpt lat="45.3983724" lon="10.7662424"><ele>102.0</ele><time>2026-05-03T07:34:43.105Z</time></trkpt><trkpt lat="45.3983511" lon="10.7661082"><ele>102.25</ele><time>2026-05-03T07:34:44.104Z</time></trkpt><trkpt lat="45.3983163" lon="10.7659631"><ele>102.5</ele><time>2026-05-03T07:34:45.104Z</time></trkpt><trkpt lat="45.3982793" lon="10.7658073"><ele>102.75</ele><time>2026-05-03T07:34:46.104Z</time></trkpt><trkpt lat="45.398231" lon="10.7656322"><ele>103.0</ele><time>2026-05-03T07:34:47.105Z</time></trkpt><trkpt lat="45.3981743" lon="10.7654409"><ele>103.0</ele><time>2026-05-03T07:34:48.105Z</time></trkpt><trkpt lat="45.398113" lon="10.7652454"><ele>103.0</ele><time>2026-05-03T07:34:49.105Z</time></trkpt><trkpt lat="45.3980606" lon="10.7650694"><ele>103.0</ele><time>2026-05-03T07:34:50.105Z</time></trkpt><trkpt lat="45.3980032" lon="10.7648939"><ele>103.0</ele><time>2026-05-03T07:34:51.105Z</time></trkpt><trkpt lat="45.3979517" lon="10.7647176"><ele>103.0</ele><time>2026-05-03T07:34:52.104Z</time></trkpt><trkpt lat="45.3978977" lon="10.7645491"><ele>103.0</ele><time>2026-05-03T07:34:53.105Z</time></trkpt><trkpt lat="45.3978395" lon="10.7644012"><ele>103.0</ele><time>2026-05-03T07:34:54.105Z</time></trkpt><trkpt lat="45.3977915" lon="10.764269"><ele>103.0</ele><time>2026-05-03T07:34:55.105Z</time></trkpt><trkpt lat="45.3977484" lon="10.7641593"><ele>103.0</ele><time>2026-05-03T07:34:56.105Z</time></trkpt><trkpt lat="45.3977103" lon="10.7640602"><ele>103.00000000000001</ele><time>2026-05-03T07:34:57.105Z</time></trkpt><trkpt lat="45.3976735" lon="10.7639651"><ele>103.0</ele><time>2026-05-03T07:34:58.105Z</time></trkpt><trkpt lat="45.3976446" lon="10.763878"><ele>103.0</ele><time>2026-05-03T07:34:59.105Z</time></trkpt><trkpt lat="45.3976162" lon="10.7637814"><ele>103.0</ele><time>2026-05-03T07:35:00.105Z</time></trkpt><trkpt lat="45.3975847" lon="10.7636939"><ele>103.00000000000001</ele><time>2026-05-03T07:35:01.105Z</time></trkpt><trkpt lat="45.3975494" lon="10.763613"><ele>103.0</ele><time>2026-05-03T07:35:02.105Z</time></trkpt><trkpt lat="45.397494" lon="10.7634871"><ele>103.33333333333334</ele><time>2026-05-03T07:35:04.104Z</time></trkpt><trkpt lat="45.3974517" lon="10.76339"><ele>103.66666666666667</ele><time>2026-05-03T07:35:07.105Z</time></trkpt><trkpt lat="45.3973933" lon="10.7632233"><ele>104.0</ele><time>2026-05-03T07:35:09.105Z</time></trkpt><trkpt lat="45.3973633" lon="10.7631167"><ele>104.33333333333334</ele><time>2026-05-03T07:35:10.105Z</time></trkpt><trkpt lat="45.3973233" lon="10.7630233"><ele>104.66666666666667</ele><time>2026-05-03T07:35:11.105Z</time></trkpt><trkpt lat="45.3972917" lon="10.762945"><ele>105.0</ele><time>2026-05-03T07:35:12.105Z</time></trkpt><trkpt lat="45.3972783" lon="10.7628283"><ele>105.0</ele><time>2026-05-03T07:35:14.105Z</time></trkpt><trkpt lat="45.3973417" lon="10.7627333"><ele>105.0</ele><time>2026-05-03T07:35:16.105Z</time></trkpt><trkpt lat="45.3974133" lon="10.76269"><ele>105.0</ele><time>2026-05-03T07:35:17.105Z</time></trkpt><trkpt lat="45.3974933" lon="10.76264"><ele>105.0</ele><time>2026-05-03T07:35:18.105Z</time></trkpt><trkpt lat="45.3975683" lon="10.762605"><ele>105.0</ele><time>2026-05-03T07:35:19.105Z</time></trkpt><trkpt lat="45.39764" lon="10.762565"><ele>105.0</ele><time>2026-05-03T07:35:20.105Z</time></trkpt><trkpt lat="45.397705" lon="10.762525"><ele>105.16666666666667</ele><time>2026-05-03T07:35:21.105Z</time></trkpt><trkpt lat="45.3977717" lon="10.76249"><ele>105.33333333333334</ele><time>2026-05-03T07:35:22.105Z</time></trkpt><trkpt lat="45.3978417" lon="10.762445"><ele>105.5</ele><time>2026-05-03T07:35:23.105Z</time></trkpt><trkpt lat="45.3979033" lon="10.7624067"><ele>105.66666666666667</ele><time>2026-05-03T07:35:24.105Z</time></trkpt><trkpt lat="45.398005" lon="10.7623217"><ele>105.83333333333334</ele><time>2026-05-03T07:35:26.105Z</time></trkpt><trkpt lat="45.3980617" lon="10.762265"><ele>106.0</ele><time>2026-05-03T07:35:27.105Z</time></trkpt><trkpt lat="45.3981267" lon="10.7621967"><ele>106.0</ele><time>2026-05-03T07:35:28.105Z</time></trkpt><trkpt lat="45.3981917" lon="10.762115"><ele>106.0</ele><time>2026-05-03T07:35:29.105Z</time></trkpt><trkpt lat="45.3982617" lon="10.7620117"><ele>106.0</ele><time>2026-05-03T07:35:30.105Z</time></trkpt><trkpt lat="45.3983267" lon="10.761895"><ele>106.0</ele><time>2026-05-03T07:35:31.105Z</time></trkpt><trkpt lat="45.3983883" lon="10.7617717"><ele>106.0</ele><time>2026-05-03T07:35:32.104Z</time></trkpt><trkpt lat="45.3984483" lon="10.7616317"><ele>104.5</ele><time>2026-05-03T07:35:33.105Z</time></trkpt><trkpt lat="45.3985067" lon="10.761465"><ele>103.0</ele><time>2026-05-03T07:35:34.105Z</time></trkpt><trkpt lat="45.3985633" lon="10.76128"><ele>101.5</ele><time>2026-05-03T07:35:35.105Z</time></trkpt><trkpt lat="45.3986217" lon="10.7611"><ele>100.0</ele><time>2026-05-03T07:35:36.105Z</time></trkpt><trkpt lat="45.398675" lon="10.7609267"><ele>99.0</ele><time>2026-05-03T07:35:37.104Z</time></trkpt><trkpt lat="45.39872" lon="10.76076"><ele>98.0</ele><time>2026-05-03T07:35:38.105Z</time></trkpt><trkpt lat="45.398765" lon="10.7606117"><ele>97.0</ele><time>2026-05-03T07:35:39.104Z</time></trkpt><trkpt lat="45.39881" lon="10.7604783"><ele>96.0</ele><time>2026-05-03T07:35:40.105Z</time></trkpt><trkpt lat="45.3988483" lon="10.7603633"><ele>95.0</ele><time>2026-05-03T07:35:41.105Z</time></trkpt><trkpt lat="45.39888" lon="10.760265"><ele>95.0</ele><time>2026-05-03T07:35:42.105Z</time></trkpt><trkpt lat="45.3988733" lon="10.7601133"><ele>95.0</ele><time>2026-05-03T07:35:44.105Z</time></trkpt><trkpt lat="45.3987767" lon="10.7599433"><ele>95.0</ele><time>2026-05-03T07:35:46.105Z</time></trkpt><trkpt lat="45.3987067" lon="10.759845"><ele>95.0</ele><time>2026-05-03T07:35:47.104Z</time></trkpt><trkpt lat="45.39865" lon="10.75975"><ele>95.0</ele><time>2026-05-03T07:35:48.105Z</time></trkpt><trkpt lat="45.3986117" lon="10.7596283"><ele>95.0</ele><time>2026-05-03T07:35:49.105Z</time></trkpt><trkpt lat="45.39859" lon="10.7594817"><ele>95.0</ele><time>2026-05-03T07:35:50.105Z</time></trkpt><trkpt lat="45.3985983" lon="10.7593367"><ele>95.0</ele><time>2026-05-03T07:35:51.105Z</time></trkpt><trkpt lat="45.3986383" lon="10.7591817"><ele>95.0</ele><time>2026-05-03T07:35:52.105Z</time></trkpt><trkpt lat="45.3987033" lon="10.7590167"><ele>95.0</ele><time>2026-05-03T07:35:53.105Z</time></trkpt><trkpt lat="45.39879" lon="10.7588583"><ele>95.0</ele><time>2026-05-03T07:35:54.105Z</time></trkpt><trkpt lat="45.3988733" lon="10.7587183"><ele>95.0</ele><time>2026-05-03T07:35:55.105Z</time></trkpt><trkpt lat="45.3989417" lon="10.7585933"><ele>95.0</ele><time>2026-05-03T07:35:56.105Z</time></trkpt><trkpt lat="45.3990017" lon="10.7584717"><ele>94.6</ele><time>2026-05-03T07:35:57.105Z</time></trkpt><trkpt lat="45.3990417" lon="10.7583483"><ele>94.2</ele><time>2026-05-03T07:35:58.105Z</time></trkpt><trkpt lat="45.39907" lon="10.7582383"><ele>93.80000000000001</ele><time>2026-05-03T07:35:59.105Z</time></trkpt><trkpt lat="45.3991317" lon="10.75812"><ele>93.4</ele><time>2026-05-03T07:36:01.105Z</time></trkpt><trkpt lat="45.3992383" lon="10.7581033"><ele>93.0</ele><time>2026-05-03T07:36:03.105Z</time></trkpt><trkpt lat="45.399335" lon="10.758115"><ele>93.0</ele><time>2026-05-03T07:36:04.105Z</time></trkpt><trkpt lat="45.3994417" lon="10.75813"><ele>93.0</ele><time>2026-05-03T07:36:05.105Z</time></trkpt><trkpt lat="45.39956" lon="10.7581583"><ele>93.0</ele><time>2026-05-03T07:36:06.105Z</time></trkpt><trkpt lat="45.3996733" lon="10.7581867"><ele>93.0</ele><time>2026-05-03T07:36:07.105Z</time></trkpt><trkpt lat="45.3997733" lon="10.7582217"><ele>93.0</ele><time>2026-05-03T07:36:08.105Z</time></trkpt><trkpt lat="45.39987" lon="10.7582533"><ele>93.0</ele><time>2026-05-03T07:36:09.105Z</time></trkpt><trkpt lat="45.39997" lon="10.7582817"><ele>93.0</ele><time>2026-05-03T07:36:10.105Z</time></trkpt><trkpt lat="45.400075" lon="10.758315"><ele>93.0</ele><time>2026-05-03T07:36:11.104Z</time></trkpt><trkpt lat="45.40018" lon="10.758345"><ele>93.0</ele><time>2026-05-03T07:36:12.105Z</time></trkpt><trkpt lat="45.4002867" lon="10.7583817"><ele>93.0</ele><time>2026-05-03T07:36:13.105Z</time></trkpt><trkpt lat="45.400395" lon="10.7584183"><ele>93.4</ele><time>2026-05-03T07:36:14.105Z</time></trkpt><trkpt lat="45.4005067" lon="10.7584567"><ele>93.80000000000001</ele><time>2026-05-03T07:36:15.105Z</time></trkpt><trkpt lat="45.40062" lon="10.7584967"><ele>94.2</ele><time>2026-05-03T07:36:16.105Z</time></trkpt><trkpt lat="45.4007217" lon="10.75854"><ele>94.6</ele><time>2026-05-03T07:36:17.105Z</time></trkpt><trkpt lat="45.4008033" lon="10.75858"><ele>95.0</ele><time>2026-05-03T07:36:18.105Z</time></trkpt><trkpt lat="45.40087" lon="10.7586133"><ele>95.0</ele><time>2026-05-03T07:36:19.105Z</time></trkpt><trkpt lat="45.4009617" lon="10.7586"><ele>95.0</ele><time>2026-05-03T07:36:21.105Z</time></trkpt><trkpt lat="45.4010167" lon="10.75849"><ele>95.0</ele><time>2026-05-03T07:36:23.105Z</time></trkpt><trkpt lat="45.40103" lon="10.75838"><ele>95.0</ele><time>2026-05-03T07:36:24.104Z</time></trkpt><trkpt lat="45.4010467" lon="10.7582317"><ele>95.0</ele><time>2026-05-03T07:36:25.105Z</time></trkpt><trkpt lat="45.4010667" lon="10.7580817"><ele>95.0</ele><time>2026-05-03T07:36:26.105Z</time></trkpt><trkpt lat="45.4010933" lon="10.757925"><ele>95.0</ele><time>2026-05-03T07:36:27.104Z</time></trkpt><trkpt lat="45.4011217" lon="10.7577717"><ele>95.0</ele><time>2026-05-03T07:36:28.105Z</time></trkpt><trkpt lat="45.401145" lon="10.7576283"><ele>95.0</ele><time>2026-05-03T07:36:29.105Z</time></trkpt><trkpt lat="45.4011717" lon="10.7574983"><ele>95.0</ele><time>2026-05-03T07:36:30.105Z</time></trkpt><trkpt lat="45.4011933" lon="10.7573767"><ele>95.0</ele><time>2026-05-03T07:36:31.105Z</time></trkpt><trkpt lat="45.4012133" lon="10.75728"><ele>95.0</ele><time>2026-05-03T07:36:32.105Z</time></trkpt><trkpt lat="45.4012433" lon="10.7571967"><ele>95.0</ele><time>2026-05-03T07:36:33.105Z</time></trkpt><trkpt lat="45.4013317" lon="10.75715"><ele>95.0</ele><time>2026-05-03T07:36:35.105Z</time></trkpt><trkpt lat="45.40141" lon="10.7571767"><ele>95.0</ele><time>2026-05-03T07:36:36.105Z</time></trkpt><trkpt lat="45.401515" lon="10.75722"><ele>95.0</ele><time>2026-05-03T07:36:37.105Z</time></trkpt><trkpt lat="45.4016233" lon="10.7572617"><ele>95.0</ele><time>2026-05-03T07:36:38.105Z</time></trkpt><trkpt lat="45.40172" lon="10.7572983"><ele>95.0</ele><time>2026-05-03T07:36:39.105Z</time></trkpt><trkpt lat="45.4018133" lon="10.7573317"><ele>95.0</ele><time>2026-05-03T07:36:40.105Z</time></trkpt><trkpt lat="45.4019117" lon="10.757365"><ele>95.0</ele><time>2026-05-03T07:36:41.105Z</time></trkpt><trkpt lat="45.4020233" lon="10.7574"><ele>95.0</ele><time>2026-05-03T07:36:42.104Z</time></trkpt><trkpt lat="45.40213" lon="10.757435"><ele>95.2</ele><time>2026-05-03T07:36:43.105Z</time></trkpt><trkpt lat="45.402235" lon="10.757465"><ele>95.4</ele><time>2026-05-03T07:36:44.105Z</time></trkpt><trkpt lat="45.4023383" lon="10.7574933"><ele>95.6</ele><time>2026-05-03T07:36:45.105Z</time></trkpt><trkpt lat="45.4024367" lon="10.75753"><ele>95.8</ele><time>2026-05-03T07:36:46.105Z</time></trkpt><trkpt lat="45.4025383" lon="10.7575817"><ele>96.0</ele><time>2026-05-03T07:36:47.105Z</time></trkpt><trkpt lat="45.402645" lon="10.757635"><ele>96.0</ele><time>2026-05-03T07:36:48.105Z</time></trkpt><trkpt lat="45.4027567" lon="10.7576917"><ele>96.0</ele><time>2026-05-03T07:36:49.105Z</time></trkpt><trkpt lat="45.4028617" lon="10.757755"><ele>96.0</ele><time>2026-05-03T07:36:50.105Z</time></trkpt><trkpt lat="45.4029667" lon="10.7578217"><ele>96.0</ele><time>2026-05-03T07:36:51.104Z</time></trkpt><trkpt lat="45.4030717" lon="10.7578967"><ele>96.0</ele><time>2026-05-03T07:36:52.105Z</time></trkpt><trkpt lat="45.4031883" lon="10.75798"><ele>96.0</ele><time>2026-05-03T07:36:53.105Z</time></trkpt><trkpt lat="45.4033267" lon="10.7580933"><ele>96.0</ele><time>2026-05-03T07:36:54.105Z</time></trkpt><trkpt lat="45.40349" lon="10.7582167"><ele>96.0</ele><time>2026-05-03T07:36:55.105Z</time></trkpt><trkpt lat="45.4036617" lon="10.7583417"><ele>96.0</ele><time>2026-05-03T07:36:56.105Z</time></trkpt><trkpt lat="45.40382" lon="10.7584533"><ele>96.0</ele><time>2026-05-03T07:36:57.104Z</time></trkpt><trkpt lat="45.403975" lon="10.7585583"><ele>97.0</ele><time>2026-05-03T07:36:58.104Z</time></trkpt><trkpt lat="45.4041233" lon="10.758665"><ele>98.0</ele><time>2026-05-03T07:36:59.105Z</time></trkpt><trkpt lat="45.4042683" lon="10.75877"><ele>99.0</ele><time>2026-05-03T07:37:00.104Z</time></trkpt><trkpt lat="45.4044017" lon="10.7588683"><ele>99.0</ele><time>2026-05-03T07:37:01.104Z</time></trkpt><trkpt lat="45.4045183" lon="10.758965"><ele>99.0</ele><time>2026-05-03T07:37:02.104Z</time></trkpt><trkpt lat="45.4046267" lon="10.7590517"><ele>99.0</ele><time>2026-05-03T07:37:03.105Z</time></trkpt><trkpt lat="45.404715" lon="10.75913"><ele>99.0</ele><time>2026-05-03T07:37:04.105Z</time></trkpt><trkpt lat="45.4047883" lon="10.7592067"><ele>100.0</ele><time>2026-05-03T07:37:05.105Z</time></trkpt><trkpt lat="45.4048517" lon="10.7592583"><ele>101.0</ele><time>2026-05-03T07:37:06.105Z</time></trkpt><trkpt lat="45.4049567" lon="10.759285"><ele>102.0</ele><time>2026-05-03T07:37:08.105Z</time></trkpt><trkpt lat="45.4050383" lon="10.75916"><ele>103.0</ele><time>2026-05-03T07:37:10.105Z</time></trkpt><trkpt lat="45.4050617" lon="10.7590317"><ele>104.0</ele><time>2026-05-03T07:37:11.105Z</time></trkpt><trkpt lat="45.4050833" lon="10.7588967"><ele>103.99999999999999</ele><time>2026-05-03T07:37:12.105Z</time></trkpt><trkpt lat="45.4051067" lon="10.7587867"><ele>104.0</ele><time>2026-05-03T07:37:13.105Z</time></trkpt><trkpt lat="45.4051383" lon="10.7586683"><ele>104.0</ele><time>2026-05-03T07:37:14.105Z</time></trkpt><trkpt lat="45.40516" lon="10.7585617"><ele>104.0</ele><time>2026-05-03T07:37:15.105Z</time></trkpt><trkpt lat="45.4051867" lon="10.7584717"><ele>103.99999999999999</ele><time>2026-05-03T07:37:16.105Z</time></trkpt><trkpt lat="45.405265" lon="10.758355"><ele>104.0</ele><time>2026-05-03T07:37:18.105Z</time></trkpt><trkpt lat="45.4053617" lon="10.7583433"><ele>104.0</ele><time>2026-05-03T07:37:20.105Z</time></trkpt><trkpt lat="45.4054483" lon="10.7583167"><ele>104.0</ele><time>2026-05-03T07:37:22.105Z</time></trkpt><trkpt lat="45.40555" lon="10.7581983"><ele>104.0</ele><time>2026-05-03T07:37:24.105Z</time></trkpt><trkpt lat="45.4055917" lon="10.7581"><ele>104.0</ele><time>2026-05-03T07:37:25.105Z</time></trkpt><trkpt lat="45.405625" lon="10.7579933"><ele>104.0</ele><time>2026-05-03T07:37:26.105Z</time></trkpt><trkpt lat="45.4056683" lon="10.757835"><ele>104.0</ele><time>2026-05-03T07:37:28.104Z</time></trkpt><trkpt lat="45.4057467" lon="10.75777"><ele>104.0</ele><time>2026-05-03T07:37:30.104Z</time></trkpt><trkpt lat="45.4058217" lon="10.7578"><ele>104.0</ele><time>2026-05-03T07:37:31.105Z</time></trkpt><trkpt lat="45.4059017" lon="10.7578533"><ele>104.0</ele><time>2026-05-03T07:37:32.105Z</time></trkpt><trkpt lat="45.4059883" lon="10.7579117"><ele>104.0</ele><time>2026-05-03T07:37:33.105Z</time></trkpt><trkpt lat="45.4060867" lon="10.7579783"><ele>103.99999999999999</ele><time>2026-05-03T07:37:34.105Z</time></trkpt><trkpt lat="45.4061917" lon="10.7580317"><ele>104.0</ele><time>2026-05-03T07:37:35.105Z</time></trkpt><trkpt lat="45.40628" lon="10.75807"><ele>104.0</ele><time>2026-05-03T07:37:36.104Z</time></trkpt><trkpt lat="45.4063583" lon="10.7581033"><ele>104.0</ele><time>2026-05-03T07:37:37.105Z</time></trkpt><trkpt lat="45.4064317" lon="10.7581333"><ele>103.99999999999999</ele><time>2026-05-03T07:37:38.105Z</time></trkpt><trkpt lat="45.406495" lon="10.7581583"><ele>104.0</ele><time>2026-05-03T07:37:39.105Z</time></trkpt><trkpt lat="45.4065933" lon="10.758195"><ele>103.66666666666666</ele><time>2026-05-03T07:37:41.105Z</time></trkpt><trkpt lat="45.4066633" lon="10.7581617"><ele>103.33333333333333</ele><time>2026-05-03T07:37:44.105Z</time></trkpt><trkpt lat="45.4066833" lon="10.75807"><ele>103.0</ele><time>2026-05-03T07:37:52.104Z</time></trkpt><trkpt lat="45.4066783" lon="10.7579767"><ele>102.66666666666666</ele><time>2026-05-03T07:37:53.105Z</time></trkpt><trkpt lat="45.4066667" lon="10.7578467"><ele>102.33333333333333</ele><time>2026-05-03T07:37:54.105Z</time></trkpt><trkpt lat="45.406655" lon="10.757675"><ele>102.0</ele><time>2026-05-03T07:37:55.105Z</time></trkpt><trkpt lat="45.4066583" lon="10.7575017"><ele>101.39999999999999</ele><time>2026-05-03T07:37:56.105Z</time></trkpt><trkpt lat="45.4066567" lon="10.757335"><ele>100.8</ele><time>2026-05-03T07:37:57.105Z</time></trkpt><trkpt lat="45.4066617" lon="10.7571733"><ele>100.2</ele><time>2026-05-03T07:37:58.105Z</time></trkpt><trkpt lat="45.4066667" lon="10.757025"><ele>99.6</ele><time>2026-05-03T07:37:59.105Z</time></trkpt><trkpt lat="45.4066633" lon="10.7568883"><ele>99.0</ele><time>2026-05-03T07:38:00.104Z</time></trkpt><trkpt lat="45.4066617" lon="10.75673"><ele>97.5</ele><time>2026-05-03T07:38:01.105Z</time></trkpt><trkpt lat="45.40666" lon="10.7565633"><ele>96.0</ele><time>2026-05-03T07:38:02.104Z</time></trkpt><trkpt lat="45.406655" lon="10.756385"><ele>94.5</ele><time>2026-05-03T07:38:03.105Z</time></trkpt><trkpt lat="45.406655" lon="10.7562117"><ele>93.0</ele><time>2026-05-03T07:38:04.105Z</time></trkpt><trkpt lat="45.40665" lon="10.7560417"><ele>93.0</ele><time>2026-05-03T07:38:05.105Z</time></trkpt><trkpt lat="45.406645" lon="10.75587"><ele>93.0</ele><time>2026-05-03T07:38:06.105Z</time></trkpt><trkpt lat="45.40664" lon="10.755715"><ele>93.0</ele><time>2026-05-03T07:38:07.105Z</time></trkpt><trkpt lat="45.4066333" lon="10.7555633"><ele>93.0</ele><time>2026-05-03T07:38:08.104Z</time></trkpt><trkpt lat="45.4066317" lon="10.75541"><ele>93.0</ele><time>2026-05-03T07:38:09.105Z</time></trkpt><trkpt lat="45.4066317" lon="10.755265"><ele>93.5</ele><time>2026-05-03T07:38:10.105Z</time></trkpt><trkpt lat="45.406635" lon="10.7551333"><ele>94.0</ele><time>2026-05-03T07:38:11.105Z</time></trkpt><trkpt lat="45.4066417" lon="10.755025"><ele>94.5</ele><time>2026-05-03T07:38:12.105Z</time></trkpt><trkpt lat="45.4066567" lon="10.754935"><ele>95.0</ele><time>2026-05-03T07:38:13.105Z</time></trkpt><trkpt lat="45.4066667" lon="10.754845"><ele>95.5</ele><time>2026-05-03T07:38:14.105Z</time></trkpt><trkpt lat="45.4066783" lon="10.7547433"><ele>96.0</ele><time>2026-05-03T07:38:15.105Z</time></trkpt><trkpt lat="45.4066917" lon="10.7546267"><ele>96.0</ele><time>2026-05-03T07:38:16.105Z</time></trkpt><trkpt lat="45.4067083" lon="10.7545017"><ele>96.0</ele><time>2026-05-03T07:38:17.105Z</time></trkpt><trkpt lat="45.4067233" lon="10.7543683"><ele>96.0</ele><time>2026-05-03T07:38:18.105Z</time></trkpt><trkpt lat="45.4067433" lon="10.7542333"><ele>96.0</ele><time>2026-05-03T07:38:19.105Z</time></trkpt><trkpt lat="45.4067633" lon="10.7541017"><ele>96.0</ele><time>2026-05-03T07:38:20.105Z</time></trkpt><trkpt lat="45.4067767" lon="10.7539867"><ele>96.5</ele><time>2026-05-03T07:38:21.105Z</time></trkpt><trkpt lat="45.4067883" lon="10.7538917"><ele>97.0</ele><time>2026-05-03T07:38:22.104Z</time></trkpt><trkpt lat="45.4068217" lon="10.75373"><ele>97.5</ele><time>2026-05-03T07:38:24.105Z</time></trkpt><trkpt lat="45.40684" lon="10.7536417"><ele>98.0</ele><time>2026-05-03T07:38:25.105Z</time></trkpt><trkpt lat="45.406855" lon="10.7535417"><ele>98.5</ele><time>2026-05-03T07:38:26.105Z</time></trkpt><trkpt lat="45.4068733" lon="10.7534283"><ele>99.0</ele><time>2026-05-03T07:38:27.105Z</time></trkpt><trkpt lat="45.4068983" lon="10.7533067"><ele>99.33333333333333</ele><time>2026-05-03T07:38:28.104Z</time></trkpt><trkpt lat="45.4069117" lon="10.7531833"><ele>99.66666666666666</ele><time>2026-05-03T07:38:29.105Z</time></trkpt><trkpt lat="45.40693" lon="10.7530583"><ele>100.0</ele><time>2026-05-03T07:38:30.104Z</time></trkpt><trkpt lat="45.4069483" lon="10.7529417"><ele>100.33333333333333</ele><time>2026-05-03T07:38:31.105Z</time></trkpt><trkpt lat="45.40696" lon="10.75283"><ele>100.66666666666666</ele><time>2026-05-03T07:38:32.105Z</time></trkpt><trkpt lat="45.4069767" lon="10.75272"><ele>101.0</ele><time>2026-05-03T07:38:33.104Z</time></trkpt><trkpt lat="45.40699" lon="10.75261"><ele>101.16666666666666</ele><time>2026-05-03T07:38:34.105Z</time></trkpt><trkpt lat="45.4069933" lon="10.752495"><ele>101.33333333333333</ele><time>2026-05-03T07:38:35.105Z</time></trkpt><trkpt lat="45.407" lon="10.7523767"><ele>101.5</ele><time>2026-05-03T07:38:36.105Z</time></trkpt><trkpt lat="45.407005" lon="10.7522583"><ele>101.66666666666666</ele><time>2026-05-03T07:38:37.105Z</time></trkpt><trkpt lat="45.40701" lon="10.7521467"><ele>101.83333333333333</ele><time>2026-05-03T07:38:38.105Z</time></trkpt><trkpt lat="45.4070117" lon="10.752025"><ele>102.0</ele><time>2026-05-03T07:38:39.105Z</time></trkpt><trkpt lat="45.40701" lon="10.7519017"><ele>101.8</ele><time>2026-05-03T07:38:40.105Z</time></trkpt><trkpt lat="45.4070183" lon="10.7517867"><ele>101.6</ele><time>2026-05-03T07:38:41.105Z</time></trkpt><trkpt lat="45.407035" lon="10.75165"><ele>101.39999999999999</ele><time>2026-05-03T07:38:42.105Z</time></trkpt><trkpt lat="45.4070583" lon="10.7515133"><ele>101.19999999999999</ele><time>2026-05-03T07:38:43.104Z</time></trkpt><trkpt lat="45.4070833" lon="10.7513667"><ele>101.0</ele><time>2026-05-03T07:38:44.105Z</time></trkpt><trkpt lat="45.407105" lon="10.7512067"><ele>101.0</ele><time>2026-05-03T07:38:45.105Z</time></trkpt><trkpt lat="45.4071333" lon="10.7510533"><ele>101.0</ele><time>2026-05-03T07:38:46.105Z</time></trkpt><trkpt lat="45.4071617" lon="10.7508883"><ele>101.0</ele><time>2026-05-03T07:38:47.105Z</time></trkpt><trkpt lat="45.4071867" lon="10.7507217"><ele>101.0</ele><time>2026-05-03T07:38:48.105Z</time></trkpt><trkpt lat="45.4072133" lon="10.75055"><ele>100.25</ele><time>2026-05-03T07:38:49.104Z</time></trkpt><trkpt lat="45.4072383" lon="10.7503833"><ele>99.5</ele><time>2026-05-03T07:38:50.105Z</time></trkpt><trkpt lat="45.4072633" lon="10.750215"><ele>98.75</ele><time>2026-05-03T07:38:51.105Z</time></trkpt><trkpt lat="45.4072833" lon="10.7500483"><ele>98.0</ele><time>2026-05-03T07:38:52.105Z</time></trkpt><trkpt lat="45.4073" lon="10.749885"><ele>98.0</ele><time>2026-05-03T07:38:53.105Z</time></trkpt><trkpt lat="45.40732" lon="10.7497267"><ele>98.0</ele><time>2026-05-03T07:38:54.105Z</time></trkpt><trkpt lat="45.4073333" lon="10.7495767"><ele>98.0</ele><time>2026-05-03T07:38:55.104Z</time></trkpt><trkpt lat="45.407335" lon="10.7494517"><ele>98.0</ele><time>2026-05-03T07:38:56.105Z</time></trkpt><trkpt lat="45.4073467" lon="10.749315"><ele>98.0</ele><time>2026-05-03T07:38:57.105Z</time></trkpt><trkpt lat="45.4073517" lon="10.7491833"><ele>97.60000000000001</ele><time>2026-05-03T07:38:58.105Z</time></trkpt><trkpt lat="45.4073617" lon="10.74904"><ele>97.2</ele><time>2026-05-03T07:38:59.104Z</time></trkpt><trkpt lat="45.4073667" lon="10.74889"><ele>96.8</ele><time>2026-05-03T07:39:00.105Z</time></trkpt><trkpt lat="45.40737" lon="10.748745"><ele>96.4</ele><time>2026-05-03T07:39:01.105Z</time></trkpt><trkpt lat="45.4073733" lon="10.74862"><ele>96.0</ele><time>2026-05-03T07:39:02.105Z</time></trkpt><trkpt lat="45.4073767" lon="10.74852"><ele>96.0</ele><time>2026-05-03T07:39:03.105Z</time></trkpt><trkpt lat="45.40741" lon="10.748355"><ele>96.0</ele><time>2026-05-03T07:39:05.105Z</time></trkpt><trkpt lat="45.407445" lon="10.7482617"><ele>96.0</ele><time>2026-05-03T07:39:07.105Z</time></trkpt><trkpt lat="45.40752" lon="10.7481783"><ele>96.0</ele><time>2026-05-03T07:39:11.105Z</time></trkpt><trkpt lat="45.4075683" lon="10.7481133"><ele>96.0</ele><time>2026-05-03T07:39:12.105Z</time></trkpt><trkpt lat="45.4076117" lon="10.748025"><ele>96.0</ele><time>2026-05-03T07:39:13.104Z</time></trkpt><trkpt lat="45.4076283" lon="10.7479233"><ele>96.0</ele><time>2026-05-03T07:39:14.105Z</time></trkpt><trkpt lat="45.4076133" lon="10.7477967"><ele>96.0</ele><time>2026-05-03T07:39:15.105Z</time></trkpt><trkpt lat="45.407545" lon="10.7476183"><ele>96.0</ele><time>2026-05-03T07:39:16.105Z</time></trkpt><trkpt lat="45.4074667" lon="10.7474167"><ele>96.0</ele><time>2026-05-03T07:39:17.105Z</time></trkpt><trkpt lat="45.4074083" lon="10.7472183"><ele>95.75</ele><time>2026-05-03T07:39:18.105Z</time></trkpt><trkpt lat="45.40738" lon="10.7470217"><ele>95.5</ele><time>2026-05-03T07:39:19.105Z</time></trkpt><trkpt lat="45.40737" lon="10.746805"><ele>95.25</ele><time>2026-05-03T07:39:20.105Z</time></trkpt><trkpt lat="45.4073667" lon="10.746595"><ele>95.0</ele><time>2026-05-03T07:39:21.105Z</time></trkpt><trkpt lat="45.4073683" lon="10.746385"><ele>95.0</ele><time>2026-05-03T07:39:22.105Z</time></trkpt><trkpt lat="45.407365" lon="10.7461733"><ele>95.0</ele><time>2026-05-03T07:39:23.105Z</time></trkpt><trkpt lat="45.40736" lon="10.74596"><ele>95.0</ele><time>2026-05-03T07:39:24.104Z</time></trkpt><trkpt lat="45.407355" lon="10.7457533"><ele>95.0</ele><time>2026-05-03T07:39:25.104Z</time></trkpt><trkpt lat="45.40735" lon="10.745545"><ele>95.0</ele><time>2026-05-03T07:39:26.105Z</time></trkpt><trkpt lat="45.40734" lon="10.745335"><ele>95.0</ele><time>2026-05-03T07:39:27.105Z</time></trkpt><trkpt lat="45.4073367" lon="10.745125"><ele>95.0</ele><time>2026-05-03T07:39:28.105Z</time></trkpt><trkpt lat="45.4073333" lon="10.7449167"><ele>95.0</ele><time>2026-05-03T07:39:29.105Z</time></trkpt><trkpt lat="45.4073333" lon="10.7447067"><ele>95.25</ele><time>2026-05-03T07:39:30.104Z</time></trkpt><trkpt lat="45.40733" lon="10.7444983"><ele>95.5</ele><time>2026-05-03T07:39:31.105Z</time></trkpt><trkpt lat="45.4073267" lon="10.7442833"><ele>95.75</ele><time>2026-05-03T07:39:32.105Z</time></trkpt><trkpt lat="45.407325" lon="10.7440733"><ele>96.0</ele><time>2026-05-03T07:39:33.105Z</time></trkpt><trkpt lat="45.407325" lon="10.7438633"><ele>96.0</ele><time>2026-05-03T07:39:34.105Z</time></trkpt><trkpt lat="45.4073233" lon="10.743655"><ele>96.0</ele><time>2026-05-03T07:39:35.105Z</time></trkpt><trkpt lat="45.4073217" lon="10.7434467"><ele>96.0</ele><time>2026-05-03T07:39:36.104Z</time></trkpt><trkpt lat="45.4073183" lon="10.7432433"><ele>96.0</ele><time>2026-05-03T07:39:37.105Z</time></trkpt><trkpt lat="45.4073133" lon="10.7430283"><ele>96.25</ele><time>2026-05-03T07:39:38.105Z</time></trkpt><trkpt lat="45.4073133" lon="10.7428133"><ele>96.5</ele><time>2026-05-03T07:39:39.105Z</time></trkpt><trkpt lat="45.4073117" lon="10.742605"><ele>96.75</ele><time>2026-05-03T07:39:40.105Z</time></trkpt><trkpt lat="45.4073117" lon="10.7423917"><ele>97.0</ele><time>2026-05-03T07:39:41.104Z</time></trkpt><trkpt lat="45.407315" lon="10.7421867"><ele>97.25</ele><time>2026-05-03T07:39:42.105Z</time></trkpt><trkpt lat="45.4073117" lon="10.7419917"><ele>97.5</ele><time>2026-05-03T07:39:43.105Z</time></trkpt><trkpt lat="45.40731" lon="10.7418033"><ele>97.75</ele><time>2026-05-03T07:39:44.105Z</time></trkpt><trkpt lat="45.4073067" lon="10.741605"><ele>98.0</ele><time>2026-05-03T07:39:45.105Z</time></trkpt><trkpt lat="45.40731" lon="10.7414033"><ele>98.25</ele><time>2026-05-03T07:39:46.105Z</time></trkpt><trkpt lat="45.4073117" lon="10.7412083"><ele>98.5</ele><time>2026-05-03T07:39:47.105Z</time></trkpt><trkpt lat="45.40731" lon="10.74102"><ele>98.75</ele><time>2026-05-03T07:39:48.105Z</time></trkpt><trkpt lat="45.4073117" lon="10.7408267"><ele>99.0</ele><time>2026-05-03T07:39:49.105Z</time></trkpt><trkpt lat="45.4073183" lon="10.74063"><ele>99.0</ele><time>2026-05-03T07:39:50.105Z</time></trkpt><trkpt lat="45.4073233" lon="10.7404267"><ele>99.0</ele><time>2026-05-03T07:39:51.105Z</time></trkpt><trkpt lat="45.4073283" lon="10.7402333"><ele>99.0</ele><time>2026-05-03T07:39:52.105Z</time></trkpt><trkpt lat="45.4073267" lon="10.7400317"><ele>99.0</ele><time>2026-05-03T07:39:53.104Z</time></trkpt><trkpt lat="45.4073233" lon="10.7398317"><ele>99.75</ele><time>2026-05-03T07:39:54.105Z</time></trkpt><trkpt lat="45.4073233" lon="10.7396383"><ele>100.5</ele><time>2026-05-03T07:39:55.105Z</time></trkpt><trkpt lat="45.4073283" lon="10.7394383"><ele>101.25</ele><time>2026-05-03T07:39:56.105Z</time></trkpt><trkpt lat="45.4073383" lon="10.7392483"><ele>102.0</ele><time>2026-05-03T07:39:57.105Z</time></trkpt><trkpt lat="45.4073617" lon="10.7390633"><ele>102.0</ele><time>2026-05-03T07:39:58.105Z</time></trkpt><trkpt lat="45.40738" lon="10.738875"><ele>102.0</ele><time>2026-05-03T07:39:59.105Z</time></trkpt><trkpt lat="45.4073967" lon="10.7386817"><ele>102.0</ele><time>2026-05-03T07:40:00.105Z</time></trkpt><trkpt lat="45.4074183" lon="10.7384967"><ele>102.0</ele><time>2026-05-03T07:40:01.105Z</time></trkpt><trkpt lat="45.4074433" lon="10.7383017"><ele>102.0</ele><time>2026-05-03T07:40:02.105Z</time></trkpt><trkpt lat="45.40747" lon="10.7381083"><ele>102.0</ele><time>2026-05-03T07:40:03.105Z</time></trkpt><trkpt lat="45.4074967" lon="10.737915"><ele>102.0</ele><time>2026-05-03T07:40:04.104Z</time></trkpt><trkpt lat="45.407515" lon="10.7377117"><ele>102.0</ele><time>2026-05-03T07:40:05.105Z</time></trkpt><trkpt lat="45.4075267" lon="10.7375183"><ele>102.5</ele><time>2026-05-03T07:40:06.105Z</time></trkpt><trkpt lat="45.40754" lon="10.73732"><ele>103.0</ele><time>2026-05-03T07:40:07.105Z</time></trkpt><trkpt lat="45.4075367" lon="10.737125"><ele>103.5</ele><time>2026-05-03T07:40:08.105Z</time></trkpt><trkpt lat="45.4075233" lon="10.7369317"><ele>104.0</ele><time>2026-05-03T07:40:09.104Z</time></trkpt><trkpt lat="45.4074983" lon="10.7367317"><ele>104.25</ele><time>2026-05-03T07:40:10.105Z</time></trkpt><trkpt lat="45.4074667" lon="10.736535"><ele>104.5</ele><time>2026-05-03T07:40:11.105Z</time></trkpt><trkpt lat="45.4074233" lon="10.7363467"><ele>104.75</ele><time>2026-05-03T07:40:12.105Z</time></trkpt><trkpt lat="45.4073817" lon="10.736155"><ele>105.0</ele><time>2026-05-03T07:40:13.104Z</time></trkpt><trkpt lat="45.40734" lon="10.73597"><ele>105.0</ele><time>2026-05-03T07:40:14.105Z</time></trkpt><trkpt lat="45.4073017" lon="10.7357817"><ele>105.0</ele><time>2026-05-03T07:40:15.105Z</time></trkpt><trkpt lat="45.4072667" lon="10.7355933"><ele>105.0</ele><time>2026-05-03T07:40:16.105Z</time></trkpt><trkpt lat="45.4072167" lon="10.7354167"><ele>105.0</ele><time>2026-05-03T07:40:17.105Z</time></trkpt><trkpt lat="45.4071583" lon="10.7352417"><ele>105.5</ele><time>2026-05-03T07:40:18.105Z</time></trkpt><trkpt lat="45.4071017" lon="10.735065"><ele>106.0</ele><time>2026-05-03T07:40:19.105Z</time></trkpt><trkpt lat="45.4070383" lon="10.7348933"><ele>106.5</ele><time>2026-05-03T07:40:20.105Z</time></trkpt><trkpt lat="45.4069717" lon="10.7347317"><ele>107.0</ele><time>2026-05-03T07:40:21.105Z</time></trkpt><trkpt lat="45.4069067" lon="10.7345683"><ele>107.0</ele><time>2026-05-03T07:40:22.105Z</time></trkpt><trkpt lat="45.406845" lon="10.7343983"><ele>107.0</ele><time>2026-05-03T07:40:23.105Z</time></trkpt><trkpt lat="45.4067783" lon="10.734235"><ele>107.0</ele><time>2026-05-03T07:40:24.105Z</time></trkpt><trkpt lat="45.4067083" lon="10.73407"><ele>107.0</ele><time>2026-05-03T07:40:25.105Z</time></trkpt><trkpt lat="45.4066417" lon="10.7339"><ele>107.0</ele><time>2026-05-03T07:40:26.105Z</time></trkpt><trkpt lat="45.40658" lon="10.7337283"><ele>107.0</ele><time>2026-05-03T07:40:27.105Z</time></trkpt><trkpt lat="45.4065217" lon="10.7335517"><ele>107.0</ele><time>2026-05-03T07:40:28.105Z</time></trkpt><trkpt lat="45.406485" lon="10.7333667"><ele>107.0</ele><time>2026-05-03T07:40:29.105Z</time></trkpt><trkpt lat="45.406455" lon="10.73317"><ele>107.0</ele><time>2026-05-03T07:40:30.105Z</time></trkpt><trkpt lat="45.406435" lon="10.732975"><ele>107.0</ele><time>2026-05-03T07:40:31.105Z</time></trkpt><trkpt lat="45.4064133" lon="10.7327817"><ele>107.0</ele><time>2026-05-03T07:40:32.105Z</time></trkpt><trkpt lat="45.4063917" lon="10.73259"><ele>107.0</ele><time>2026-05-03T07:40:33.105Z</time></trkpt><trkpt lat="45.4063667" lon="10.7323967"><ele>107.5</ele><time>2026-05-03T07:40:34.105Z</time></trkpt><trkpt lat="45.4063467" lon="10.7322017"><ele>108.0</ele><time>2026-05-03T07:40:35.105Z</time></trkpt><trkpt lat="45.406325" lon="10.73201"><ele>108.5</ele><time>2026-05-03T07:40:36.105Z</time></trkpt><trkpt lat="45.4062983" lon="10.731815"><ele>109.0</ele><time>2026-05-03T07:40:37.105Z</time></trkpt><trkpt lat="45.4062667" lon="10.7316333"><ele>109.25</ele><time>2026-05-03T07:40:38.104Z</time></trkpt><trkpt lat="45.4062067" lon="10.731455"><ele>109.5</ele><time>2026-05-03T07:40:39.104Z</time></trkpt><trkpt lat="45.406125" lon="10.7312983"><ele>109.75</ele><time>2026-05-03T07:40:40.105Z</time></trkpt><trkpt lat="45.4060417" lon="10.7311467"><ele>110.0</ele><time>2026-05-03T07:40:41.105Z</time></trkpt><trkpt lat="45.4059483" lon="10.7310017"><ele>110.0</ele><time>2026-05-03T07:40:42.105Z</time></trkpt><trkpt lat="45.4058517" lon="10.7308667"><ele>110.0</ele><time>2026-05-03T07:40:43.105Z</time></trkpt><trkpt lat="45.4057533" lon="10.7307283"><ele>110.0</ele><time>2026-05-03T07:40:44.105Z</time></trkpt><trkpt lat="45.4056517" lon="10.7305967"><ele>110.0</ele><time>2026-05-03T07:40:45.105Z</time></trkpt><trkpt lat="45.4055583" lon="10.73046"><ele>110.0</ele><time>2026-05-03T07:40:46.105Z</time></trkpt><trkpt lat="45.4054667" lon="10.7303217"><ele>110.0</ele><time>2026-05-03T07:40:47.105Z</time></trkpt><trkpt lat="45.4053717" lon="10.7301767"><ele>110.0</ele><time>2026-05-03T07:40:48.105Z</time></trkpt><trkpt lat="45.4052783" lon="10.7300333"><ele>110.0</ele><time>2026-05-03T07:40:49.106Z</time></trkpt><trkpt lat="45.40519" lon="10.7298967"><ele>110.25</ele><time>2026-05-03T07:40:50.106Z</time></trkpt><trkpt lat="45.4051017" lon="10.72975"><ele>110.5</ele><time>2026-05-03T07:40:51.106Z</time></trkpt><trkpt lat="45.4050117" lon="10.729605"><ele>110.75</ele><time>2026-05-03T07:40:52.106Z</time></trkpt><trkpt lat="45.4049217" lon="10.7294733"><ele>111.0</ele><time>2026-05-03T07:40:53.106Z</time></trkpt><trkpt lat="45.4048317" lon="10.729335"><ele>111.0</ele><time>2026-05-03T07:40:54.106Z</time></trkpt><trkpt lat="45.4047383" lon="10.729195"><ele>111.0</ele><time>2026-05-03T07:40:55.106Z</time></trkpt><trkpt lat="45.4046483" lon="10.7290583"><ele>111.0</ele><time>2026-05-03T07:40:56.106Z</time></trkpt><trkpt lat="45.4045633" lon="10.728895"><ele>111.0</ele><time>2026-05-03T07:40:57.105Z</time></trkpt><trkpt lat="45.4044867" lon="10.72873"><ele>111.25</ele><time>2026-05-03T07:40:58.105Z</time></trkpt><trkpt lat="45.404415" lon="10.72856"><ele>111.5</ele><time>2026-05-03T07:40:59.106Z</time></trkpt><trkpt lat="45.4043517" lon="10.728385"><ele>111.75</ele><time>2026-05-03T07:41:00.106Z</time></trkpt><trkpt lat="45.4042867" lon="10.7282017"><ele>112.0</ele><time>2026-05-03T07:41:01.106Z</time></trkpt><trkpt lat="45.404225" lon="10.72803"><ele>112.0</ele><time>2026-05-03T07:41:02.106Z</time></trkpt><trkpt lat="45.4041633" lon="10.72786"><ele>112.0</ele><time>2026-05-03T07:41:03.106Z</time></trkpt><trkpt lat="45.4041083" lon="10.7277"><ele>112.0</ele><time>2026-05-03T07:41:04.106Z</time></trkpt><trkpt lat="45.4040583" lon="10.72755"><ele>112.0</ele><time>2026-05-03T07:41:05.106Z</time></trkpt><trkpt lat="45.4039917" lon="10.7274017"><ele>112.0</ele><time>2026-05-03T07:41:06.106Z</time></trkpt><trkpt lat="45.4039117" lon="10.7272633"><ele>112.0</ele><time>2026-05-03T07:41:07.106Z</time></trkpt><trkpt lat="45.40382" lon="10.7271317"><ele>112.0</ele><time>2026-05-03T07:41:08.106Z</time></trkpt><trkpt lat="45.4037233" lon="10.727005"><ele>112.0</ele><time>2026-05-03T07:41:09.105Z</time></trkpt><trkpt lat="45.40363" lon="10.7268783"><ele>111.5</ele><time>2026-05-03T07:41:10.106Z</time></trkpt><trkpt lat="45.40355" lon="10.7267483"><ele>111.0</ele><time>2026-05-03T07:41:11.106Z</time></trkpt><trkpt lat="45.403475" lon="10.7266117"><ele>110.5</ele><time>2026-05-03T07:41:12.106Z</time></trkpt><trkpt lat="45.4034167" lon="10.72647"><ele>110.0</ele><time>2026-05-03T07:41:13.106Z</time></trkpt><trkpt lat="45.40337" lon="10.7263283"><ele>110.0</ele><time>2026-05-03T07:41:14.105Z</time></trkpt><trkpt lat="45.403335" lon="10.7262017"><ele>110.0</ele><time>2026-05-03T07:41:15.106Z</time></trkpt><trkpt lat="45.4033017" lon="10.7260817"><ele>110.0</ele><time>2026-05-03T07:41:16.105Z</time></trkpt><trkpt lat="45.403275" lon="10.7259817"><ele>110.0</ele><time>2026-05-03T07:41:17.106Z</time></trkpt><trkpt lat="45.4032567" lon="10.7258883"><ele>110.0</ele><time>2026-05-03T07:41:18.105Z</time></trkpt><trkpt lat="45.4031867" lon="10.7257367"><ele>109.4</ele><time>2026-05-03T07:41:20.106Z</time></trkpt><trkpt lat="45.4031183" lon="10.72571"><ele>108.8</ele><time>2026-05-03T07:41:21.105Z</time></trkpt><trkpt lat="45.403025" lon="10.7257133"><ele>108.19999999999999</ele><time>2026-05-03T07:41:22.106Z</time></trkpt><trkpt lat="45.4029117" lon="10.725715"><ele>107.6</ele><time>2026-05-03T07:41:23.105Z</time></trkpt><trkpt lat="45.402785" lon="10.7256983"><ele>107.0</ele><time>2026-05-03T07:41:24.106Z</time></trkpt><trkpt lat="45.40265" lon="10.7256983"><ele>107.75</ele><time>2026-05-03T07:41:25.106Z</time></trkpt><trkpt lat="45.4025217" lon="10.725695"><ele>108.5</ele><time>2026-05-03T07:41:26.106Z</time></trkpt><trkpt lat="45.4023833" lon="10.7256767"><ele>109.25</ele><time>2026-05-03T07:41:27.106Z</time></trkpt><trkpt lat="45.402215" lon="10.7256583"><ele>110.0</ele><time>2026-05-03T07:41:28.106Z</time></trkpt><trkpt lat="45.4020117" lon="10.72564"><ele>110.0</ele><time>2026-05-03T07:41:29.106Z</time></trkpt><trkpt lat="45.40182" lon="10.7256217"><ele>110.0</ele><time>2026-05-03T07:41:30.106Z</time></trkpt><trkpt lat="45.4016583" lon="10.7256"><ele>110.0</ele><time>2026-05-03T07:41:31.106Z</time></trkpt><trkpt lat="45.40151" lon="10.725555"><ele>110.0</ele><time>2026-05-03T07:41:32.105Z</time></trkpt><trkpt lat="45.4013733" lon="10.7254733"><ele>110.0</ele><time>2026-05-03T07:41:33.106Z</time></trkpt><trkpt lat="45.4012367" lon="10.7253867"><ele>110.0</ele><time>2026-05-03T07:41:34.106Z</time></trkpt><trkpt lat="45.4011167" lon="10.7252983"><ele>110.0</ele><time>2026-05-03T07:41:35.106Z</time></trkpt><trkpt lat="45.401005" lon="10.7252067"><ele>109.75</ele><time>2026-05-03T07:41:36.105Z</time></trkpt><trkpt lat="45.4008983" lon="10.7250933"><ele>109.5</ele><time>2026-05-03T07:41:37.105Z</time></trkpt><trkpt lat="45.4007933" lon="10.7249717"><ele>109.25</ele><time>2026-05-03T07:41:38.106Z</time></trkpt><trkpt lat="45.40069" lon="10.724845"><ele>109.0</ele><time>2026-05-03T07:41:39.106Z</time></trkpt><trkpt lat="45.400585" lon="10.7247167"><ele>109.0</ele><time>2026-05-03T07:41:40.106Z</time></trkpt><trkpt lat="45.40049" lon="10.7245883"><ele>109.0</ele><time>2026-05-03T07:41:41.106Z</time></trkpt><trkpt lat="45.4003917" lon="10.7244667"><ele>109.0</ele><time>2026-05-03T07:41:42.106Z</time></trkpt><trkpt lat="45.4002967" lon="10.7243483"><ele>109.0</ele><time>2026-05-03T07:41:43.106Z</time></trkpt><trkpt lat="45.4001983" lon="10.7242317"><ele>109.0</ele><time>2026-05-03T07:41:44.106Z</time></trkpt><trkpt lat="45.4000983" lon="10.7241167"><ele>109.0</ele><time>2026-05-03T07:41:45.106Z</time></trkpt><trkpt lat="45.4000083" lon="10.7239967"><ele>109.0</ele><time>2026-05-03T07:41:46.106Z</time></trkpt><trkpt lat="45.399915" lon="10.7238733"><ele>109.0</ele><time>2026-05-03T07:41:47.106Z</time></trkpt><trkpt lat="45.39982" lon="10.72375"><ele>109.0</ele><time>2026-05-03T07:41:48.106Z</time></trkpt><trkpt lat="45.3997233" lon="10.7236117"><ele>109.0</ele><time>2026-05-03T07:41:49.106Z</time></trkpt><trkpt lat="45.3996283" lon="10.7234517"><ele>109.0</ele><time>2026-05-03T07:41:50.106Z</time></trkpt><trkpt lat="45.3995317" lon="10.7232917"><ele>109.0</ele><time>2026-05-03T07:41:51.105Z</time></trkpt><trkpt lat="45.3994517" lon="10.72313"><ele>108.4</ele><time>2026-05-03T07:41:52.105Z</time></trkpt><trkpt lat="45.3993833" lon="10.7229867"><ele>107.80000000000001</ele><time>2026-05-03T07:41:53.106Z</time></trkpt><trkpt lat="45.3993233" lon="10.72286"><ele>107.19999999999999</ele><time>2026-05-03T07:41:54.106Z</time></trkpt><trkpt lat="45.399275" lon="10.7227417"><ele>106.6</ele><time>2026-05-03T07:41:55.106Z</time></trkpt><trkpt lat="45.3992417" lon="10.72263"><ele>106.0</ele><time>2026-05-03T07:41:56.106Z</time></trkpt><trkpt lat="45.3992333" lon="10.7225067"><ele>105.16666666666667</ele><time>2026-05-03T07:41:57.105Z</time></trkpt><trkpt lat="45.39925" lon="10.7223833"><ele>104.33333333333334</ele><time>2026-05-03T07:41:58.106Z</time></trkpt><trkpt lat="45.3992667" lon="10.7222567"><ele>103.5</ele><time>2026-05-03T07:41:59.106Z</time></trkpt><trkpt lat="45.3992567" lon="10.722135"><ele>102.66666666666666</ele><time>2026-05-03T07:42:00.105Z</time></trkpt><trkpt lat="45.3992" lon="10.7220367"><ele>101.83333333333333</ele><time>2026-05-03T07:42:01.105Z</time></trkpt><trkpt lat="45.3991183" lon="10.721985"><ele>101.0</ele><time>2026-05-03T07:42:02.106Z</time></trkpt><trkpt lat="45.398995" lon="10.7219633"><ele>101.0</ele><time>2026-05-03T07:42:03.106Z</time></trkpt><trkpt lat="45.3988633" lon="10.721925"><ele>101.0</ele><time>2026-05-03T07:42:04.106Z</time></trkpt><trkpt lat="45.3986883" lon="10.7218533"><ele>101.0</ele><time>2026-05-03T07:42:05.106Z</time></trkpt><trkpt lat="45.3984883" lon="10.7217783"><ele>100.66666666666666</ele><time>2026-05-03T07:42:06.106Z</time></trkpt><trkpt lat="45.398315" lon="10.721725"><ele>100.33333333333334</ele><time>2026-05-03T07:42:07.106Z</time></trkpt><trkpt lat="45.39816" lon="10.7216867"><ele>100.0</ele><time>2026-05-03T07:42:08.105Z</time></trkpt><trkpt lat="45.3980083" lon="10.72165"><ele>99.75</ele><time>2026-05-03T07:42:09.105Z</time></trkpt><trkpt lat="45.3978783" lon="10.72162"><ele>99.5</ele><time>2026-05-03T07:42:10.106Z</time></trkpt><trkpt lat="45.3977567" lon="10.7216"><ele>99.25</ele><time>2026-05-03T07:42:11.105Z</time></trkpt><trkpt lat="45.3976367" lon="10.72158"><ele>99.0</ele><time>2026-05-03T07:42:12.105Z</time></trkpt><trkpt lat="45.397515" lon="10.7215567"><ele>99.0</ele><time>2026-05-03T07:42:13.106Z</time></trkpt><trkpt lat="45.3973983" lon="10.721535"><ele>99.0</ele><time>2026-05-03T07:42:14.106Z</time></trkpt><trkpt lat="45.397285" lon="10.72151"><ele>99.0</ele><time>2026-05-03T07:42:15.106Z</time></trkpt><trkpt lat="45.3971633" lon="10.7214933"><ele>99.0</ele><time>2026-05-03T07:42:16.106Z</time></trkpt><trkpt lat="45.3970417" lon="10.7214733"><ele>99.0</ele><time>2026-05-03T07:42:17.106Z</time></trkpt><trkpt lat="45.39692" lon="10.721445"><ele>99.0</ele><time>2026-05-03T07:42:18.106Z</time></trkpt><trkpt lat="45.3967933" lon="10.7214217"><ele>99.0</ele><time>2026-05-03T07:42:19.105Z</time></trkpt><trkpt lat="45.39667" lon="10.721395"><ele>99.0</ele><time>2026-05-03T07:42:20.105Z</time></trkpt><trkpt lat="45.3965433" lon="10.7213683"><ele>99.0</ele><time>2026-05-03T07:42:21.105Z</time></trkpt><trkpt lat="45.3964183" lon="10.7213467"><ele>99.0</ele><time>2026-05-03T07:42:22.105Z</time></trkpt><trkpt lat="45.396295" lon="10.7213283"><ele>99.0</ele><time>2026-05-03T07:42:23.106Z</time></trkpt><trkpt lat="45.3961683" lon="10.7213067"><ele>99.0</ele><time>2026-05-03T07:42:24.106Z</time></trkpt><trkpt lat="45.3960433" lon="10.7212817"><ele>98.5</ele><time>2026-05-03T07:42:25.105Z</time></trkpt><trkpt lat="45.3959183" lon="10.7212633"><ele>98.0</ele><time>2026-05-03T07:42:26.106Z</time></trkpt><trkpt lat="45.3957933" lon="10.7212433"><ele>97.5</ele><time>2026-05-03T07:42:27.106Z</time></trkpt><trkpt lat="45.39567" lon="10.7212283"><ele>97.0</ele><time>2026-05-03T07:42:28.106Z</time></trkpt><trkpt lat="45.3955417" lon="10.7212167"><ele>96.25</ele><time>2026-05-03T07:42:29.106Z</time></trkpt><trkpt lat="45.3954167" lon="10.7212133"><ele>95.5</ele><time>2026-05-03T07:42:30.106Z</time></trkpt><trkpt lat="45.3952883" lon="10.7212217"><ele>94.75</ele><time>2026-05-03T07:42:31.106Z</time></trkpt><trkpt lat="45.3951533" lon="10.7212333"><ele>94.0</ele><time>2026-05-03T07:42:32.106Z</time></trkpt><trkpt lat="45.395025" lon="10.721255"><ele>94.0</ele><time>2026-05-03T07:42:33.106Z</time></trkpt><trkpt lat="45.394895" lon="10.7212833"><ele>94.0</ele><time>2026-05-03T07:42:34.106Z</time></trkpt><trkpt lat="45.394765" lon="10.721305"><ele>94.0</ele><time>2026-05-03T07:42:35.106Z</time></trkpt><trkpt lat="45.3946333" lon="10.7213217"><ele>94.0</ele><time>2026-05-03T07:42:36.106Z</time></trkpt><trkpt lat="45.3945017" lon="10.721345"><ele>94.25</ele><time>2026-05-03T07:42:37.106Z</time></trkpt><trkpt lat="45.394365" lon="10.7213667"><ele>94.5</ele><time>2026-05-03T07:42:38.106Z</time></trkpt><trkpt lat="45.3942233" lon="10.7213983"><ele>94.75</ele><time>2026-05-03T07:42:39.106Z</time></trkpt><trkpt lat="45.3940767" lon="10.721425"><ele>95.0</ele><time>2026-05-03T07:42:40.106Z</time></trkpt><trkpt lat="45.3939267" lon="10.7214533"><ele>94.25</ele><time>2026-05-03T07:42:41.106Z</time></trkpt><trkpt lat="45.393785" lon="10.7214783"><ele>93.5</ele><time>2026-05-03T07:42:42.106Z</time></trkpt><trkpt lat="45.3936533" lon="10.721505"><ele>92.75</ele><time>2026-05-03T07:42:43.106Z</time></trkpt><trkpt lat="45.393515" lon="10.7215367"><ele>92.0</ele><time>2026-05-03T07:42:44.106Z</time></trkpt><trkpt lat="45.3933717" lon="10.7215667"><ele>92.0</ele><time>2026-05-03T07:42:45.106Z</time></trkpt><trkpt lat="45.3932383" lon="10.7215967"><ele>92.0</ele><time>2026-05-03T07:42:46.106Z</time></trkpt><trkpt lat="45.3931033" lon="10.7216267"><ele>92.0</ele><time>2026-05-03T07:42:47.106Z</time></trkpt><trkpt lat="45.3929667" lon="10.721665"><ele>92.0</ele><time>2026-05-03T07:42:48.105Z</time></trkpt><trkpt lat="45.3928383" lon="10.7217133"><ele>91.5</ele><time>2026-05-03T07:42:49.105Z</time></trkpt><trkpt lat="45.3927117" lon="10.7217683"><ele>91.0</ele><time>2026-05-03T07:42:50.105Z</time></trkpt><trkpt lat="45.3925933" lon="10.721835"><ele>90.5</ele><time>2026-05-03T07:42:51.106Z</time></trkpt><trkpt lat="45.39248" lon="10.7219167"><ele>90.0</ele><time>2026-05-03T07:42:52.106Z</time></trkpt><trkpt lat="45.3923733" lon="10.7219967"><ele>90.2</ele><time>2026-05-03T07:42:53.105Z</time></trkpt><trkpt lat="45.3922817" lon="10.7220833"><ele>90.4</ele><time>2026-05-03T07:42:54.106Z</time></trkpt><trkpt lat="45.3921917" lon="10.7221667"><ele>90.6</ele><time>2026-05-03T07:42:55.105Z</time></trkpt><trkpt lat="45.39211" lon="10.7222567"><ele>90.8</ele><time>2026-05-03T07:42:56.106Z</time></trkpt><trkpt lat="45.3920417" lon="10.722325"><ele>91.0</ele><time>2026-05-03T07:42:57.105Z</time></trkpt><trkpt lat="45.39198" lon="10.7223767"><ele>91.0</ele><time>2026-05-03T07:42:58.106Z</time></trkpt><trkpt lat="45.3918883" lon="10.7224017"><ele>91.0</ele><time>2026-05-03T07:43:00.106Z</time></trkpt><trkpt lat="45.3918417" lon="10.72233"><ele>91.0</ele><time>2026-05-03T07:43:02.105Z</time></trkpt><trkpt lat="45.3917967" lon="10.7222133"><ele>91.0</ele><time>2026-05-03T07:43:04.106Z</time></trkpt><trkpt lat="45.3917683" lon="10.7221283"><ele>91.0</ele><time>2026-05-03T07:43:05.105Z</time></trkpt><trkpt lat="45.3917367" lon="10.72204"><ele>91.0</ele><time>2026-05-03T07:43:06.106Z</time></trkpt><trkpt lat="45.3917033" lon="10.7219483"><ele>90.4</ele><time>2026-05-03T07:43:07.106Z</time></trkpt><trkpt lat="45.3916683" lon="10.7218417"><ele>89.8</ele><time>2026-05-03T07:43:08.106Z</time></trkpt><trkpt lat="45.3916317" lon="10.72173"><ele>89.2</ele><time>2026-05-03T07:43:09.106Z</time></trkpt><trkpt lat="45.3915883" lon="10.72162"><ele>88.60000000000001</ele><time>2026-05-03T07:43:10.106Z</time></trkpt><trkpt lat="45.3915333" lon="10.7214967"><ele>88.0</ele><time>2026-05-03T07:43:11.106Z</time></trkpt><trkpt lat="45.3914783" lon="10.72137"><ele>88.0</ele><time>2026-05-03T07:43:12.106Z</time></trkpt><trkpt lat="45.3914233" lon="10.7212517"><ele>88.0</ele><time>2026-05-03T07:43:13.106Z</time></trkpt><trkpt lat="45.3913717" lon="10.7211217"><ele>88.0</ele><time>2026-05-03T07:43:14.106Z</time></trkpt><trkpt lat="45.391315" lon="10.7209883"><ele>88.0</ele><time>2026-05-03T07:43:15.106Z</time></trkpt><trkpt lat="45.3912617" lon="10.7208567"><ele>88.0</ele><time>2026-05-03T07:43:16.105Z</time></trkpt><trkpt lat="45.3912067" lon="10.72072"><ele>88.2</ele><time>2026-05-03T07:43:17.106Z</time></trkpt><trkpt lat="45.3911567" lon="10.720595"><ele>88.4</ele><time>2026-05-03T07:43:18.105Z</time></trkpt><trkpt lat="45.3910983" lon="10.720455"><ele>88.60000000000001</ele><time>2026-05-03T07:43:19.106Z</time></trkpt><trkpt lat="45.3910417" lon="10.7203233"><ele>88.80000000000001</ele><time>2026-05-03T07:43:20.106Z</time></trkpt><trkpt lat="45.39099" lon="10.7201867"><ele>89.0</ele><time>2026-05-03T07:43:21.106Z</time></trkpt><trkpt lat="45.390935" lon="10.7200533"><ele>89.0</ele><time>2026-05-03T07:43:22.106Z</time></trkpt><trkpt lat="45.3908817" lon="10.719915"><ele>89.0</ele><time>2026-05-03T07:43:23.106Z</time></trkpt><trkpt lat="45.3908283" lon="10.7197717"><ele>89.0</ele><time>2026-05-03T07:43:24.105Z</time></trkpt><trkpt lat="45.39078" lon="10.7196217"><ele>89.0</ele><time>2026-05-03T07:43:25.106Z</time></trkpt><trkpt lat="45.3907283" lon="10.719475"><ele>88.5</ele><time>2026-05-03T07:43:26.106Z</time></trkpt><trkpt lat="45.390675" lon="10.719325"><ele>88.0</ele><time>2026-05-03T07:43:27.106Z</time></trkpt><trkpt lat="45.3906233" lon="10.7191717"><ele>87.5</ele><time>2026-05-03T07:43:28.106Z</time></trkpt><trkpt lat="45.3905733" lon="10.71902"><ele>87.0</ele><time>2026-05-03T07:43:29.106Z</time></trkpt><trkpt lat="45.3905217" lon="10.7188667"><ele>87.0</ele><time>2026-05-03T07:43:30.106Z</time></trkpt><trkpt lat="45.3904667" lon="10.7186983"><ele>87.0</ele><time>2026-05-03T07:43:31.106Z</time></trkpt><trkpt lat="45.3904117" lon="10.71852"><ele>87.0</ele><time>2026-05-03T07:43:32.106Z</time></trkpt><trkpt lat="45.3903583" lon="10.7183467"><ele>87.0</ele><time>2026-05-03T07:43:33.106Z</time></trkpt><trkpt lat="45.3903067" lon="10.718175"><ele>87.0</ele><time>2026-05-03T07:43:34.106Z</time></trkpt><trkpt lat="45.3902583" lon="10.71801"><ele>87.0</ele><time>2026-05-03T07:43:35.105Z</time></trkpt><trkpt lat="45.3902133" lon="10.7178583"><ele>87.0</ele><time>2026-05-03T07:43:36.106Z</time></trkpt><trkpt lat="45.39017" lon="10.71772"><ele>87.0</ele><time>2026-05-03T07:43:37.106Z</time></trkpt><trkpt lat="45.3901333" lon="10.7176"><ele>87.0</ele><time>2026-05-03T07:43:38.105Z</time></trkpt><trkpt lat="45.3900967" lon="10.7174917"><ele>87.0</ele><time>2026-05-03T07:43:39.106Z</time></trkpt><trkpt lat="45.390065" lon="10.7173867"><ele>87.0</ele><time>2026-05-03T07:43:40.106Z</time></trkpt><trkpt lat="45.3900417" lon="10.7172933"><ele>87.0</ele><time>2026-05-03T07:43:41.106Z</time></trkpt><trkpt lat="45.390015" lon="10.7171983"><ele>87.0</ele><time>2026-05-03T07:43:42.105Z</time></trkpt><trkpt lat="45.3899817" lon="10.717095"><ele>87.0</ele><time>2026-05-03T07:43:43.106Z</time></trkpt><trkpt lat="45.3899467" lon="10.7169817"><ele>87.0</ele><time>2026-05-03T07:43:44.106Z</time></trkpt><trkpt lat="45.3899117" lon="10.7168717"><ele>87.0</ele><time>2026-05-03T07:43:45.106Z</time></trkpt><trkpt lat="45.38988" lon="10.7167617"><ele>87.0</ele><time>2026-05-03T07:43:46.106Z</time></trkpt><trkpt lat="45.3898583" lon="10.7166617"><ele>87.0</ele><time>2026-05-03T07:43:47.106Z</time></trkpt><trkpt lat="45.38983" lon="10.7165233"><ele>87.0</ele><time>2026-05-03T07:43:49.106Z</time></trkpt><trkpt lat="45.3897983" lon="10.7163933"><ele>87.0</ele><time>2026-05-03T07:43:52.106Z</time></trkpt><trkpt lat="45.38978" lon="10.7162467"><ele>87.0</ele><time>2026-05-03T07:43:54.106Z</time></trkpt><trkpt lat="45.3897783" lon="10.7161517"><ele>87.0</ele><time>2026-05-03T07:43:55.105Z</time></trkpt><trkpt lat="45.3897767" lon="10.7160617"><ele>87.0</ele><time>2026-05-03T07:43:56.106Z</time></trkpt><trkpt lat="45.3897633" lon="10.71592"><ele>87.0</ele><time>2026-05-03T07:43:58.106Z</time></trkpt><trkpt lat="45.3897083" lon="10.71582"><ele>87.0</ele><time>2026-05-03T07:44:00.106Z</time></trkpt><trkpt lat="45.38965" lon="10.715755"><ele>87.0</ele><time>2026-05-03T07:44:02.106Z</time></trkpt><trkpt lat="45.3895983" lon="10.7157017"><ele>87.42857142857143</ele><time>2026-05-03T07:44:05.106Z</time></trkpt><trkpt lat="45.38954" lon="10.7156467"><ele>87.85714285714286</ele><time>2026-05-03T07:44:07.106Z</time></trkpt><trkpt lat="45.3894767" lon="10.7155917"><ele>88.28571428571428</ele><time>2026-05-03T07:44:09.106Z</time></trkpt><trkpt lat="45.3894033" lon="10.7155467"><ele>88.71428571428572</ele><time>2026-05-03T07:44:11.106Z</time></trkpt><trkpt lat="45.3893241" lon="10.7155157"><ele>89.14285714285715</ele><time>2026-05-03T07:44:13.106Z</time></trkpt><trkpt lat="45.389265" lon="10.7154783"><ele>89.57142857142857</ele><time>2026-05-03T07:44:16.105Z</time></trkpt><trkpt lat="45.3892067" lon="10.7154167"><ele>90.0</ele><time>2026-05-03T07:44:19.106Z</time></trkpt><trkpt lat="45.3891917" lon="10.715305"><ele>89.8</ele><time>2026-05-03T07:44:21.106Z</time></trkpt><trkpt lat="45.3892017" lon="10.715155"><ele>89.6</ele><time>2026-05-03T07:44:23.106Z</time></trkpt><trkpt lat="45.3892283" lon="10.71501"><ele>89.4</ele><time>2026-05-03T07:44:25.106Z</time></trkpt><trkpt lat="45.3892417" lon="10.714895"><ele>89.2</ele><time>2026-05-03T07:44:27.106Z</time></trkpt><trkpt lat="45.389255" lon="10.7147817"><ele>89.0</ele><time>2026-05-03T07:44:29.106Z</time></trkpt><trkpt lat="45.38928" lon="10.7146767"><ele>89.0</ele><time>2026-05-03T07:44:31.105Z</time></trkpt><trkpt lat="45.3892783" lon="10.7145417"><ele>89.0</ele><time>2026-05-03T07:44:34.106Z</time></trkpt><trkpt lat="45.3892783" lon="10.7144417"><ele>89.0</ele><time>2026-05-03T07:44:36.105Z</time></trkpt><trkpt lat="45.3892533" lon="10.714355"><ele>89.0</ele><time>2026-05-03T07:44:39.106Z</time></trkpt><trkpt lat="45.3891933" lon="10.7143183"><ele>89.0</ele><time>2026-05-03T07:45:04.106Z</time></trkpt><trkpt lat="45.38912" lon="10.7143033"><ele>89.0</ele><time>2026-05-03T07:45:08.106Z</time></trkpt><trkpt lat="45.3890017" lon="10.7142767"><ele>89.33333333333334</ele><time>2026-05-03T07:45:10.106Z</time></trkpt><trkpt lat="45.388935" lon="10.7142533"><ele>89.66666666666667</ele><time>2026-05-03T07:45:11.106Z</time></trkpt><trkpt lat="45.3888533" lon="10.7142367"><ele>90.0</ele><time>2026-05-03T07:45:12.106Z</time></trkpt><trkpt lat="45.3887667" lon="10.7142167"><ele>90.33333333333333</ele><time>2026-05-03T07:45:13.106Z</time></trkpt><trkpt lat="45.3886833" lon="10.7141883"><ele>90.66666666666666</ele><time>2026-05-03T07:45:14.105Z</time></trkpt><trkpt lat="45.38861" lon="10.7141617"><ele>91.0</ele><time>2026-05-03T07:45:15.106Z</time></trkpt><trkpt lat="45.3885433" lon="10.7141283"><ele>91.0</ele><time>2026-05-03T07:45:16.106Z</time></trkpt><trkpt lat="45.388465" lon="10.7140817"><ele>91.0</ele><time>2026-05-03T07:45:17.105Z</time></trkpt><trkpt lat="45.388395" lon="10.7140283"><ele>91.0</ele><time>2026-05-03T07:45:18.106Z</time></trkpt><trkpt lat="45.388325" lon="10.7139517"><ele>91.0</ele><time>2026-05-03T07:45:19.106Z</time></trkpt><trkpt lat="45.3882417" lon="10.71386"><ele>91.0</ele><time>2026-05-03T07:45:20.105Z</time></trkpt><trkpt lat="45.388155" lon="10.7137717"><ele>91.0</ele><time>2026-05-03T07:45:21.106Z</time></trkpt><trkpt lat="45.38808" lon="10.7136733"><ele>91.0</ele><time>2026-05-03T07:45:22.106Z</time></trkpt><trkpt lat="45.3880083" lon="10.7135817"><ele>91.0</ele><time>2026-05-03T07:45:23.106Z</time></trkpt><trkpt lat="45.3879467" lon="10.71349"><ele>91.0</ele><time>2026-05-03T07:45:24.106Z</time></trkpt><trkpt lat="45.3878833" lon="10.7134017"><ele>91.0</ele><time>2026-05-03T07:45:25.106Z</time></trkpt><trkpt lat="45.3878333" lon="10.7132983"><ele>90.66666666666666</ele><time>2026-05-03T07:45:26.106Z</time></trkpt><trkpt lat="45.3877933" lon="10.7132083"><ele>90.33333333333333</ele><time>2026-05-03T07:45:27.106Z</time></trkpt><trkpt lat="45.3877683" lon="10.7131117"><ele>90.0</ele><time>2026-05-03T07:45:28.106Z</time></trkpt><trkpt lat="45.3877583" lon="10.7129983"><ele>89.66666666666667</ele><time>2026-05-03T07:45:29.105Z</time></trkpt><trkpt lat="45.387755" lon="10.71288"><ele>89.33333333333334</ele><time>2026-05-03T07:45:30.106Z</time></trkpt><trkpt lat="45.3877583" lon="10.7127383"><ele>89.0</ele><time>2026-05-03T07:45:31.106Z</time></trkpt><trkpt lat="45.387765" lon="10.712585"><ele>88.25</ele><time>2026-05-03T07:45:32.106Z</time></trkpt><trkpt lat="45.3877717" lon="10.71242"><ele>87.5</ele><time>2026-05-03T07:45:33.106Z</time></trkpt><trkpt lat="45.387775" lon="10.71225"><ele>86.75</ele><time>2026-05-03T07:45:34.106Z</time></trkpt><trkpt lat="45.3877783" lon="10.7120933"><ele>86.0</ele><time>2026-05-03T07:45:35.105Z</time></trkpt><trkpt lat="45.3877833" lon="10.7119433"><ele>85.4</ele><time>2026-05-03T07:45:36.106Z</time></trkpt><trkpt lat="45.3877917" lon="10.7117867"><ele>84.8</ele><time>2026-05-03T07:45:37.106Z</time></trkpt><trkpt lat="45.387795" lon="10.7116383"><ele>84.2</ele><time>2026-05-03T07:45:38.106Z</time></trkpt><trkpt lat="45.3877983" lon="10.7114933"><ele>83.60000000000001</ele><time>2026-05-03T07:45:39.106Z</time></trkpt><trkpt lat="45.3878017" lon="10.7113517"><ele>83.0</ele><time>2026-05-03T07:45:40.106Z</time></trkpt><trkpt lat="45.387805" lon="10.7111983"><ele>82.80000000000001</ele><time>2026-05-03T07:45:41.106Z</time></trkpt><trkpt lat="45.3878033" lon="10.71105"><ele>82.6</ele><time>2026-05-03T07:45:42.106Z</time></trkpt><trkpt lat="45.3878117" lon="10.7109"><ele>82.4</ele><time>2026-05-03T07:45:43.106Z</time></trkpt><trkpt lat="45.3878167" lon="10.710755"><ele>82.19999999999999</ele><time>2026-05-03T07:45:44.106Z</time></trkpt><trkpt lat="45.3878267" lon="10.7105983"><ele>82.0</ele><time>2026-05-03T07:45:45.106Z</time></trkpt><trkpt lat="45.3878283" lon="10.710445"><ele>82.0</ele><time>2026-05-03T07:45:46.106Z</time></trkpt><trkpt lat="45.3878333" lon="10.7102933"><ele>82.0</ele><time>2026-05-03T07:45:47.106Z</time></trkpt><trkpt lat="45.3878367" lon="10.71014"><ele>82.0</ele><time>2026-05-03T07:45:48.106Z</time></trkpt><trkpt lat="45.3878367" lon="10.7099783"><ele>82.0</ele><time>2026-05-03T07:45:49.106Z</time></trkpt><trkpt lat="45.3878417" lon="10.7098233"><ele>82.0</ele><time>2026-05-03T07:45:50.106Z</time></trkpt><trkpt lat="45.3878483" lon="10.7096583"><ele>81.83333333333333</ele><time>2026-05-03T07:45:51.106Z</time></trkpt><trkpt lat="45.387855" lon="10.7095083"><ele>81.66666666666666</ele><time>2026-05-03T07:45:52.105Z</time></trkpt><trkpt lat="45.3878617" lon="10.70937"><ele>81.5</ele><time>2026-05-03T07:45:53.106Z</time></trkpt><trkpt lat="45.3878683" lon="10.7092433"><ele>81.33333333333333</ele><time>2026-05-03T07:45:54.106Z</time></trkpt><trkpt lat="45.387875" lon="10.7091267"><ele>81.16666666666667</ele><time>2026-05-03T07:45:55.106Z</time></trkpt><trkpt lat="45.3878767" lon="10.7090233"><ele>81.0</ele><time>2026-05-03T07:45:56.106Z</time></trkpt><trkpt lat="45.3878733" lon="10.708855"><ele>80.6</ele><time>2026-05-03T07:45:58.106Z</time></trkpt><trkpt lat="45.3878033" lon="10.7087033"><ele>80.19999999999999</ele><time>2026-05-03T07:46:00.106Z</time></trkpt><trkpt lat="45.387745" lon="10.7086033"><ele>79.80000000000001</ele><time>2026-05-03T07:46:01.106Z</time></trkpt><trkpt lat="45.3876817" lon="10.7084917"><ele>79.4</ele><time>2026-05-03T07:46:02.106Z</time></trkpt><trkpt lat="45.38763" lon="10.7083833"><ele>79.0</ele><time>2026-05-03T07:46:03.106Z</time></trkpt><trkpt lat="45.3875767" lon="10.708285"><ele>79.0</ele><time>2026-05-03T07:46:04.106Z</time></trkpt><trkpt lat="45.3875317" lon="10.7082"><ele>79.0</ele><time>2026-05-03T07:46:05.106Z</time></trkpt><trkpt lat="45.387495" lon="10.7081217"><ele>79.0</ele><time>2026-05-03T07:46:06.106Z</time></trkpt><trkpt lat="45.3874567" lon="10.7080067"><ele>79.0</ele><time>2026-05-03T07:46:08.106Z</time></trkpt><trkpt lat="45.387435" lon="10.7078767"><ele>79.0</ele><time>2026-05-03T07:46:10.105Z</time></trkpt><trkpt lat="45.3874033" lon="10.70778"><ele>79.0</ele><time>2026-05-03T07:46:11.105Z</time></trkpt><trkpt lat="45.3873617" lon="10.7076633"><ele>78.4</ele><time>2026-05-03T07:46:12.106Z</time></trkpt><trkpt lat="45.387325" lon="10.70753"><ele>77.80000000000001</ele><time>2026-05-03T07:46:13.106Z</time></trkpt><trkpt lat="45.3872817" lon="10.7073983"><ele>77.19999999999999</ele><time>2026-05-03T07:46:14.106Z</time></trkpt><trkpt lat="45.3872433" lon="10.7072633"><ele>76.6</ele><time>2026-05-03T07:46:15.105Z</time></trkpt><trkpt lat="45.387215" lon="10.7071183"><ele>76.0</ele><time>2026-05-03T07:46:16.106Z</time></trkpt><trkpt lat="45.3872" lon="10.7069883"><ele>75.33333333333333</ele><time>2026-05-03T07:46:17.106Z</time></trkpt><trkpt lat="45.3871883" lon="10.7068717"><ele>74.66666666666666</ele><time>2026-05-03T07:46:18.106Z</time></trkpt><trkpt lat="45.387185" lon="10.7067733"><ele>74.0</ele><time>2026-05-03T07:46:19.106Z</time></trkpt><trkpt lat="45.3871883" lon="10.7066767"><ele>73.33333333333333</ele><time>2026-05-03T07:46:20.106Z</time></trkpt><trkpt lat="45.3871867" lon="10.706575"><ele>72.66666666666667</ele><time>2026-05-03T07:46:21.106Z</time></trkpt><trkpt lat="45.387175" lon="10.7064017"><ele>72.0</ele><time>2026-05-03T07:46:23.106Z</time></trkpt><trkpt lat="45.387165" lon="10.7062967"><ele>72.0</ele><time>2026-05-03T07:46:24.106Z</time></trkpt><trkpt lat="45.387155" lon="10.70616"><ele>72.0</ele><time>2026-05-03T07:46:25.106Z</time></trkpt><trkpt lat="45.3871533" lon="10.7059833"><ele>72.0</ele><time>2026-05-03T07:46:26.106Z</time></trkpt><trkpt lat="45.3871467" lon="10.705775"><ele>72.0</ele><time>2026-05-03T07:46:27.106Z</time></trkpt><trkpt lat="45.387135" lon="10.7055517"><ele>72.0</ele><time>2026-05-03T07:46:28.106Z</time></trkpt><trkpt lat="45.3871233" lon="10.7053333"><ele>72.0</ele><time>2026-05-03T07:46:29.106Z</time></trkpt><trkpt lat="45.387115" lon="10.7051283"><ele>72.0</ele><time>2026-05-03T07:46:30.106Z</time></trkpt><trkpt lat="45.3871033" lon="10.70491"><ele>72.25</ele><time>2026-05-03T07:46:31.106Z</time></trkpt><trkpt lat="45.3870967" lon="10.7046867"><ele>72.5</ele><time>2026-05-03T07:46:32.106Z</time></trkpt><trkpt lat="45.3870917" lon="10.70447"><ele>72.75</ele><time>2026-05-03T07:46:33.106Z</time></trkpt><trkpt lat="45.38708" lon="10.704285"><ele>73.0</ele><time>2026-05-03T07:46:34.106Z</time></trkpt><trkpt lat="45.38707" lon="10.7041"><ele>73.0</ele><time>2026-05-03T07:46:35.106Z</time></trkpt><trkpt lat="45.3870667" lon="10.7039267"><ele>73.0</ele><time>2026-05-03T07:46:36.105Z</time></trkpt><trkpt lat="45.3870483" lon="10.703745"><ele>73.0</ele><time>2026-05-03T07:46:37.106Z</time></trkpt><trkpt lat="45.3870033" lon="10.70356"><ele>73.0</ele><time>2026-05-03T07:46:38.106Z</time></trkpt><trkpt lat="45.3869433" lon="10.7033467"><ele>72.66666666666666</ele><time>2026-05-03T07:46:39.106Z</time></trkpt><trkpt lat="45.3868767" lon="10.70313"><ele>72.33333333333333</ele><time>2026-05-03T07:46:40.106Z</time></trkpt><trkpt lat="45.3868117" lon="10.702905"><ele>72.0</ele><time>2026-05-03T07:46:41.106Z</time></trkpt><trkpt lat="45.3867433" lon="10.702685"><ele>72.66666666666667</ele><time>2026-05-03T07:46:42.106Z</time></trkpt><trkpt lat="45.3866817" lon="10.70248"><ele>73.33333333333334</ele><time>2026-05-03T07:46:43.106Z</time></trkpt><trkpt lat="45.3866183" lon="10.702285"><ele>74.0</ele><time>2026-05-03T07:46:44.105Z</time></trkpt><trkpt lat="45.38657" lon="10.7020883"><ele>73.0</ele><time>2026-05-03T07:46:45.105Z</time></trkpt><trkpt lat="45.3865367" lon="10.701865"><ele>72.0</ele><time>2026-05-03T07:46:46.106Z</time></trkpt><trkpt lat="45.3865117" lon="10.7016233"><ele>71.0</ele><time>2026-05-03T07:46:47.106Z</time></trkpt><trkpt lat="45.3864933" lon="10.7013917"><ele>71.0</ele><time>2026-05-03T07:46:48.106Z</time></trkpt><trkpt lat="45.3864767" lon="10.7011667"><ele>71.0</ele><time>2026-05-03T07:46:49.106Z</time></trkpt><trkpt lat="45.3864633" lon="10.7009467"><ele>71.0</ele><time>2026-05-03T07:46:50.106Z</time></trkpt><trkpt lat="45.3864467" lon="10.7007333"><ele>70.2</ele><time>2026-05-03T07:46:51.106Z</time></trkpt><trkpt lat="45.3864333" lon="10.70054"><ele>69.39999999999999</ele><time>2026-05-03T07:46:52.106Z</time></trkpt><trkpt lat="45.386415" lon="10.7003733"><ele>68.6</ele><time>2026-05-03T07:46:53.106Z</time></trkpt><trkpt lat="45.3864017" lon="10.7002283"><ele>67.8</ele><time>2026-05-03T07:46:54.106Z</time></trkpt><trkpt lat="45.3863867" lon="10.7001017"><ele>67.0</ele><time>2026-05-03T07:46:55.106Z</time></trkpt><trkpt lat="45.3863567" lon="10.69998"><ele>66.85714285714286</ele><time>2026-05-03T07:46:56.106Z</time></trkpt><trkpt lat="45.3863283" lon="10.6998667"><ele>66.71428571428571</ele><time>2026-05-03T07:46:57.105Z</time></trkpt><trkpt lat="45.3863" lon="10.6997717"><ele>66.57142857142857</ele><time>2026-05-03T07:46:58.106Z</time></trkpt><trkpt lat="45.3862633" lon="10.6996967"><ele>66.42857142857143</ele><time>2026-05-03T07:46:59.106Z</time></trkpt><trkpt lat="45.38622" lon="10.69963"><ele>66.28571428571429</ele><time>2026-05-03T07:47:00.106Z</time></trkpt><trkpt lat="45.3861717" lon="10.6995717"><ele>66.14285714285714</ele><time>2026-05-03T07:47:01.106Z</time></trkpt><trkpt lat="45.386115" lon="10.69953"><ele>66.0</ele><time>2026-05-03T07:47:02.106Z</time></trkpt><trkpt lat="45.38605" lon="10.699495"><ele>66.0</ele><time>2026-05-03T07:47:03.106Z</time></trkpt><trkpt lat="45.3859667" lon="10.69948"><ele>66.0</ele><time>2026-05-03T07:47:04.106Z</time></trkpt><trkpt lat="45.38589" lon="10.6994633"><ele>66.0</ele><time>2026-05-03T07:47:05.106Z</time></trkpt><trkpt lat="45.385815" lon="10.6994467"><ele>66.0</ele><time>2026-05-03T07:47:06.106Z</time></trkpt><trkpt lat="45.3857367" lon="10.6994167"><ele>66.0</ele><time>2026-05-03T07:47:07.106Z</time></trkpt><trkpt lat="45.385655" lon="10.6993883"><ele>66.0</ele><time>2026-05-03T07:47:08.106Z</time></trkpt><trkpt lat="45.3855683" lon="10.6993683"><ele>66.16666666666667</ele><time>2026-05-03T07:47:09.106Z</time></trkpt><trkpt lat="45.3854883" lon="10.69935"><ele>66.33333333333333</ele><time>2026-05-03T07:47:10.106Z</time></trkpt><trkpt lat="45.3854217" lon="10.699335"><ele>66.5</ele><time>2026-05-03T07:47:11.106Z</time></trkpt><trkpt lat="45.3853217" lon="10.69931"><ele>66.66666666666666</ele><time>2026-05-03T07:47:13.106Z</time></trkpt><trkpt lat="45.3852633" lon="10.6992633"><ele>66.83333333333333</ele><time>2026-05-03T07:47:16.106Z</time></trkpt><trkpt lat="45.38525" lon="10.699155"><ele>67.0</ele><time>2026-05-03T07:47:18.106Z</time></trkpt><trkpt lat="45.38525" lon="10.6990633"><ele>67.0</ele><time>2026-05-03T07:47:19.106Z</time></trkpt><trkpt lat="45.3852533" lon="10.6989517"><ele>67.0</ele><time>2026-05-03T07:47:20.106Z</time></trkpt><trkpt lat="45.3852517" lon="10.6988333"><ele>67.0</ele><time>2026-05-03T07:47:21.106Z</time></trkpt><trkpt lat="45.3852533" lon="10.6987217"><ele>67.0</ele><time>2026-05-03T07:47:22.106Z</time></trkpt><trkpt lat="45.3852617" lon="10.69862"><ele>67.0</ele><time>2026-05-03T07:47:23.106Z</time></trkpt><trkpt lat="45.3852617" lon="10.6984583"><ele>67.0</ele><time>2026-05-03T07:47:25.106Z</time></trkpt><trkpt lat="45.38527" lon="10.69829"><ele>66.8</ele><time>2026-05-03T07:47:27.106Z</time></trkpt><trkpt lat="45.3852733" lon="10.698185"><ele>66.6</ele><time>2026-05-03T07:47:28.106Z</time></trkpt><trkpt lat="45.38527" lon="10.6980567"><ele>66.39999999999999</ele><time>2026-05-03T07:47:29.106Z</time></trkpt><trkpt lat="45.3852717" lon="10.6979183"><ele>66.2</ele><time>2026-05-03T07:47:30.105Z</time></trkpt><trkpt lat="45.3852467" lon="10.697785"><ele>66.0</ele><time>2026-05-03T07:47:31.106Z</time></trkpt><trkpt lat="45.3852083" lon="10.697665"><ele>66.0</ele><time>2026-05-03T07:47:32.106Z</time></trkpt><trkpt lat="45.3851517" lon="10.6975667"><ele>66.0</ele><time>2026-05-03T07:47:33.106Z</time></trkpt><trkpt lat="45.38507" lon="10.6974833"><ele>66.0</ele><time>2026-05-03T07:47:34.105Z</time></trkpt><trkpt lat="45.3849833" lon="10.6974"><ele>66.0</ele><time>2026-05-03T07:47:35.106Z</time></trkpt><trkpt lat="45.3848983" lon="10.6973233"><ele>66.0</ele><time>2026-05-03T07:47:36.106Z</time></trkpt><trkpt lat="45.3848133" lon="10.69725"><ele>66.0</ele><time>2026-05-03T07:47:37.106Z</time></trkpt><trkpt lat="45.3847283" lon="10.69719"><ele>66.0</ele><time>2026-05-03T07:47:38.105Z</time></trkpt><trkpt lat="45.384655" lon="10.6971283"><ele>66.0</ele><time>2026-05-03T07:47:39.106Z</time></trkpt><trkpt lat="45.3845867" lon="10.6970733"><ele>66.0</ele><time>2026-05-03T07:47:40.106Z</time></trkpt><trkpt lat="45.3845267" lon="10.6970317"><ele>66.0</ele><time>2026-05-03T07:47:41.106Z</time></trkpt><trkpt lat="45.3844683" lon="10.696995"><ele>66.0</ele><time>2026-05-03T07:47:42.105Z</time></trkpt><trkpt lat="45.38439" lon="10.6969067"><ele>65.39999999999999</ele><time>2026-05-03T07:47:44.106Z</time></trkpt><trkpt lat="45.3843767" lon="10.6967367"><ele>64.8</ele><time>2026-05-03T07:47:46.105Z</time></trkpt><trkpt lat="45.3844" lon="10.69662"><ele>64.19999999999999</ele><time>2026-05-03T07:47:47.106Z</time></trkpt><trkpt lat="45.38442" lon="10.6964983"><ele>63.599999999999994</ele><time>2026-05-03T07:47:48.106Z</time></trkpt><trkpt lat="45.3844433" lon="10.6963767"><ele>63.0</ele><time>2026-05-03T07:47:49.105Z</time></trkpt><trkpt lat="45.3844633" lon="10.696255"><ele>63.0</ele><time>2026-05-03T07:47:50.106Z</time></trkpt><trkpt lat="45.384485" lon="10.696135"><ele>63.0</ele><time>2026-05-03T07:47:51.106Z</time></trkpt><trkpt lat="45.3845083" lon="10.696015"><ele>63.0</ele><time>2026-05-03T07:47:52.106Z</time></trkpt><trkpt lat="45.384525" lon="10.6959017"><ele>63.0</ele><time>2026-05-03T07:47:53.106Z</time></trkpt><trkpt lat="45.38454" lon="10.6957983"><ele>63.0</ele><time>2026-05-03T07:47:54.106Z</time></trkpt><trkpt lat="45.384555" lon="10.6957083"><ele>63.0</ele><time>2026-05-03T07:47:55.106Z</time></trkpt><trkpt lat="45.384565" lon="10.6955917"><ele>62.4</ele><time>2026-05-03T07:47:57.106Z</time></trkpt><trkpt lat="45.38452" lon="10.6954933"><ele>61.8</ele><time>2026-05-03T07:48:01.106Z</time></trkpt><trkpt lat="45.3844117" lon="10.69546"><ele>61.2</ele><time>2026-05-03T07:48:03.106Z</time></trkpt><trkpt lat="45.3843383" lon="10.6954367"><ele>60.6</ele><time>2026-05-03T07:48:04.106Z</time></trkpt><trkpt lat="45.3842533" lon="10.6954"><ele>60.0</ele><time>2026-05-03T07:48:05.106Z</time></trkpt><trkpt lat="45.3841567" lon="10.69536"><ele>60.0</ele><time>2026-05-03T07:48:06.105Z</time></trkpt><trkpt lat="45.3840733" lon="10.6953283"><ele>60.0</ele><time>2026-05-03T07:48:07.106Z</time></trkpt><trkpt lat="45.38399" lon="10.6953"><ele>60.0</ele><time>2026-05-03T07:48:08.106Z</time></trkpt><trkpt lat="45.3839017" lon="10.6952817"><ele>60.0</ele><time>2026-05-03T07:48:09.105Z</time></trkpt><trkpt lat="45.3838067" lon="10.6952767"><ele>60.0</ele><time>2026-05-03T07:48:10.106Z</time></trkpt><trkpt lat="45.3837033" lon="10.6952717"><ele>59.8</ele><time>2026-05-03T07:48:11.105Z</time></trkpt><trkpt lat="45.383605" lon="10.695265"><ele>59.6</ele><time>2026-05-03T07:48:12.106Z</time></trkpt><trkpt lat="45.3835083" lon="10.6952617"><ele>59.400000000000006</ele><time>2026-05-03T07:48:13.106Z</time></trkpt><trkpt lat="45.3834183" lon="10.6952567"><ele>59.2</ele><time>2026-05-03T07:48:14.105Z</time></trkpt><trkpt lat="45.383315" lon="10.695255"><ele>59.0</ele><time>2026-05-03T07:48:15.106Z</time></trkpt><trkpt lat="45.3832017" lon="10.6952783"><ele>59.0</ele><time>2026-05-03T07:48:16.106Z</time></trkpt><trkpt lat="45.3830933" lon="10.6952933"><ele>59.00000000000001</ele><time>2026-05-03T07:48:17.106Z</time></trkpt><trkpt lat="45.38299" lon="10.695315"><ele>59.00000000000001</ele><time>2026-05-03T07:48:18.105Z</time></trkpt><trkpt lat="45.382885" lon="10.695335"><ele>59.0</ele><time>2026-05-03T07:48:19.105Z</time></trkpt><trkpt lat="45.38278" lon="10.6953517"><ele>59.0</ele><time>2026-05-03T07:48:20.106Z</time></trkpt><trkpt lat="45.3826683" lon="10.6953733"><ele>58.6</ele><time>2026-05-03T07:48:21.106Z</time></trkpt><trkpt lat="45.3825567" lon="10.6954083"><ele>58.2</ele><time>2026-05-03T07:48:22.106Z</time></trkpt><trkpt lat="45.3824467" lon="10.6954383"><ele>57.800000000000004</ele><time>2026-05-03T07:48:23.106Z</time></trkpt><trkpt lat="45.3823533" lon="10.69548"><ele>57.400000000000006</ele><time>2026-05-03T07:48:24.106Z</time></trkpt><trkpt lat="45.38225" lon="10.6955233"><ele>57.0</ele><time>2026-05-03T07:48:25.106Z</time></trkpt><trkpt lat="45.3821533" lon="10.6955667"><ele>57.8</ele><time>2026-05-03T07:48:26.106Z</time></trkpt><trkpt lat="45.382065" lon="10.6956117"><ele>58.6</ele><time>2026-05-03T07:48:27.106Z</time></trkpt><trkpt lat="45.3819683" lon="10.6956517"><ele>59.39999999999999</ele><time>2026-05-03T07:48:28.105Z</time></trkpt><trkpt lat="45.3818733" lon="10.6957067"><ele>60.199999999999996</ele><time>2026-05-03T07:48:29.106Z</time></trkpt><trkpt lat="45.3817617" lon="10.6957767"><ele>61.0</ele><time>2026-05-03T07:48:30.106Z</time></trkpt><trkpt lat="45.381635" lon="10.6958533"><ele>61.0</ele><time>2026-05-03T07:48:31.106Z</time></trkpt><trkpt lat="45.3814967" lon="10.6959267"><ele>61.0</ele><time>2026-05-03T07:48:32.105Z</time></trkpt><trkpt lat="45.3813567" lon="10.69602"><ele>61.0</ele><time>2026-05-03T07:48:33.106Z</time></trkpt><trkpt lat="45.3812233" lon="10.696105"><ele>61.0</ele><time>2026-05-03T07:48:34.105Z</time></trkpt><trkpt lat="45.3810917" lon="10.6961867"><ele>61.0</ele><time>2026-05-03T07:48:35.106Z</time></trkpt><trkpt lat="45.380955" lon="10.6962733"><ele>61.0</ele><time>2026-05-03T07:48:36.106Z</time></trkpt><trkpt lat="45.3808217" lon="10.6963633"><ele>61.0</ele><time>2026-05-03T07:48:37.106Z</time></trkpt><trkpt lat="45.380695" lon="10.6964583"><ele>61.0</ele><time>2026-05-03T07:48:38.106Z</time></trkpt><trkpt lat="45.38057" lon="10.6965467"><ele>61.25</ele><time>2026-05-03T07:48:39.106Z</time></trkpt><trkpt lat="45.3804483" lon="10.6966283"><ele>61.5</ele><time>2026-05-03T07:48:40.106Z</time></trkpt><trkpt lat="45.38032" lon="10.696705"><ele>61.75</ele><time>2026-05-03T07:48:41.106Z</time></trkpt><trkpt lat="45.380185" lon="10.6967967"><ele>62.0</ele><time>2026-05-03T07:48:42.105Z</time></trkpt><trkpt lat="45.380055" lon="10.6968933"><ele>61.66666666666667</ele><time>2026-05-03T07:48:43.106Z</time></trkpt><trkpt lat="45.3799033" lon="10.69699"><ele>61.33333333333333</ele><time>2026-05-03T07:48:44.106Z</time></trkpt><trkpt lat="45.379765" lon="10.697095"><ele>61.0</ele><time>2026-05-03T07:48:45.106Z</time></trkpt><trkpt lat="45.3796383" lon="10.697175"><ele>60.75</ele><time>2026-05-03T07:48:46.106Z</time></trkpt><trkpt lat="45.379505" lon="10.6972567"><ele>60.5</ele><time>2026-05-03T07:48:47.106Z</time></trkpt><trkpt lat="45.379395" lon="10.6973133"><ele>60.25</ele><time>2026-05-03T07:48:48.106Z</time></trkpt><trkpt lat="45.3792967" lon="10.697375"><ele>60.0</ele><time>2026-05-03T07:48:49.106Z</time></trkpt><trkpt lat="45.379195" lon="10.6974467"><ele>60.0</ele><time>2026-05-03T07:48:50.106Z</time></trkpt><trkpt lat="45.3790983" lon="10.69752"><ele>60.0</ele><time>2026-05-03T07:48:51.106Z</time></trkpt><trkpt lat="45.379" lon="10.69759"><ele>60.0</ele><time>2026-05-03T07:48:52.106Z</time></trkpt><trkpt lat="45.37891" lon="10.69765"><ele>60.0</ele><time>2026-05-03T07:48:53.105Z</time></trkpt><trkpt lat="45.3788267" lon="10.6977083"><ele>60.0</ele><time>2026-05-03T07:48:54.106Z</time></trkpt><trkpt lat="45.3787467" lon="10.6977633"><ele>60.2</ele><time>2026-05-03T07:48:55.106Z</time></trkpt><trkpt lat="45.3786717" lon="10.697815"><ele>60.4</ele><time>2026-05-03T07:48:56.106Z</time></trkpt><trkpt lat="45.3785917" lon="10.69787"><ele>60.599999999999994</ele><time>2026-05-03T07:48:57.106Z</time></trkpt><trkpt lat="45.3785033" lon="10.69794"><ele>60.8</ele><time>2026-05-03T07:48:58.106Z</time></trkpt><trkpt lat="45.3784217" lon="10.697995"><ele>61.0</ele><time>2026-05-03T07:48:59.105Z</time></trkpt><trkpt lat="45.37834" lon="10.6980533"><ele>61.0</ele><time>2026-05-03T07:49:00.106Z</time></trkpt><trkpt lat="45.3782533" lon="10.6981117"><ele>60.99999999999999</ele><time>2026-05-03T07:49:01.105Z</time></trkpt><trkpt lat="45.3781683" lon="10.69817"><ele>60.99999999999999</ele><time>2026-05-03T07:49:02.106Z</time></trkpt><trkpt lat="45.3780867" lon="10.698225"><ele>61.0</ele><time>2026-05-03T07:49:03.106Z</time></trkpt><trkpt lat="45.3779983" lon="10.6982783"><ele>61.0</ele><time>2026-05-03T07:49:04.106Z</time></trkpt><trkpt lat="45.3779083" lon="10.6983417"><ele>61.0</ele><time>2026-05-03T07:49:05.106Z</time></trkpt><trkpt lat="45.3778217" lon="10.6984033"><ele>60.99999999999999</ele><time>2026-05-03T07:49:06.106Z</time></trkpt><trkpt lat="45.3777317" lon="10.6984683"><ele>60.99999999999999</ele><time>2026-05-03T07:49:07.106Z</time></trkpt><trkpt lat="45.3776417" lon="10.6985283"><ele>61.0</ele><time>2026-05-03T07:49:08.105Z</time></trkpt><trkpt lat="45.3775533" lon="10.698585"><ele>61.0</ele><time>2026-05-03T07:49:09.105Z</time></trkpt><trkpt lat="45.3774633" lon="10.6986383"><ele>61.199999999999996</ele><time>2026-05-03T07:49:10.106Z</time></trkpt><trkpt lat="45.3773567" lon="10.6987117"><ele>61.39999999999999</ele><time>2026-05-03T07:49:11.106Z</time></trkpt><trkpt lat="45.3772617" lon="10.6987767"><ele>61.6</ele><time>2026-05-03T07:49:12.105Z</time></trkpt><trkpt lat="45.37716" lon="10.6988417"><ele>61.8</ele><time>2026-05-03T07:49:13.105Z</time></trkpt><trkpt lat="45.3770583" lon="10.6989133"><ele>62.0</ele><time>2026-05-03T07:49:14.106Z</time></trkpt><trkpt lat="45.3769633" lon="10.6989867"><ele>62.0</ele><time>2026-05-03T07:49:15.106Z</time></trkpt><trkpt lat="45.376875" lon="10.6990483"><ele>62.0</ele><time>2026-05-03T07:49:16.106Z</time></trkpt><trkpt lat="45.3768" lon="10.6991"><ele>62.0</ele><time>2026-05-03T07:49:17.106Z</time></trkpt><trkpt lat="45.3767167" lon="10.6991583"><ele>62.0</ele><time>2026-05-03T07:49:18.106Z</time></trkpt><trkpt lat="45.376625" lon="10.6992217"><ele>62.0</ele><time>2026-05-03T07:49:19.106Z</time></trkpt><trkpt lat="45.3765283" lon="10.6992767"><ele>62.0</ele><time>2026-05-03T07:49:20.106Z</time></trkpt><trkpt lat="45.3764383" lon="10.6993367"><ele>62.0</ele><time>2026-05-03T07:49:21.106Z</time></trkpt><trkpt lat="45.3763433" lon="10.699385"><ele>62.0</ele><time>2026-05-03T07:49:22.106Z</time></trkpt><trkpt lat="45.3762417" lon="10.6994533"><ele>62.0</ele><time>2026-05-03T07:49:23.106Z</time></trkpt><trkpt lat="45.376145" lon="10.69952"><ele>62.0</ele><time>2026-05-03T07:49:24.106Z</time></trkpt><trkpt lat="45.3760467" lon="10.6995817"><ele>61.0</ele><time>2026-05-03T07:49:25.106Z</time></trkpt><trkpt lat="45.3759483" lon="10.6996417"><ele>60.0</ele><time>2026-05-03T07:49:26.106Z</time></trkpt><trkpt lat="45.3758617" lon="10.6997"><ele>59.0</ele><time>2026-05-03T07:49:27.106Z</time></trkpt><trkpt lat="45.3757817" lon="10.6997583"><ele>58.0</ele><time>2026-05-03T07:49:28.106Z</time></trkpt><trkpt lat="45.375705" lon="10.6998167"><ele>57.0</ele><time>2026-05-03T07:49:29.106Z</time></trkpt><trkpt lat="45.375635" lon="10.6998683"><ele>57.0</ele><time>2026-05-03T07:49:30.106Z</time></trkpt><trkpt lat="45.3755733" lon="10.6999133"><ele>56.99999999999999</ele><time>2026-05-03T07:49:31.106Z</time></trkpt><trkpt lat="45.3755133" lon="10.6999467"><ele>57.0</ele><time>2026-05-03T07:49:32.106Z</time></trkpt><trkpt lat="45.3754517" lon="10.69998"><ele>57.0</ele><time>2026-05-03T07:49:33.105Z</time></trkpt><trkpt lat="45.37539" lon="10.7000183"><ele>56.99999999999999</ele><time>2026-05-03T07:49:34.106Z</time></trkpt><trkpt lat="45.37532" lon="10.7000583"><ele>57.0</ele><time>2026-05-03T07:49:35.106Z</time></trkpt><trkpt lat="45.37525" lon="10.700105"><ele>57.0</ele><time>2026-05-03T07:49:36.106Z</time></trkpt><trkpt lat="45.3751833" lon="10.7001533"><ele>57.0</ele><time>2026-05-03T07:49:37.106Z</time></trkpt><trkpt lat="45.37511" lon="10.7002083"><ele>57.0</ele><time>2026-05-03T07:49:38.106Z</time></trkpt><trkpt lat="45.37504" lon="10.7002567"><ele>57.0</ele><time>2026-05-03T07:49:39.106Z</time></trkpt><trkpt lat="45.3749667" lon="10.7003067"><ele>57.0</ele><time>2026-05-03T07:49:40.106Z</time></trkpt><trkpt lat="45.37489" lon="10.700355"><ele>57.0</ele><time>2026-05-03T07:49:41.105Z</time></trkpt><trkpt lat="45.3748117" lon="10.70041"><ele>57.0</ele><time>2026-05-03T07:49:42.106Z</time></trkpt><trkpt lat="45.37473" lon="10.7004717"><ele>57.400000000000006</ele><time>2026-05-03T07:49:43.106Z</time></trkpt><trkpt lat="45.374645" lon="10.7005317"><ele>57.800000000000004</ele><time>2026-05-03T07:49:44.106Z</time></trkpt><trkpt lat="45.374555" lon="10.7005967"><ele>58.2</ele><time>2026-05-03T07:49:45.106Z</time></trkpt><trkpt lat="45.3744633" lon="10.7006633"><ele>58.6</ele><time>2026-05-03T07:49:46.106Z</time></trkpt><trkpt lat="45.374365" lon="10.7007333"><ele>59.0</ele><time>2026-05-03T07:49:47.106Z</time></trkpt><trkpt lat="45.374265" lon="10.7008067"><ele>59.0</ele><time>2026-05-03T07:49:48.106Z</time></trkpt><trkpt lat="45.3741583" lon="10.7008867"><ele>59.0</ele><time>2026-05-03T07:49:49.106Z</time></trkpt><trkpt lat="45.3740383" lon="10.7009783"><ele>59.0</ele><time>2026-05-03T07:49:50.106Z</time></trkpt><trkpt lat="45.3739133" lon="10.70107"><ele>59.0</ele><time>2026-05-03T07:49:51.106Z</time></trkpt><trkpt lat="45.3737833" lon="10.7011683"><ele>59.0</ele><time>2026-05-03T07:49:52.106Z</time></trkpt><trkpt lat="45.37365" lon="10.701275"><ele>59.0</ele><time>2026-05-03T07:49:53.106Z</time></trkpt><trkpt lat="45.373525" lon="10.7013883"><ele>59.0</ele><time>2026-05-03T07:49:54.106Z</time></trkpt><trkpt lat="45.3733983" lon="10.7015083"><ele>59.0</ele><time>2026-05-03T07:49:55.106Z</time></trkpt><trkpt lat="45.3732717" lon="10.7016283"><ele>59.0</ele><time>2026-05-03T07:49:56.106Z</time></trkpt><trkpt lat="45.3731483" lon="10.701755"><ele>59.0</ele><time>2026-05-03T07:49:57.106Z</time></trkpt><trkpt lat="45.3730133" lon="10.7018883"><ele>59.0</ele><time>2026-05-03T07:49:58.106Z</time></trkpt><trkpt lat="45.372885" lon="10.7020183"><ele>59.0</ele><time>2026-05-03T07:49:59.106Z</time></trkpt><trkpt lat="45.372755" lon="10.7021433"><ele>59.0</ele><time>2026-05-03T07:50:00.106Z</time></trkpt><trkpt lat="45.37262" lon="10.7022883"><ele>59.0</ele><time>2026-05-03T07:50:01.106Z</time></trkpt><trkpt lat="45.3724783" lon="10.7024633"><ele>59.0</ele><time>2026-05-03T07:50:02.106Z</time></trkpt><trkpt lat="45.3723433" lon="10.7026367"><ele>59.0</ele><time>2026-05-03T07:50:03.106Z</time></trkpt><trkpt lat="45.3721917" lon="10.7028267"><ele>59.333333333333336</ele><time>2026-05-03T07:50:04.106Z</time></trkpt><trkpt lat="45.3720533" lon="10.7030133"><ele>59.66666666666667</ele><time>2026-05-03T07:50:05.106Z</time></trkpt><trkpt lat="45.3719117" lon="10.70319"><ele>60.0</ele><time>2026-05-03T07:50:06.105Z</time></trkpt><trkpt lat="45.3717617" lon="10.7033567"><ele>60.0</ele><time>2026-05-03T07:50:07.106Z</time></trkpt><trkpt lat="45.371615" lon="10.7035233"><ele>60.0</ele><time>2026-05-03T07:50:08.106Z</time></trkpt><trkpt lat="45.3714683" lon="10.7036983"><ele>60.0</ele><time>2026-05-03T07:50:09.106Z</time></trkpt><trkpt lat="45.37132" lon="10.7038667"><ele>60.0</ele><time>2026-05-03T07:50:10.106Z</time></trkpt><trkpt lat="45.3711783" lon="10.70404"><ele>60.0</ele><time>2026-05-03T07:50:11.105Z</time></trkpt><trkpt lat="45.3710433" lon="10.7042117"><ele>60.0</ele><time>2026-05-03T07:50:12.106Z</time></trkpt><trkpt lat="45.370905" lon="10.7043767"><ele>60.66666666666667</ele><time>2026-05-03T07:50:13.106Z</time></trkpt><trkpt lat="45.3707683" lon="10.704545"><ele>61.333333333333336</ele><time>2026-05-03T07:50:14.106Z</time></trkpt><trkpt lat="45.3706333" lon="10.7047083"><ele>62.0</ele><time>2026-05-03T07:50:15.106Z</time></trkpt><trkpt lat="45.3704967" lon="10.7048683"><ele>62.0</ele><time>2026-05-03T07:50:16.106Z</time></trkpt><trkpt lat="45.37036" lon="10.70504"><ele>62.0</ele><time>2026-05-03T07:50:17.106Z</time></trkpt><trkpt lat="45.3702217" lon="10.7052133"><ele>62.0</ele><time>2026-05-03T07:50:18.106Z</time></trkpt><trkpt lat="45.37008" lon="10.7053983"><ele>62.0</ele><time>2026-05-03T07:50:19.106Z</time></trkpt><trkpt lat="45.3699333" lon="10.7055817"><ele>62.0</ele><time>2026-05-03T07:50:20.106Z</time></trkpt><trkpt lat="45.3697867" lon="10.705755"><ele>62.0</ele><time>2026-05-03T07:50:21.106Z</time></trkpt><trkpt lat="45.369645" lon="10.7059233"><ele>60.66666666666667</ele><time>2026-05-03T07:50:22.105Z</time></trkpt><trkpt lat="45.36951" lon="10.7060983"><ele>59.33333333333333</ele><time>2026-05-03T07:50:23.106Z</time></trkpt><trkpt lat="45.3693967" lon="10.706265"><ele>58.0</ele><time>2026-05-03T07:50:24.106Z</time></trkpt><trkpt lat="45.36929" lon="10.70643"><ele>58.0</ele><time>2026-05-03T07:50:25.105Z</time></trkpt><trkpt lat="45.3691933" lon="10.7066017"><ele>58.0</ele><time>2026-05-03T07:50:26.105Z</time></trkpt><trkpt lat="45.3691067" lon="10.7067883"><ele>58.0</ele><time>2026-05-03T07:50:27.105Z</time></trkpt><trkpt lat="45.369015" lon="10.706975"><ele>57.666666666666664</ele><time>2026-05-03T07:50:28.106Z</time></trkpt><trkpt lat="45.3689283" lon="10.7071667"><ele>57.33333333333333</ele><time>2026-05-03T07:50:29.106Z</time></trkpt><trkpt lat="45.3688567" lon="10.7073483"><ele>57.0</ele><time>2026-05-03T07:50:30.106Z</time></trkpt><trkpt lat="45.3687867" lon="10.7075617"><ele>58.66666666666667</ele><time>2026-05-03T07:50:31.106Z</time></trkpt><trkpt lat="45.3687183" lon="10.7077917"><ele>60.333333333333336</ele><time>2026-05-03T07:50:32.106Z</time></trkpt><trkpt lat="45.368665" lon="10.708015"><ele>62.0</ele><time>2026-05-03T07:50:33.106Z</time></trkpt><trkpt lat="45.36862" lon="10.7082317"><ele>62.0</ele><time>2026-05-03T07:50:34.106Z</time></trkpt><trkpt lat="45.36858" lon="10.708455"><ele>62.0</ele><time>2026-05-03T07:50:35.106Z</time></trkpt><trkpt lat="45.36854" lon="10.70868"><ele>62.0</ele><time>2026-05-03T07:50:36.105Z</time></trkpt><trkpt lat="45.3685233" lon="10.708895"><ele>61.66666666666667</ele><time>2026-05-03T07:50:37.106Z</time></trkpt><trkpt lat="45.3685167" lon="10.7091183"><ele>61.33333333333333</ele><time>2026-05-03T07:50:38.106Z</time></trkpt><trkpt lat="45.3685033" lon="10.70935"><ele>61.0</ele><time>2026-05-03T07:50:39.106Z</time></trkpt><trkpt lat="45.3685067" lon="10.7095517"><ele>60.83333333333333</ele><time>2026-05-03T07:50:40.106Z</time></trkpt><trkpt lat="45.3685083" lon="10.7097183"><ele>60.666666666666664</ele><time>2026-05-03T07:50:41.106Z</time></trkpt><trkpt lat="45.3685133" lon="10.7098517"><ele>60.5</ele><time>2026-05-03T07:50:42.105Z</time></trkpt><trkpt lat="45.3685167" lon="10.7099617"><ele>60.33333333333333</ele><time>2026-05-03T07:50:43.105Z</time></trkpt><trkpt lat="45.3685133" lon="10.7100617"><ele>60.166666666666664</ele><time>2026-05-03T07:50:44.106Z</time></trkpt><trkpt lat="45.3685117" lon="10.71016"><ele>60.0</ele><time>2026-05-03T07:50:45.105Z</time></trkpt><trkpt lat="45.3685133" lon="10.7102633"><ele>60.333333333333336</ele><time>2026-05-03T07:50:46.106Z</time></trkpt><trkpt lat="45.3685133" lon="10.7103567"><ele>60.66666666666667</ele><time>2026-05-03T07:50:47.106Z</time></trkpt><trkpt lat="45.3685183" lon="10.7105167"><ele>61.0</ele><time>2026-05-03T07:50:49.106Z</time></trkpt><trkpt lat="45.3685233" lon="10.7106867"><ele>61.333333333333336</ele><time>2026-05-03T07:50:51.106Z</time></trkpt><trkpt lat="45.3685267" lon="10.7107817"><ele>61.66666666666667</ele><time>2026-05-03T07:50:52.106Z</time></trkpt><trkpt lat="45.3685317" lon="10.7108867"><ele>62.0</ele><time>2026-05-03T07:50:53.106Z</time></trkpt><trkpt lat="45.3685383" lon="10.7109933"><ele>62.6</ele><time>2026-05-03T07:50:54.106Z</time></trkpt><trkpt lat="45.3685483" lon="10.7111117"><ele>63.2</ele><time>2026-05-03T07:50:55.106Z</time></trkpt><trkpt lat="45.368555" lon="10.7112417"><ele>63.8</ele><time>2026-05-03T07:50:56.105Z</time></trkpt><trkpt lat="45.3685633" lon="10.711385"><ele>64.4</ele><time>2026-05-03T07:50:57.106Z</time></trkpt><trkpt lat="45.3685633" lon="10.7115283"><ele>65.0</ele><time>2026-05-03T07:50:58.106Z</time></trkpt><trkpt lat="45.3685667" lon="10.7116883"><ele>65.0</ele><time>2026-05-03T07:50:59.106Z</time></trkpt><trkpt lat="45.3685717" lon="10.7118517"><ele>65.0</ele><time>2026-05-03T07:51:00.106Z</time></trkpt><trkpt lat="45.368575" lon="10.7120283"><ele>65.0</ele><time>2026-05-03T07:51:01.106Z</time></trkpt><trkpt lat="45.3685783" lon="10.7122267"><ele>65.0</ele><time>2026-05-03T07:51:02.106Z</time></trkpt><trkpt lat="45.3685867" lon="10.71242"><ele>65.75</ele><time>2026-05-03T07:51:03.106Z</time></trkpt><trkpt lat="45.368585" lon="10.712605"><ele>66.5</ele><time>2026-05-03T07:51:04.106Z</time></trkpt><trkpt lat="45.3685867" lon="10.71279"><ele>67.25</ele><time>2026-05-03T07:51:05.105Z</time></trkpt><trkpt lat="45.3685917" lon="10.7129683"><ele>68.0</ele><time>2026-05-03T07:51:06.106Z</time></trkpt><trkpt lat="45.368595" lon="10.7131367"><ele>68.75</ele><time>2026-05-03T07:51:07.106Z</time></trkpt><trkpt lat="45.36859" lon="10.7132883"><ele>69.5</ele><time>2026-05-03T07:51:08.105Z</time></trkpt><trkpt lat="45.3685817" lon="10.7134483"><ele>70.25</ele><time>2026-05-03T07:51:09.106Z</time></trkpt><trkpt lat="45.3685667" lon="10.7136167"><ele>71.0</ele><time>2026-05-03T07:51:10.106Z</time></trkpt><trkpt lat="45.3685383" lon="10.7137817"><ele>68.66666666666667</ele><time>2026-05-03T07:51:11.106Z</time></trkpt><trkpt lat="45.3684967" lon="10.71397"><ele>66.33333333333333</ele><time>2026-05-03T07:51:12.106Z</time></trkpt><trkpt lat="45.3684417" lon="10.7142"><ele>64.0</ele><time>2026-05-03T07:51:13.106Z</time></trkpt><trkpt lat="45.3683883" lon="10.7144583"><ele>62.33333333333333</ele><time>2026-05-03T07:51:14.106Z</time></trkpt><trkpt lat="45.368335" lon="10.7147133"><ele>60.66666666666667</ele><time>2026-05-03T07:51:15.106Z</time></trkpt><trkpt lat="45.3682917" lon="10.7149333"><ele>59.0</ele><time>2026-05-03T07:51:16.105Z</time></trkpt><trkpt lat="45.3682567" lon="10.715145"><ele>58.333333333333336</ele><time>2026-05-03T07:51:17.106Z</time></trkpt><trkpt lat="45.3682167" lon="10.7153483"><ele>57.66666666666667</ele><time>2026-05-03T07:51:18.106Z</time></trkpt><trkpt lat="45.3681567" lon="10.715565"><ele>57.0</ele><time>2026-05-03T07:51:19.106Z</time></trkpt><trkpt lat="45.36809" lon="10.715785"><ele>57.0</ele><time>2026-05-03T07:51:20.106Z</time></trkpt><trkpt lat="45.368035" lon="10.7160017"><ele>57.0</ele><time>2026-05-03T07:51:21.106Z</time></trkpt><trkpt lat="45.3679733" lon="10.7162233"><ele>57.0</ele><time>2026-05-03T07:51:22.106Z</time></trkpt><trkpt lat="45.3679233" lon="10.7164517"><ele>59.66666666666667</ele><time>2026-05-03T07:51:23.105Z</time></trkpt><trkpt lat="45.3678683" lon="10.7166783"><ele>62.333333333333336</ele><time>2026-05-03T07:51:24.106Z</time></trkpt><trkpt lat="45.36783" lon="10.7168967"><ele>65.0</ele><time>2026-05-03T07:51:25.106Z</time></trkpt><trkpt lat="45.3677783" lon="10.7171183"><ele>65.0</ele><time>2026-05-03T07:51:26.105Z</time></trkpt><trkpt lat="45.367725" lon="10.7173317"><ele>65.0</ele><time>2026-05-03T07:51:27.106Z</time></trkpt><trkpt lat="45.3676733" lon="10.7175633"><ele>65.0</ele><time>2026-05-03T07:51:28.106Z</time></trkpt><trkpt lat="45.3676133" lon="10.7178017"><ele>63.333333333333336</ele><time>2026-05-03T07:51:29.106Z</time></trkpt><trkpt lat="45.367555" lon="10.7180433"><ele>61.66666666666667</ele><time>2026-05-03T07:51:30.106Z</time></trkpt><trkpt lat="45.367495" lon="10.71829"><ele>60.0</ele><time>2026-05-03T07:51:31.106Z</time></trkpt><trkpt lat="45.367435" lon="10.7185233"><ele>59.0</ele><time>2026-05-03T07:51:32.106Z</time></trkpt><trkpt lat="45.3673717" lon="10.71875"><ele>58.0</ele><time>2026-05-03T07:51:33.105Z</time></trkpt><trkpt lat="45.3672967" lon="10.7189767"><ele>57.0</ele><time>2026-05-03T07:51:34.106Z</time></trkpt><trkpt lat="45.3672233" lon="10.7192"><ele>57.25</ele><time>2026-05-03T07:51:35.106Z</time></trkpt><trkpt lat="45.3671533" lon="10.7194033"><ele>57.5</ele><time>2026-05-03T07:51:36.106Z</time></trkpt><trkpt lat="45.3670867" lon="10.7195867"><ele>57.75</ele><time>2026-05-03T07:51:37.106Z</time></trkpt><trkpt lat="45.3670233" lon="10.7197567"><ele>58.0</ele><time>2026-05-03T07:51:38.107Z</time></trkpt><trkpt lat="45.36696" lon="10.71992"><ele>58.0</ele><time>2026-05-03T07:51:39.107Z</time></trkpt><trkpt lat="45.366895" lon="10.720075"><ele>58.0</ele><time>2026-05-03T07:51:40.106Z</time></trkpt><trkpt lat="45.3668217" lon="10.7202483"><ele>58.0</ele><time>2026-05-03T07:51:41.107Z</time></trkpt><trkpt lat="45.3667517" lon="10.72042"><ele>58.0</ele><time>2026-05-03T07:51:42.107Z</time></trkpt><trkpt lat="45.36667" lon="10.7205967"><ele>58.0</ele><time>2026-05-03T07:51:43.107Z</time></trkpt><trkpt lat="45.3665833" lon="10.720765"><ele>58.0</ele><time>2026-05-03T07:51:44.107Z</time></trkpt><trkpt lat="45.3664883" lon="10.72095"><ele>58.0</ele><time>2026-05-03T07:51:45.107Z</time></trkpt><trkpt lat="45.3663833" lon="10.7211267"><ele>58.33333333333333</ele><time>2026-05-03T07:51:46.107Z</time></trkpt><trkpt lat="45.3662783" lon="10.72131"><ele>58.66666666666667</ele><time>2026-05-03T07:51:47.107Z</time></trkpt><trkpt lat="45.3661817" lon="10.721475"><ele>59.0</ele><time>2026-05-03T07:51:48.106Z</time></trkpt><trkpt lat="45.3660667" lon="10.7216733"><ele>59.0</ele><time>2026-05-03T07:51:49.107Z</time></trkpt><trkpt lat="45.3659533" lon="10.7218483"><ele>59.0</ele><time>2026-05-03T07:51:50.107Z</time></trkpt><trkpt lat="45.3658517" lon="10.7220067"><ele>59.0</ele><time>2026-05-03T07:51:51.107Z</time></trkpt><trkpt lat="45.365745" lon="10.7221617"><ele>58.66666666666667</ele><time>2026-05-03T07:51:52.107Z</time></trkpt><trkpt lat="45.365635" lon="10.722335"><ele>58.33333333333333</ele><time>2026-05-03T07:51:53.107Z</time></trkpt><trkpt lat="45.365525" lon="10.722485"><ele>58.0</ele><time>2026-05-03T07:51:54.107Z</time></trkpt><trkpt lat="45.3653983" lon="10.72265"><ele>58.0</ele><time>2026-05-03T07:51:55.107Z</time></trkpt><trkpt lat="45.3652783" lon="10.72281"><ele>58.0</ele><time>2026-05-03T07:51:56.107Z</time></trkpt><trkpt lat="45.3651417" lon="10.7229667"><ele>58.0</ele><time>2026-05-03T07:51:57.106Z</time></trkpt><trkpt lat="45.3649867" lon="10.72315"><ele>58.0</ele><time>2026-05-03T07:51:58.107Z</time></trkpt><trkpt lat="45.3648317" lon="10.7233333"><ele>58.0</ele><time>2026-05-03T07:51:59.107Z</time></trkpt><trkpt lat="45.3646717" lon="10.7235267"><ele>58.0</ele><time>2026-05-03T07:52:00.107Z</time></trkpt><trkpt lat="45.36451" lon="10.723715"><ele>58.33333333333333</ele><time>2026-05-03T07:52:01.107Z</time></trkpt><trkpt lat="45.364365" lon="10.723905"><ele>58.66666666666667</ele><time>2026-05-03T07:52:02.107Z</time></trkpt><trkpt lat="45.364245" lon="10.7240983"><ele>59.0</ele><time>2026-05-03T07:52:03.106Z</time></trkpt><trkpt lat="45.3641117" lon="10.7242833"><ele>58.333333333333336</ele><time>2026-05-03T07:52:04.107Z</time></trkpt><trkpt lat="45.36399" lon="10.7244717"><ele>57.66666666666667</ele><time>2026-05-03T07:52:05.107Z</time></trkpt><trkpt lat="45.363875" lon="10.7246717"><ele>57.0</ele><time>2026-05-03T07:52:06.107Z</time></trkpt><trkpt lat="45.3636267" lon="10.7250583"><ele>57.0</ele><time>2026-05-03T07:52:08.106Z</time></trkpt><trkpt lat="45.363485" lon="10.72526"><ele>57.0</ele><time>2026-05-03T07:52:09.107Z</time></trkpt><trkpt lat="45.3633533" lon="10.7254567"><ele>57.0</ele><time>2026-05-03T07:52:10.107Z</time></trkpt><trkpt lat="45.363225" lon="10.725645"><ele>57.0</ele><time>2026-05-03T07:52:11.107Z</time></trkpt><trkpt lat="45.3631033" lon="10.7258233"><ele>57.0</ele><time>2026-05-03T07:52:12.107Z</time></trkpt><trkpt lat="45.3629633" lon="10.726"><ele>57.0</ele><time>2026-05-03T07:52:13.107Z</time></trkpt><trkpt lat="45.362825" lon="10.7261533"><ele>57.33333333333333</ele><time>2026-05-03T07:52:14.107Z</time></trkpt><trkpt lat="45.3626933" lon="10.7262917"><ele>57.666666666666664</ele><time>2026-05-03T07:52:15.106Z</time></trkpt><trkpt lat="45.362545" lon="10.7264217"><ele>58.0</ele><time>2026-05-03T07:52:16.107Z</time></trkpt><trkpt lat="45.3623917" lon="10.7265267"><ele>58.0</ele><time>2026-05-03T07:52:17.107Z</time></trkpt><trkpt lat="45.3622267" lon="10.7266217"><ele>58.0</ele><time>2026-05-03T07:52:18.107Z</time></trkpt><trkpt lat="45.3620533" lon="10.72669"><ele>58.0</ele><time>2026-05-03T07:52:19.107Z</time></trkpt><trkpt lat="45.3618783" lon="10.7267333"><ele>57.33333333333333</ele><time>2026-05-03T07:52:20.107Z</time></trkpt><trkpt lat="45.3616933" lon="10.7267633"><ele>56.66666666666667</ele><time>2026-05-03T07:52:21.107Z</time></trkpt><trkpt lat="45.3614983" lon="10.7267683"><ele>56.0</ele><time>2026-05-03T07:52:22.107Z</time></trkpt><trkpt lat="45.3613117" lon="10.7267533"><ele>56.0</ele><time>2026-05-03T07:52:23.107Z</time></trkpt><trkpt lat="45.36112" lon="10.7267133"><ele>56.0</ele><time>2026-05-03T07:52:24.107Z</time></trkpt><trkpt lat="45.3609183" lon="10.726655"><ele>56.0</ele><time>2026-05-03T07:52:25.107Z</time></trkpt><trkpt lat="45.3607067" lon="10.7265817"><ele>56.333333333333336</ele><time>2026-05-03T07:52:26.107Z</time></trkpt><trkpt lat="45.3605117" lon="10.7265117"><ele>56.66666666666667</ele><time>2026-05-03T07:52:27.107Z</time></trkpt><trkpt lat="45.36034" lon="10.7264533"><ele>57.0</ele><time>2026-05-03T07:52:28.107Z</time></trkpt><trkpt lat="45.3601617" lon="10.7263867"><ele>57.0</ele><time>2026-05-03T07:52:29.107Z</time></trkpt><trkpt lat="45.3599617" lon="10.7263117"><ele>57.0</ele><time>2026-05-03T07:52:30.107Z</time></trkpt><trkpt lat="45.359775" lon="10.72623"><ele>57.0</ele><time>2026-05-03T07:52:31.107Z</time></trkpt><trkpt lat="45.3595883" lon="10.7261367"><ele>58.0</ele><time>2026-05-03T07:52:32.106Z</time></trkpt><trkpt lat="45.35941" lon="10.7260333"><ele>59.0</ele><time>2026-05-03T07:52:33.107Z</time></trkpt><trkpt lat="45.3592333" lon="10.725935"><ele>60.0</ele><time>2026-05-03T07:52:34.107Z</time></trkpt><trkpt lat="45.359045" lon="10.7258233"><ele>60.33333333333333</ele><time>2026-05-03T07:52:35.107Z</time></trkpt><trkpt lat="45.358855" lon="10.7257117"><ele>60.666666666666664</ele><time>2026-05-03T07:52:36.107Z</time></trkpt><trkpt lat="45.35866" lon="10.7256133"><ele>61.0</ele><time>2026-05-03T07:52:37.107Z</time></trkpt><trkpt lat="45.3584833" lon="10.7255083"><ele>61.0</ele><time>2026-05-03T07:52:38.106Z</time></trkpt><trkpt lat="45.3583117" lon="10.725405"><ele>61.0</ele><time>2026-05-03T07:52:39.107Z</time></trkpt><trkpt lat="45.3581633" lon="10.72529"><ele>61.0</ele><time>2026-05-03T07:52:40.107Z</time></trkpt><trkpt lat="45.3580267" lon="10.72518"><ele>60.33333333333333</ele><time>2026-05-03T07:52:41.107Z</time></trkpt><trkpt lat="45.357885" lon="10.72507"><ele>59.66666666666667</ele><time>2026-05-03T07:52:42.107Z</time></trkpt><trkpt lat="45.3577533" lon="10.7249617"><ele>59.0</ele><time>2026-05-03T07:52:43.107Z</time></trkpt><trkpt lat="45.3576267" lon="10.72484"><ele>59.0</ele><time>2026-05-03T07:52:44.107Z</time></trkpt><trkpt lat="45.35752" lon="10.7247233"><ele>59.00000000000001</ele><time>2026-05-03T07:52:45.107Z</time></trkpt><trkpt lat="45.35743" lon="10.7246233"><ele>59.00000000000001</ele><time>2026-05-03T07:52:46.107Z</time></trkpt><trkpt lat="45.3573583" lon="10.7245383"><ele>59.0</ele><time>2026-05-03T07:52:47.107Z</time></trkpt><trkpt lat="45.3573033" lon="10.7244633"><ele>59.0</ele><time>2026-05-03T07:52:48.107Z</time></trkpt><trkpt lat="45.35723" lon="10.7243367"><ele>59.800000000000004</ele><time>2026-05-03T07:52:50.107Z</time></trkpt><trkpt lat="45.3571567" lon="10.7242283"><ele>60.60000000000001</ele><time>2026-05-03T07:52:52.107Z</time></trkpt><trkpt lat="45.3570867" lon="10.72414"><ele>61.4</ele><time>2026-05-03T07:52:54.107Z</time></trkpt><trkpt lat="45.3570067" lon="10.7240183"><ele>62.2</ele><time>2026-05-03T07:52:56.107Z</time></trkpt><trkpt lat="45.3569583" lon="10.7239433"><ele>63.0</ele><time>2026-05-03T07:52:57.107Z</time></trkpt><trkpt lat="45.356905" lon="10.7238583"><ele>63.0</ele><time>2026-05-03T07:52:58.107Z</time></trkpt><trkpt lat="45.3568533" lon="10.7237617"><ele>63.0</ele><time>2026-05-03T07:52:59.107Z</time></trkpt><trkpt lat="45.3568017" lon="10.72367"><ele>63.0</ele><time>2026-05-03T07:53:00.107Z</time></trkpt><trkpt lat="45.3567483" lon="10.7235683"><ele>63.0</ele><time>2026-05-03T07:53:01.106Z</time></trkpt><trkpt lat="45.35669" lon="10.7234683"><ele>63.0</ele><time>2026-05-03T07:53:02.107Z</time></trkpt><trkpt lat="45.356625" lon="10.723365"><ele>63.0</ele><time>2026-05-03T07:53:03.107Z</time></trkpt><trkpt lat="45.3565617" lon="10.723265"><ele>63.0</ele><time>2026-05-03T07:53:04.106Z</time></trkpt><trkpt lat="45.356495" lon="10.72317"><ele>63.0</ele><time>2026-05-03T07:53:05.107Z</time></trkpt><trkpt lat="45.3564267" lon="10.723075"><ele>63.0</ele><time>2026-05-03T07:53:06.107Z</time></trkpt><trkpt lat="45.3563633" lon="10.722985"><ele>63.0</ele><time>2026-05-03T07:53:07.107Z</time></trkpt><trkpt lat="45.3563067" lon="10.7229"><ele>63.0</ele><time>2026-05-03T07:53:08.107Z</time></trkpt><trkpt lat="45.3562583" lon="10.72283"><ele>63.0</ele><time>2026-05-03T07:53:09.107Z</time></trkpt><trkpt lat="45.3562017" lon="10.7227683"><ele>62.2</ele><time>2026-05-03T07:53:10.107Z</time></trkpt><trkpt lat="45.3561033" lon="10.7226833"><ele>61.4</ele><time>2026-05-03T07:53:12.107Z</time></trkpt><trkpt lat="45.3560417" lon="10.7226033"><ele>60.60000000000001</ele><time>2026-05-03T07:53:14.107Z</time></trkpt><trkpt lat="45.35601" lon="10.7224717"><ele>59.800000000000004</ele><time>2026-05-03T07:53:17.107Z</time></trkpt><trkpt lat="45.3559433" lon="10.7223567"><ele>59.0</ele><time>2026-05-03T07:53:19.107Z</time></trkpt><trkpt lat="45.3558633" lon="10.7222433"><ele>59.00000000000001</ele><time>2026-05-03T07:53:21.106Z</time></trkpt><trkpt lat="45.3557833" lon="10.722215"><ele>59.0</ele><time>2026-05-03T07:53:22.107Z</time></trkpt><trkpt lat="45.3557033" lon="10.7222017"><ele>59.0</ele><time>2026-05-03T07:53:23.106Z</time></trkpt><trkpt lat="45.355635" lon="10.7221583"><ele>59.0</ele><time>2026-05-03T07:53:24.107Z</time></trkpt><trkpt lat="45.3555583" lon="10.72211"><ele>59.00000000000001</ele><time>2026-05-03T07:53:25.106Z</time></trkpt><trkpt lat="45.3554817" lon="10.722065"><ele>59.0</ele><time>2026-05-03T07:53:26.107Z</time></trkpt><trkpt lat="45.3554" lon="10.7220167"><ele>59.00000000000001</ele><time>2026-05-03T07:53:27.107Z</time></trkpt><trkpt lat="45.355325" lon="10.7219633"><ele>59.0</ele><time>2026-05-03T07:53:28.107Z</time></trkpt><trkpt lat="45.35525" lon="10.72191"><ele>59.0</ele><time>2026-05-03T07:53:29.106Z</time></trkpt><trkpt lat="45.3551717" lon="10.7218483"><ele>59.0</ele><time>2026-05-03T07:53:30.107Z</time></trkpt><trkpt lat="45.3551017" lon="10.7218"><ele>59.00000000000001</ele><time>2026-05-03T07:53:31.107Z</time></trkpt><trkpt lat="45.3550217" lon="10.7217483"><ele>59.0</ele><time>2026-05-03T07:53:32.107Z</time></trkpt><trkpt lat="45.3549517" lon="10.72169"><ele>59.00000000000001</ele><time>2026-05-03T07:53:33.107Z</time></trkpt><trkpt lat="45.3548833" lon="10.7216217"><ele>59.0</ele><time>2026-05-03T07:53:34.107Z</time></trkpt><trkpt lat="45.3548167" lon="10.7215567"><ele>59.0</ele><time>2026-05-03T07:53:35.107Z</time></trkpt><trkpt lat="45.3547667" lon="10.7215"><ele>59.0</ele><time>2026-05-03T07:53:36.107Z</time></trkpt><trkpt lat="45.354695" lon="10.7213967"><ele>59.00000000000001</ele><time>2026-05-03T07:53:38.107Z</time></trkpt><trkpt lat="45.3546533" lon="10.7213283"><ele>59.0</ele><time>2026-05-03T07:53:40.107Z</time></trkpt><trkpt lat="45.354635" lon="10.7212217"><ele>59.333333333333336</ele><time>2026-05-03T07:53:55.107Z</time></trkpt><trkpt lat="45.3547333" lon="10.7210733"><ele>59.66666666666667</ele><time>2026-05-03T07:53:57.106Z</time></trkpt><trkpt lat="45.3548517" lon="10.7209183"><ele>60.0</ele><time>2026-05-03T07:53:58.107Z</time></trkpt><trkpt lat="45.3549783" lon="10.720735"><ele>60.2</ele><time>2026-05-03T07:53:59.107Z</time></trkpt><trkpt lat="45.355095" lon="10.720575"><ele>60.4</ele><time>2026-05-03T07:54:00.107Z</time></trkpt><trkpt lat="45.355175" lon="10.7204667"><ele>60.599999999999994</ele><time>2026-05-03T07:54:01.107Z</time></trkpt><trkpt lat="45.35524" lon="10.7203917"><ele>60.8</ele><time>2026-05-03T07:54:02.107Z</time></trkpt><trkpt lat="45.3553" lon="10.720345"><ele>61.0</ele><time>2026-05-03T07:54:03.107Z</time></trkpt><trkpt lat="45.3554233" lon="10.72034"><ele>61.0</ele><time>2026-05-03T07:54:05.106Z</time></trkpt><trkpt lat="45.3554933" lon="10.72044"><ele>61.0</ele><time>2026-05-03T07:54:06.107Z</time></trkpt><trkpt lat="45.35558" lon="10.720605"><ele>61.0</ele><time>2026-05-03T07:54:07.107Z</time></trkpt><trkpt lat="45.355675" lon="10.7207867"><ele>61.0</ele><time>2026-05-03T07:54:08.107Z</time></trkpt><trkpt lat="45.35576" lon="10.7209383"><ele>61.599999999999994</ele><time>2026-05-03T07:54:09.107Z</time></trkpt><trkpt lat="45.3558383" lon="10.72105"><ele>62.199999999999996</ele><time>2026-05-03T07:54:10.107Z</time></trkpt><trkpt lat="45.3559117" lon="10.7211383"><ele>62.800000000000004</ele><time>2026-05-03T07:54:11.107Z</time></trkpt><trkpt lat="45.3559683" lon="10.7212033"><ele>63.400000000000006</ele><time>2026-05-03T07:54:12.107Z</time></trkpt><trkpt lat="45.35605" lon="10.72132"><ele>64.0</ele><time>2026-05-03T07:54:14.107Z</time></trkpt><trkpt lat="45.3561" lon="10.7213933"><ele>64.0</ele><time>2026-05-03T07:54:16.107Z</time></trkpt><trkpt lat="45.3561117" lon="10.7215133"><ele>64.0</ele><time>2026-05-03T07:54:36.107Z</time></trkpt><trkpt lat="45.356065" lon="10.7216333"><ele>64.0</ele><time>2026-05-03T07:54:37.107Z</time></trkpt><trkpt lat="45.3560233" lon="10.7217667"><ele>64.0</ele><time>2026-05-03T07:54:38.107Z</time></trkpt><trkpt lat="45.3559783" lon="10.7218917"><ele>64.0</ele><time>2026-05-03T07:54:39.106Z</time></trkpt><trkpt lat="45.3559283" lon="10.7220217"><ele>63.0</ele><time>2026-05-03T07:54:40.107Z</time></trkpt><trkpt lat="45.3558833" lon="10.7221467"><ele>62.00000000000001</ele><time>2026-05-03T07:54:41.107Z</time></trkpt><trkpt lat="45.3558433" lon="10.7222717"><ele>61.00000000000001</ele><time>2026-05-03T07:54:42.107Z</time></trkpt><trkpt lat="45.355805" lon="10.7223883"><ele>60.0</ele><time>2026-05-03T07:54:43.107Z</time></trkpt><trkpt lat="45.35577" lon="10.7224933"><ele>59.0</ele><time>2026-05-03T07:54:44.107Z</time></trkpt><trkpt lat="45.3557267" lon="10.7226"><ele>59.00000000000001</ele><time>2026-05-03T07:54:45.107Z</time></trkpt><trkpt lat="45.3556833" lon="10.7227"><ele>59.0</ele><time>2026-05-03T07:54:46.106Z</time></trkpt><trkpt lat="45.355645" lon="10.7228033"><ele>59.0</ele><time>2026-05-03T07:54:47.107Z</time></trkpt><trkpt lat="45.355605" lon="10.722915"><ele>59.0</ele><time>2026-05-03T07:54:48.107Z</time></trkpt><trkpt lat="45.35556" lon="10.723035"><ele>59.00000000000001</ele><time>2026-05-03T07:54:49.107Z</time></trkpt><trkpt lat="45.3555167" lon="10.72315"><ele>59.0</ele><time>2026-05-03T07:54:50.106Z</time></trkpt><trkpt lat="45.35548" lon="10.7232583"><ele>59.0</ele><time>2026-05-03T07:54:51.107Z</time></trkpt><trkpt lat="45.355445" lon="10.7233517"><ele>59.00000000000001</ele><time>2026-05-03T07:54:52.107Z</time></trkpt><trkpt lat="45.35538" lon="10.7235183"><ele>59.00000000000001</ele><time>2026-05-03T07:54:54.106Z</time></trkpt><trkpt lat="45.355345" lon="10.7236283"><ele>59.0</ele><time>2026-05-03T07:54:55.107Z</time></trkpt><trkpt lat="45.3553033" lon="10.72374"><ele>59.0</ele><time>2026-05-03T07:54:56.107Z</time></trkpt><trkpt lat="45.3552683" lon="10.7238533"><ele>59.0</ele><time>2026-05-03T07:54:57.107Z</time></trkpt><trkpt lat="45.355225" lon="10.7239767"><ele>59.00000000000001</ele><time>2026-05-03T07:54:58.107Z</time></trkpt><trkpt lat="45.355185" lon="10.7241033"><ele>59.00000000000001</ele><time>2026-05-03T07:54:59.107Z</time></trkpt><trkpt lat="45.35514" lon="10.7242283"><ele>59.0</ele><time>2026-05-03T07:55:00.107Z</time></trkpt><trkpt lat="45.3550933" lon="10.7243583"><ele>59.0</ele><time>2026-05-03T07:55:01.107Z</time></trkpt><trkpt lat="45.35505" lon="10.724485"><ele>59.2</ele><time>2026-05-03T07:55:02.106Z</time></trkpt><trkpt lat="45.3550017" lon="10.7246167"><ele>59.400000000000006</ele><time>2026-05-03T07:55:03.107Z</time></trkpt><trkpt lat="45.3549533" lon="10.72475"><ele>59.6</ele><time>2026-05-03T07:55:04.107Z</time></trkpt><trkpt lat="45.35491" lon="10.7248717"><ele>59.8</ele><time>2026-05-03T07:55:05.107Z</time></trkpt><trkpt lat="45.35487" lon="10.7249883"><ele>60.0</ele><time>2026-05-03T07:55:06.107Z</time></trkpt><trkpt lat="45.3548367" lon="10.7251083"><ele>60.0</ele><time>2026-05-03T07:55:07.106Z</time></trkpt><trkpt lat="45.3547967" lon="10.725225"><ele>60.0</ele><time>2026-05-03T07:55:08.106Z</time></trkpt><trkpt lat="45.354755" lon="10.725365"><ele>60.0</ele><time>2026-05-03T07:55:09.106Z</time></trkpt><trkpt lat="45.3547083" lon="10.72551"><ele>60.0</ele><time>2026-05-03T07:55:10.107Z</time></trkpt><trkpt lat="45.354655" lon="10.725655"><ele>60.0</ele><time>2026-05-03T07:55:11.106Z</time></trkpt><trkpt lat="45.3545967" lon="10.725795"><ele>59.8</ele><time>2026-05-03T07:55:12.106Z</time></trkpt><trkpt lat="45.35455" lon="10.7259167"><ele>59.6</ele><time>2026-05-03T07:55:13.107Z</time></trkpt><trkpt lat="45.3545" lon="10.7260517"><ele>59.400000000000006</ele><time>2026-05-03T07:55:14.107Z</time></trkpt><trkpt lat="45.3544533" lon="10.7261833"><ele>59.2</ele><time>2026-05-03T07:55:15.107Z</time></trkpt><trkpt lat="45.3544067" lon="10.72631"><ele>59.0</ele><time>2026-05-03T07:55:16.106Z</time></trkpt><trkpt lat="45.35436" lon="10.7264333"><ele>59.0</ele><time>2026-05-03T07:55:17.106Z</time></trkpt><trkpt lat="45.3543133" lon="10.7265583"><ele>59.00000000000001</ele><time>2026-05-03T07:55:18.106Z</time></trkpt><trkpt lat="45.35426" lon="10.726695"><ele>59.00000000000001</ele><time>2026-05-03T07:55:19.107Z</time></trkpt><trkpt lat="45.3542133" lon="10.72682"><ele>59.0</ele><time>2026-05-03T07:55:20.106Z</time></trkpt><trkpt lat="45.3541633" lon="10.72695"><ele>59.0</ele><time>2026-05-03T07:55:21.107Z</time></trkpt><trkpt lat="45.3541217" lon="10.7270767"><ele>59.2</ele><time>2026-05-03T07:55:22.107Z</time></trkpt><trkpt lat="45.3540733" lon="10.7272067"><ele>59.400000000000006</ele><time>2026-05-03T07:55:23.107Z</time></trkpt><trkpt lat="45.354025" lon="10.7273367"><ele>59.6</ele><time>2026-05-03T07:55:24.107Z</time></trkpt><trkpt lat="45.3539817" lon="10.72746"><ele>59.8</ele><time>2026-05-03T07:55:25.107Z</time></trkpt><trkpt lat="45.3539433" lon="10.7275767"><ele>60.0</ele><time>2026-05-03T07:55:26.107Z</time></trkpt><trkpt lat="45.353905" lon="10.7276867"><ele>62.666666666666664</ele><time>2026-05-03T07:55:27.106Z</time></trkpt><trkpt lat="45.35387" lon="10.7277833"><ele>65.33333333333333</ele><time>2026-05-03T07:55:28.107Z</time></trkpt><trkpt lat="45.3538383" lon="10.7278667"><ele>68.0</ele><time>2026-05-03T07:55:29.107Z</time></trkpt><trkpt lat="45.3537917" lon="10.72801"><ele>70.66666666666666</ele><time>2026-05-03T07:55:31.107Z</time></trkpt><trkpt lat="45.3537567" lon="10.72812"><ele>73.33333333333333</ele><time>2026-05-03T07:55:33.107Z</time></trkpt><trkpt lat="45.353715" lon="10.7282217"><ele>76.0</ele><time>2026-05-03T07:55:36.107Z</time></trkpt><trkpt lat="45.353645" lon="10.7282933"><ele>76.0</ele><time>2026-05-03T07:55:39.107Z</time></trkpt><trkpt lat="45.35363" lon="10.7283867"><ele>76.0</ele><time>2026-05-03T07:55:42.107Z</time></trkpt><trkpt lat="45.3536883" lon="10.72845"><ele>76.0</ele><time>2026-05-03T07:55:45.107Z</time></trkpt><trkpt lat="45.3537617" lon="10.7285033"><ele>76.0</ele><time>2026-05-03T07:55:47.107Z</time></trkpt><trkpt lat="45.353875" lon="10.728595"><ele>76.0</ele><time>2026-05-03T07:55:49.107Z</time></trkpt><trkpt lat="45.35395" lon="10.7286417"><ele>76.0</ele><time>2026-05-03T07:55:50.107Z</time></trkpt><trkpt lat="45.3540467" lon="10.7286967"><ele>78.0</ele><time>2026-05-03T07:55:51.107Z</time></trkpt><trkpt lat="45.354185" lon="10.7287633"><ele>80.0</ele><time>2026-05-03T07:55:52.107Z</time></trkpt><trkpt lat="45.354355" lon="10.7288517"><ele>82.0</ele><time>2026-05-03T07:55:53.107Z</time></trkpt><trkpt lat="45.354525" lon="10.7289417"><ele>82.0</ele><time>2026-05-03T07:55:54.107Z</time></trkpt><trkpt lat="45.3546817" lon="10.7290267"><ele>82.0</ele><time>2026-05-03T07:55:55.106Z</time></trkpt><trkpt lat="45.3548183" lon="10.7290767"><ele>82.0</ele><time>2026-05-03T07:55:56.107Z</time></trkpt><trkpt lat="45.3549517" lon="10.7291267"><ele>82.0</ele><time>2026-05-03T07:55:57.106Z</time></trkpt><trkpt lat="45.3550817" lon="10.7291733"><ele>81.5</ele><time>2026-05-03T07:55:58.107Z</time></trkpt><trkpt lat="45.3552133" lon="10.7292067"><ele>81.0</ele><time>2026-05-03T07:55:59.106Z</time></trkpt><trkpt lat="45.35534" lon="10.7292483"><ele>80.5</ele><time>2026-05-03T07:56:00.107Z</time></trkpt><trkpt lat="45.3554733" lon="10.729285"><ele>80.0</ele><time>2026-05-03T07:56:01.106Z</time></trkpt><trkpt lat="45.3556017" lon="10.72933"><ele>79.75</ele><time>2026-05-03T07:56:02.107Z</time></trkpt><trkpt lat="45.3557333" lon="10.7293583"><ele>79.5</ele><time>2026-05-03T07:56:03.106Z</time></trkpt><trkpt lat="45.3558633" lon="10.7293583"><ele>79.25</ele><time>2026-05-03T07:56:04.107Z</time></trkpt><trkpt lat="45.3560033" lon="10.7293567"><ele>79.0</ele><time>2026-05-03T07:56:05.107Z</time></trkpt><trkpt lat="45.3561567" lon="10.7293517"><ele>79.0</ele><time>2026-05-03T07:56:06.107Z</time></trkpt><trkpt lat="45.3563033" lon="10.7293133"><ele>79.0</ele><time>2026-05-03T07:56:07.107Z</time></trkpt><trkpt lat="45.356405" lon="10.729285"><ele>79.0</ele><time>2026-05-03T07:56:08.107Z</time></trkpt><trkpt lat="45.35648" lon="10.7292733"><ele>79.0</ele><time>2026-05-03T07:56:09.106Z</time></trkpt><trkpt lat="45.35658" lon="10.7292767"><ele>79.0</ele><time>2026-05-03T07:56:11.107Z</time></trkpt><trkpt lat="45.356615" lon="10.729355"><ele>82.6</ele><time>2026-05-03T07:56:14.106Z</time></trkpt><trkpt lat="45.3565167" lon="10.7294433"><ele>86.2</ele><time>2026-05-03T07:56:16.107Z</time></trkpt><trkpt lat="45.3564217" lon="10.729475"><ele>89.8</ele><time>2026-05-03T07:56:17.107Z</time></trkpt><trkpt lat="45.3563483" lon="10.7295183"><ele>93.39999999999999</ele><time>2026-05-03T07:56:18.107Z</time></trkpt><trkpt lat="45.3562633" lon="10.7295667"><ele>97.0</ele><time>2026-05-03T07:56:19.107Z</time></trkpt><trkpt lat="45.3561783" lon="10.729615"><ele>97.0</ele><time>2026-05-03T07:56:20.107Z</time></trkpt><trkpt lat="45.3560917" lon="10.7296767"><ele>97.0</ele><time>2026-05-03T07:56:21.106Z</time></trkpt><trkpt lat="45.355995" lon="10.7297317"><ele>97.0</ele><time>2026-05-03T07:56:22.107Z</time></trkpt><trkpt lat="45.3559017" lon="10.7298017"><ele>97.0</ele><time>2026-05-03T07:56:23.107Z</time></trkpt><trkpt lat="45.3558217" lon="10.7298917"><ele>97.0</ele><time>2026-05-03T07:56:24.107Z</time></trkpt><trkpt lat="45.3557583" lon="10.729975"><ele>97.00000000000001</ele><time>2026-05-03T07:56:25.106Z</time></trkpt><trkpt lat="45.3557067" lon="10.7300783"><ele>97.0</ele><time>2026-05-03T07:56:26.107Z</time></trkpt><trkpt lat="45.3556783" lon="10.7301917"><ele>97.0</ele><time>2026-05-03T07:56:27.107Z</time></trkpt><trkpt lat="45.355665" lon="10.7303083"><ele>97.0</ele><time>2026-05-03T07:56:28.107Z</time></trkpt><trkpt lat="45.355685" lon="10.7304167"><ele>97.00000000000001</ele><time>2026-05-03T07:56:29.106Z</time></trkpt><trkpt lat="45.3557083" lon="10.730505"><ele>97.0</ele><time>2026-05-03T07:56:30.107Z</time></trkpt><trkpt lat="45.3557317" lon="10.730595"><ele>97.83333333333334</ele><time>2026-05-03T07:56:31.106Z</time></trkpt><trkpt lat="45.3557517" lon="10.7306867"><ele>98.66666666666667</ele><time>2026-05-03T07:56:32.107Z</time></trkpt><trkpt lat="45.355775" lon="10.7307733"><ele>99.5</ele><time>2026-05-03T07:56:33.107Z</time></trkpt><trkpt lat="45.3558117" lon="10.7309483"><ele>100.33333333333334</ele><time>2026-05-03T07:56:35.106Z</time></trkpt><trkpt lat="45.3558283" lon="10.7310367"><ele>101.16666666666667</ele><time>2026-05-03T07:56:36.107Z</time></trkpt><trkpt lat="45.3558583" lon="10.731145"><ele>102.0</ele><time>2026-05-03T07:56:38.107Z</time></trkpt><trkpt lat="45.3558767" lon="10.7312383"><ele>102.0</ele><time>2026-05-03T07:56:41.107Z</time></trkpt><trkpt lat="45.35591" lon="10.73136"><ele>102.0</ele><time>2026-05-03T07:56:45.107Z</time></trkpt><trkpt lat="45.3559083" lon="10.7315133"><ele>102.0</ele><time>2026-05-03T07:56:47.107Z</time></trkpt><trkpt lat="45.355895" lon="10.7316083"><ele>102.0</ele><time>2026-05-03T07:56:48.107Z</time></trkpt><trkpt lat="45.3558817" lon="10.7316967"><ele>102.0</ele><time>2026-05-03T07:56:49.107Z</time></trkpt><trkpt lat="45.35585" lon="10.731785"><ele>102.0</ele><time>2026-05-03T07:56:50.107Z</time></trkpt><trkpt lat="45.35582" lon="10.7318833"><ele>100.83333333333333</ele><time>2026-05-03T07:56:51.107Z</time></trkpt><trkpt lat="45.3557817" lon="10.7319783"><ele>99.66666666666667</ele><time>2026-05-03T07:56:52.107Z</time></trkpt><trkpt lat="45.355745" lon="10.7320667"><ele>98.5</ele><time>2026-05-03T07:56:53.107Z</time></trkpt><trkpt lat="45.355705" lon="10.7321633"><ele>97.33333333333334</ele><time>2026-05-03T07:56:54.106Z</time></trkpt><trkpt lat="45.3556633" lon="10.732265"><ele>96.16666666666667</ele><time>2026-05-03T07:56:55.107Z</time></trkpt><trkpt lat="45.3556267" lon="10.7323567"><ele>95.0</ele><time>2026-05-03T07:56:56.107Z</time></trkpt><trkpt lat="45.35559" lon="10.7324383"><ele>95.0</ele><time>2026-05-03T07:56:57.106Z</time></trkpt><trkpt lat="45.35555" lon="10.7325183"><ele>95.0</ele><time>2026-05-03T07:56:58.107Z</time></trkpt><trkpt lat="45.3555133" lon="10.7325967"><ele>95.0</ele><time>2026-05-03T07:56:59.107Z</time></trkpt><trkpt lat="45.3554717" lon="10.732665"><ele>95.0</ele><time>2026-05-03T07:57:00.106Z</time></trkpt><trkpt lat="45.355355" lon="10.73285"><ele>95.0</ele><time>2026-05-03T07:57:03.107Z</time></trkpt><trkpt lat="45.3552967" lon="10.7329733"><ele>94.8</ele><time>2026-05-03T07:57:05.107Z</time></trkpt><trkpt lat="45.3552517" lon="10.7330983"><ele>94.6</ele><time>2026-05-03T07:57:07.107Z</time></trkpt><trkpt lat="45.3552083" lon="10.7332267"><ele>94.4</ele><time>2026-05-03T07:57:09.107Z</time></trkpt><trkpt lat="45.3551767" lon="10.7333417"><ele>94.2</ele><time>2026-05-03T07:57:11.107Z</time></trkpt><trkpt lat="45.3551367" lon="10.7334717"><ele>94.0</ele><time>2026-05-03T07:57:13.107Z</time></trkpt><trkpt lat="45.3551033" lon="10.7335933"><ele>93.83333333333333</ele><time>2026-05-03T07:57:15.107Z</time></trkpt><trkpt lat="45.355075" lon="10.7337133"><ele>93.66666666666666</ele><time>2026-05-03T07:57:17.107Z</time></trkpt><trkpt lat="45.35504" lon="10.73381"><ele>93.5</ele><time>2026-05-03T07:57:19.107Z</time></trkpt><trkpt lat="45.3549933" lon="10.7339283"><ele>93.33333333333333</ele><time>2026-05-03T07:57:22.106Z</time></trkpt><trkpt lat="45.3549567" lon="10.7340417"><ele>93.16666666666667</ele><time>2026-05-03T07:57:24.107Z</time></trkpt><trkpt lat="45.3549217" lon="10.7341667"><ele>93.0</ele><time>2026-05-03T07:57:26.107Z</time></trkpt><trkpt lat="45.3548867" lon="10.7342567"><ele>93.0</ele><time>2026-05-03T07:57:28.107Z</time></trkpt><trkpt lat="45.354985" lon="10.73429"><ele>93.0</ele><time>2026-05-03T07:57:30.107Z</time></trkpt><trkpt lat="45.3551067" lon="10.73431"><ele>93.0</ele><time>2026-05-03T07:57:32.107Z</time></trkpt><trkpt lat="45.3551783" lon="10.7343267"><ele>93.0</ele><time>2026-05-03T07:57:33.107Z</time></trkpt><trkpt lat="45.355265" lon="10.73436"><ele>93.0</ele><time>2026-05-03T07:57:34.107Z</time></trkpt><trkpt lat="45.3553567" lon="10.7343967"><ele>93.16666666666667</ele><time>2026-05-03T07:57:35.107Z</time></trkpt><trkpt lat="45.3554367" lon="10.7344583"><ele>93.33333333333333</ele><time>2026-05-03T07:57:36.106Z</time></trkpt><trkpt lat="45.3555233" lon="10.7345017"><ele>93.5</ele><time>2026-05-03T07:57:37.107Z</time></trkpt><trkpt lat="45.3556" lon="10.7345717"><ele>93.66666666666666</ele><time>2026-05-03T07:57:38.107Z</time></trkpt><trkpt lat="45.3556733" lon="10.734635"><ele>93.83333333333333</ele><time>2026-05-03T07:57:39.107Z</time></trkpt><trkpt lat="45.3557517" lon="10.734685"><ele>94.0</ele><time>2026-05-03T07:57:40.107Z</time></trkpt><trkpt lat="45.355825" lon="10.7347383"><ele>94.0</ele><time>2026-05-03T07:57:41.107Z</time></trkpt><trkpt lat="45.3558983" lon="10.7347717"><ele>94.0</ele><time>2026-05-03T07:57:42.107Z</time></trkpt><trkpt lat="45.35597" lon="10.7347967"><ele>94.0</ele><time>2026-05-03T07:57:43.107Z</time></trkpt><trkpt lat="45.35604" lon="10.734825"><ele>94.0</ele><time>2026-05-03T07:57:44.107Z</time></trkpt><trkpt lat="45.35611" lon="10.7348533"><ele>94.0</ele><time>2026-05-03T07:57:45.107Z</time></trkpt><trkpt lat="45.35618" lon="10.734895"><ele>94.0</ele><time>2026-05-03T07:57:46.107Z</time></trkpt><trkpt lat="45.3562717" lon="10.7349333"><ele>94.0</ele><time>2026-05-03T07:57:47.107Z</time></trkpt><trkpt lat="45.3563583" lon="10.7349617"><ele>94.0</ele><time>2026-05-03T07:57:48.107Z</time></trkpt><trkpt lat="45.3564433" lon="10.7349767"><ele>94.0</ele><time>2026-05-03T07:57:49.107Z</time></trkpt><trkpt lat="45.3565367" lon="10.7349983"><ele>94.0</ele><time>2026-05-03T07:57:50.107Z</time></trkpt><trkpt lat="45.3566283" lon="10.735025"><ele>94.0</ele><time>2026-05-03T07:57:51.107Z</time></trkpt><trkpt lat="45.35672" lon="10.7350433"><ele>93.83333333333333</ele><time>2026-05-03T07:57:52.107Z</time></trkpt><trkpt lat="45.3567967" lon="10.735045"><ele>93.66666666666666</ele><time>2026-05-03T07:57:53.107Z</time></trkpt><trkpt lat="45.3568667" lon="10.73504"><ele>93.5</ele><time>2026-05-03T07:57:54.107Z</time></trkpt><trkpt lat="45.3569333" lon="10.7350317"><ele>93.33333333333333</ele><time>2026-05-03T07:57:55.107Z</time></trkpt><trkpt lat="45.3569967" lon="10.7350267"><ele>93.16666666666667</ele><time>2026-05-03T07:57:56.107Z</time></trkpt><trkpt lat="45.3571017" lon="10.7350167"><ele>93.0</ele><time>2026-05-03T07:57:58.107Z</time></trkpt><trkpt lat="45.357195" lon="10.7349933"><ele>93.0</ele><time>2026-05-03T07:58:00.106Z</time></trkpt><trkpt lat="45.3573" lon="10.73497"><ele>93.0</ele><time>2026-05-03T07:58:02.106Z</time></trkpt><trkpt lat="45.357405" lon="10.7349367"><ele>93.0</ele><time>2026-05-03T07:58:04.107Z</time></trkpt><trkpt lat="45.3574917" lon="10.734905"><ele>93.0</ele><time>2026-05-03T07:58:06.107Z</time></trkpt><trkpt lat="45.3575867" lon="10.734885"><ele>93.0</ele><time>2026-05-03T07:58:08.107Z</time></trkpt><trkpt lat="45.357655" lon="10.73488"><ele>93.0</ele><time>2026-05-03T07:58:10.107Z</time></trkpt><trkpt lat="45.3577217" lon="10.7348917"><ele>93.0</ele><time>2026-05-03T07:58:12.107Z</time></trkpt><trkpt lat="45.3577883" lon="10.7349767"><ele>93.0</ele><time>2026-05-03T07:58:14.107Z</time></trkpt><trkpt lat="45.3578117" lon="10.73507"><ele>93.0</ele><time>2026-05-03T07:58:15.107Z</time></trkpt><trkpt lat="45.3578183" lon="10.735195"><ele>93.0</ele><time>2026-05-03T07:58:16.107Z</time></trkpt><trkpt lat="45.3578233" lon="10.735345"><ele>93.0</ele><time>2026-05-03T07:58:17.106Z</time></trkpt><trkpt lat="45.35783" lon="10.7355"><ele>93.0</ele><time>2026-05-03T07:58:18.107Z</time></trkpt><trkpt lat="45.3578467" lon="10.735655"><ele>93.0</ele><time>2026-05-03T07:58:19.107Z</time></trkpt><trkpt lat="45.3578817" lon="10.735805"><ele>93.0</ele><time>2026-05-03T07:58:20.106Z</time></trkpt><trkpt lat="45.3579367" lon="10.7359483"><ele>93.0</ele><time>2026-05-03T07:58:21.107Z</time></trkpt><trkpt lat="45.3580067" lon="10.7360983"><ele>93.25</ele><time>2026-05-03T07:58:22.107Z</time></trkpt><trkpt lat="45.35808" lon="10.7362617"><ele>93.5</ele><time>2026-05-03T07:58:23.107Z</time></trkpt><trkpt lat="45.3581483" lon="10.7364367"><ele>93.75</ele><time>2026-05-03T07:58:24.107Z</time></trkpt><trkpt lat="45.3582117" lon="10.73662"><ele>94.0</ele><time>2026-05-03T07:58:25.107Z</time></trkpt><trkpt lat="45.3582817" lon="10.7367767"><ele>93.80000000000001</ele><time>2026-05-03T07:58:26.107Z</time></trkpt><trkpt lat="45.358345" lon="10.7369183"><ele>93.60000000000001</ele><time>2026-05-03T07:58:27.106Z</time></trkpt><trkpt lat="45.3583917" lon="10.7370483"><ele>93.4</ele><time>2026-05-03T07:58:28.107Z</time></trkpt><trkpt lat="45.3584317" lon="10.7371917"><ele>93.2</ele><time>2026-05-03T07:58:29.107Z</time></trkpt><trkpt lat="45.3584533" lon="10.73734"><ele>93.0</ele><time>2026-05-03T07:58:30.107Z</time></trkpt><trkpt lat="45.3584633" lon="10.7375083"><ele>93.0</ele><time>2026-05-03T07:58:31.107Z</time></trkpt><trkpt lat="45.3584517" lon="10.7376867"><ele>93.0</ele><time>2026-05-03T07:58:32.107Z</time></trkpt><trkpt lat="45.358445" lon="10.7378717"><ele>93.0</ele><time>2026-05-03T07:58:33.107Z</time></trkpt><trkpt lat="45.358435" lon="10.7380633"><ele>93.0</ele><time>2026-05-03T07:58:34.107Z</time></trkpt><trkpt lat="45.35842" lon="10.738265"><ele>93.0</ele><time>2026-05-03T07:58:35.107Z</time></trkpt><trkpt lat="45.35841" lon="10.7384867"><ele>93.0</ele><time>2026-05-03T07:58:36.107Z</time></trkpt><trkpt lat="45.3584" lon="10.7386767"><ele>93.0</ele><time>2026-05-03T07:58:37.107Z</time></trkpt><trkpt lat="45.3583867" lon="10.73881"><ele>93.0</ele><time>2026-05-03T07:58:38.107Z</time></trkpt><trkpt lat="45.3583617" lon="10.738895"><ele>93.0</ele><time>2026-05-03T07:58:39.107Z</time></trkpt><trkpt lat="45.358255" lon="10.7389483"><ele>93.0</ele><time>2026-05-03T07:58:41.107Z</time></trkpt><trkpt lat="45.3581133" lon="10.738895"><ele>93.0</ele><time>2026-05-03T07:58:42.106Z</time></trkpt><trkpt lat="45.3579383" lon="10.738825"><ele>93.0</ele><time>2026-05-03T07:58:43.107Z</time></trkpt><trkpt lat="45.3577833" lon="10.738775"><ele>92.75</ele><time>2026-05-03T07:58:44.107Z</time></trkpt><trkpt lat="45.3576633" lon="10.7387517"><ele>92.5</ele><time>2026-05-03T07:58:45.106Z</time></trkpt><trkpt lat="45.357545" lon="10.7387233"><ele>92.25</ele><time>2026-05-03T07:58:46.107Z</time></trkpt><trkpt lat="45.35742" lon="10.73869"><ele>92.0</ele><time>2026-05-03T07:58:47.107Z</time></trkpt><trkpt lat="45.3572917" lon="10.7386533"><ele>92.0</ele><time>2026-05-03T07:58:48.107Z</time></trkpt><trkpt lat="45.3571567" lon="10.7386217"><ele>92.0</ele><time>2026-05-03T07:58:49.107Z</time></trkpt><trkpt lat="45.35701" lon="10.7385817"><ele>92.0</ele><time>2026-05-03T07:58:50.107Z</time></trkpt><trkpt lat="45.3568783" lon="10.738555"><ele>92.0</ele><time>2026-05-03T07:58:51.107Z</time></trkpt><trkpt lat="45.3567533" lon="10.7385217"><ele>92.0</ele><time>2026-05-03T07:58:52.107Z</time></trkpt><trkpt lat="45.3566317" lon="10.7384967"><ele>92.0</ele><time>2026-05-03T07:58:53.106Z</time></trkpt><trkpt lat="45.3565117" lon="10.7384767"><ele>92.0</ele><time>2026-05-03T07:58:54.106Z</time></trkpt><trkpt lat="45.35639" lon="10.7384433"><ele>92.0</ele><time>2026-05-03T07:58:55.107Z</time></trkpt><trkpt lat="45.35628" lon="10.738415"><ele>91.5</ele><time>2026-05-03T07:58:56.107Z</time></trkpt><trkpt lat="45.3561767" lon="10.73838"><ele>91.0</ele><time>2026-05-03T07:58:57.107Z</time></trkpt><trkpt lat="45.3560667" lon="10.738365"><ele>90.5</ele><time>2026-05-03T07:58:58.107Z</time></trkpt><trkpt lat="45.3559583" lon="10.7383283"><ele>90.0</ele><time>2026-05-03T07:58:59.107Z</time></trkpt><trkpt lat="45.355835" lon="10.73828"><ele>90.0</ele><time>2026-05-03T07:59:00.106Z</time></trkpt><trkpt lat="45.355715" lon="10.73825"><ele>90.0</ele><time>2026-05-03T07:59:01.107Z</time></trkpt><trkpt lat="45.35558" lon="10.7382167"><ele>90.0</ele><time>2026-05-03T07:59:02.107Z</time></trkpt><trkpt lat="45.3554483" lon="10.7381783"><ele>90.0</ele><time>2026-05-03T07:59:03.107Z</time></trkpt><trkpt lat="45.3553233" lon="10.7381267"><ele>90.25</ele><time>2026-05-03T07:59:04.106Z</time></trkpt><trkpt lat="45.3552033" lon="10.7380917"><ele>90.5</ele><time>2026-05-03T07:59:05.107Z</time></trkpt><trkpt lat="45.3550733" lon="10.73806"><ele>90.75</ele><time>2026-05-03T07:59:06.107Z</time></trkpt><trkpt lat="45.3549467" lon="10.73802"><ele>91.0</ele><time>2026-05-03T07:59:07.106Z</time></trkpt><trkpt lat="45.3548183" lon="10.7379633"><ele>90.5</ele><time>2026-05-03T07:59:08.107Z</time></trkpt><trkpt lat="45.3546967" lon="10.7379"><ele>90.0</ele><time>2026-05-03T07:59:09.106Z</time></trkpt><trkpt lat="45.3545833" lon="10.7378283"><ele>89.5</ele><time>2026-05-03T07:59:10.107Z</time></trkpt><trkpt lat="45.3544817" lon="10.7377533"><ele>89.0</ele><time>2026-05-03T07:59:11.107Z</time></trkpt><trkpt lat="45.3543883" lon="10.7376967"><ele>89.0</ele><time>2026-05-03T07:59:12.106Z</time></trkpt><trkpt lat="45.3542967" lon="10.73765"><ele>89.0</ele><time>2026-05-03T07:59:13.107Z</time></trkpt><trkpt lat="45.3542167" lon="10.737615"><ele>89.0</ele><time>2026-05-03T07:59:14.107Z</time></trkpt><trkpt lat="45.3541583" lon="10.7375733"><ele>89.0</ele><time>2026-05-03T07:59:15.107Z</time></trkpt><trkpt lat="45.3540867" lon="10.73751"><ele>89.0</ele><time>2026-05-03T07:59:17.107Z</time></trkpt><trkpt lat="45.3540117" lon="10.7374717"><ele>89.0</ele><time>2026-05-03T07:59:20.106Z</time></trkpt><trkpt lat="45.3539417" lon="10.7374383"><ele>88.80000000000001</ele><time>2026-05-03T07:59:23.107Z</time></trkpt><trkpt lat="45.35387" lon="10.7373983"><ele>88.60000000000001</ele><time>2026-05-03T07:59:32.107Z</time></trkpt><trkpt lat="45.3537667" lon="10.7372733"><ele>88.4</ele><time>2026-05-03T07:59:39.107Z</time></trkpt><trkpt lat="45.353665" lon="10.7371883"><ele>88.2</ele><time>2026-05-03T07:59:41.107Z</time></trkpt><trkpt lat="45.3535833" lon="10.7371783"><ele>88.0</ele><time>2026-05-03T07:59:42.107Z</time></trkpt><trkpt lat="45.35349" lon="10.737145"><ele>88.0</ele><time>2026-05-03T07:59:43.106Z</time></trkpt><trkpt lat="45.353405" lon="10.7370833"><ele>88.0</ele><time>2026-05-03T07:59:44.106Z</time></trkpt><trkpt lat="45.353325" lon="10.7369933"><ele>88.0</ele><time>2026-05-03T07:59:45.107Z</time></trkpt><trkpt lat="45.35327" lon="10.7368983"><ele>88.0</ele><time>2026-05-03T07:59:46.107Z</time></trkpt><trkpt lat="45.3532183" lon="10.7368133"><ele>88.0</ele><time>2026-05-03T07:59:47.107Z</time></trkpt><trkpt lat="45.3531733" lon="10.7367367"><ele>88.0</ele><time>2026-05-03T07:59:48.107Z</time></trkpt><trkpt lat="45.3530883" lon="10.7366267"><ele>88.0</ele><time>2026-05-03T07:59:50.106Z</time></trkpt><trkpt lat="45.353005" lon="10.73653"><ele>88.0</ele><time>2026-05-03T07:59:52.107Z</time></trkpt><trkpt lat="45.3529417" lon="10.7364533"><ele>88.0</ele><time>2026-05-03T07:59:54.107Z</time></trkpt><trkpt lat="45.352885" lon="10.73638"><ele>88.0</ele><time>2026-05-03T07:59:57.107Z</time></trkpt><trkpt lat="45.3528167" lon="10.7363083"><ele>88.0</ele><time>2026-05-03T07:59:59.106Z</time></trkpt><trkpt lat="45.35274" lon="10.7363133"><ele>88.0</ele><time>2026-05-03T08:00:01.106Z</time></trkpt><trkpt lat="45.3527133" lon="10.736415"><ele>88.0</ele><time>2026-05-03T08:00:02.107Z</time></trkpt><trkpt lat="45.3526867" lon="10.7365417"><ele>88.0</ele><time>2026-05-03T08:00:03.108Z</time></trkpt><trkpt lat="45.35266" lon="10.7366783"><ele>88.0</ele><time>2026-05-03T08:00:04.108Z</time></trkpt><trkpt lat="45.3526267" lon="10.7368333"><ele>88.0</ele><time>2026-05-03T08:00:05.108Z</time></trkpt><trkpt lat="45.352585" lon="10.736995"><ele>88.0</ele><time>2026-05-03T08:00:06.107Z</time></trkpt><trkpt lat="45.3525433" lon="10.7371617"><ele>88.0</ele><time>2026-05-03T08:00:07.108Z</time></trkpt><trkpt lat="45.3524967" lon="10.737345"><ele>88.0</ele><time>2026-05-03T08:00:08.107Z</time></trkpt><trkpt lat="45.3524483" lon="10.7375367"><ele>88.0</ele><time>2026-05-03T08:00:09.107Z</time></trkpt><trkpt lat="45.3524083" lon="10.7377183"><ele>88.0</ele><time>2026-05-03T08:00:10.108Z</time></trkpt><trkpt lat="45.3523767" lon="10.737895"><ele>88.0</ele><time>2026-05-03T08:00:11.108Z</time></trkpt><trkpt lat="45.3523417" lon="10.7380467"><ele>88.0</ele><time>2026-05-03T08:00:12.108Z</time></trkpt><trkpt lat="45.3523083" lon="10.7381783"><ele>88.0</ele><time>2026-05-03T08:00:13.108Z</time></trkpt><trkpt lat="45.3522783" lon="10.7383033"><ele>88.0</ele><time>2026-05-03T08:00:14.108Z</time></trkpt><trkpt lat="45.352245" lon="10.7384317"><ele>88.0</ele><time>2026-05-03T08:00:15.108Z</time></trkpt><trkpt lat="45.35221" lon="10.7385767"><ele>88.0</ele><time>2026-05-03T08:00:16.107Z</time></trkpt><trkpt lat="45.352175" lon="10.7387267"><ele>88.0</ele><time>2026-05-03T08:00:17.108Z</time></trkpt><trkpt lat="45.3521367" lon="10.7388883"><ele>88.0</ele><time>2026-05-03T08:00:18.108Z</time></trkpt><trkpt lat="45.3521067" lon="10.73905"><ele>88.0</ele><time>2026-05-03T08:00:19.108Z</time></trkpt><trkpt lat="45.3520667" lon="10.7392117"><ele>88.0</ele><time>2026-05-03T08:00:20.108Z</time></trkpt><trkpt lat="45.35203" lon="10.739375"><ele>88.0</ele><time>2026-05-03T08:00:21.108Z</time></trkpt><trkpt lat="45.35198" lon="10.7395433"><ele>88.0</ele><time>2026-05-03T08:00:22.108Z</time></trkpt><trkpt lat="45.35193" lon="10.739705"><ele>88.0</ele><time>2026-05-03T08:00:23.108Z</time></trkpt><trkpt lat="45.3518867" lon="10.7398717"><ele>87.5</ele><time>2026-05-03T08:00:24.107Z</time></trkpt><trkpt lat="45.35184" lon="10.740045"><ele>87.0</ele><time>2026-05-03T08:00:25.108Z</time></trkpt><trkpt lat="45.3518017" lon="10.7402167"><ele>86.5</ele><time>2026-05-03T08:00:26.108Z</time></trkpt><trkpt lat="45.35176" lon="10.7403867"><ele>86.0</ele><time>2026-05-03T08:00:27.108Z</time></trkpt><trkpt lat="45.3517183" lon="10.7405583"><ele>86.0</ele><time>2026-05-03T08:00:28.108Z</time></trkpt><trkpt lat="45.3516817" lon="10.74073"><ele>86.0</ele><time>2026-05-03T08:00:29.108Z</time></trkpt><trkpt lat="45.351645" lon="10.740895"><ele>86.0</ele><time>2026-05-03T08:00:30.108Z</time></trkpt><trkpt lat="45.3516117" lon="10.74106"><ele>86.0</ele><time>2026-05-03T08:00:31.108Z</time></trkpt><trkpt lat="45.3515717" lon="10.7412167"><ele>86.0</ele><time>2026-05-03T08:00:32.108Z</time></trkpt><trkpt lat="45.351525" lon="10.7413817"><ele>86.0</ele><time>2026-05-03T08:00:33.107Z</time></trkpt><trkpt lat="45.3514833" lon="10.7415483"><ele>86.0</ele><time>2026-05-03T08:00:34.108Z</time></trkpt><trkpt lat="45.3514367" lon="10.7417233"><ele>86.0</ele><time>2026-05-03T08:00:35.107Z</time></trkpt><trkpt lat="45.3513917" lon="10.7418917"><ele>85.0</ele><time>2026-05-03T08:00:36.108Z</time></trkpt><trkpt lat="45.3513483" lon="10.7420633"><ele>84.0</ele><time>2026-05-03T08:00:37.108Z</time></trkpt><trkpt lat="45.3513083" lon="10.7422383"><ele>83.0</ele><time>2026-05-03T08:00:38.108Z</time></trkpt><trkpt lat="45.35127" lon="10.742415"><ele>82.0</ele><time>2026-05-03T08:00:39.108Z</time></trkpt><trkpt lat="45.351235" lon="10.7425867"><ele>82.39999999999999</ele><time>2026-05-03T08:00:40.107Z</time></trkpt><trkpt lat="45.3512033" lon="10.7427383"><ele>82.8</ele><time>2026-05-03T08:00:41.107Z</time></trkpt><trkpt lat="45.3511717" lon="10.7428683"><ele>83.2</ele><time>2026-05-03T08:00:42.107Z</time></trkpt><trkpt lat="45.3511483" lon="10.7429833"><ele>83.6</ele><time>2026-05-03T08:00:43.107Z</time></trkpt><trkpt lat="45.35112" lon="10.7431133"><ele>84.0</ele><time>2026-05-03T08:00:44.107Z</time></trkpt><trkpt lat="45.351085" lon="10.743245"><ele>84.0</ele><time>2026-05-03T08:00:45.108Z</time></trkpt><trkpt lat="45.3510467" lon="10.7433933"><ele>84.0</ele><time>2026-05-03T08:00:46.107Z</time></trkpt><trkpt lat="45.3509983" lon="10.743545"><ele>84.0</ele><time>2026-05-03T08:00:47.107Z</time></trkpt><trkpt lat="45.350965" lon="10.7437167"><ele>84.0</ele><time>2026-05-03T08:00:48.108Z</time></trkpt><trkpt lat="45.3509233" lon="10.74387"><ele>84.0</ele><time>2026-05-03T08:00:49.108Z</time></trkpt><trkpt lat="45.3508867" lon="10.744005"><ele>84.0</ele><time>2026-05-03T08:00:50.107Z</time></trkpt><trkpt lat="45.35084" lon="10.74411"><ele>84.0</ele><time>2026-05-03T08:00:51.108Z</time></trkpt><trkpt lat="45.3507767" lon="10.7441833"><ele>84.0</ele><time>2026-05-03T08:00:52.108Z</time></trkpt><trkpt lat="45.35072" lon="10.7442733"><ele>84.0</ele><time>2026-05-03T08:00:53.108Z</time></trkpt><trkpt lat="45.3506867" lon="10.744375"><ele>84.0</ele><time>2026-05-03T08:00:54.108Z</time></trkpt><trkpt lat="45.3506867" lon="10.744485"><ele>83.75</ele><time>2026-05-03T08:00:55.107Z</time></trkpt><trkpt lat="45.3507" lon="10.7446233"><ele>83.5</ele><time>2026-05-03T08:00:56.108Z</time></trkpt><trkpt lat="45.3506883" lon="10.7447917"><ele>83.25</ele><time>2026-05-03T08:00:57.107Z</time></trkpt><trkpt lat="45.3506567" lon="10.7449583"><ele>83.0</ele><time>2026-05-03T08:00:58.108Z</time></trkpt><trkpt lat="45.3506133" lon="10.7451317"><ele>82.75</ele><time>2026-05-03T08:00:59.108Z</time></trkpt><trkpt lat="45.3505617" lon="10.74532"><ele>82.5</ele><time>2026-05-03T08:01:00.108Z</time></trkpt><trkpt lat="45.3505183" lon="10.7455083"><ele>82.25</ele><time>2026-05-03T08:01:01.108Z</time></trkpt><trkpt lat="45.3504717" lon="10.7456967"><ele>82.0</ele><time>2026-05-03T08:01:02.107Z</time></trkpt><trkpt lat="45.3504133" lon="10.7458733"><ele>82.0</ele><time>2026-05-03T08:01:03.108Z</time></trkpt><trkpt lat="45.350355" lon="10.7460383"><ele>82.0</ele><time>2026-05-03T08:01:04.108Z</time></trkpt><trkpt lat="45.3502817" lon="10.7461867"><ele>82.0</ele><time>2026-05-03T08:01:05.108Z</time></trkpt><trkpt lat="45.3501983" lon="10.7463467"><ele>82.0</ele><time>2026-05-03T08:01:06.108Z</time></trkpt><trkpt lat="45.350115" lon="10.7465033"><ele>82.0</ele><time>2026-05-03T08:01:07.108Z</time></trkpt><trkpt lat="45.3500233" lon="10.7466633"><ele>82.0</ele><time>2026-05-03T08:01:08.108Z</time></trkpt><trkpt lat="45.3499283" lon="10.7468283"><ele>82.0</ele><time>2026-05-03T08:01:09.107Z</time></trkpt><trkpt lat="45.3498383" lon="10.7469933"><ele>82.0</ele><time>2026-05-03T08:01:10.107Z</time></trkpt><trkpt lat="45.3497483" lon="10.74716"><ele>82.0</ele><time>2026-05-03T08:01:11.108Z</time></trkpt><trkpt lat="45.3496583" lon="10.747325"><ele>82.0</ele><time>2026-05-03T08:01:12.107Z</time></trkpt><trkpt lat="45.3495633" lon="10.7474917"><ele>82.0</ele><time>2026-05-03T08:01:13.108Z</time></trkpt><trkpt lat="45.3494633" lon="10.747655"><ele>82.0</ele><time>2026-05-03T08:01:14.108Z</time></trkpt><trkpt lat="45.3493683" lon="10.747825"><ele>82.0</ele><time>2026-05-03T08:01:15.108Z</time></trkpt><trkpt lat="45.34928" lon="10.747985"><ele>82.0</ele><time>2026-05-03T08:01:16.108Z</time></trkpt><trkpt lat="45.349195" lon="10.7481417"><ele>82.0</ele><time>2026-05-03T08:01:17.108Z</time></trkpt><trkpt lat="45.3491033" lon="10.7482983"><ele>82.0</ele><time>2026-05-03T08:01:18.108Z</time></trkpt><trkpt lat="45.34901" lon="10.7484583"><ele>82.0</ele><time>2026-05-03T08:01:19.108Z</time></trkpt><trkpt lat="45.3489233" lon="10.7486233"><ele>82.0</ele><time>2026-05-03T08:01:20.107Z</time></trkpt><trkpt lat="45.3488317" lon="10.7487883"><ele>82.0</ele><time>2026-05-03T08:01:21.108Z</time></trkpt><trkpt lat="45.3487383" lon="10.748945"><ele>81.75</ele><time>2026-05-03T08:01:22.108Z</time></trkpt><trkpt lat="45.3486583" lon="10.7490933"><ele>81.5</ele><time>2026-05-03T08:01:23.108Z</time></trkpt><trkpt lat="45.34858" lon="10.74923"><ele>81.25</ele><time>2026-05-03T08:01:24.108Z</time></trkpt><trkpt lat="45.3485033" lon="10.7493583"><ele>81.0</ele><time>2026-05-03T08:01:25.108Z</time></trkpt><trkpt lat="45.3484283" lon="10.7494817"><ele>81.0</ele><time>2026-05-03T08:01:26.108Z</time></trkpt><trkpt lat="45.3483567" lon="10.7495967"><ele>81.0</ele><time>2026-05-03T08:01:27.108Z</time></trkpt><trkpt lat="45.34829" lon="10.7497083"><ele>81.0</ele><time>2026-05-03T08:01:28.108Z</time></trkpt><trkpt lat="45.3482267" lon="10.74981"><ele>81.0</ele><time>2026-05-03T08:01:29.107Z</time></trkpt><trkpt lat="45.3481683" lon="10.7499117"><ele>81.0</ele><time>2026-05-03T08:01:30.108Z</time></trkpt><trkpt lat="45.34811" lon="10.75001"><ele>81.0</ele><time>2026-05-03T08:01:31.107Z</time></trkpt><trkpt lat="45.3480533" lon="10.7501133"><ele>81.0</ele><time>2026-05-03T08:01:32.108Z</time></trkpt><trkpt lat="45.34799" lon="10.7502217"><ele>81.0</ele><time>2026-05-03T08:01:33.108Z</time></trkpt><trkpt lat="45.347925" lon="10.75034"><ele>81.0</ele><time>2026-05-03T08:01:34.108Z</time></trkpt><trkpt lat="45.3478583" lon="10.7504633"><ele>81.0</ele><time>2026-05-03T08:01:35.108Z</time></trkpt><trkpt lat="45.3477783" lon="10.7505983"><ele>80.75</ele><time>2026-05-03T08:01:36.108Z</time></trkpt><trkpt lat="45.3477017" lon="10.7507383"><ele>80.5</ele><time>2026-05-03T08:01:37.107Z</time></trkpt><trkpt lat="45.3476217" lon="10.75088"><ele>80.25</ele><time>2026-05-03T08:01:38.108Z</time></trkpt><trkpt lat="45.34754" lon="10.7510233"><ele>80.0</ele><time>2026-05-03T08:01:39.108Z</time></trkpt><trkpt lat="45.347455" lon="10.7511783"><ele>79.75</ele><time>2026-05-03T08:01:40.108Z</time></trkpt><trkpt lat="45.3473667" lon="10.75133"><ele>79.5</ele><time>2026-05-03T08:01:41.107Z</time></trkpt><trkpt lat="45.3472783" lon="10.751485"><ele>79.25</ele><time>2026-05-03T08:01:42.108Z</time></trkpt><trkpt lat="45.3471833" lon="10.7516483"><ele>79.0</ele><time>2026-05-03T08:01:43.107Z</time></trkpt><trkpt lat="45.3470883" lon="10.7518133"><ele>78.5</ele><time>2026-05-03T08:01:44.108Z</time></trkpt><trkpt lat="45.347" lon="10.7519767"><ele>78.0</ele><time>2026-05-03T08:01:45.108Z</time></trkpt><trkpt lat="45.3469067" lon="10.7521367"><ele>77.5</ele><time>2026-05-03T08:01:46.108Z</time></trkpt><trkpt lat="45.3468083" lon="10.75229"><ele>77.0</ele><time>2026-05-03T08:01:47.108Z</time></trkpt><trkpt lat="45.3467083" lon="10.7524483"><ele>77.0</ele><time>2026-05-03T08:01:48.108Z</time></trkpt><trkpt lat="45.3466033" lon="10.7525983"><ele>77.0</ele><time>2026-05-03T08:01:49.108Z</time></trkpt><trkpt lat="45.3464833" lon="10.752735"><ele>77.0</ele><time>2026-05-03T08:01:50.108Z</time></trkpt><trkpt lat="45.3463617" lon="10.7528617"><ele>76.66666666666667</ele><time>2026-05-03T08:01:51.107Z</time></trkpt><trkpt lat="45.34624" lon="10.75299"><ele>76.33333333333333</ele><time>2026-05-03T08:01:52.108Z</time></trkpt><trkpt lat="45.3461167" lon="10.7531217"><ele>76.0</ele><time>2026-05-03T08:01:53.107Z</time></trkpt><trkpt lat="45.3459967" lon="10.7532517"><ele>76.0</ele><time>2026-05-03T08:01:54.107Z</time></trkpt><trkpt lat="45.3458717" lon="10.753385"><ele>76.0</ele><time>2026-05-03T08:01:55.108Z</time></trkpt><trkpt lat="45.3457483" lon="10.7535217"><ele>76.0</ele><time>2026-05-03T08:01:56.108Z</time></trkpt><trkpt lat="45.3456233" lon="10.7536583"><ele>76.33333333333333</ele><time>2026-05-03T08:01:57.108Z</time></trkpt><trkpt lat="45.3455017" lon="10.7537933"><ele>76.66666666666667</ele><time>2026-05-03T08:01:58.108Z</time></trkpt><trkpt lat="45.34537" lon="10.75393"><ele>77.0</ele><time>2026-05-03T08:01:59.108Z</time></trkpt><trkpt lat="45.3452417" lon="10.75407"><ele>77.0</ele><time>2026-05-03T08:02:00.107Z</time></trkpt><trkpt lat="45.3451167" lon="10.754215"><ele>77.0</ele><time>2026-05-03T08:02:01.108Z</time></trkpt><trkpt lat="45.344985" lon="10.7543567"><ele>77.0</ele><time>2026-05-03T08:02:02.108Z</time></trkpt><trkpt lat="45.3448517" lon="10.7544933"><ele>77.33333333333334</ele><time>2026-05-03T08:02:03.108Z</time></trkpt><trkpt lat="45.344725" lon="10.7546267"><ele>77.66666666666667</ele><time>2026-05-03T08:02:04.108Z</time></trkpt><trkpt lat="45.3446067" lon="10.754755"><ele>78.0</ele><time>2026-05-03T08:02:05.108Z</time></trkpt><trkpt lat="45.3444967" lon="10.7548867"><ele>77.5</ele><time>2026-05-03T08:02:06.108Z</time></trkpt><trkpt lat="45.3443883" lon="10.755015"><ele>77.0</ele><time>2026-05-03T08:02:07.108Z</time></trkpt><trkpt lat="45.3442783" lon="10.7551483"><ele>76.5</ele><time>2026-05-03T08:02:08.108Z</time></trkpt><trkpt lat="45.3441717" lon="10.7552867"><ele>76.0</ele><time>2026-05-03T08:02:09.108Z</time></trkpt><trkpt lat="45.3440633" lon="10.75542"><ele>76.0</ele><time>2026-05-03T08:02:10.107Z</time></trkpt><trkpt lat="45.3439683" lon="10.7555483"><ele>76.0</ele><time>2026-05-03T08:02:11.108Z</time></trkpt><trkpt lat="45.3438833" lon="10.755665"><ele>76.0</ele><time>2026-05-03T08:02:12.108Z</time></trkpt><trkpt lat="45.34381" lon="10.7557667"><ele>76.0</ele><time>2026-05-03T08:02:13.108Z</time></trkpt><trkpt lat="45.3437533" lon="10.755845"><ele>76.0</ele><time>2026-05-03T08:02:14.107Z</time></trkpt><trkpt lat="45.34368" lon="10.7559383"><ele>76.0</ele><time>2026-05-03T08:02:16.108Z</time></trkpt><trkpt lat="45.3437417" lon="10.7560983"><ele>76.0</ele><time>2026-05-03T08:02:19.107Z</time></trkpt><trkpt lat="45.3438167" lon="10.7561833"><ele>76.0</ele><time>2026-05-03T08:02:20.108Z</time></trkpt><trkpt lat="45.3438917" lon="10.7562683"><ele>76.0</ele><time>2026-05-03T08:02:21.108Z</time></trkpt><trkpt lat="45.3440033" lon="10.7564"><ele>76.0</ele><time>2026-05-03T08:02:22.107Z</time></trkpt><trkpt lat="45.344155" lon="10.756575"><ele>76.0</ele><time>2026-05-03T08:02:23.108Z</time></trkpt><trkpt lat="45.344315" lon="10.7567567"><ele>76.0</ele><time>2026-05-03T08:02:24.107Z</time></trkpt><trkpt lat="45.34446" lon="10.7569183"><ele>76.0</ele><time>2026-05-03T08:02:25.108Z</time></trkpt><trkpt lat="45.3445933" lon="10.7570583"><ele>76.0</ele><time>2026-05-03T08:02:26.108Z</time></trkpt><trkpt lat="45.344705" lon="10.7571717"><ele>76.0</ele><time>2026-05-03T08:02:27.108Z</time></trkpt><trkpt lat="45.3448" lon="10.7572733"><ele>76.0</ele><time>2026-05-03T08:02:28.108Z</time></trkpt><trkpt lat="45.3448767" lon="10.7573667"><ele>76.0</ele><time>2026-05-03T08:02:29.108Z</time></trkpt><trkpt lat="45.3449217" lon="10.7574583"><ele>76.0</ele><time>2026-05-03T08:02:30.108Z</time></trkpt><trkpt lat="45.34494" lon="10.7575583"><ele>76.0</ele><time>2026-05-03T08:02:31.108Z</time></trkpt><trkpt lat="45.34493" lon="10.7576517"><ele>76.0</ele><time>2026-05-03T08:02:32.108Z</time></trkpt><trkpt lat="45.3448967" lon="10.75774"><ele>76.0</ele><time>2026-05-03T08:02:33.108Z</time></trkpt><trkpt lat="45.3448567" lon="10.7578317"><ele>76.0</ele><time>2026-05-03T08:02:34.108Z</time></trkpt><trkpt lat="45.3448017" lon="10.7579533"><ele>75.8</ele><time>2026-05-03T08:02:35.108Z</time></trkpt><trkpt lat="45.344755" lon="10.7580983"><ele>75.6</ele><time>2026-05-03T08:02:36.108Z</time></trkpt><trkpt lat="45.3447083" lon="10.7582433"><ele>75.4</ele><time>2026-05-03T08:02:37.107Z</time></trkpt><trkpt lat="45.3446583" lon="10.7583817"><ele>75.2</ele><time>2026-05-03T08:02:38.108Z</time></trkpt><trkpt lat="45.344605" lon="10.7585167"><ele>75.0</ele><time>2026-05-03T08:02:39.108Z</time></trkpt><trkpt lat="45.3445417" lon="10.7586667"><ele>75.0</ele><time>2026-05-03T08:02:40.108Z</time></trkpt><trkpt lat="45.3444667" lon="10.7588217"><ele>75.0</ele><time>2026-05-03T08:02:41.108Z</time></trkpt><trkpt lat="45.3443883" lon="10.7589767"><ele>75.0</ele><time>2026-05-03T08:02:42.108Z</time></trkpt><trkpt lat="45.344315" lon="10.7591317"><ele>75.0</ele><time>2026-05-03T08:02:43.108Z</time></trkpt><trkpt lat="45.34425" lon="10.7592833"><ele>75.25</ele><time>2026-05-03T08:02:44.108Z</time></trkpt><trkpt lat="45.3441733" lon="10.7594367"><ele>75.5</ele><time>2026-05-03T08:02:45.107Z</time></trkpt><trkpt lat="45.3440967" lon="10.75959"><ele>75.75</ele><time>2026-05-03T08:02:46.108Z</time></trkpt><trkpt lat="45.3440367" lon="10.7597267"><ele>76.0</ele><time>2026-05-03T08:02:47.108Z</time></trkpt><trkpt lat="45.3439717" lon="10.75986"><ele>76.0</ele><time>2026-05-03T08:02:48.107Z</time></trkpt><trkpt lat="45.3439033" lon="10.75999"><ele>76.0</ele><time>2026-05-03T08:02:49.108Z</time></trkpt><trkpt lat="45.34385" lon="10.7601467"><ele>76.0</ele><time>2026-05-03T08:02:50.108Z</time></trkpt><trkpt lat="45.343805" lon="10.7603333"><ele>76.0</ele><time>2026-05-03T08:02:51.108Z</time></trkpt><trkpt lat="45.3437717" lon="10.7605083"><ele>75.5</ele><time>2026-05-03T08:02:52.108Z</time></trkpt><trkpt lat="45.34374" lon="10.7606917"><ele>75.0</ele><time>2026-05-03T08:02:53.107Z</time></trkpt><trkpt lat="45.3437133" lon="10.7608583"><ele>74.5</ele><time>2026-05-03T08:02:54.108Z</time></trkpt><trkpt lat="45.3436983" lon="10.7610183"><ele>74.0</ele><time>2026-05-03T08:02:55.108Z</time></trkpt><trkpt lat="45.34368" lon="10.761185"><ele>74.0</ele><time>2026-05-03T08:02:56.108Z</time></trkpt><trkpt lat="45.343655" lon="10.76135"><ele>74.0</ele><time>2026-05-03T08:02:57.108Z</time></trkpt><trkpt lat="45.3436183" lon="10.7615083"><ele>74.0</ele><time>2026-05-03T08:02:58.108Z</time></trkpt><trkpt lat="45.3435583" lon="10.7616633"><ele>74.0</ele><time>2026-05-03T08:02:59.108Z</time></trkpt><trkpt lat="45.3434917" lon="10.7618083"><ele>74.0</ele><time>2026-05-03T08:03:00.107Z</time></trkpt><trkpt lat="45.3434267" lon="10.7619233"><ele>74.0</ele><time>2026-05-03T08:03:01.108Z</time></trkpt><trkpt lat="45.3433633" lon="10.76203"><ele>74.0</ele><time>2026-05-03T08:03:02.108Z</time></trkpt><trkpt lat="45.3432983" lon="10.7621417"><ele>74.0</ele><time>2026-05-03T08:03:03.108Z</time></trkpt><trkpt lat="45.3432317" lon="10.76227"><ele>74.0</ele><time>2026-05-03T08:03:04.108Z</time></trkpt><trkpt lat="45.343165" lon="10.762415"><ele>74.0</ele><time>2026-05-03T08:03:05.108Z</time></trkpt><trkpt lat="45.34311" lon="10.7625783"><ele>74.0</ele><time>2026-05-03T08:03:06.107Z</time></trkpt><trkpt lat="45.3430633" lon="10.7627417"><ele>74.0</ele><time>2026-05-03T08:03:07.108Z</time></trkpt><trkpt lat="45.34302" lon="10.76289"><ele>74.0</ele><time>2026-05-03T08:03:08.107Z</time></trkpt><trkpt lat="45.3429667" lon="10.76305"><ele>73.75</ele><time>2026-05-03T08:03:09.108Z</time></trkpt><trkpt lat="45.3429067" lon="10.76321"><ele>73.5</ele><time>2026-05-03T08:03:10.108Z</time></trkpt><trkpt lat="45.3428417" lon="10.7633733"><ele>73.25</ele><time>2026-05-03T08:03:11.107Z</time></trkpt><trkpt lat="45.3427783" lon="10.7635233"><ele>73.0</ele><time>2026-05-03T08:03:12.108Z</time></trkpt><trkpt lat="45.342725" lon="10.7636617"><ele>73.0</ele><time>2026-05-03T08:03:13.108Z</time></trkpt><trkpt lat="45.3426667" lon="10.763805"><ele>73.0</ele><time>2026-05-03T08:03:14.108Z</time></trkpt><trkpt lat="45.3426" lon="10.7639433"><ele>73.0</ele><time>2026-05-03T08:03:15.108Z</time></trkpt><trkpt lat="45.3425267" lon="10.76408"><ele>73.0</ele><time>2026-05-03T08:03:16.108Z</time></trkpt><trkpt lat="45.34245" lon="10.764215"><ele>73.0</ele><time>2026-05-03T08:03:17.108Z</time></trkpt><trkpt lat="45.34237" lon="10.7643467"><ele>73.0</ele><time>2026-05-03T08:03:18.108Z</time></trkpt><trkpt lat="45.3422767" lon="10.7644833"><ele>73.0</ele><time>2026-05-03T08:03:19.108Z</time></trkpt><trkpt lat="45.3421917" lon="10.7646233"><ele>73.0</ele><time>2026-05-03T08:03:20.108Z</time></trkpt><trkpt lat="45.3421117" lon="10.7647683"><ele>72.75</ele><time>2026-05-03T08:03:21.108Z</time></trkpt><trkpt lat="45.342025" lon="10.7649317"><ele>72.5</ele><time>2026-05-03T08:03:22.108Z</time></trkpt><trkpt lat="45.3419333" lon="10.7650983"><ele>72.25</ele><time>2026-05-03T08:03:23.108Z</time></trkpt><trkpt lat="45.341855" lon="10.765255"><ele>72.0</ele><time>2026-05-03T08:03:24.107Z</time></trkpt><trkpt lat="45.3417783" lon="10.7654117"><ele>72.0</ele><time>2026-05-03T08:03:25.108Z</time></trkpt><trkpt lat="45.3417083" lon="10.7655867"><ele>72.0</ele><time>2026-05-03T08:03:26.108Z</time></trkpt><trkpt lat="45.3416383" lon="10.765765"><ele>72.0</ele><time>2026-05-03T08:03:27.107Z</time></trkpt><trkpt lat="45.3415683" lon="10.7659433"><ele>72.0</ele><time>2026-05-03T08:03:28.108Z</time></trkpt><trkpt lat="45.3414967" lon="10.7661233"><ele>72.0</ele><time>2026-05-03T08:03:29.108Z</time></trkpt><trkpt lat="45.3414233" lon="10.7662967"><ele>72.0</ele><time>2026-05-03T08:03:30.108Z</time></trkpt><trkpt lat="45.3413533" lon="10.76648"><ele>72.0</ele><time>2026-05-03T08:03:31.108Z</time></trkpt><trkpt lat="45.3412683" lon="10.76667"><ele>72.0</ele><time>2026-05-03T08:03:32.108Z</time></trkpt><trkpt lat="45.3411817" lon="10.7668533"><ele>72.0</ele><time>2026-05-03T08:03:33.107Z</time></trkpt><trkpt lat="45.341095" lon="10.7670467"><ele>72.0</ele><time>2026-05-03T08:03:34.108Z</time></trkpt><trkpt lat="45.341015" lon="10.7672483"><ele>72.0</ele><time>2026-05-03T08:03:35.108Z</time></trkpt><trkpt lat="45.3409383" lon="10.767445"><ele>72.0</ele><time>2026-05-03T08:03:36.108Z</time></trkpt><trkpt lat="45.34086" lon="10.7676433"><ele>72.0</ele><time>2026-05-03T08:03:37.108Z</time></trkpt><trkpt lat="45.3407783" lon="10.767845"><ele>72.0</ele><time>2026-05-03T08:03:38.108Z</time></trkpt><trkpt lat="45.3406967" lon="10.7680483"><ele>71.66666666666667</ele><time>2026-05-03T08:03:39.108Z</time></trkpt><trkpt lat="45.3406167" lon="10.7682417"><ele>71.33333333333334</ele><time>2026-05-03T08:03:40.107Z</time></trkpt><trkpt lat="45.34055" lon="10.76844"><ele>71.0</ele><time>2026-05-03T08:03:41.108Z</time></trkpt><trkpt lat="45.3404717" lon="10.76864"><ele>71.66666666666667</ele><time>2026-05-03T08:03:42.108Z</time></trkpt><trkpt lat="45.3403933" lon="10.76885"><ele>72.33333333333333</ele><time>2026-05-03T08:03:43.107Z</time></trkpt><trkpt lat="45.3403183" lon="10.7690467"><ele>73.0</ele><time>2026-05-03T08:03:44.108Z</time></trkpt><trkpt lat="45.3402417" lon="10.7692533"><ele>72.33333333333333</ele><time>2026-05-03T08:03:45.107Z</time></trkpt><trkpt lat="45.340165" lon="10.7694517"><ele>71.66666666666667</ele><time>2026-05-03T08:03:46.108Z</time></trkpt><trkpt lat="45.3400917" lon="10.7696483"><ele>71.0</ele><time>2026-05-03T08:03:47.108Z</time></trkpt><trkpt lat="45.340015" lon="10.769845"><ele>71.0</ele><time>2026-05-03T08:03:48.108Z</time></trkpt><trkpt lat="45.3399383" lon="10.7700367"><ele>71.0</ele><time>2026-05-03T08:03:49.107Z</time></trkpt><trkpt lat="45.3398567" lon="10.7702317"><ele>71.0</ele><time>2026-05-03T08:03:50.108Z</time></trkpt><trkpt lat="45.3397917" lon="10.7704267"><ele>70.66666666666667</ele><time>2026-05-03T08:03:51.108Z</time></trkpt><trkpt lat="45.3397267" lon="10.77061"><ele>70.33333333333333</ele><time>2026-05-03T08:03:52.108Z</time></trkpt><trkpt lat="45.33965" lon="10.7708033"><ele>70.0</ele><time>2026-05-03T08:03:53.108Z</time></trkpt><trkpt lat="45.33957" lon="10.77101"><ele>70.0</ele><time>2026-05-03T08:03:54.108Z</time></trkpt><trkpt lat="45.3394783" lon="10.7712233"><ele>70.0</ele><time>2026-05-03T08:03:55.108Z</time></trkpt><trkpt lat="45.3393833" lon="10.771435"><ele>70.0</ele><time>2026-05-03T08:03:56.108Z</time></trkpt><trkpt lat="45.339275" lon="10.7716567"><ele>70.0</ele><time>2026-05-03T08:03:57.108Z</time></trkpt><trkpt lat="45.3391733" lon="10.77188"><ele>70.0</ele><time>2026-05-03T08:03:58.108Z</time></trkpt><trkpt lat="45.33906" lon="10.7721183"><ele>70.0</ele><time>2026-05-03T08:03:59.108Z</time></trkpt><trkpt lat="45.338945" lon="10.7723483"><ele>69.66666666666666</ele><time>2026-05-03T08:04:00.108Z</time></trkpt><trkpt lat="45.3388283" lon="10.7725833"><ele>69.33333333333333</ele><time>2026-05-03T08:04:01.108Z</time></trkpt><trkpt lat="45.3387117" lon="10.77281"><ele>69.0</ele><time>2026-05-03T08:04:02.108Z</time></trkpt><trkpt lat="45.3385933" lon="10.7730417"><ele>69.0</ele><time>2026-05-03T08:04:03.107Z</time></trkpt><trkpt lat="45.3384733" lon="10.7732667"><ele>69.0</ele><time>2026-05-03T08:04:04.108Z</time></trkpt><trkpt lat="45.33837" lon="10.7734717"><ele>69.0</ele><time>2026-05-03T08:04:05.108Z</time></trkpt><trkpt lat="45.3382767" lon="10.7736467"><ele>68.60000000000001</ele><time>2026-05-03T08:04:06.108Z</time></trkpt><trkpt lat="45.338195" lon="10.773805"><ele>68.2</ele><time>2026-05-03T08:04:07.108Z</time></trkpt><trkpt lat="45.338145" lon="10.773945"><ele>67.80000000000001</ele><time>2026-05-03T08:04:08.108Z</time></trkpt><trkpt lat="45.338105" lon="10.77407"><ele>67.4</ele><time>2026-05-03T08:04:09.108Z</time></trkpt><trkpt lat="45.3380667" lon="10.7741833"><ele>67.0</ele><time>2026-05-03T08:04:10.107Z</time></trkpt><trkpt lat="45.3380283" lon="10.7742967"><ele>67.4</ele><time>2026-05-03T08:04:11.107Z</time></trkpt><trkpt lat="45.3379917" lon="10.7744017"><ele>67.80000000000001</ele><time>2026-05-03T08:04:12.108Z</time></trkpt><trkpt lat="45.3379433" lon="10.7745267"><ele>68.2</ele><time>2026-05-03T08:04:13.108Z</time></trkpt><trkpt lat="45.337885" lon="10.7746667"><ele>68.60000000000001</ele><time>2026-05-03T08:04:14.108Z</time></trkpt><trkpt lat="45.3378217" lon="10.77482"><ele>69.0</ele><time>2026-05-03T08:04:15.107Z</time></trkpt><trkpt lat="45.337745" lon="10.7750083"><ele>68.33333333333333</ele><time>2026-05-03T08:04:16.108Z</time></trkpt><trkpt lat="45.3376583" lon="10.7752333"><ele>67.66666666666666</ele><time>2026-05-03T08:04:17.108Z</time></trkpt><trkpt lat="45.3375517" lon="10.775485"><ele>67.0</ele><time>2026-05-03T08:04:18.108Z</time></trkpt><trkpt lat="45.3374467" lon="10.7757283"><ele>67.0</ele><time>2026-05-03T08:04:19.107Z</time></trkpt><trkpt lat="45.3373517" lon="10.77595"><ele>67.0</ele><time>2026-05-03T08:04:20.108Z</time></trkpt><trkpt lat="45.3372567" lon="10.7761517"><ele>67.0</ele><time>2026-05-03T08:04:21.108Z</time></trkpt><trkpt lat="45.33716" lon="10.7763617"><ele>66.66666666666666</ele><time>2026-05-03T08:04:22.108Z</time></trkpt><trkpt lat="45.3370683" lon="10.7765617"><ele>66.33333333333333</ele><time>2026-05-03T08:04:23.108Z</time></trkpt><trkpt lat="45.3369833" lon="10.776765"><ele>66.0</ele><time>2026-05-03T08:04:24.108Z</time></trkpt><trkpt lat="45.336895" lon="10.7769867"><ele>65.66666666666667</ele><time>2026-05-03T08:04:25.107Z</time></trkpt><trkpt lat="45.33683" lon="10.7772133"><ele>65.33333333333334</ele><time>2026-05-03T08:04:26.108Z</time></trkpt><trkpt lat="45.33676" lon="10.77746"><ele>65.0</ele><time>2026-05-03T08:04:27.107Z</time></trkpt><trkpt lat="45.3366983" lon="10.7776883"><ele>65.0</ele><time>2026-05-03T08:04:28.108Z</time></trkpt><trkpt lat="45.33663" lon="10.7779233"><ele>65.0</ele><time>2026-05-03T08:04:29.107Z</time></trkpt><trkpt lat="45.3365617" lon="10.7781533"><ele>65.0</ele><time>2026-05-03T08:04:30.108Z</time></trkpt><trkpt lat="45.3364883" lon="10.7783817"><ele>64.66666666666667</ele><time>2026-05-03T08:04:31.108Z</time></trkpt><trkpt lat="45.33641" lon="10.7786233"><ele>64.33333333333333</ele><time>2026-05-03T08:04:32.108Z</time></trkpt><trkpt lat="45.3363467" lon="10.7788683"><ele>64.0</ele><time>2026-05-03T08:04:33.108Z</time></trkpt><trkpt lat="45.3362833" lon="10.779125"><ele>63.666666666666664</ele><time>2026-05-03T08:04:34.108Z</time></trkpt><trkpt lat="45.3362267" lon="10.77938"><ele>63.33333333333333</ele><time>2026-05-03T08:04:35.108Z</time></trkpt><trkpt lat="45.3361783" lon="10.7796383"><ele>63.0</ele><time>2026-05-03T08:04:36.108Z</time></trkpt><trkpt lat="45.3361233" lon="10.7798967"><ele>63.0</ele><time>2026-05-03T08:04:37.108Z</time></trkpt><trkpt lat="45.3360733" lon="10.780145"><ele>63.0</ele><time>2026-05-03T08:04:38.108Z</time></trkpt><trkpt lat="45.336045" lon="10.7803983"><ele>63.0</ele><time>2026-05-03T08:04:39.108Z</time></trkpt><trkpt lat="45.336015" lon="10.78063"><ele>62.75</ele><time>2026-05-03T08:04:40.108Z</time></trkpt><trkpt lat="45.336" lon="10.78084"><ele>62.5</ele><time>2026-05-03T08:04:41.108Z</time></trkpt><trkpt lat="45.3359833" lon="10.7810317"><ele>62.25</ele><time>2026-05-03T08:04:42.108Z</time></trkpt><trkpt lat="45.3359733" lon="10.781205"><ele>62.0</ele><time>2026-05-03T08:04:43.107Z</time></trkpt><trkpt lat="45.33596" lon="10.7813617"><ele>62.6</ele><time>2026-05-03T08:04:44.108Z</time></trkpt><trkpt lat="45.3359483" lon="10.7815067"><ele>63.2</ele><time>2026-05-03T08:04:45.108Z</time></trkpt><trkpt lat="45.3359417" lon="10.7816617"><ele>63.8</ele><time>2026-05-03T08:04:46.108Z</time></trkpt><trkpt lat="45.3359317" lon="10.7818183"><ele>64.4</ele><time>2026-05-03T08:04:47.108Z</time></trkpt><trkpt lat="45.3359333" lon="10.7819833"><ele>65.0</ele><time>2026-05-03T08:04:48.108Z</time></trkpt><trkpt lat="45.3359217" lon="10.7821583"><ele>65.0</ele><time>2026-05-03T08:04:49.107Z</time></trkpt><trkpt lat="45.33591" lon="10.782335"><ele>65.0</ele><time>2026-05-03T08:04:50.107Z</time></trkpt><trkpt lat="45.3358933" lon="10.7825167"><ele>65.0</ele><time>2026-05-03T08:04:51.108Z</time></trkpt><trkpt lat="45.3358717" lon="10.7826983"><ele>65.0</ele><time>2026-05-03T08:04:52.108Z</time></trkpt><trkpt lat="45.3358533" lon="10.7828833"><ele>65.0</ele><time>2026-05-03T08:04:53.108Z</time></trkpt><trkpt lat="45.3358333" lon="10.7830683"><ele>65.0</ele><time>2026-05-03T08:04:54.108Z</time></trkpt><trkpt lat="45.3358167" lon="10.7832567"><ele>65.0</ele><time>2026-05-03T08:04:55.108Z</time></trkpt><trkpt lat="45.3358" lon="10.7834467"><ele>65.0</ele><time>2026-05-03T08:04:56.108Z</time></trkpt><trkpt lat="45.335785" lon="10.7836417"><ele>65.0</ele><time>2026-05-03T08:04:57.108Z</time></trkpt><trkpt lat="45.33577" lon="10.783835"><ele>65.0</ele><time>2026-05-03T08:04:58.108Z</time></trkpt><trkpt lat="45.335755" lon="10.78403"><ele>65.0</ele><time>2026-05-03T08:04:59.108Z</time></trkpt><trkpt lat="45.3357383" lon="10.7842283"><ele>65.0</ele><time>2026-05-03T08:05:00.108Z</time></trkpt><trkpt lat="45.3357233" lon="10.7844083"><ele>64.8</ele><time>2026-05-03T08:05:01.107Z</time></trkpt><trkpt lat="45.3357033" lon="10.7845667"><ele>64.6</ele><time>2026-05-03T08:05:02.108Z</time></trkpt><trkpt lat="45.33569" lon="10.784705"><ele>64.4</ele><time>2026-05-03T08:05:03.108Z</time></trkpt><trkpt lat="45.3356767" lon="10.7848317"><ele>64.2</ele><time>2026-05-03T08:05:04.108Z</time></trkpt><trkpt lat="45.3356683" lon="10.7849267"><ele>64.0</ele><time>2026-05-03T08:05:05.108Z</time></trkpt><trkpt lat="45.33569" lon="10.7850817"><ele>64.0</ele><time>2026-05-03T08:05:07.107Z</time></trkpt><trkpt lat="45.3358017" lon="10.7851967"><ele>64.0</ele><time>2026-05-03T08:05:09.108Z</time></trkpt><trkpt lat="45.3358917" lon="10.7852667"><ele>64.0</ele><time>2026-05-03T08:05:10.108Z</time></trkpt><trkpt lat="45.3359967" lon="10.785365"><ele>64.0</ele><time>2026-05-03T08:05:11.108Z</time></trkpt><trkpt lat="45.3360983" lon="10.7854933"><ele>64.0</ele><time>2026-05-03T08:05:12.108Z</time></trkpt><trkpt lat="45.3362233" lon="10.785615"><ele>64.0</ele><time>2026-05-03T08:05:13.107Z</time></trkpt><trkpt lat="45.3363483" lon="10.7857383"><ele>64.0</ele><time>2026-05-03T08:05:14.108Z</time></trkpt><trkpt lat="45.3364517" lon="10.7858483"><ele>64.0</ele><time>2026-05-03T08:05:15.108Z</time></trkpt><trkpt lat="45.336555" lon="10.7859483"><ele>63.5</ele><time>2026-05-03T08:05:16.108Z</time></trkpt><trkpt lat="45.3366533" lon="10.7860483"><ele>63.0</ele><time>2026-05-03T08:05:17.108Z</time></trkpt><trkpt lat="45.336745" lon="10.786155"><ele>62.5</ele><time>2026-05-03T08:05:18.108Z</time></trkpt><trkpt lat="45.33682" lon="10.78627"><ele>62.0</ele><time>2026-05-03T08:05:19.108Z</time></trkpt><trkpt lat="45.3368967" lon="10.78643"><ele>62.0</ele><time>2026-05-03T08:05:20.108Z</time></trkpt><trkpt lat="45.3369883" lon="10.7866"><ele>62.0</ele><time>2026-05-03T08:05:21.108Z</time></trkpt><trkpt lat="45.3370933" lon="10.7867733"><ele>62.0</ele><time>2026-05-03T08:05:22.108Z</time></trkpt><trkpt lat="45.3372017" lon="10.786925"><ele>62.25</ele><time>2026-05-03T08:05:23.108Z</time></trkpt><trkpt lat="45.3373017" lon="10.7870667"><ele>62.5</ele><time>2026-05-03T08:05:24.108Z</time></trkpt><trkpt lat="45.337405" lon="10.7872067"><ele>62.75</ele><time>2026-05-03T08:05:25.108Z</time></trkpt><trkpt lat="45.337505" lon="10.7873483"><ele>63.0</ele><time>2026-05-03T08:05:26.108Z</time></trkpt><trkpt lat="45.3376" lon="10.78748"><ele>63.0</ele><time>2026-05-03T08:05:27.108Z</time></trkpt><trkpt lat="45.337695" lon="10.7876017"><ele>63.0</ele><time>2026-05-03T08:05:28.108Z</time></trkpt><trkpt lat="45.3377833" lon="10.7877267"><ele>63.0</ele><time>2026-05-03T08:05:29.108Z</time></trkpt><trkpt lat="45.3378633" lon="10.7878367"><ele>63.0</ele><time>2026-05-03T08:05:30.108Z</time></trkpt><trkpt lat="45.33793" lon="10.7879383"><ele>63.166666666666664</ele><time>2026-05-03T08:05:31.108Z</time></trkpt><trkpt lat="45.3379883" lon="10.7880233"><ele>63.33333333333333</ele><time>2026-05-03T08:05:32.107Z</time></trkpt><trkpt lat="45.3380417" lon="10.7881033"><ele>63.5</ele><time>2026-05-03T08:05:33.107Z</time></trkpt><trkpt lat="45.3381033" lon="10.7881783"><ele>63.666666666666664</ele><time>2026-05-03T08:05:34.108Z</time></trkpt><trkpt lat="45.3381667" lon="10.7882483"><ele>63.83333333333333</ele><time>2026-05-03T08:05:35.108Z</time></trkpt><trkpt lat="45.338225" lon="10.78831"><ele>64.0</ele><time>2026-05-03T08:05:36.108Z</time></trkpt><trkpt lat="45.3382783" lon="10.78837"><ele>63.99999999999999</ele><time>2026-05-03T08:05:37.108Z</time></trkpt><trkpt lat="45.3383783" lon="10.7884717"><ele>64.0</ele><time>2026-05-03T08:05:39.107Z</time></trkpt><trkpt lat="45.33843" lon="10.7885267"><ele>64.0</ele><time>2026-05-03T08:05:40.108Z</time></trkpt><trkpt lat="45.3384833" lon="10.78858"><ele>64.0</ele><time>2026-05-03T08:05:41.108Z</time></trkpt><trkpt lat="45.3385767" lon="10.788675"><ele>63.99999999999999</ele><time>2026-05-03T08:05:43.108Z</time></trkpt><trkpt lat="45.3386283" lon="10.7887333"><ele>64.0</ele><time>2026-05-03T08:05:44.108Z</time></trkpt><trkpt lat="45.3386883" lon="10.78879"><ele>63.83333333333333</ele><time>2026-05-03T08:05:45.108Z</time></trkpt><trkpt lat="45.3387517" lon="10.78885"><ele>63.666666666666664</ele><time>2026-05-03T08:05:46.108Z</time></trkpt><trkpt lat="45.3388267" lon="10.7889067"><ele>63.5</ele><time>2026-05-03T08:05:47.107Z</time></trkpt><trkpt lat="45.338905" lon="10.7889617"><ele>63.33333333333333</ele><time>2026-05-03T08:05:48.108Z</time></trkpt><trkpt lat="45.3389783" lon="10.789015"><ele>63.166666666666664</ele><time>2026-05-03T08:05:49.108Z</time></trkpt><trkpt lat="45.3390583" lon="10.78907"><ele>63.0</ele><time>2026-05-03T08:05:50.108Z</time></trkpt><trkpt lat="45.3391367" lon="10.7891317"><ele>63.0</ele><time>2026-05-03T08:05:51.108Z</time></trkpt><trkpt lat="45.3392117" lon="10.7891933"><ele>63.0</ele><time>2026-05-03T08:05:52.107Z</time></trkpt><trkpt lat="45.3392933" lon="10.7892567"><ele>63.0</ele><time>2026-05-03T08:05:53.108Z</time></trkpt><trkpt lat="45.33937" lon="10.7893183"><ele>63.0</ele><time>2026-05-03T08:05:54.108Z</time></trkpt><trkpt lat="45.33945" lon="10.789385"><ele>63.0</ele><time>2026-05-03T08:05:55.108Z</time></trkpt><trkpt lat="45.3395333" lon="10.78945"><ele>63.0</ele><time>2026-05-03T08:05:56.108Z</time></trkpt><trkpt lat="45.3396117" lon="10.7895133"><ele>63.0</ele><time>2026-05-03T08:05:57.107Z</time></trkpt><trkpt lat="45.339695" lon="10.78958"><ele>63.0</ele><time>2026-05-03T08:05:58.108Z</time></trkpt><trkpt lat="45.339775" lon="10.7896633"><ele>63.0</ele><time>2026-05-03T08:05:59.108Z</time></trkpt><trkpt lat="45.33986" lon="10.7897483"><ele>63.0</ele><time>2026-05-03T08:06:00.107Z</time></trkpt><trkpt lat="45.33994" lon="10.7898433"><ele>62.8</ele><time>2026-05-03T08:06:01.108Z</time></trkpt><trkpt lat="45.34003" lon="10.7899267"><ele>62.599999999999994</ele><time>2026-05-03T08:06:02.107Z</time></trkpt><trkpt lat="45.3401233" lon="10.7900033"><ele>62.400000000000006</ele><time>2026-05-03T08:06:03.108Z</time></trkpt><trkpt lat="45.34022" lon="10.790085"><ele>62.2</ele><time>2026-05-03T08:06:04.108Z</time></trkpt><trkpt lat="45.3403183" lon="10.7901683"><ele>62.0</ele><time>2026-05-03T08:06:05.107Z</time></trkpt><trkpt lat="45.340415" lon="10.7902583"><ele>62.0</ele><time>2026-05-03T08:06:06.108Z</time></trkpt><trkpt lat="45.3405167" lon="10.7903483"><ele>62.0</ele><time>2026-05-03T08:06:07.107Z</time></trkpt><trkpt lat="45.3406117" lon="10.7904383"><ele>62.0</ele><time>2026-05-03T08:06:08.107Z</time></trkpt><trkpt lat="45.3407033" lon="10.7905233"><ele>62.0</ele><time>2026-05-03T08:06:09.108Z</time></trkpt><trkpt lat="45.3407983" lon="10.7906117"><ele>62.25</ele><time>2026-05-03T08:06:10.108Z</time></trkpt><trkpt lat="45.3408817" lon="10.7907067"><ele>62.5</ele><time>2026-05-03T08:06:11.108Z</time></trkpt><trkpt lat="45.34097" lon="10.7908067"><ele>62.75</ele><time>2026-05-03T08:06:12.108Z</time></trkpt><trkpt lat="45.3410517" lon="10.790915"><ele>63.0</ele><time>2026-05-03T08:06:13.108Z</time></trkpt><trkpt lat="45.3411433" lon="10.7910283"><ele>63.0</ele><time>2026-05-03T08:06:14.108Z</time></trkpt><trkpt lat="45.3412367" lon="10.7911467"><ele>63.0</ele><time>2026-05-03T08:06:15.108Z</time></trkpt><trkpt lat="45.3413367" lon="10.79127"><ele>63.0</ele><time>2026-05-03T08:06:16.108Z</time></trkpt><trkpt lat="45.3414233" lon="10.7913767"><ele>63.0</ele><time>2026-05-03T08:06:17.108Z</time></trkpt><trkpt lat="45.3415" lon="10.7914717"><ele>63.0</ele><time>2026-05-03T08:06:18.108Z</time></trkpt><trkpt lat="45.34157" lon="10.7915617"><ele>63.0</ele><time>2026-05-03T08:06:19.108Z</time></trkpt><trkpt lat="45.341635" lon="10.7916467"><ele>63.0</ele><time>2026-05-03T08:06:20.108Z</time></trkpt><trkpt lat="45.341685" lon="10.7917167"><ele>63.0</ele><time>2026-05-03T08:06:21.107Z</time></trkpt><trkpt lat="45.3417183" lon="10.791845"><ele>63.0</ele><time>2026-05-03T08:06:23.108Z</time></trkpt><trkpt lat="45.341705" lon="10.791945"><ele>63.0</ele><time>2026-05-03T08:06:24.108Z</time></trkpt><trkpt lat="45.3416767" lon="10.7920783"><ele>62.75</ele><time>2026-05-03T08:06:25.108Z</time></trkpt><trkpt lat="45.3416267" lon="10.7922417"><ele>62.5</ele><time>2026-05-03T08:06:26.108Z</time></trkpt><trkpt lat="45.3415783" lon="10.7923983"><ele>62.25</ele><time>2026-05-03T08:06:27.108Z</time></trkpt><trkpt lat="45.3415367" lon="10.7925533"><ele>62.0</ele><time>2026-05-03T08:06:28.108Z</time></trkpt><trkpt lat="45.3414983" lon="10.792695"><ele>62.0</ele><time>2026-05-03T08:06:29.108Z</time></trkpt><trkpt lat="45.3414633" lon="10.7928417"><ele>62.0</ele><time>2026-05-03T08:06:30.108Z</time></trkpt><trkpt lat="45.3414267" lon="10.792995"><ele>62.0</ele><time>2026-05-03T08:06:31.108Z</time></trkpt><trkpt lat="45.3413917" lon="10.7931433"><ele>62.0</ele><time>2026-05-03T08:06:32.108Z</time></trkpt><trkpt lat="45.341355" lon="10.7932983"><ele>62.0</ele><time>2026-05-03T08:06:33.108Z</time></trkpt><trkpt lat="45.34132" lon="10.79346"><ele>62.25</ele><time>2026-05-03T08:06:34.107Z</time></trkpt><trkpt lat="45.3412883" lon="10.79362"><ele>62.5</ele><time>2026-05-03T08:06:35.108Z</time></trkpt><trkpt lat="45.341255" lon="10.7937817"><ele>62.75</ele><time>2026-05-03T08:06:36.108Z</time></trkpt><trkpt lat="45.3412183" lon="10.793935"><ele>63.0</ele><time>2026-05-03T08:06:37.108Z</time></trkpt><trkpt lat="45.3411783" lon="10.7941"><ele>63.0</ele><time>2026-05-03T08:06:38.108Z</time></trkpt><trkpt lat="45.3411433" lon="10.794275"><ele>63.0</ele><time>2026-05-03T08:06:39.107Z</time></trkpt><trkpt lat="45.3411067" lon="10.79444"><ele>63.0</ele><time>2026-05-03T08:06:40.108Z</time></trkpt><trkpt lat="45.3410667" lon="10.7946033"><ele>63.0</ele><time>2026-05-03T08:06:41.108Z</time></trkpt><trkpt lat="45.3410283" lon="10.79476"><ele>63.0</ele><time>2026-05-03T08:06:42.108Z</time></trkpt><trkpt lat="45.3409917" lon="10.7949233"><ele>63.0</ele><time>2026-05-03T08:06:43.108Z</time></trkpt><trkpt lat="45.3409533" lon="10.79509"><ele>63.0</ele><time>2026-05-03T08:06:44.107Z</time></trkpt><trkpt lat="45.340925" lon="10.7952533"><ele>63.0</ele><time>2026-05-03T08:06:45.108Z</time></trkpt><trkpt lat="45.340885" lon="10.7954183"><ele>62.5</ele><time>2026-05-03T08:06:46.107Z</time></trkpt><trkpt lat="45.3408467" lon="10.795585"><ele>62.0</ele><time>2026-05-03T08:06:47.108Z</time></trkpt><trkpt lat="45.34081" lon="10.7957483"><ele>61.5</ele><time>2026-05-03T08:06:48.108Z</time></trkpt><trkpt lat="45.340775" lon="10.7959033"><ele>61.0</ele><time>2026-05-03T08:06:49.108Z</time></trkpt><trkpt lat="45.3407383" lon="10.7960567"><ele>61.0</ele><time>2026-05-03T08:06:50.108Z</time></trkpt><trkpt lat="45.3407017" lon="10.79621"><ele>61.0</ele><time>2026-05-03T08:06:51.108Z</time></trkpt><trkpt lat="45.3406633" lon="10.7963667"><ele>61.0</ele><time>2026-05-03T08:06:52.108Z</time></trkpt><trkpt lat="45.34062" lon="10.7965167"><ele>61.0</ele><time>2026-05-03T08:06:53.108Z</time></trkpt><trkpt lat="45.3405833" lon="10.7966733"><ele>61.0</ele><time>2026-05-03T08:06:54.108Z</time></trkpt><trkpt lat="45.3405483" lon="10.796835"><ele>61.0</ele><time>2026-05-03T08:06:55.108Z</time></trkpt><trkpt lat="45.3405183" lon="10.7969983"><ele>61.0</ele><time>2026-05-03T08:06:56.108Z</time></trkpt><trkpt lat="45.3404967" lon="10.7971633"><ele>61.0</ele><time>2026-05-03T08:06:57.108Z</time></trkpt><trkpt lat="45.3404733" lon="10.7973317"><ele>61.0</ele><time>2026-05-03T08:06:58.108Z</time></trkpt><trkpt lat="45.3404533" lon="10.7974917"><ele>61.0</ele><time>2026-05-03T08:06:59.108Z</time></trkpt><trkpt lat="45.3404333" lon="10.7976583"><ele>61.0</ele><time>2026-05-03T08:07:00.108Z</time></trkpt><trkpt lat="45.3404083" lon="10.7978267"><ele>61.0</ele><time>2026-05-03T08:07:01.108Z</time></trkpt><trkpt lat="45.340385" lon="10.7979883"><ele>60.75</ele><time>2026-05-03T08:07:02.108Z</time></trkpt><trkpt lat="45.3403567" lon="10.7981567"><ele>60.5</ele><time>2026-05-03T08:07:03.108Z</time></trkpt><trkpt lat="45.340335" lon="10.7983217"><ele>60.25</ele><time>2026-05-03T08:07:04.108Z</time></trkpt><trkpt lat="45.3403117" lon="10.79848"><ele>60.0</ele><time>2026-05-03T08:07:05.108Z</time></trkpt><trkpt lat="45.3402867" lon="10.79865"><ele>60.0</ele><time>2026-05-03T08:07:06.108Z</time></trkpt><trkpt lat="45.34027" lon="10.7988083"><ele>60.0</ele><time>2026-05-03T08:07:07.108Z</time></trkpt><trkpt lat="45.34025" lon="10.79896"><ele>60.0</ele><time>2026-05-03T08:07:08.108Z</time></trkpt><trkpt lat="45.3402267" lon="10.7991"><ele>60.0</ele><time>2026-05-03T08:07:09.108Z</time></trkpt><trkpt lat="45.3402067" lon="10.7992317"><ele>60.0</ele><time>2026-05-03T08:07:10.108Z</time></trkpt><trkpt lat="45.340185" lon="10.7993433"><ele>60.0</ele><time>2026-05-03T08:07:11.108Z</time></trkpt><trkpt lat="45.340165" lon="10.79945"><ele>60.0</ele><time>2026-05-03T08:07:12.108Z</time></trkpt><trkpt lat="45.3401467" lon="10.79956"><ele>60.0</ele><time>2026-05-03T08:07:13.108Z</time></trkpt><trkpt lat="45.3401317" lon="10.7996583"><ele>60.0</ele><time>2026-05-03T08:07:14.107Z</time></trkpt><trkpt lat="45.3401133" lon="10.7997567"><ele>60.0</ele><time>2026-05-03T08:07:15.108Z</time></trkpt><trkpt lat="45.3400933" lon="10.7999233"><ele>60.0</ele><time>2026-05-03T08:07:17.108Z</time></trkpt><trkpt lat="45.3400733" lon="10.8000483"><ele>60.0</ele><time>2026-05-03T08:07:19.108Z</time></trkpt><trkpt lat="45.34006" lon="10.8001533"><ele>60.0</ele><time>2026-05-03T08:07:21.108Z</time></trkpt><trkpt lat="45.340055" lon="10.8002683"><ele>60.0</ele><time>2026-05-03T08:07:24.108Z</time></trkpt><trkpt lat="45.3400467" lon="10.80037"><ele>60.0</ele><time>2026-05-03T08:07:27.108Z</time></trkpt><trkpt lat="45.3399733" lon="10.80051"><ele>60.0</ele><time>2026-05-03T08:07:35.108Z</time></trkpt><trkpt lat="45.3399383" lon="10.8006067"><ele>60.0</ele><time>2026-05-03T08:07:36.108Z</time></trkpt><trkpt lat="45.3399" lon="10.8007517"><ele>60.0</ele><time>2026-05-03T08:07:37.108Z</time></trkpt><trkpt lat="45.339865" lon="10.8009067"><ele>60.0</ele><time>2026-05-03T08:07:38.107Z</time></trkpt><trkpt lat="45.3398317" lon="10.8010483"><ele>60.0</ele><time>2026-05-03T08:07:39.108Z</time></trkpt><trkpt lat="45.339805" lon="10.801195"><ele>60.0</ele><time>2026-05-03T08:07:40.108Z</time></trkpt><trkpt lat="45.339775" lon="10.801345"><ele>60.0</ele><time>2026-05-03T08:07:41.107Z</time></trkpt><trkpt lat="45.3397467" lon="10.8015"><ele>60.0</ele><time>2026-05-03T08:07:42.108Z</time></trkpt><trkpt lat="45.3397183" lon="10.8016533"><ele>60.0</ele><time>2026-05-03T08:07:43.108Z</time></trkpt><trkpt lat="45.3396867" lon="10.8018183"><ele>60.0</ele><time>2026-05-03T08:07:44.107Z</time></trkpt><trkpt lat="45.3396533" lon="10.801965"><ele>60.0</ele><time>2026-05-03T08:07:45.108Z</time></trkpt><trkpt lat="45.339625" lon="10.8021"><ele>60.0</ele><time>2026-05-03T08:07:46.108Z</time></trkpt><trkpt lat="45.339595" lon="10.8022383"><ele>59.8</ele><time>2026-05-03T08:07:47.108Z</time></trkpt><trkpt lat="45.3395583" lon="10.8023817"><ele>59.6</ele><time>2026-05-03T08:07:48.108Z</time></trkpt><trkpt lat="45.3395233" lon="10.80253"><ele>59.400000000000006</ele><time>2026-05-03T08:07:49.108Z</time></trkpt><trkpt lat="45.3394967" lon="10.80268"><ele>59.2</ele><time>2026-05-03T08:07:50.108Z</time></trkpt><trkpt lat="45.3394683" lon="10.802825"><ele>59.0</ele><time>2026-05-03T08:07:51.108Z</time></trkpt><trkpt lat="45.339445" lon="10.802955"><ele>58.800000000000004</ele><time>2026-05-03T08:07:52.108Z</time></trkpt><trkpt lat="45.339415" lon="10.8030917"><ele>58.60000000000001</ele><time>2026-05-03T08:07:53.107Z</time></trkpt><trkpt lat="45.339375" lon="10.8032417"><ele>58.4</ele><time>2026-05-03T08:07:54.108Z</time></trkpt><trkpt lat="45.3393467" lon="10.8033917"><ele>58.2</ele><time>2026-05-03T08:07:55.108Z</time></trkpt><trkpt lat="45.33931" lon="10.8035483"><ele>58.0</ele><time>2026-05-03T08:07:56.108Z</time></trkpt><trkpt lat="45.3392783" lon="10.80371"><ele>57.75</ele><time>2026-05-03T08:07:57.108Z</time></trkpt><trkpt lat="45.3392433" lon="10.8038683"><ele>57.5</ele><time>2026-05-03T08:07:58.108Z</time></trkpt><trkpt lat="45.3391983" lon="10.80404"><ele>57.25</ele><time>2026-05-03T08:07:59.108Z</time></trkpt><trkpt lat="45.3391483" lon="10.8042017"><ele>57.0</ele><time>2026-05-03T08:08:00.108Z</time></trkpt><trkpt lat="45.3391067" lon="10.80437"><ele>56.75</ele><time>2026-05-03T08:08:01.108Z</time></trkpt><trkpt lat="45.3390683" lon="10.8045317"><ele>56.5</ele><time>2026-05-03T08:08:02.107Z</time></trkpt><trkpt lat="45.339025" lon="10.8046967"><ele>56.25</ele><time>2026-05-03T08:08:03.108Z</time></trkpt><trkpt lat="45.3389817" lon="10.8048633"><ele>56.0</ele><time>2026-05-03T08:08:04.108Z</time></trkpt><trkpt lat="45.3389383" lon="10.805035"><ele>56.25</ele><time>2026-05-03T08:08:05.108Z</time></trkpt><trkpt lat="45.3388983" lon="10.8052017"><ele>56.5</ele><time>2026-05-03T08:08:06.107Z</time></trkpt><trkpt lat="45.3388617" lon="10.8053733"><ele>56.75</ele><time>2026-05-03T08:08:07.108Z</time></trkpt><trkpt lat="45.3388317" lon="10.8055517"><ele>57.0</ele><time>2026-05-03T08:08:08.108Z</time></trkpt><trkpt lat="45.3388067" lon="10.8057317"><ele>57.0</ele><time>2026-05-03T08:08:09.108Z</time></trkpt><trkpt lat="45.3387767" lon="10.8059117"><ele>57.0</ele><time>2026-05-03T08:08:10.108Z</time></trkpt><trkpt lat="45.3387483" lon="10.8060883"><ele>57.0</ele><time>2026-05-03T08:08:11.108Z</time></trkpt><trkpt lat="45.3387233" lon="10.8062683"><ele>57.0</ele><time>2026-05-03T08:08:12.108Z</time></trkpt><trkpt lat="45.3387017" lon="10.8064483"><ele>56.75</ele><time>2026-05-03T08:08:13.108Z</time></trkpt><trkpt lat="45.33868" lon="10.80664"><ele>56.5</ele><time>2026-05-03T08:08:14.108Z</time></trkpt><trkpt lat="45.33866" lon="10.8068233"><ele>56.25</ele><time>2026-05-03T08:08:15.108Z</time></trkpt><trkpt lat="45.3386417" lon="10.807005"><ele>56.0</ele><time>2026-05-03T08:08:16.108Z</time></trkpt><trkpt lat="45.338625" lon="10.8071783"><ele>56.0</ele><time>2026-05-03T08:08:17.108Z</time></trkpt><trkpt lat="45.3386133" lon="10.8073383"><ele>56.0</ele><time>2026-05-03T08:08:18.108Z</time></trkpt><trkpt lat="45.33859" lon="10.8075"><ele>56.0</ele><time>2026-05-03T08:08:19.108Z</time></trkpt><trkpt lat="45.3385583" lon="10.8076533"><ele>56.0</ele><time>2026-05-03T08:08:20.108Z</time></trkpt><trkpt lat="45.3385333" lon="10.8078183"><ele>56.0</ele><time>2026-05-03T08:08:21.107Z</time></trkpt><trkpt lat="45.3384967" lon="10.8079783"><ele>56.0</ele><time>2026-05-03T08:08:22.108Z</time></trkpt><trkpt lat="45.338465" lon="10.8081367"><ele>56.0</ele><time>2026-05-03T08:08:23.108Z</time></trkpt><trkpt lat="45.3384333" lon="10.8083083"><ele>56.0</ele><time>2026-05-03T08:08:24.108Z</time></trkpt><trkpt lat="45.3384067" lon="10.8084667"><ele>55.75</ele><time>2026-05-03T08:08:25.108Z</time></trkpt><trkpt lat="45.3383767" lon="10.80864"><ele>55.5</ele><time>2026-05-03T08:08:26.108Z</time></trkpt><trkpt lat="45.3383783" lon="10.808765"><ele>55.25</ele><time>2026-05-03T08:08:27.108Z</time></trkpt><trkpt lat="45.3383633" lon="10.8089367"><ele>55.0</ele><time>2026-05-03T08:08:28.108Z</time></trkpt><trkpt lat="45.3383283" lon="10.80912"><ele>55.0</ele><time>2026-05-03T08:08:29.108Z</time></trkpt><trkpt lat="45.33829" lon="10.8093067"><ele>55.0</ele><time>2026-05-03T08:08:30.108Z</time></trkpt><trkpt lat="45.3382583" lon="10.8094933"><ele>55.0</ele><time>2026-05-03T08:08:31.107Z</time></trkpt><trkpt lat="45.3382167" lon="10.80969"><ele>55.0</ele><time>2026-05-03T08:08:32.108Z</time></trkpt><trkpt lat="45.3381767" lon="10.809875"><ele>55.0</ele><time>2026-05-03T08:08:33.107Z</time></trkpt><trkpt lat="45.33815" lon="10.810065"><ele>55.0</ele><time>2026-05-03T08:08:34.108Z</time></trkpt><trkpt lat="45.3381117" lon="10.8102483"><ele>55.0</ele><time>2026-05-03T08:08:35.108Z</time></trkpt><trkpt lat="45.3380767" lon="10.810425"><ele>55.0</ele><time>2026-05-03T08:08:36.107Z</time></trkpt><trkpt lat="45.338045" lon="10.8105967"><ele>54.75</ele><time>2026-05-03T08:08:37.108Z</time></trkpt><trkpt lat="45.3380117" lon="10.8107783"><ele>54.5</ele><time>2026-05-03T08:08:38.108Z</time></trkpt><trkpt lat="45.3379683" lon="10.8109633"><ele>54.25</ele><time>2026-05-03T08:08:39.108Z</time></trkpt><trkpt lat="45.3379317" lon="10.8111483"><ele>54.0</ele><time>2026-05-03T08:08:40.107Z</time></trkpt><trkpt lat="45.3378917" lon="10.81133"><ele>54.0</ele><time>2026-05-03T08:08:41.108Z</time></trkpt><trkpt lat="45.3378617" lon="10.8115067"><ele>54.0</ele><time>2026-05-03T08:08:42.107Z</time></trkpt><trkpt lat="45.3378267" lon="10.811685"><ele>54.0</ele><time>2026-05-03T08:08:43.108Z</time></trkpt><trkpt lat="45.3377917" lon="10.8118633"><ele>54.0</ele><time>2026-05-03T08:08:44.108Z</time></trkpt><trkpt lat="45.3377517" lon="10.8120533"><ele>54.0</ele><time>2026-05-03T08:08:45.108Z</time></trkpt><trkpt lat="45.3377117" lon="10.81223"><ele>54.0</ele><time>2026-05-03T08:08:46.108Z</time></trkpt><trkpt lat="45.3376783" lon="10.8123883"><ele>54.0</ele><time>2026-05-03T08:08:47.108Z</time></trkpt><trkpt lat="45.3376583" lon="10.81254"><ele>54.0</ele><time>2026-05-03T08:08:48.107Z</time></trkpt><trkpt lat="45.3376433" lon="10.8126933"><ele>53.5</ele><time>2026-05-03T08:08:49.107Z</time></trkpt><trkpt lat="45.337625" lon="10.8128633"><ele>53.0</ele><time>2026-05-03T08:08:50.108Z</time></trkpt><trkpt lat="45.33761" lon="10.8130417"><ele>52.5</ele><time>2026-05-03T08:08:51.108Z</time></trkpt><trkpt lat="45.3375933" lon="10.8132417"><ele>52.0</ele><time>2026-05-03T08:08:52.108Z</time></trkpt><trkpt lat="45.3375817" lon="10.8134617"><ele>52.33333333333333</ele><time>2026-05-03T08:08:53.108Z</time></trkpt><trkpt lat="45.3375717" lon="10.8137067"><ele>52.66666666666667</ele><time>2026-05-03T08:08:54.108Z</time></trkpt><trkpt lat="45.33756" lon="10.8139967"><ele>53.0</ele><time>2026-05-03T08:08:55.108Z</time></trkpt><trkpt lat="45.3375417" lon="10.8143067"><ele>52.5</ele><time>2026-05-03T08:08:56.108Z</time></trkpt><trkpt lat="45.3375267" lon="10.8146283"><ele>52.0</ele><time>2026-05-03T08:08:57.108Z</time></trkpt><trkpt lat="45.33751" lon="10.8149667"><ele>52.0</ele><time>2026-05-03T08:08:58.108Z</time></trkpt><trkpt lat="45.3374967" lon="10.8152883"><ele>52.0</ele><time>2026-05-03T08:08:59.108Z</time></trkpt><trkpt lat="45.3374817" lon="10.81558"><ele>52.0</ele><time>2026-05-03T08:09:00.107Z</time></trkpt><trkpt lat="45.3374667" lon="10.815845"><ele>52.0</ele><time>2026-05-03T08:09:01.108Z</time></trkpt><trkpt lat="45.3374517" lon="10.8161"><ele>52.0</ele><time>2026-05-03T08:09:02.108Z</time></trkpt><trkpt lat="45.3374433" lon="10.816335"><ele>52.0</ele><time>2026-05-03T08:09:03.108Z</time></trkpt><trkpt lat="45.337425" lon="10.8165567"><ele>52.0</ele><time>2026-05-03T08:09:04.108Z</time></trkpt><trkpt lat="45.33741" lon="10.8167567"><ele>52.0</ele><time>2026-05-03T08:09:05.108Z</time></trkpt><trkpt lat="45.337395" lon="10.816945"><ele>52.0</ele><time>2026-05-03T08:09:06.108Z</time></trkpt><trkpt lat="45.3373867" lon="10.817125"><ele>52.0</ele><time>2026-05-03T08:09:07.108Z</time></trkpt><trkpt lat="45.3373817" lon="10.8172833"><ele>51.99999999999999</ele><time>2026-05-03T08:09:08.108Z</time></trkpt><trkpt lat="45.3373717" lon="10.8174367"><ele>52.0</ele><time>2026-05-03T08:09:09.108Z</time></trkpt><trkpt lat="45.3373617" lon="10.817575"><ele>52.0</ele><time>2026-05-03T08:09:10.108Z</time></trkpt><trkpt lat="45.3373533" lon="10.8176867"><ele>52.0</ele><time>2026-05-03T08:09:11.108Z</time></trkpt><trkpt lat="45.337345" lon="10.8177817"><ele>51.99999999999999</ele><time>2026-05-03T08:09:12.108Z</time></trkpt><trkpt lat="45.337335" lon="10.8179133"><ele>52.0</ele><time>2026-05-03T08:09:14.109Z</time></trkpt><trkpt lat="45.337345" lon="10.818075"><ele>52.0</ele><time>2026-05-03T08:09:17.109Z</time></trkpt><trkpt lat="45.3373867" lon="10.8181633"><ele>52.0</ele><time>2026-05-03T08:09:18.108Z</time></trkpt><trkpt lat="45.3374483" lon="10.8182533"><ele>52.0</ele><time>2026-05-03T08:09:19.109Z</time></trkpt><trkpt lat="45.3375233" lon="10.8183667"><ele>52.0</ele><time>2026-05-03T08:09:20.109Z</time></trkpt><trkpt lat="45.3376117" lon="10.8185033"><ele>52.0</ele><time>2026-05-03T08:09:21.108Z</time></trkpt><trkpt lat="45.337725" lon="10.8186767"><ele>52.0</ele><time>2026-05-03T08:09:22.109Z</time></trkpt><trkpt lat="45.33786" lon="10.8188967"><ele>52.0</ele><time>2026-05-03T08:09:23.108Z</time></trkpt><trkpt lat="45.338" lon="10.8191083"><ele>52.0</ele><time>2026-05-03T08:09:24.109Z</time></trkpt><trkpt lat="45.3381183" lon="10.8193017"><ele>51.33333333333333</ele><time>2026-05-03T08:09:25.109Z</time></trkpt><trkpt lat="45.3382283" lon="10.8194817"><ele>50.66666666666667</ele><time>2026-05-03T08:09:26.109Z</time></trkpt><trkpt lat="45.3383183" lon="10.8196483"><ele>50.0</ele><time>2026-05-03T08:09:27.109Z</time></trkpt><trkpt lat="45.3384067" lon="10.8198033"><ele>50.0</ele><time>2026-05-03T08:09:28.108Z</time></trkpt><trkpt lat="45.338495" lon="10.8199467"><ele>50.0</ele><time>2026-05-03T08:09:29.109Z</time></trkpt><trkpt lat="45.33858" lon="10.8200867"><ele>50.0</ele><time>2026-05-03T08:09:30.109Z</time></trkpt><trkpt lat="45.3386667" lon="10.820225"><ele>50.0</ele><time>2026-05-03T08:09:31.109Z</time></trkpt><trkpt lat="45.3387517" lon="10.8203617"><ele>50.75</ele><time>2026-05-03T08:09:32.109Z</time></trkpt><trkpt lat="45.338835" lon="10.8205017"><ele>51.5</ele><time>2026-05-03T08:09:33.109Z</time></trkpt><trkpt lat="45.3389233" lon="10.8206383"><ele>52.25</ele><time>2026-05-03T08:09:34.109Z</time></trkpt><trkpt lat="45.33902" lon="10.8207783"><ele>53.0</ele><time>2026-05-03T08:09:35.108Z</time></trkpt><trkpt lat="45.339105" lon="10.8209133"><ele>53.5</ele><time>2026-05-03T08:09:36.109Z</time></trkpt><trkpt lat="45.3391883" lon="10.8210533"><ele>54.0</ele><time>2026-05-03T08:09:37.109Z</time></trkpt><trkpt lat="45.33927" lon="10.821195"><ele>54.5</ele><time>2026-05-03T08:09:38.109Z</time></trkpt><trkpt lat="45.33936" lon="10.8213333"><ele>55.0</ele><time>2026-05-03T08:09:39.109Z</time></trkpt><trkpt lat="45.3394433" lon="10.8214717"><ele>55.0</ele><time>2026-05-03T08:09:40.109Z</time></trkpt><trkpt lat="45.3395283" lon="10.8216117"><ele>55.0</ele><time>2026-05-03T08:09:41.109Z</time></trkpt><trkpt lat="45.3396167" lon="10.82175"><ele>55.0</ele><time>2026-05-03T08:09:42.109Z</time></trkpt><trkpt lat="45.3397" lon="10.821885"><ele>55.0</ele><time>2026-05-03T08:09:43.109Z</time></trkpt><trkpt lat="45.3397817" lon="10.8220167"><ele>54.75</ele><time>2026-05-03T08:09:44.109Z</time></trkpt><trkpt lat="45.3398583" lon="10.822145"><ele>54.5</ele><time>2026-05-03T08:09:45.109Z</time></trkpt><trkpt lat="45.339935" lon="10.8222667"><ele>54.25</ele><time>2026-05-03T08:09:46.109Z</time></trkpt><trkpt lat="45.340015" lon="10.82239"><ele>54.0</ele><time>2026-05-03T08:09:47.109Z</time></trkpt><trkpt lat="45.3400933" lon="10.8225183"><ele>54.0</ele><time>2026-05-03T08:09:48.109Z</time></trkpt><trkpt lat="45.3401683" lon="10.82264"><ele>54.0</ele><time>2026-05-03T08:09:49.109Z</time></trkpt><trkpt lat="45.340245" lon="10.8227583"><ele>54.0</ele><time>2026-05-03T08:09:50.109Z</time></trkpt><trkpt lat="45.3403233" lon="10.8228833"><ele>54.0</ele><time>2026-05-03T08:09:51.108Z</time></trkpt><trkpt lat="45.3404" lon="10.82301"><ele>54.2</ele><time>2026-05-03T08:09:52.109Z</time></trkpt><trkpt lat="45.3404767" lon="10.8231367"><ele>54.400000000000006</ele><time>2026-05-03T08:09:53.109Z</time></trkpt><trkpt lat="45.34055" lon="10.8232617"><ele>54.6</ele><time>2026-05-03T08:09:54.109Z</time></trkpt><trkpt lat="45.3406217" lon="10.8233783"><ele>54.8</ele><time>2026-05-03T08:09:55.109Z</time></trkpt><trkpt lat="45.3406917" lon="10.8234883"><ele>55.0</ele><time>2026-05-03T08:09:56.109Z</time></trkpt><trkpt lat="45.3407517" lon="10.8235883"><ele>54.6</ele><time>2026-05-03T08:09:57.109Z</time></trkpt><trkpt lat="45.3408" lon="10.8236633"><ele>54.2</ele><time>2026-05-03T08:09:58.108Z</time></trkpt><trkpt lat="45.340865" lon="10.8238"><ele>53.8</ele><time>2026-05-03T08:10:00.109Z</time></trkpt><trkpt lat="45.3408633" lon="10.8239233"><ele>53.4</ele><time>2026-05-03T08:10:02.109Z</time></trkpt><trkpt lat="45.3407917" lon="10.824085"><ele>53.0</ele><time>2026-05-03T08:10:04.109Z</time></trkpt><trkpt lat="45.3407333" lon="10.8241833"><ele>53.0</ele><time>2026-05-03T08:10:05.109Z</time></trkpt><trkpt lat="45.3406683" lon="10.82429"><ele>53.0</ele><time>2026-05-03T08:10:06.108Z</time></trkpt><trkpt lat="45.3405983" lon="10.824415"><ele>53.0</ele><time>2026-05-03T08:10:07.108Z</time></trkpt><trkpt lat="45.3405317" lon="10.82455"><ele>53.0</ele><time>2026-05-03T08:10:08.108Z</time></trkpt><trkpt lat="45.340465" lon="10.8246933"><ele>53.0</ele><time>2026-05-03T08:10:09.109Z</time></trkpt><trkpt lat="45.340395" lon="10.8248467"><ele>53.0</ele><time>2026-05-03T08:10:10.109Z</time></trkpt><trkpt lat="45.34032" lon="10.8249917"><ele>53.0</ele><time>2026-05-03T08:10:11.108Z</time></trkpt><trkpt lat="45.3402417" lon="10.8251417"><ele>53.0</ele><time>2026-05-03T08:10:12.108Z</time></trkpt><trkpt lat="45.340175" lon="10.825285"><ele>53.0</ele><time>2026-05-03T08:10:13.108Z</time></trkpt><trkpt lat="45.34011" lon="10.82543"><ele>52.75</ele><time>2026-05-03T08:10:14.109Z</time></trkpt><trkpt lat="45.34004" lon="10.825575"><ele>52.5</ele><time>2026-05-03T08:10:15.108Z</time></trkpt><trkpt lat="45.339975" lon="10.825715"><ele>52.25</ele><time>2026-05-03T08:10:16.109Z</time></trkpt><trkpt lat="45.339915" lon="10.8258583"><ele>52.0</ele><time>2026-05-03T08:10:17.109Z</time></trkpt><trkpt lat="45.3398583" lon="10.8259967"><ele>51.5</ele><time>2026-05-03T08:10:18.109Z</time></trkpt><trkpt lat="45.3398033" lon="10.8261583"><ele>51.0</ele><time>2026-05-03T08:10:19.109Z</time></trkpt><trkpt lat="45.3397433" lon="10.8263317"><ele>50.5</ele><time>2026-05-03T08:10:20.109Z</time></trkpt><trkpt lat="45.3396833" lon="10.8265233"><ele>50.0</ele><time>2026-05-03T08:10:21.109Z</time></trkpt><trkpt lat="45.3396217" lon="10.8267167"><ele>50.75</ele><time>2026-05-03T08:10:22.109Z</time></trkpt><trkpt lat="45.3395633" lon="10.8269067"><ele>51.5</ele><time>2026-05-03T08:10:23.108Z</time></trkpt><trkpt lat="45.339505" lon="10.8270833"><ele>52.25</ele><time>2026-05-03T08:10:24.109Z</time></trkpt><trkpt lat="45.3394467" lon="10.8272533"><ele>53.0</ele><time>2026-05-03T08:10:25.109Z</time></trkpt><trkpt lat="45.3393883" lon="10.8274267"><ele>53.0</ele><time>2026-05-03T08:10:26.108Z</time></trkpt><trkpt lat="45.3393267" lon="10.8276067"><ele>53.0</ele><time>2026-05-03T08:10:27.109Z</time></trkpt><trkpt lat="45.3392633" lon="10.8277933"><ele>53.0</ele><time>2026-05-03T08:10:28.108Z</time></trkpt><trkpt lat="45.3392083" lon="10.8279883"><ele>53.0</ele><time>2026-05-03T08:10:29.109Z</time></trkpt><trkpt lat="45.3391467" lon="10.828195"><ele>53.0</ele><time>2026-05-03T08:10:30.109Z</time></trkpt><trkpt lat="45.3390767" lon="10.828405"><ele>53.0</ele><time>2026-05-03T08:10:31.109Z</time></trkpt><trkpt lat="45.338995" lon="10.8286083"><ele>53.0</ele><time>2026-05-03T08:10:32.109Z</time></trkpt><trkpt lat="45.3388983" lon="10.8288217"><ele>53.0</ele><time>2026-05-03T08:10:33.109Z</time></trkpt><trkpt lat="45.3387733" lon="10.829065"><ele>53.0</ele><time>2026-05-03T08:10:34.109Z</time></trkpt><trkpt lat="45.3386517" lon="10.8293183"><ele>53.0</ele><time>2026-05-03T08:10:35.109Z</time></trkpt><trkpt lat="45.3385333" lon="10.8295533"><ele>52.66666666666667</ele><time>2026-05-03T08:10:36.109Z</time></trkpt><trkpt lat="45.3384233" lon="10.8297717"><ele>52.33333333333333</ele><time>2026-05-03T08:10:37.109Z</time></trkpt><trkpt lat="45.338315" lon="10.8299733"><ele>52.0</ele><time>2026-05-03T08:10:38.109Z</time></trkpt><trkpt lat="45.3382083" lon="10.830175"><ele>52.0</ele><time>2026-05-03T08:10:39.109Z</time></trkpt><trkpt lat="45.3381083" lon="10.830365"><ele>52.0</ele><time>2026-05-03T08:10:40.109Z</time></trkpt><trkpt lat="45.3380167" lon="10.83054"><ele>52.0</ele><time>2026-05-03T08:10:41.109Z</time></trkpt><trkpt lat="45.337935" lon="10.830695"><ele>51.8</ele><time>2026-05-03T08:10:42.109Z</time></trkpt><trkpt lat="45.3378633" lon="10.8308317"><ele>51.6</ele><time>2026-05-03T08:10:43.108Z</time></trkpt><trkpt lat="45.3378017" lon="10.8309483"><ele>51.4</ele><time>2026-05-03T08:10:44.109Z</time></trkpt><trkpt lat="45.3377483" lon="10.8310483"><ele>51.199999999999996</ele><time>2026-05-03T08:10:45.109Z</time></trkpt><trkpt lat="45.337705" lon="10.8311333"><ele>51.0</ele><time>2026-05-03T08:10:46.108Z</time></trkpt><trkpt lat="45.3376767" lon="10.8312267"><ele>51.0</ele><time>2026-05-03T08:10:48.109Z</time></trkpt><trkpt lat="45.33772" lon="10.83135"><ele>51.0</ele><time>2026-05-03T08:11:04.109Z</time></trkpt><trkpt lat="45.3377733" lon="10.8314167"><ele>51.0</ele><time>2026-05-03T08:11:05.109Z</time></trkpt><trkpt lat="45.3378267" lon="10.8314833"><ele>51.0</ele><time>2026-05-03T08:11:06.109Z</time></trkpt><trkpt lat="45.3378767" lon="10.8315633"><ele>51.0</ele><time>2026-05-03T08:11:07.108Z</time></trkpt><trkpt lat="45.33793" lon="10.8316483"><ele>51.0</ele><time>2026-05-03T08:11:08.109Z</time></trkpt><trkpt lat="45.3379867" lon="10.8317417"><ele>50.4</ele><time>2026-05-03T08:11:09.109Z</time></trkpt><trkpt lat="45.3380483" lon="10.83184"><ele>49.8</ele><time>2026-05-03T08:11:10.109Z</time></trkpt><trkpt lat="45.3381067" lon="10.8319433"><ele>49.199999999999996</ele><time>2026-05-03T08:11:11.109Z</time></trkpt><trkpt lat="45.3381683" lon="10.8320583"><ele>48.599999999999994</ele><time>2026-05-03T08:11:12.109Z</time></trkpt><trkpt lat="45.33823" lon="10.8321683"><ele>48.0</ele><time>2026-05-03T08:11:13.108Z</time></trkpt><trkpt lat="45.33829" lon="10.832295"><ele>48.0</ele><time>2026-05-03T08:11:14.109Z</time></trkpt><trkpt lat="45.3383533" lon="10.8324183"><ele>48.0</ele><time>2026-05-03T08:11:15.109Z</time></trkpt><trkpt lat="45.3384167" lon="10.8325417"><ele>48.0</ele><time>2026-05-03T08:11:16.108Z</time></trkpt><trkpt lat="45.3384767" lon="10.8326633"><ele>48.0</ele><time>2026-05-03T08:11:17.109Z</time></trkpt><trkpt lat="45.3385417" lon="10.8327867"><ele>48.0</ele><time>2026-05-03T08:11:18.108Z</time></trkpt><trkpt lat="45.3386067" lon="10.8329217"><ele>48.2</ele><time>2026-05-03T08:11:19.109Z</time></trkpt><trkpt lat="45.3386567" lon="10.83305"><ele>48.4</ele><time>2026-05-03T08:11:20.109Z</time></trkpt><trkpt lat="45.3387183" lon="10.8331867"><ele>48.6</ele><time>2026-05-03T08:11:21.109Z</time></trkpt><trkpt lat="45.3387783" lon="10.8333133"><ele>48.800000000000004</ele><time>2026-05-03T08:11:22.108Z</time></trkpt><trkpt lat="45.338835" lon="10.8334467"><ele>49.0</ele><time>2026-05-03T08:11:23.109Z</time></trkpt><trkpt lat="45.33889" lon="10.8335833"><ele>49.0</ele><time>2026-05-03T08:11:24.109Z</time></trkpt><trkpt lat="45.3389483" lon="10.8337233"><ele>49.0</ele><time>2026-05-03T08:11:25.109Z</time></trkpt><trkpt lat="45.3390067" lon="10.8338617"><ele>49.0</ele><time>2026-05-03T08:11:26.109Z</time></trkpt><trkpt lat="45.3390633" lon="10.8340033"><ele>49.0</ele><time>2026-05-03T08:11:27.109Z</time></trkpt><trkpt lat="45.3391217" lon="10.8341483"><ele>49.0</ele><time>2026-05-03T08:11:28.109Z</time></trkpt><trkpt lat="45.3391883" lon="10.8342883"><ele>49.0</ele><time>2026-05-03T08:11:29.109Z</time></trkpt><trkpt lat="45.33925" lon="10.8344167"><ele>49.0</ele><time>2026-05-03T08:11:30.109Z</time></trkpt><trkpt lat="45.339305" lon="10.8345317"><ele>49.0</ele><time>2026-05-03T08:11:31.108Z</time></trkpt><trkpt lat="45.3393633" lon="10.83464"><ele>49.0</ele><time>2026-05-03T08:11:32.109Z</time></trkpt><trkpt lat="45.3394283" lon="10.8347667"><ele>49.2</ele><time>2026-05-03T08:11:33.108Z</time></trkpt><trkpt lat="45.3394933" lon="10.8348983"><ele>49.400000000000006</ele><time>2026-05-03T08:11:34.109Z</time></trkpt><trkpt lat="45.3395583" lon="10.8350283"><ele>49.6</ele><time>2026-05-03T08:11:35.109Z</time></trkpt><trkpt lat="45.33962" lon="10.8351467"><ele>49.8</ele><time>2026-05-03T08:11:36.109Z</time></trkpt><trkpt lat="45.3396767" lon="10.835255"><ele>50.0</ele><time>2026-05-03T08:11:37.109Z</time></trkpt><trkpt lat="45.3397267" lon="10.8353567"><ele>50.00000000000001</ele><time>2026-05-03T08:11:38.109Z</time></trkpt><trkpt lat="45.3397783" lon="10.83544"><ele>50.0</ele><time>2026-05-03T08:11:39.109Z</time></trkpt><trkpt lat="45.33983" lon="10.83553"><ele>50.0</ele><time>2026-05-03T08:11:40.109Z</time></trkpt><trkpt lat="45.3398833" lon="10.8356333"><ele>50.0</ele><time>2026-05-03T08:11:41.109Z</time></trkpt><trkpt lat="45.3399367" lon="10.835745"><ele>50.00000000000001</ele><time>2026-05-03T08:11:42.109Z</time></trkpt><trkpt lat="45.3399917" lon="10.8358517"><ele>50.0</ele><time>2026-05-03T08:11:43.109Z</time></trkpt><trkpt lat="45.3400433" lon="10.835945"><ele>50.0</ele><time>2026-05-03T08:11:44.109Z</time></trkpt><trkpt lat="45.3400867" lon="10.8360233"><ele>52.0</ele><time>2026-05-03T08:11:45.108Z</time></trkpt><trkpt lat="45.34015" lon="10.836155"><ele>52.0</ele><time>2026-05-03T08:11:47.109Z</time></trkpt><trkpt lat="45.340195" lon="10.8362317"><ele>52.0</ele><time>2026-05-03T08:11:49.109Z</time></trkpt></trkseg></trk></gpx>